<?xml version="1.0" encoding="UTF-8" standalone="no" ?><gpx xmlns="http://www.topografix.com/GPX/1/1" xmlns:gpxx="http://www.garmin.com/xmlschemas/GpxExtensions/v3" xmlns:wptx1="http://www.garmin.com/xmlschemas/WaypointExtension/v1" xmlns:gpxtpx="http://www.garmin.com/xmlschemas/TrackPointExtension/v1" creator="GuideVTT.com" version="1.1" xmlns:xsi="http://www.w3.org/2001/XMLSchema-instance" xsi:schemaLocation="http://www.topografix.com/GPX/1/1 http://www.topografix.com/GPX/1/1/gpx.xsd http://www.garmin.com/xmlschemas/GpxExtensions/v3 http://www8.garmin.com/xmlschemas/GpxExtensionsv3.xsd http://www.garmin.com/xmlschemas/WaypointExtension/v1 http://www8.garmin.com/xmlschemas/WaypointExtensionv1.xsd http://www.garmin.com/xmlschemas/TrackPointExtension/v1 http://www.garmin.com/xmlschemas/TrackPointExtensionv1.xsd">
<metadata><link href="http://www.garmin.com"><text>Garmin International</text></link><time>2013-06-22T15:13:50Z</time></metadata>
<trk><name>2024rp17.gpx</name><extensions><gpxx:TrackExtension><gpxx:DisplayColor>Cyan</gpxx:DisplayColor></gpxx:TrackExtension></extensions><trkseg>
<trkpt lat="46.20662" lon="7.43968"><ele>1514.2</ele><time>2024-08-02T10:44:04Z</time></trkpt>
<trkpt lat="46.20655" lon="7.43968"><ele>1514.2</ele><time>2024-08-02T10:44:07Z</time></trkpt>
<trkpt lat="46.20653" lon="7.43967"><ele>1514.2</ele><time>2024-08-02T10:44:13Z</time></trkpt>
<trkpt lat="46.20653" lon="7.43966"><ele>1514.2</ele><time>2024-08-02T10:44:18Z</time></trkpt>
<trkpt lat="46.20652" lon="7.43966"><ele>1514.2</ele><time>2024-08-02T10:44:21Z</time></trkpt>
<trkpt lat="46.20651" lon="7.43966"><ele>1516.2</ele><time>2024-08-02T10:44:23Z</time></trkpt>
<trkpt lat="46.20649" lon="7.43964"><ele>1517</ele><time>2024-08-02T10:44:29Z</time></trkpt>
<trkpt lat="46.20647" lon="7.43964"><ele>1517.2</ele><time>2024-08-02T10:44:30Z</time></trkpt>
<trkpt lat="46.20647" lon="7.43964"><ele>1517.4</ele><time>2024-08-02T10:44:32Z</time></trkpt>
<trkpt lat="46.20646" lon="7.43964"><ele>1517.6</ele><time>2024-08-02T10:44:33Z</time></trkpt>
<trkpt lat="46.20646" lon="7.43964"><ele>1517.6</ele><time>2024-08-02T10:44:34Z</time></trkpt>
<trkpt lat="46.20646" lon="7.43964"><ele>1517.8</ele><time>2024-08-02T10:44:35Z</time></trkpt>
<trkpt lat="46.20645" lon="7.43964"><ele>1518</ele><time>2024-08-02T10:44:37Z</time></trkpt>
<trkpt lat="46.20644" lon="7.43962"><ele>1518.2</ele><time>2024-08-02T10:44:39Z</time></trkpt>
<trkpt lat="46.20639" lon="7.43959"><ele>1519.2</ele><time>2024-08-02T10:44:47Z</time></trkpt>
<trkpt lat="46.20638" lon="7.4396"><ele>1520</ele><time>2024-08-02T10:44:53Z</time></trkpt>
<trkpt lat="46.20639" lon="7.43961"><ele>1520.4</ele><time>2024-08-02T10:44:56Z</time></trkpt>
<trkpt lat="46.20638" lon="7.43961"><ele>1520.8</ele><time>2024-08-02T10:44:59Z</time></trkpt>
<trkpt lat="46.20637" lon="7.4396"><ele>1521</ele><time>2024-08-02T10:45:02Z</time></trkpt>
<trkpt lat="46.20636" lon="7.43958"><ele>1521.4</ele><time>2024-08-02T10:45:05Z</time></trkpt>
<trkpt lat="46.20633" lon="7.43956"><ele>1522</ele><time>2024-08-02T10:45:10Z</time></trkpt>
<trkpt lat="46.20633" lon="7.43956"><ele>1522.4</ele><time>2024-08-02T10:45:15Z</time></trkpt>
<trkpt lat="46.20632" lon="7.43956"><ele>1523</ele><time>2024-08-02T10:45:18Z</time></trkpt>
<trkpt lat="46.20629" lon="7.43956"><ele>1523.6</ele><time>2024-08-02T10:45:22Z</time></trkpt>
<trkpt lat="46.20626" lon="7.43955"><ele>1524.2</ele><time>2024-08-02T10:45:28Z</time></trkpt>
<trkpt lat="46.20625" lon="7.43955"><ele>1524.6</ele><time>2024-08-02T10:45:31Z</time></trkpt>
<trkpt lat="46.20623" lon="7.43955"><ele>1525.4</ele><time>2024-08-02T10:45:36Z</time></trkpt>
<trkpt lat="46.2062" lon="7.43956"><ele>1525.6</ele><time>2024-08-02T10:45:41Z</time></trkpt>
<trkpt lat="46.20619" lon="7.43957"><ele>1526</ele><time>2024-08-02T10:45:43Z</time></trkpt>
<trkpt lat="46.20617" lon="7.43956"><ele>1526.6</ele><time>2024-08-02T10:45:47Z</time></trkpt>
<trkpt lat="46.20616" lon="7.43955"><ele>1527.4</ele><time>2024-08-02T10:45:52Z</time></trkpt>
<trkpt lat="46.20615" lon="7.43955"><ele>1527.6</ele><time>2024-08-02T10:45:55Z</time></trkpt>
<trkpt lat="46.20611" lon="7.43955"><ele>1528.4</ele><time>2024-08-02T10:46:01Z</time></trkpt>
<trkpt lat="46.20608" lon="7.43955"><ele>1528.8</ele><time>2024-08-02T10:46:06Z</time></trkpt>
<trkpt lat="46.20605" lon="7.43956"><ele>1529.2</ele><time>2024-08-02T10:46:10Z</time></trkpt>
<trkpt lat="46.20603" lon="7.43958"><ele>1529.8</ele><time>2024-08-02T10:46:18Z</time></trkpt>
<trkpt lat="46.20599" lon="7.43959"><ele>1531</ele><time>2024-08-02T10:46:26Z</time></trkpt>
<trkpt lat="46.20598" lon="7.4396"><ele>1531.2</ele><time>2024-08-02T10:46:28Z</time></trkpt>
<trkpt lat="46.20592" lon="7.43962"><ele>1532</ele><time>2024-08-02T10:46:36Z</time></trkpt>
<trkpt lat="46.20592" lon="7.43962"><ele>1532.2</ele><time>2024-08-02T10:46:37Z</time></trkpt>
<trkpt lat="46.20589" lon="7.43962"><ele>1532.6</ele><time>2024-08-02T10:46:43Z</time></trkpt>
<trkpt lat="46.20587" lon="7.43962"><ele>1533.2</ele><time>2024-08-02T10:46:48Z</time></trkpt>
<trkpt lat="46.20587" lon="7.43963"><ele>1533.4</ele><time>2024-08-02T10:46:53Z</time></trkpt>
<trkpt lat="46.20586" lon="7.43964"><ele>1534.2</ele><time>2024-08-02T10:46:57Z</time></trkpt>
<trkpt lat="46.20582" lon="7.43965"><ele>1534.8</ele><time>2024-08-02T10:47:03Z</time></trkpt>
<trkpt lat="46.20581" lon="7.43965"><ele>1535.2</ele><time>2024-08-02T10:47:06Z</time></trkpt>
<trkpt lat="46.20579" lon="7.43966"><ele>1535.8</ele><time>2024-08-02T10:47:11Z</time></trkpt>
<trkpt lat="46.20578" lon="7.43966"><ele>1536.4</ele><time>2024-08-02T10:47:16Z</time></trkpt>
<trkpt lat="46.20577" lon="7.43966"><ele>1536.6</ele><time>2024-08-02T10:47:20Z</time></trkpt>
<trkpt lat="46.20574" lon="7.4397"><ele>1537.4</ele><time>2024-08-02T10:47:26Z</time></trkpt>
<trkpt lat="46.20573" lon="7.4397"><ele>1537.6</ele><time>2024-08-02T10:47:28Z</time></trkpt>
<trkpt lat="46.20572" lon="7.43972"><ele>1538.4</ele><time>2024-08-02T10:47:34Z</time></trkpt>
<trkpt lat="46.20571" lon="7.43972"><ele>1539</ele><time>2024-08-02T10:47:38Z</time></trkpt>
<trkpt lat="46.20569" lon="7.43972"><ele>1539.4</ele><time>2024-08-02T10:47:44Z</time></trkpt>
<trkpt lat="46.20568" lon="7.43973"><ele>1539.6</ele><time>2024-08-02T10:47:46Z</time></trkpt>
<trkpt lat="46.20567" lon="7.43976"><ele>1540.6</ele><time>2024-08-02T10:47:52Z</time></trkpt>
<trkpt lat="46.20567" lon="7.43977"><ele>1541</ele><time>2024-08-02T10:47:55Z</time></trkpt>
<trkpt lat="46.20564" lon="7.43979"><ele>1541.8</ele><time>2024-08-02T10:48:01Z</time></trkpt>
<trkpt lat="46.20563" lon="7.4398"><ele>1542.2</ele><time>2024-08-02T10:48:04Z</time></trkpt>
<trkpt lat="46.20561" lon="7.43981"><ele>1542.8</ele><time>2024-08-02T10:48:09Z</time></trkpt>
<trkpt lat="46.2056" lon="7.43983"><ele>1543.2</ele><time>2024-08-02T10:48:13Z</time></trkpt>
<trkpt lat="46.2056" lon="7.43984"><ele>1543.8</ele><time>2024-08-02T10:48:18Z</time></trkpt>
<trkpt lat="46.20559" lon="7.43985"><ele>1544.4</ele><time>2024-08-02T10:48:21Z</time></trkpt>
<trkpt lat="46.2056" lon="7.43987"><ele>1544.8</ele><time>2024-08-02T10:48:26Z</time></trkpt>
<trkpt lat="46.20562" lon="7.43986"><ele>1545.6</ele><time>2024-08-02T10:48:31Z</time></trkpt>
<trkpt lat="46.20562" lon="7.43987"><ele>1545.8</ele><time>2024-08-02T10:48:33Z</time></trkpt>
<trkpt lat="46.20565" lon="7.43993"><ele>1546.8</ele><time>2024-08-02T10:48:40Z</time></trkpt>
<trkpt lat="46.20565" lon="7.43994"><ele>1547</ele><time>2024-08-02T10:48:41Z</time></trkpt>
<trkpt lat="46.20566" lon="7.43997"><ele>1548</ele><time>2024-08-02T10:48:49Z</time></trkpt>
<trkpt lat="46.20567" lon="7.44"><ele>1549</ele><time>2024-08-02T10:48:57Z</time></trkpt>
<trkpt lat="46.20568" lon="7.44001"><ele>1549.2</ele><time>2024-08-02T10:48:58Z</time></trkpt>
<trkpt lat="46.2057" lon="7.44006"><ele>1550</ele><time>2024-08-02T10:49:06Z</time></trkpt>
<trkpt lat="46.2057" lon="7.44007"><ele>1550.2</ele><time>2024-08-02T10:49:07Z</time></trkpt>
<trkpt lat="46.2057" lon="7.4401"><ele>1551</ele><time>2024-08-02T10:49:14Z</time></trkpt>
<trkpt lat="46.20571" lon="7.44011"><ele>1551.2</ele><time>2024-08-02T10:49:16Z</time></trkpt>
<trkpt lat="46.20572" lon="7.44016"><ele>1552</ele><time>2024-08-02T10:49:22Z</time></trkpt>
<trkpt lat="46.20573" lon="7.44017"><ele>1552.2</ele><time>2024-08-02T10:49:24Z</time></trkpt>
<trkpt lat="46.20574" lon="7.4402"><ele>1553</ele><time>2024-08-02T10:49:30Z</time></trkpt>
<trkpt lat="46.20574" lon="7.4402"><ele>1553</ele><time>2024-08-02T10:49:31Z</time></trkpt>
<trkpt lat="46.20575" lon="7.44021"><ele>1553.2</ele><time>2024-08-02T10:49:34Z</time></trkpt>
<trkpt lat="46.20575" lon="7.44024"><ele>1554</ele><time>2024-08-02T10:49:38Z</time></trkpt>
<trkpt lat="46.20577" lon="7.44027"><ele>1554.4</ele><time>2024-08-02T10:49:43Z</time></trkpt>
<trkpt lat="46.20577" lon="7.4403"><ele>1555.2</ele><time>2024-08-02T10:49:47Z</time></trkpt>
<trkpt lat="46.20577" lon="7.44031"><ele>1555.4</ele><time>2024-08-02T10:49:49Z</time></trkpt>
<trkpt lat="46.20576" lon="7.44032"><ele>1555.8</ele><time>2024-08-02T10:49:53Z</time></trkpt>
<trkpt lat="46.20574" lon="7.44035"><ele>1556.6</ele><time>2024-08-02T10:49:57Z</time></trkpt>
<trkpt lat="46.20571" lon="7.44038"><ele>1556.8</ele><time>2024-08-02T10:50:02Z</time></trkpt>
<trkpt lat="46.20569" lon="7.44036"><ele>1556.8</ele><time>2024-08-02T10:50:05Z</time></trkpt>
<trkpt lat="46.20569" lon="7.44035"><ele>1556.8</ele><time>2024-08-02T10:50:06Z</time></trkpt>
<trkpt lat="46.20568" lon="7.44028"><ele>1557</ele><time>2024-08-02T10:50:11Z</time></trkpt>
<trkpt lat="46.20567" lon="7.44028"><ele>1557</ele><time>2024-08-02T10:50:12Z</time></trkpt>
<trkpt lat="46.20558" lon="7.44026"><ele>1557.6</ele><time>2024-08-02T10:50:17Z</time></trkpt>
<trkpt lat="46.20556" lon="7.44026"><ele>1557.6</ele><time>2024-08-02T10:50:18Z</time></trkpt>
<trkpt lat="46.20548" lon="7.44024"><ele>1558.2</ele><time>2024-08-02T10:50:23Z</time></trkpt>
<trkpt lat="46.20544" lon="7.44023"><ele>1558.8</ele><time>2024-08-02T10:50:26Z</time></trkpt>
<trkpt lat="46.20539" lon="7.4402"><ele>1559.2</ele><time>2024-08-02T10:50:30Z</time></trkpt>
<trkpt lat="46.20532" lon="7.44012"><ele>1559.8</ele><time>2024-08-02T10:50:37Z</time></trkpt>
<trkpt lat="46.20531" lon="7.44011"><ele>1559.8</ele><time>2024-08-02T10:50:38Z</time></trkpt>
<trkpt lat="46.20522" lon="7.44004"><ele>1560.8</ele><time>2024-08-02T10:50:46Z</time></trkpt>
<trkpt lat="46.20521" lon="7.44003"><ele>1561</ele><time>2024-08-02T10:50:47Z</time></trkpt>
<trkpt lat="46.20518" lon="7.44002"><ele>1561.2</ele><time>2024-08-02T10:50:49Z</time></trkpt>
<trkpt lat="46.20516" lon="7.44"><ele>1561.2</ele><time>2024-08-02T10:50:51Z</time></trkpt>
<trkpt lat="46.20509" lon="7.43995"><ele>1561.8</ele><time>2024-08-02T10:50:56Z</time></trkpt>
<trkpt lat="46.20506" lon="7.43993"><ele>1562.2</ele><time>2024-08-02T10:50:58Z</time></trkpt>
<trkpt lat="46.20501" lon="7.43991"><ele>1562.4</ele><time>2024-08-02T10:51:01Z</time></trkpt>
<trkpt lat="46.20494" lon="7.43989"><ele>1563</ele><time>2024-08-02T10:51:06Z</time></trkpt>
<trkpt lat="46.20493" lon="7.43988"><ele>1563</ele><time>2024-08-02T10:51:07Z</time></trkpt>
<trkpt lat="46.20486" lon="7.43984"><ele>1563.4</ele><time>2024-08-02T10:51:12Z</time></trkpt>
<trkpt lat="46.20476" lon="7.43979"><ele>1564</ele><time>2024-08-02T10:51:18Z</time></trkpt>
<trkpt lat="46.20472" lon="7.43976"><ele>1564.2</ele><time>2024-08-02T10:51:21Z</time></trkpt>
<trkpt lat="46.20471" lon="7.43975"><ele>1564.2</ele><time>2024-08-02T10:51:22Z</time></trkpt>
<trkpt lat="46.20461" lon="7.43969"><ele>1565</ele><time>2024-08-02T10:51:29Z</time></trkpt>
<trkpt lat="46.20458" lon="7.43967"><ele>1565.2</ele><time>2024-08-02T10:51:31Z</time></trkpt>
<trkpt lat="46.20447" lon="7.43957"><ele>1566</ele><time>2024-08-02T10:51:41Z</time></trkpt>
<trkpt lat="46.2044" lon="7.4396"><ele>1566.6</ele><time>2024-08-02T10:51:46Z</time></trkpt>
<trkpt lat="46.20439" lon="7.43964"><ele>1566.6</ele><time>2024-08-02T10:51:48Z</time></trkpt>
<trkpt lat="46.20439" lon="7.43972"><ele>1567.2</ele><time>2024-08-02T10:51:52Z</time></trkpt>
<trkpt lat="46.2044" lon="7.43976"><ele>1567.4</ele><time>2024-08-02T10:51:54Z</time></trkpt>
<trkpt lat="46.2045" lon="7.43986"><ele>1568.2</ele><time>2024-08-02T10:52:02Z</time></trkpt>
<trkpt lat="46.20451" lon="7.43987"><ele>1568.2</ele><time>2024-08-02T10:52:03Z</time></trkpt>
<trkpt lat="46.20459" lon="7.43995"><ele>1569.2</ele><time>2024-08-02T10:52:10Z</time></trkpt>
<trkpt lat="46.20461" lon="7.43996"><ele>1569.4</ele><time>2024-08-02T10:52:12Z</time></trkpt>
<trkpt lat="46.20466" lon="7.44001"><ele>1569.8</ele><time>2024-08-02T10:52:16Z</time></trkpt>
<trkpt lat="46.2047" lon="7.44005"><ele>1570.4</ele><time>2024-08-02T10:52:20Z</time></trkpt>
<trkpt lat="46.20474" lon="7.4401"><ele>1570.8</ele><time>2024-08-02T10:52:24Z</time></trkpt>
<trkpt lat="46.20477" lon="7.44013"><ele>1571.4</ele><time>2024-08-02T10:52:28Z</time></trkpt>
<trkpt lat="46.20478" lon="7.44015"><ele>1571.6</ele><time>2024-08-02T10:52:29Z</time></trkpt>
<trkpt lat="46.20482" lon="7.44019"><ele>1572</ele><time>2024-08-02T10:52:33Z</time></trkpt>
<trkpt lat="46.20487" lon="7.44023"><ele>1572.6</ele><time>2024-08-02T10:52:38Z</time></trkpt>
<trkpt lat="46.2049" lon="7.44027"><ele>1573.2</ele><time>2024-08-02T10:52:42Z</time></trkpt>
<trkpt lat="46.20495" lon="7.44031"><ele>1573.6</ele><time>2024-08-02T10:52:46Z</time></trkpt>
<trkpt lat="46.20499" lon="7.44034"><ele>1573.8</ele><time>2024-08-02T10:52:49Z</time></trkpt>
<trkpt lat="46.205" lon="7.44034"><ele>1574</ele><time>2024-08-02T10:52:50Z</time></trkpt>
<trkpt lat="46.20504" lon="7.44037"><ele>1574.6</ele><time>2024-08-02T10:52:54Z</time></trkpt>
<trkpt lat="46.20507" lon="7.44041"><ele>1575</ele><time>2024-08-02T10:52:57Z</time></trkpt>
<trkpt lat="46.20509" lon="7.44044"><ele>1575.4</ele><time>2024-08-02T10:52:59Z</time></trkpt>
<trkpt lat="46.20512" lon="7.44047"><ele>1575.6</ele><time>2024-08-02T10:53:02Z</time></trkpt>
<trkpt lat="46.20514" lon="7.44049"><ele>1575.8</ele><time>2024-08-02T10:53:04Z</time></trkpt>
<trkpt lat="46.20521" lon="7.44058"><ele>1576.8</ele><time>2024-08-02T10:53:11Z</time></trkpt>
<trkpt lat="46.20523" lon="7.44059"><ele>1577</ele><time>2024-08-02T10:53:13Z</time></trkpt>
<trkpt lat="46.2053" lon="7.44066"><ele>1578</ele><time>2024-08-02T10:53:20Z</time></trkpt>
<trkpt lat="46.20532" lon="7.44068"><ele>1578.2</ele><time>2024-08-02T10:53:22Z</time></trkpt>
<trkpt lat="46.20537" lon="7.44075"><ele>1579</ele><time>2024-08-02T10:53:28Z</time></trkpt>
<trkpt lat="46.2054" lon="7.44077"><ele>1579.2</ele><time>2024-08-02T10:53:30Z</time></trkpt>
<trkpt lat="46.20546" lon="7.44086"><ele>1580</ele><time>2024-08-02T10:53:37Z</time></trkpt>
<trkpt lat="46.20547" lon="7.44089"><ele>1580.2</ele><time>2024-08-02T10:53:39Z</time></trkpt>
<trkpt lat="46.20553" lon="7.44098"><ele>1581</ele><time>2024-08-02T10:53:46Z</time></trkpt>
<trkpt lat="46.20554" lon="7.441"><ele>1581.2</ele><time>2024-08-02T10:53:47Z</time></trkpt>
<trkpt lat="46.20555" lon="7.44102"><ele>1581.4</ele><time>2024-08-02T10:53:48Z</time></trkpt>
<trkpt lat="46.20557" lon="7.44105"><ele>1581.6</ele><time>2024-08-02T10:53:50Z</time></trkpt>
<trkpt lat="46.20558" lon="7.44106"><ele>1581.6</ele><time>2024-08-02T10:53:51Z</time></trkpt>
<trkpt lat="46.20559" lon="7.44107"><ele>1581.8</ele><time>2024-08-02T10:53:52Z</time></trkpt>
<trkpt lat="46.2056" lon="7.44109"><ele>1582</ele><time>2024-08-02T10:53:53Z</time></trkpt>
<trkpt lat="46.20562" lon="7.44111"><ele>1582.2</ele><time>2024-08-02T10:53:55Z</time></trkpt>
<trkpt lat="46.20562" lon="7.44112"><ele>1582.2</ele><time>2024-08-02T10:53:56Z</time></trkpt>
<trkpt lat="46.20565" lon="7.44124"><ele>1583</ele><time>2024-08-02T10:54:02Z</time></trkpt>
<trkpt lat="46.20566" lon="7.44126"><ele>1583</ele><time>2024-08-02T10:54:03Z</time></trkpt>
<trkpt lat="46.20567" lon="7.44129"><ele>1583.2</ele><time>2024-08-02T10:54:05Z</time></trkpt>
<trkpt lat="46.20571" lon="7.44142"><ele>1584.2</ele><time>2024-08-02T10:54:13Z</time></trkpt>
<trkpt lat="46.20572" lon="7.44143"><ele>1584.4</ele><time>2024-08-02T10:54:14Z</time></trkpt>
<trkpt lat="46.20573" lon="7.44151"><ele>1584.8</ele><time>2024-08-02T10:54:18Z</time></trkpt>
<trkpt lat="46.20574" lon="7.44156"><ele>1585.2</ele><time>2024-08-02T10:54:21Z</time></trkpt>
<trkpt lat="46.20574" lon="7.44158"><ele>1585.4</ele><time>2024-08-02T10:54:23Z</time></trkpt>
<trkpt lat="46.20578" lon="7.44172"><ele>1586.2</ele><time>2024-08-02T10:54:30Z</time></trkpt>
<trkpt lat="46.20578" lon="7.44174"><ele>1586.4</ele><time>2024-08-02T10:54:31Z</time></trkpt>
<trkpt lat="46.20579" lon="7.44185"><ele>1587.4</ele><time>2024-08-02T10:54:38Z</time></trkpt>
<trkpt lat="46.20579" lon="7.44189"><ele>1587.6</ele><time>2024-08-02T10:54:40Z</time></trkpt>
<trkpt lat="46.20579" lon="7.442"><ele>1588.4</ele><time>2024-08-02T10:54:46Z</time></trkpt>
<trkpt lat="46.2058" lon="7.44205"><ele>1588.8</ele><time>2024-08-02T10:54:49Z</time></trkpt>
<trkpt lat="46.2058" lon="7.44217"><ele>1589.4</ele><time>2024-08-02T10:54:55Z</time></trkpt>
<trkpt lat="46.20581" lon="7.44222"><ele>1589.8</ele><time>2024-08-02T10:54:58Z</time></trkpt>
<trkpt lat="46.20581" lon="7.44228"><ele>1590.2</ele><time>2024-08-02T10:55:01Z</time></trkpt>
<trkpt lat="46.20582" lon="7.44233"><ele>1590.6</ele><time>2024-08-02T10:55:04Z</time></trkpt>
<trkpt lat="46.20583" lon="7.44237"><ele>1590.8</ele><time>2024-08-02T10:55:06Z</time></trkpt>
<trkpt lat="46.20584" lon="7.44247"><ele>1591.4</ele><time>2024-08-02T10:55:11Z</time></trkpt>
<trkpt lat="46.20585" lon="7.44249"><ele>1591.6</ele><time>2024-08-02T10:55:12Z</time></trkpt>
<trkpt lat="46.20585" lon="7.44254"><ele>1592</ele><time>2024-08-02T10:55:15Z</time></trkpt>
<trkpt lat="46.20586" lon="7.44262"><ele>1592.6</ele><time>2024-08-02T10:55:20Z</time></trkpt>
<trkpt lat="46.20588" lon="7.44271"><ele>1593.2</ele><time>2024-08-02T10:55:25Z</time></trkpt>
<trkpt lat="46.2059" lon="7.44275"><ele>1593.6</ele><time>2024-08-02T10:55:28Z</time></trkpt>
<trkpt lat="46.20593" lon="7.44283"><ele>1594.2</ele><time>2024-08-02T10:55:33Z</time></trkpt>
<trkpt lat="46.20596" lon="7.44289"><ele>1594.6</ele><time>2024-08-02T10:55:37Z</time></trkpt>
<trkpt lat="46.20598" lon="7.44295"><ele>1595.2</ele><time>2024-08-02T10:55:41Z</time></trkpt>
<trkpt lat="46.20603" lon="7.44305"><ele>1596</ele><time>2024-08-02T10:55:48Z</time></trkpt>
<trkpt lat="46.20603" lon="7.44307"><ele>1596.2</ele><time>2024-08-02T10:55:49Z</time></trkpt>
<trkpt lat="46.20607" lon="7.44313"><ele>1596.8</ele><time>2024-08-02T10:55:54Z</time></trkpt>
<trkpt lat="46.2061" lon="7.44319"><ele>1597.2</ele><time>2024-08-02T10:55:58Z</time></trkpt>
<trkpt lat="46.20612" lon="7.44324"><ele>1597.8</ele><time>2024-08-02T10:56:02Z</time></trkpt>
<trkpt lat="46.20614" lon="7.44326"><ele>1597.8</ele><time>2024-08-02T10:56:04Z</time></trkpt>
<trkpt lat="46.2062" lon="7.44333"><ele>1598.6</ele><time>2024-08-02T10:56:10Z</time></trkpt>
<trkpt lat="46.20621" lon="7.44335"><ele>1598.8</ele><time>2024-08-02T10:56:12Z</time></trkpt>
<trkpt lat="46.20626" lon="7.44339"><ele>1599.8</ele><time>2024-08-02T10:56:18Z</time></trkpt>
<trkpt lat="46.20628" lon="7.4434"><ele>1599.8</ele><time>2024-08-02T10:56:19Z</time></trkpt>
<trkpt lat="46.20632" lon="7.44342"><ele>1600.4</ele><time>2024-08-02T10:56:22Z</time></trkpt>
<trkpt lat="46.20633" lon="7.44343"><ele>1600.4</ele><time>2024-08-02T10:56:23Z</time></trkpt>
<trkpt lat="46.20636" lon="7.44345"><ele>1600.8</ele><time>2024-08-02T10:56:26Z</time></trkpt>
<trkpt lat="46.20637" lon="7.44345"><ele>1601</ele><time>2024-08-02T10:56:27Z</time></trkpt>
<trkpt lat="46.20639" lon="7.44346"><ele>1601.2</ele><time>2024-08-02T10:56:29Z</time></trkpt>
<trkpt lat="46.20644" lon="7.44349"><ele>1602</ele><time>2024-08-02T10:56:34Z</time></trkpt>
<trkpt lat="46.20645" lon="7.4435"><ele>1602</ele><time>2024-08-02T10:56:35Z</time></trkpt>
<trkpt lat="46.20653" lon="7.44355"><ele>1603</ele><time>2024-08-02T10:56:42Z</time></trkpt>
<trkpt lat="46.20655" lon="7.44358"><ele>1603.6</ele><time>2024-08-02T10:56:44Z</time></trkpt>
<trkpt lat="46.20658" lon="7.4436"><ele>1604</ele><time>2024-08-02T10:56:47Z</time></trkpt>
<trkpt lat="46.2066" lon="7.44361"><ele>1604.2</ele><time>2024-08-02T10:56:48Z</time></trkpt>
<trkpt lat="46.20666" lon="7.44366"><ele>1605</ele><time>2024-08-02T10:56:53Z</time></trkpt>
<trkpt lat="46.20668" lon="7.44369"><ele>1605.2</ele><time>2024-08-02T10:56:55Z</time></trkpt>
<trkpt lat="46.20671" lon="7.44371"><ele>1605.4</ele><time>2024-08-02T10:56:57Z</time></trkpt>
<trkpt lat="46.20672" lon="7.44373"><ele>1605.6</ele><time>2024-08-02T10:56:58Z</time></trkpt>
<trkpt lat="46.20673" lon="7.44375"><ele>1605.8</ele><time>2024-08-02T10:56:59Z</time></trkpt>
<trkpt lat="46.20674" lon="7.44376"><ele>1605.8</ele><time>2024-08-02T10:57:00Z</time></trkpt>
<trkpt lat="46.20677" lon="7.44379"><ele>1606.2</ele><time>2024-08-02T10:57:02Z</time></trkpt>
<trkpt lat="46.20687" lon="7.44389"><ele>1607.2</ele><time>2024-08-02T10:57:10Z</time></trkpt>
<trkpt lat="46.20688" lon="7.44391"><ele>1607.4</ele><time>2024-08-02T10:57:11Z</time></trkpt>
<trkpt lat="46.20694" lon="7.44397"><ele>1608.2</ele><time>2024-08-02T10:57:17Z</time></trkpt>
<trkpt lat="46.20697" lon="7.44401"><ele>1608.4</ele><time>2024-08-02T10:57:20Z</time></trkpt>
<trkpt lat="46.20701" lon="7.44407"><ele>1608.8</ele><time>2024-08-02T10:57:24Z</time></trkpt>
<trkpt lat="46.20705" lon="7.44412"><ele>1609.4</ele><time>2024-08-02T10:57:28Z</time></trkpt>
<trkpt lat="46.2071" lon="7.4442"><ele>1610</ele><time>2024-08-02T10:57:33Z</time></trkpt>
<trkpt lat="46.20713" lon="7.44423"><ele>1610.6</ele><time>2024-08-02T10:57:36Z</time></trkpt>
<trkpt lat="46.20717" lon="7.44432"><ele>1611.2</ele><time>2024-08-02T10:57:42Z</time></trkpt>
<trkpt lat="46.20718" lon="7.44435"><ele>1611.6</ele><time>2024-08-02T10:57:44Z</time></trkpt>
<trkpt lat="46.20719" lon="7.44439"><ele>1611.8</ele><time>2024-08-02T10:57:46Z</time></trkpt>
<trkpt lat="46.20723" lon="7.44448"><ele>1612.6</ele><time>2024-08-02T10:57:52Z</time></trkpt>
<trkpt lat="46.20725" lon="7.44454"><ele>1613</ele><time>2024-08-02T10:57:56Z</time></trkpt>
<trkpt lat="46.20725" lon="7.44456"><ele>1613.2</ele><time>2024-08-02T10:57:57Z</time></trkpt>
<trkpt lat="46.20729" lon="7.4446"><ele>1613.6</ele><time>2024-08-02T10:58:00Z</time></trkpt>
<trkpt lat="46.2073" lon="7.44463"><ele>1613.6</ele><time>2024-08-02T10:58:02Z</time></trkpt>
<trkpt lat="46.20735" lon="7.4447"><ele>1614.4</ele><time>2024-08-02T10:58:08Z</time></trkpt>
<trkpt lat="46.20738" lon="7.44476"><ele>1614.8</ele><time>2024-08-02T10:58:11Z</time></trkpt>
<trkpt lat="46.20738" lon="7.44477"><ele>1615</ele><time>2024-08-02T10:58:12Z</time></trkpt>
<trkpt lat="46.20736" lon="7.4448"><ele>1615.2</ele><time>2024-08-02T10:58:14Z</time></trkpt>
<trkpt lat="46.20732" lon="7.44482"><ele>1615.8</ele><time>2024-08-02T10:58:17Z</time></trkpt>
<trkpt lat="46.2073" lon="7.4448"><ele>1615.8</ele><time>2024-08-02T10:58:19Z</time></trkpt>
<trkpt lat="46.2072" lon="7.4447"><ele>1616.8</ele><time>2024-08-02T10:58:27Z</time></trkpt>
<trkpt lat="46.20719" lon="7.44469"><ele>1617</ele><time>2024-08-02T10:58:28Z</time></trkpt>
<trkpt lat="46.20713" lon="7.44462"><ele>1617.8</ele><time>2024-08-02T10:58:34Z</time></trkpt>
<trkpt lat="46.20711" lon="7.44459"><ele>1618.2</ele><time>2024-08-02T10:58:36Z</time></trkpt>
<trkpt lat="46.20702" lon="7.44453"><ele>1618.8</ele><time>2024-08-02T10:58:42Z</time></trkpt>
<trkpt lat="46.207" lon="7.44452"><ele>1619.2</ele><time>2024-08-02T10:58:44Z</time></trkpt>
<trkpt lat="46.20694" lon="7.44449"><ele>1620.2</ele><time>2024-08-02T10:58:50Z</time></trkpt>
<trkpt lat="46.20692" lon="7.44448"><ele>1620.4</ele><time>2024-08-02T10:58:52Z</time></trkpt>
<trkpt lat="46.20684" lon="7.44447"><ele>1621.2</ele><time>2024-08-02T10:58:57Z</time></trkpt>
<trkpt lat="46.20682" lon="7.44446"><ele>1621.4</ele><time>2024-08-02T10:58:59Z</time></trkpt>
<trkpt lat="46.20674" lon="7.44444"><ele>1622.2</ele><time>2024-08-02T10:59:05Z</time></trkpt>
<trkpt lat="46.20672" lon="7.44443"><ele>1622.8</ele><time>2024-08-02T10:59:07Z</time></trkpt>
<trkpt lat="46.20666" lon="7.44442"><ele>1623.4</ele><time>2024-08-02T10:59:12Z</time></trkpt>
<trkpt lat="46.20662" lon="7.44442"><ele>1623.8</ele><time>2024-08-02T10:59:15Z</time></trkpt>
<trkpt lat="46.20657" lon="7.44443"><ele>1624.4</ele><time>2024-08-02T10:59:19Z</time></trkpt>
<trkpt lat="46.20651" lon="7.44443"><ele>1625</ele><time>2024-08-02T10:59:24Z</time></trkpt>
<trkpt lat="46.20643" lon="7.44441"><ele>1625.6</ele><time>2024-08-02T10:59:30Z</time></trkpt>
<trkpt lat="46.20639" lon="7.44442"><ele>1626</ele><time>2024-08-02T10:59:33Z</time></trkpt>
<trkpt lat="46.20634" lon="7.44443"><ele>1626.8</ele><time>2024-08-02T10:59:37Z</time></trkpt>
<trkpt lat="46.20627" lon="7.44446"><ele>1627.6</ele><time>2024-08-02T10:59:43Z</time></trkpt>
<trkpt lat="46.20625" lon="7.44446"><ele>1628</ele><time>2024-08-02T10:59:45Z</time></trkpt>
<trkpt lat="46.20619" lon="7.44447"><ele>1628.8</ele><time>2024-08-02T10:59:50Z</time></trkpt>
<trkpt lat="46.20616" lon="7.44448"><ele>1629</ele><time>2024-08-02T10:59:53Z</time></trkpt>
<trkpt lat="46.20608" lon="7.4445"><ele>1630.2</ele><time>2024-08-02T10:59:59Z</time></trkpt>
<trkpt lat="46.20607" lon="7.44451"><ele>1630.2</ele><time>2024-08-02T11:00:00Z</time></trkpt>
<trkpt lat="46.20596" lon="7.44452"><ele>1631.2</ele><time>2024-08-02T11:00:07Z</time></trkpt>
<trkpt lat="46.20592" lon="7.44452"><ele>1631.8</ele><time>2024-08-02T11:00:10Z</time></trkpt>
<trkpt lat="46.20587" lon="7.44452"><ele>1632.4</ele><time>2024-08-02T11:00:14Z</time></trkpt>
<trkpt lat="46.20582" lon="7.44453"><ele>1633</ele><time>2024-08-02T11:00:18Z</time></trkpt>
<trkpt lat="46.20578" lon="7.44452"><ele>1633.4</ele><time>2024-08-02T11:00:21Z</time></trkpt>
<trkpt lat="46.2057" lon="7.44452"><ele>1634.2</ele><time>2024-08-02T11:00:26Z</time></trkpt>
<trkpt lat="46.20568" lon="7.44452"><ele>1634.4</ele><time>2024-08-02T11:00:27Z</time></trkpt>
<trkpt lat="46.20567" lon="7.44452"><ele>1634.4</ele><time>2024-08-02T11:00:28Z</time></trkpt>
<trkpt lat="46.20559" lon="7.44454"><ele>1635.6</ele><time>2024-08-02T11:00:35Z</time></trkpt>
<trkpt lat="46.20555" lon="7.44455"><ele>1636</ele><time>2024-08-02T11:00:38Z</time></trkpt>
<trkpt lat="46.20549" lon="7.44456"><ele>1636.6</ele><time>2024-08-02T11:00:42Z</time></trkpt>
<trkpt lat="46.20543" lon="7.44456"><ele>1637</ele><time>2024-08-02T11:00:46Z</time></trkpt>
<trkpt lat="46.20542" lon="7.44456"><ele>1637.2</ele><time>2024-08-02T11:00:47Z</time></trkpt>
<trkpt lat="46.20541" lon="7.44456"><ele>1637.4</ele><time>2024-08-02T11:00:48Z</time></trkpt>
<trkpt lat="46.20539" lon="7.44456"><ele>1637.4</ele><time>2024-08-02T11:00:49Z</time></trkpt>
<trkpt lat="46.20537" lon="7.44456"><ele>1637.6</ele><time>2024-08-02T11:00:50Z</time></trkpt>
<trkpt lat="46.20532" lon="7.44456"><ele>1638.2</ele><time>2024-08-02T11:00:54Z</time></trkpt>
<trkpt lat="46.20527" lon="7.44457"><ele>1638.8</ele><time>2024-08-02T11:00:58Z</time></trkpt>
<trkpt lat="46.20521" lon="7.44455"><ele>1639.6</ele><time>2024-08-02T11:01:03Z</time></trkpt>
<trkpt lat="46.2052" lon="7.44454"><ele>1640</ele><time>2024-08-02T11:01:05Z</time></trkpt>
<trkpt lat="46.20518" lon="7.44454"><ele>1640</ele><time>2024-08-02T11:01:06Z</time></trkpt>
<trkpt lat="46.20515" lon="7.44451"><ele>1640.4</ele><time>2024-08-02T11:01:09Z</time></trkpt>
<trkpt lat="46.20511" lon="7.4445"><ele>1641</ele><time>2024-08-02T11:01:12Z</time></trkpt>
<trkpt lat="46.20507" lon="7.44448"><ele>1641.4</ele><time>2024-08-02T11:01:15Z</time></trkpt>
<trkpt lat="46.20504" lon="7.44445"><ele>1641.8</ele><time>2024-08-02T11:01:18Z</time></trkpt>
<trkpt lat="46.20501" lon="7.44444"><ele>1642</ele><time>2024-08-02T11:01:20Z</time></trkpt>
<trkpt lat="46.205" lon="7.44443"><ele>1642.2</ele><time>2024-08-02T11:01:21Z</time></trkpt>
<trkpt lat="46.20491" lon="7.44438"><ele>1643.2</ele><time>2024-08-02T11:01:28Z</time></trkpt>
<trkpt lat="46.20481" lon="7.44434"><ele>1644.2</ele><time>2024-08-02T11:01:37Z</time></trkpt>
<trkpt lat="46.2048" lon="7.44433"><ele>1644.4</ele><time>2024-08-02T11:01:38Z</time></trkpt>
<trkpt lat="46.20472" lon="7.44429"><ele>1645.2</ele><time>2024-08-02T11:01:44Z</time></trkpt>
<trkpt lat="46.2047" lon="7.44428"><ele>1645.4</ele><time>2024-08-02T11:01:46Z</time></trkpt>
<trkpt lat="46.20458" lon="7.44424"><ele>1646.2</ele><time>2024-08-02T11:01:53Z</time></trkpt>
<trkpt lat="46.20456" lon="7.44423"><ele>1646.6</ele><time>2024-08-02T11:01:55Z</time></trkpt>
<trkpt lat="46.20451" lon="7.44418"><ele>1647.4</ele><time>2024-08-02T11:02:01Z</time></trkpt>
<trkpt lat="46.20447" lon="7.44415"><ele>1647.6</ele><time>2024-08-02T11:02:04Z</time></trkpt>
<trkpt lat="46.20441" lon="7.44407"><ele>1648.4</ele><time>2024-08-02T11:02:10Z</time></trkpt>
<trkpt lat="46.20438" lon="7.44402"><ele>1648.8</ele><time>2024-08-02T11:02:13Z</time></trkpt>
<trkpt lat="46.20435" lon="7.44393"><ele>1649.4</ele><time>2024-08-02T11:02:18Z</time></trkpt>
<trkpt lat="46.20431" lon="7.44387"><ele>1650.2</ele><time>2024-08-02T11:02:21Z</time></trkpt>
<trkpt lat="46.20428" lon="7.4438"><ele>1650.6</ele><time>2024-08-02T11:02:25Z</time></trkpt>
<trkpt lat="46.20423" lon="7.44371"><ele>1651.4</ele><time>2024-08-02T11:02:31Z</time></trkpt>
<trkpt lat="46.2042" lon="7.44367"><ele>1651.8</ele><time>2024-08-02T11:02:34Z</time></trkpt>
<trkpt lat="46.20417" lon="7.44359"><ele>1652.6</ele><time>2024-08-02T11:02:39Z</time></trkpt>
<trkpt lat="46.20415" lon="7.44356"><ele>1652.8</ele><time>2024-08-02T11:02:41Z</time></trkpt>
<trkpt lat="46.2041" lon="7.44347"><ele>1653.4</ele><time>2024-08-02T11:02:47Z</time></trkpt>
<trkpt lat="46.20408" lon="7.44343"><ele>1654</ele><time>2024-08-02T11:02:50Z</time></trkpt>
<trkpt lat="46.20403" lon="7.44334"><ele>1654.6</ele><time>2024-08-02T11:02:56Z</time></trkpt>
<trkpt lat="46.20401" lon="7.4433"><ele>1655</ele><time>2024-08-02T11:02:59Z</time></trkpt>
<trkpt lat="46.20395" lon="7.44321"><ele>1656</ele><time>2024-08-02T11:03:06Z</time></trkpt>
<trkpt lat="46.20394" lon="7.4432"><ele>1656</ele><time>2024-08-02T11:03:07Z</time></trkpt>
<trkpt lat="46.20389" lon="7.44315"><ele>1656.6</ele><time>2024-08-02T11:03:11Z</time></trkpt>
<trkpt lat="46.20385" lon="7.44312"><ele>1657</ele><time>2024-08-02T11:03:14Z</time></trkpt>
<trkpt lat="46.20384" lon="7.44311"><ele>1657.2</ele><time>2024-08-02T11:03:15Z</time></trkpt>
<trkpt lat="46.20375" lon="7.44305"><ele>1658.4</ele><time>2024-08-02T11:03:22Z</time></trkpt>
<trkpt lat="46.20374" lon="7.44304"><ele>1658.6</ele><time>2024-08-02T11:03:23Z</time></trkpt>
<trkpt lat="46.20364" lon="7.44302"><ele>1659.6</ele><time>2024-08-02T11:03:30Z</time></trkpt>
<trkpt lat="46.20361" lon="7.44301"><ele>1659.8</ele><time>2024-08-02T11:03:32Z</time></trkpt>
<trkpt lat="46.20354" lon="7.44296"><ele>1660.6</ele><time>2024-08-02T11:03:38Z</time></trkpt>
<trkpt lat="46.2035" lon="7.44292"><ele>1661</ele><time>2024-08-02T11:03:41Z</time></trkpt>
<trkpt lat="46.20345" lon="7.44286"><ele>1661.8</ele><time>2024-08-02T11:03:46Z</time></trkpt>
<trkpt lat="46.20343" lon="7.4428"><ele>1662.4</ele><time>2024-08-02T11:03:50Z</time></trkpt>
<trkpt lat="46.20341" lon="7.44277"><ele>1662.8</ele><time>2024-08-02T11:03:53Z</time></trkpt>
<trkpt lat="46.20335" lon="7.4427"><ele>1663.6</ele><time>2024-08-02T11:03:59Z</time></trkpt>
<trkpt lat="46.20334" lon="7.44269"><ele>1663.8</ele><time>2024-08-02T11:04:00Z</time></trkpt>
<trkpt lat="46.20326" lon="7.44262"><ele>1665</ele><time>2024-08-02T11:04:07Z</time></trkpt>
<trkpt lat="46.20319" lon="7.44254"><ele>1666</ele><time>2024-08-02T11:04:14Z</time></trkpt>
<trkpt lat="46.20318" lon="7.44253"><ele>1666</ele><time>2024-08-02T11:04:15Z</time></trkpt>
<trkpt lat="46.20309" lon="7.44247"><ele>1667</ele><time>2024-08-02T11:04:22Z</time></trkpt>
<trkpt lat="46.20308" lon="7.44246"><ele>1667.2</ele><time>2024-08-02T11:04:23Z</time></trkpt>
<trkpt lat="46.20306" lon="7.44245"><ele>1667.2</ele><time>2024-08-02T11:04:24Z</time></trkpt>
<trkpt lat="46.20305" lon="7.44244"><ele>1667.4</ele><time>2024-08-02T11:04:25Z</time></trkpt>
<trkpt lat="46.20297" lon="7.4424"><ele>1668</ele><time>2024-08-02T11:04:30Z</time></trkpt>
<trkpt lat="46.20296" lon="7.4424"><ele>1668.2</ele><time>2024-08-02T11:04:31Z</time></trkpt>
<trkpt lat="46.20289" lon="7.44232"><ele>1669</ele><time>2024-08-02T11:04:38Z</time></trkpt>
<trkpt lat="46.20286" lon="7.44229"><ele>1669.4</ele><time>2024-08-02T11:04:41Z</time></trkpt>
<trkpt lat="46.20283" lon="7.44226"><ele>1669.8</ele><time>2024-08-02T11:04:44Z</time></trkpt>
<trkpt lat="46.20282" lon="7.44222"><ele>1670.2</ele><time>2024-08-02T11:04:47Z</time></trkpt>
<trkpt lat="46.20281" lon="7.44221"><ele>1670.2</ele><time>2024-08-02T11:04:48Z</time></trkpt>
<trkpt lat="46.2028" lon="7.44218"><ele>1670.4</ele><time>2024-08-02T11:04:50Z</time></trkpt>
<trkpt lat="46.20271" lon="7.44208"><ele>1671</ele><time>2024-08-02T11:04:57Z</time></trkpt>
<trkpt lat="46.20269" lon="7.44206"><ele>1671.2</ele><time>2024-08-02T11:04:59Z</time></trkpt>
<trkpt lat="46.20264" lon="7.442"><ele>1671.4</ele><time>2024-08-02T11:05:03Z</time></trkpt>
<trkpt lat="46.20263" lon="7.44199"><ele>1671.4</ele><time>2024-08-02T11:05:04Z</time></trkpt>
<trkpt lat="46.20253" lon="7.44195"><ele>1671.6</ele><time>2024-08-02T11:05:10Z</time></trkpt>
<trkpt lat="46.20246" lon="7.44198"><ele>1671.4</ele><time>2024-08-02T11:05:13Z</time></trkpt>
<trkpt lat="46.20241" lon="7.44204"><ele>1671.4</ele><time>2024-08-02T11:05:16Z</time></trkpt>
<trkpt lat="46.20233" lon="7.44216"><ele>1672</ele><time>2024-08-02T11:05:23Z</time></trkpt>
<trkpt lat="46.20232" lon="7.4422"><ele>1672.2</ele><time>2024-08-02T11:05:25Z</time></trkpt>
<trkpt lat="46.20226" lon="7.4423"><ele>1672.8</ele><time>2024-08-02T11:05:31Z</time></trkpt>
<trkpt lat="46.20222" lon="7.44235"><ele>1673.4</ele><time>2024-08-02T11:05:35Z</time></trkpt>
<trkpt lat="46.20219" lon="7.44236"><ele>1673.6</ele><time>2024-08-02T11:05:37Z</time></trkpt>
<trkpt lat="46.20215" lon="7.44237"><ele>1673.8</ele><time>2024-08-02T11:05:40Z</time></trkpt>
<trkpt lat="46.20209" lon="7.44237"><ele>1674.6</ele><time>2024-08-02T11:05:45Z</time></trkpt>
<trkpt lat="46.202" lon="7.44237"><ele>1675.2</ele><time>2024-08-02T11:05:51Z</time></trkpt>
<trkpt lat="46.20194" lon="7.44237"><ele>1675.6</ele><time>2024-08-02T11:05:55Z</time></trkpt>
<trkpt lat="46.20188" lon="7.44239"><ele>1676.2</ele><time>2024-08-02T11:06:00Z</time></trkpt>
<trkpt lat="46.20186" lon="7.44241"><ele>1676.6</ele><time>2024-08-02T11:06:03Z</time></trkpt>
<trkpt lat="46.20179" lon="7.44244"><ele>1677.2</ele><time>2024-08-02T11:06:08Z</time></trkpt>
<trkpt lat="46.20175" lon="7.44246"><ele>1677.8</ele><time>2024-08-02T11:06:12Z</time></trkpt>
<trkpt lat="46.20172" lon="7.44248"><ele>1678.2</ele><time>2024-08-02T11:06:15Z</time></trkpt>
<trkpt lat="46.2017" lon="7.44252"><ele>1678.8</ele><time>2024-08-02T11:06:19Z</time></trkpt>
<trkpt lat="46.20168" lon="7.44255"><ele>1679</ele><time>2024-08-02T11:06:21Z</time></trkpt>
<trkpt lat="46.20164" lon="7.44263"><ele>1679.6</ele><time>2024-08-02T11:06:27Z</time></trkpt>
<trkpt lat="46.20164" lon="7.44264"><ele>1679.8</ele><time>2024-08-02T11:06:28Z</time></trkpt>
<trkpt lat="46.20158" lon="7.44275"><ele>1680.8</ele><time>2024-08-02T11:06:36Z</time></trkpt>
<trkpt lat="46.20156" lon="7.44283"><ele>1681.6</ele><time>2024-08-02T11:06:42Z</time></trkpt>
<trkpt lat="46.20154" lon="7.44287"><ele>1682.2</ele><time>2024-08-02T11:06:45Z</time></trkpt>
<trkpt lat="46.20152" lon="7.44293"><ele>1682.6</ele><time>2024-08-02T11:06:49Z</time></trkpt>
<trkpt lat="46.20149" lon="7.44298"><ele>1683.2</ele><time>2024-08-02T11:06:53Z</time></trkpt>
<trkpt lat="46.20148" lon="7.44301"><ele>1683.4</ele><time>2024-08-02T11:06:55Z</time></trkpt>
<trkpt lat="46.20144" lon="7.4431"><ele>1684.2</ele><time>2024-08-02T11:07:02Z</time></trkpt>
<trkpt lat="46.20144" lon="7.44311"><ele>1684.4</ele><time>2024-08-02T11:07:03Z</time></trkpt>
<trkpt lat="46.20138" lon="7.44322"><ele>1685.4</ele><time>2024-08-02T11:07:11Z</time></trkpt>
<trkpt lat="46.20134" lon="7.44334"><ele>1686</ele><time>2024-08-02T11:07:18Z</time></trkpt>
<trkpt lat="46.20132" lon="7.44337"><ele>1686.6</ele><time>2024-08-02T11:07:21Z</time></trkpt>
<trkpt lat="46.20128" lon="7.44344"><ele>1687.4</ele><time>2024-08-02T11:07:27Z</time></trkpt>
<trkpt lat="46.20126" lon="7.44348"><ele>1687.6</ele><time>2024-08-02T11:07:30Z</time></trkpt>
<trkpt lat="46.20124" lon="7.44354"><ele>1688</ele><time>2024-08-02T11:07:34Z</time></trkpt>
<trkpt lat="46.20123" lon="7.44356"><ele>1688.4</ele><time>2024-08-02T11:07:36Z</time></trkpt>
<trkpt lat="46.20121" lon="7.44359"><ele>1688.6</ele><time>2024-08-02T11:07:38Z</time></trkpt>
<trkpt lat="46.2012" lon="7.4436"><ele>1688.8</ele><time>2024-08-02T11:07:39Z</time></trkpt>
<trkpt lat="46.20117" lon="7.44365"><ele>1689.2</ele><time>2024-08-02T11:07:43Z</time></trkpt>
<trkpt lat="46.20116" lon="7.44368"><ele>1689.6</ele><time>2024-08-02T11:07:45Z</time></trkpt>
<trkpt lat="46.20116" lon="7.44369"><ele>1689.6</ele><time>2024-08-02T11:07:46Z</time></trkpt>
<trkpt lat="46.20115" lon="7.44371"><ele>1689.8</ele><time>2024-08-02T11:07:47Z</time></trkpt>
<trkpt lat="46.20114" lon="7.44375"><ele>1690.2</ele><time>2024-08-02T11:07:50Z</time></trkpt>
<trkpt lat="46.20112" lon="7.44384"><ele>1691</ele><time>2024-08-02T11:07:56Z</time></trkpt>
<trkpt lat="46.2011" lon="7.44395"><ele>1692</ele><time>2024-08-02T11:08:02Z</time></trkpt>
<trkpt lat="46.20108" lon="7.44406"><ele>1693</ele><time>2024-08-02T11:08:10Z</time></trkpt>
<trkpt lat="46.20107" lon="7.44419"><ele>1694</ele><time>2024-08-02T11:08:17Z</time></trkpt>
<trkpt lat="46.20107" lon="7.44423"><ele>1694.2</ele><time>2024-08-02T11:08:19Z</time></trkpt>
<trkpt lat="46.20108" lon="7.44432"><ele>1694.8</ele><time>2024-08-02T11:08:24Z</time></trkpt>
<trkpt lat="46.20107" lon="7.44438"><ele>1695.2</ele><time>2024-08-02T11:08:27Z</time></trkpt>
<trkpt lat="46.20106" lon="7.44445"><ele>1695.8</ele><time>2024-08-02T11:08:32Z</time></trkpt>
<trkpt lat="46.20105" lon="7.44448"><ele>1696.4</ele><time>2024-08-02T11:08:35Z</time></trkpt>
<trkpt lat="46.20103" lon="7.44452"><ele>1696.6</ele><time>2024-08-02T11:08:38Z</time></trkpt>
<trkpt lat="46.201" lon="7.4446"><ele>1697.4</ele><time>2024-08-02T11:08:45Z</time></trkpt>
<trkpt lat="46.201" lon="7.44461"><ele>1697.4</ele><time>2024-08-02T11:08:46Z</time></trkpt>
<trkpt lat="46.20093" lon="7.44469"><ele>1698.4</ele><time>2024-08-02T11:08:54Z</time></trkpt>
<trkpt lat="46.20092" lon="7.4447"><ele>1698.4</ele><time>2024-08-02T11:08:55Z</time></trkpt>
<trkpt lat="46.20088" lon="7.44477"><ele>1699.2</ele><time>2024-08-02T11:09:00Z</time></trkpt>
<trkpt lat="46.20086" lon="7.44479"><ele>1699.6</ele><time>2024-08-02T11:09:02Z</time></trkpt>
<trkpt lat="46.2008" lon="7.44483"><ele>1700</ele><time>2024-08-02T11:09:07Z</time></trkpt>
<trkpt lat="46.20076" lon="7.44487"><ele>1700.6</ele><time>2024-08-02T11:09:11Z</time></trkpt>
<trkpt lat="46.20072" lon="7.44492"><ele>1701.2</ele><time>2024-08-02T11:09:16Z</time></trkpt>
<trkpt lat="46.20071" lon="7.44496"><ele>1701.6</ele><time>2024-08-02T11:09:19Z</time></trkpt>
<trkpt lat="46.20065" lon="7.44503"><ele>1702.8</ele><time>2024-08-02T11:09:26Z</time></trkpt>
<trkpt lat="46.2006" lon="7.44516"><ele>1703.8</ele><time>2024-08-02T11:09:34Z</time></trkpt>
<trkpt lat="46.20059" lon="7.44517"><ele>1704</ele><time>2024-08-02T11:09:35Z</time></trkpt>
<trkpt lat="46.20053" lon="7.44526"><ele>1705</ele><time>2024-08-02T11:09:41Z</time></trkpt>
<trkpt lat="46.20049" lon="7.44535"><ele>1706</ele><time>2024-08-02T11:09:46Z</time></trkpt>
<trkpt lat="46.20047" lon="7.44542"><ele>1706.8</ele><time>2024-08-02T11:09:49Z</time></trkpt>
<trkpt lat="46.20046" lon="7.44548"><ele>1707.2</ele><time>2024-08-02T11:09:51Z</time></trkpt>
<trkpt lat="46.20042" lon="7.44561"><ele>1708.2</ele><time>2024-08-02T11:09:57Z</time></trkpt>
<trkpt lat="46.20041" lon="7.44563"><ele>1708.2</ele><time>2024-08-02T11:09:58Z</time></trkpt>
<trkpt lat="46.20039" lon="7.44576"><ele>1709.4</ele><time>2024-08-02T11:10:04Z</time></trkpt>
<trkpt lat="46.20038" lon="7.44578"><ele>1709.6</ele><time>2024-08-02T11:10:05Z</time></trkpt>
<trkpt lat="46.20036" lon="7.44586"><ele>1710.4</ele><time>2024-08-02T11:10:09Z</time></trkpt>
<trkpt lat="46.20036" lon="7.44588"><ele>1710.8</ele><time>2024-08-02T11:10:11Z</time></trkpt>
<trkpt lat="46.20036" lon="7.4459"><ele>1711</ele><time>2024-08-02T11:10:12Z</time></trkpt>
<trkpt lat="46.20035" lon="7.44598"><ele>1711.4</ele><time>2024-08-02T11:10:17Z</time></trkpt>
<trkpt lat="46.20035" lon="7.446"><ele>1711.6</ele><time>2024-08-02T11:10:19Z</time></trkpt>
<trkpt lat="46.20034" lon="7.44609"><ele>1712.4</ele><time>2024-08-02T11:10:25Z</time></trkpt>
<trkpt lat="46.20034" lon="7.44621"><ele>1713.4</ele><time>2024-08-02T11:10:32Z</time></trkpt>
<trkpt lat="46.20034" lon="7.44623"><ele>1713.6</ele><time>2024-08-02T11:10:33Z</time></trkpt>
<trkpt lat="46.20034" lon="7.44629"><ele>1714.2</ele><time>2024-08-02T11:10:37Z</time></trkpt>
<trkpt lat="46.20034" lon="7.44636"><ele>1714.6</ele><time>2024-08-02T11:10:41Z</time></trkpt>
<trkpt lat="46.20033" lon="7.44642"><ele>1715.2</ele><time>2024-08-02T11:10:45Z</time></trkpt>
<trkpt lat="46.20033" lon="7.44648"><ele>1715.6</ele><time>2024-08-02T11:10:49Z</time></trkpt>
<trkpt lat="46.20033" lon="7.44653"><ele>1716.2</ele><time>2024-08-02T11:10:52Z</time></trkpt>
<trkpt lat="46.20031" lon="7.44661"><ele>1716.8</ele><time>2024-08-02T11:10:57Z</time></trkpt>
<trkpt lat="46.20031" lon="7.44664"><ele>1717</ele><time>2024-08-02T11:10:59Z</time></trkpt>
<trkpt lat="46.20028" lon="7.44675"><ele>1718</ele><time>2024-08-02T11:11:06Z</time></trkpt>
<trkpt lat="46.20028" lon="7.44676"><ele>1718</ele><time>2024-08-02T11:11:07Z</time></trkpt>
<trkpt lat="46.20026" lon="7.44688"><ele>1719</ele><time>2024-08-02T11:11:14Z</time></trkpt>
<trkpt lat="46.20025" lon="7.44691"><ele>1719.2</ele><time>2024-08-02T11:11:16Z</time></trkpt>
<trkpt lat="46.20022" lon="7.44699"><ele>1720</ele><time>2024-08-02T11:11:21Z</time></trkpt>
<trkpt lat="46.20021" lon="7.44702"><ele>1720.4</ele><time>2024-08-02T11:11:23Z</time></trkpt>
<trkpt lat="46.2002" lon="7.4471"><ele>1721</ele><time>2024-08-02T11:11:28Z</time></trkpt>
<trkpt lat="46.20019" lon="7.44714"><ele>1721.4</ele><time>2024-08-02T11:11:30Z</time></trkpt>
<trkpt lat="46.20017" lon="7.44721"><ele>1722.2</ele><time>2024-08-02T11:11:34Z</time></trkpt>
<trkpt lat="46.20016" lon="7.44725"><ele>1722.2</ele><time>2024-08-02T11:11:36Z</time></trkpt>
<trkpt lat="46.20013" lon="7.44735"><ele>1723.2</ele><time>2024-08-02T11:11:43Z</time></trkpt>
<trkpt lat="46.2001" lon="7.44745"><ele>1724.4</ele><time>2024-08-02T11:11:50Z</time></trkpt>
<trkpt lat="46.2001" lon="7.44746"><ele>1724.4</ele><time>2024-08-02T11:11:51Z</time></trkpt>
<trkpt lat="46.20007" lon="7.44756"><ele>1725.4</ele><time>2024-08-02T11:11:57Z</time></trkpt>
<trkpt lat="46.20006" lon="7.44758"><ele>1725.4</ele><time>2024-08-02T11:11:58Z</time></trkpt>
<trkpt lat="46.20002" lon="7.4477"><ele>1726.4</ele><time>2024-08-02T11:12:05Z</time></trkpt>
<trkpt lat="46.2" lon="7.44782"><ele>1727.4</ele><time>2024-08-02T11:12:12Z</time></trkpt>
<trkpt lat="46.2" lon="7.44784"><ele>1727.4</ele><time>2024-08-02T11:12:13Z</time></trkpt>
<trkpt lat="46.2" lon="7.44795"><ele>1728.4</ele><time>2024-08-02T11:12:19Z</time></trkpt>
<trkpt lat="46.2" lon="7.44797"><ele>1728.6</ele><time>2024-08-02T11:12:20Z</time></trkpt>
<trkpt lat="46.20004" lon="7.44807"><ele>1729.4</ele><time>2024-08-02T11:12:26Z</time></trkpt>
<trkpt lat="46.20006" lon="7.4481"><ele>1729.8</ele><time>2024-08-02T11:12:28Z</time></trkpt>
<trkpt lat="46.2001" lon="7.44819"><ele>1730.6</ele><time>2024-08-02T11:12:34Z</time></trkpt>
<trkpt lat="46.20011" lon="7.44822"><ele>1730.8</ele><time>2024-08-02T11:12:36Z</time></trkpt>
<trkpt lat="46.20015" lon="7.44828"><ele>1731.4</ele><time>2024-08-02T11:12:40Z</time></trkpt>
<trkpt lat="46.20016" lon="7.44832"><ele>1731.8</ele><time>2024-08-02T11:12:43Z</time></trkpt>
<trkpt lat="46.20018" lon="7.44838"><ele>1732.2</ele><time>2024-08-02T11:12:47Z</time></trkpt>
<trkpt lat="46.2002" lon="7.44848"><ele>1733</ele><time>2024-08-02T11:12:52Z</time></trkpt>
<trkpt lat="46.20021" lon="7.44851"><ele>1733.2</ele><time>2024-08-02T11:12:54Z</time></trkpt>
<trkpt lat="46.20022" lon="7.44863"><ele>1734</ele><time>2024-08-02T11:13:01Z</time></trkpt>
<trkpt lat="46.20022" lon="7.44864"><ele>1734.2</ele><time>2024-08-02T11:13:02Z</time></trkpt>
<trkpt lat="46.20025" lon="7.44877"><ele>1735</ele><time>2024-08-02T11:13:09Z</time></trkpt>
<trkpt lat="46.20025" lon="7.4488"><ele>1735.2</ele><time>2024-08-02T11:13:11Z</time></trkpt>
<trkpt lat="46.20026" lon="7.44891"><ele>1736</ele><time>2024-08-02T11:13:17Z</time></trkpt>
<trkpt lat="46.20026" lon="7.44893"><ele>1736.2</ele><time>2024-08-02T11:13:18Z</time></trkpt>
<trkpt lat="46.20025" lon="7.44905"><ele>1737</ele><time>2024-08-02T11:13:24Z</time></trkpt>
<trkpt lat="46.20024" lon="7.44908"><ele>1737.2</ele><time>2024-08-02T11:13:26Z</time></trkpt>
<trkpt lat="46.20022" lon="7.44918"><ele>1738.2</ele><time>2024-08-02T11:13:33Z</time></trkpt>
<trkpt lat="46.2002" lon="7.44931"><ele>1739.2</ele><time>2024-08-02T11:13:41Z</time></trkpt>
<trkpt lat="46.2002" lon="7.44933"><ele>1739.4</ele><time>2024-08-02T11:13:42Z</time></trkpt>
<trkpt lat="46.20017" lon="7.44942"><ele>1740.2</ele><time>2024-08-02T11:13:48Z</time></trkpt>
<trkpt lat="46.20016" lon="7.44945"><ele>1740.4</ele><time>2024-08-02T11:13:50Z</time></trkpt>
<trkpt lat="46.20012" lon="7.44953"><ele>1741</ele><time>2024-08-02T11:13:55Z</time></trkpt>
<trkpt lat="46.20008" lon="7.44961"><ele>1741.6</ele><time>2024-08-02T11:14:00Z</time></trkpt>
<trkpt lat="46.20006" lon="7.44963"><ele>1741.8</ele><time>2024-08-02T11:14:02Z</time></trkpt>
<trkpt lat="46.20001" lon="7.44975"><ele>1742.6</ele><time>2024-08-02T11:14:08Z</time></trkpt>
<trkpt lat="46.2" lon="7.44977"><ele>1742.8</ele><time>2024-08-02T11:14:09Z</time></trkpt>
<trkpt lat="46.19998" lon="7.44987"><ele>1743.6</ele><time>2024-08-02T11:14:15Z</time></trkpt>
<trkpt lat="46.19998" lon="7.4499"><ele>1743.8</ele><time>2024-08-02T11:14:17Z</time></trkpt>
<trkpt lat="46.20001" lon="7.44991"><ele>1744</ele><time>2024-08-02T11:14:20Z</time></trkpt>
<trkpt lat="46.2001" lon="7.44987"><ele>1744.8</ele><time>2024-08-02T11:14:27Z</time></trkpt>
<trkpt lat="46.20011" lon="7.44986"><ele>1744.8</ele><time>2024-08-02T11:14:28Z</time></trkpt>
<trkpt lat="46.20016" lon="7.44981"><ele>1745.6</ele><time>2024-08-02T11:14:33Z</time></trkpt>
<trkpt lat="46.20018" lon="7.44978"><ele>1746</ele><time>2024-08-02T11:14:35Z</time></trkpt>
<trkpt lat="46.20024" lon="7.44966"><ele>1747</ele><time>2024-08-02T11:14:42Z</time></trkpt>
<trkpt lat="46.20024" lon="7.44965"><ele>1747</ele><time>2024-08-02T11:14:43Z</time></trkpt>
<trkpt lat="46.20027" lon="7.44955"><ele>1748</ele><time>2024-08-02T11:14:49Z</time></trkpt>
<trkpt lat="46.20028" lon="7.44954"><ele>1748.4</ele><time>2024-08-02T11:14:50Z</time></trkpt>
<trkpt lat="46.20032" lon="7.44945"><ele>1749.2</ele><time>2024-08-02T11:14:56Z</time></trkpt>
<trkpt lat="46.20034" lon="7.44943"><ele>1749.4</ele><time>2024-08-02T11:14:58Z</time></trkpt>
<trkpt lat="46.20039" lon="7.44936"><ele>1750.2</ele><time>2024-08-02T11:15:03Z</time></trkpt>
<trkpt lat="46.20042" lon="7.44933"><ele>1750.8</ele><time>2024-08-02T11:15:06Z</time></trkpt>
<trkpt lat="46.20045" lon="7.44931"><ele>1751.2</ele><time>2024-08-02T11:15:09Z</time></trkpt>
<trkpt lat="46.20052" lon="7.44924"><ele>1752</ele><time>2024-08-02T11:15:16Z</time></trkpt>
<trkpt lat="46.20054" lon="7.44922"><ele>1752.2</ele><time>2024-08-02T11:15:18Z</time></trkpt>
<trkpt lat="46.20058" lon="7.44916"><ele>1753</ele><time>2024-08-02T11:15:23Z</time></trkpt>
<trkpt lat="46.20059" lon="7.44913"><ele>1753.4</ele><time>2024-08-02T11:15:25Z</time></trkpt>
<trkpt lat="46.20061" lon="7.44908"><ele>1754</ele><time>2024-08-02T11:15:29Z</time></trkpt>
<trkpt lat="46.20063" lon="7.44903"><ele>1754.4</ele><time>2024-08-02T11:15:32Z</time></trkpt>
<trkpt lat="46.20066" lon="7.44896"><ele>1755</ele><time>2024-08-02T11:15:36Z</time></trkpt>
<trkpt lat="46.20068" lon="7.44893"><ele>1755.4</ele><time>2024-08-02T11:15:38Z</time></trkpt>
<trkpt lat="46.20072" lon="7.44887"><ele>1756.2</ele><time>2024-08-02T11:15:43Z</time></trkpt>
<trkpt lat="46.20072" lon="7.44884"><ele>1756.6</ele><time>2024-08-02T11:15:45Z</time></trkpt>
<trkpt lat="46.20074" lon="7.4488"><ele>1756.8</ele><time>2024-08-02T11:15:47Z</time></trkpt>
<trkpt lat="46.20078" lon="7.44871"><ele>1757.6</ele><time>2024-08-02T11:15:53Z</time></trkpt>
<trkpt lat="46.20079" lon="7.4487"><ele>1757.8</ele><time>2024-08-02T11:15:54Z</time></trkpt>
<trkpt lat="46.20083" lon="7.4486"><ele>1758.6</ele><time>2024-08-02T11:16:00Z</time></trkpt>
<trkpt lat="46.20085" lon="7.44854"><ele>1759</ele><time>2024-08-02T11:16:03Z</time></trkpt>
<trkpt lat="46.20087" lon="7.44845"><ele>1759.6</ele><time>2024-08-02T11:16:08Z</time></trkpt>
<trkpt lat="46.20088" lon="7.44838"><ele>1760.2</ele><time>2024-08-02T11:16:12Z</time></trkpt>
<trkpt lat="46.20089" lon="7.44829"><ele>1760.8</ele><time>2024-08-02T11:16:16Z</time></trkpt>
<trkpt lat="46.2009" lon="7.44818"><ele>1761</ele><time>2024-08-02T11:16:20Z</time></trkpt>
<trkpt lat="46.20095" lon="7.44807"><ele>1762</ele><time>2024-08-02T11:16:26Z</time></trkpt>
<trkpt lat="46.20096" lon="7.44805"><ele>1762</ele><time>2024-08-02T11:16:27Z</time></trkpt>
<trkpt lat="46.20107" lon="7.44799"><ele>1762.8</ele><time>2024-08-02T11:16:33Z</time></trkpt>
<trkpt lat="46.20112" lon="7.44798"><ele>1763</ele><time>2024-08-02T11:16:36Z</time></trkpt>
<trkpt lat="46.2012" lon="7.448"><ele>1763.8</ele><time>2024-08-02T11:16:41Z</time></trkpt>
<trkpt lat="46.20126" lon="7.44801"><ele>1764.2</ele><time>2024-08-02T11:16:44Z</time></trkpt>
<trkpt lat="46.20133" lon="7.44802"><ele>1764.6</ele><time>2024-08-02T11:16:49Z</time></trkpt>
<trkpt lat="46.20138" lon="7.44797"><ele>1765.2</ele><time>2024-08-02T11:16:53Z</time></trkpt>
<trkpt lat="46.20142" lon="7.44794"><ele>1766</ele><time>2024-08-02T11:16:56Z</time></trkpt>
<trkpt lat="46.20144" lon="7.44792"><ele>1766.2</ele><time>2024-08-02T11:16:58Z</time></trkpt>
<trkpt lat="46.20152" lon="7.44786"><ele>1767.2</ele><time>2024-08-02T11:17:03Z</time></trkpt>
<trkpt lat="46.20153" lon="7.44785"><ele>1767.4</ele><time>2024-08-02T11:17:04Z</time></trkpt>
<trkpt lat="46.20163" lon="7.44781"><ele>1768</ele><time>2024-08-02T11:17:10Z</time></trkpt>
<trkpt lat="46.20166" lon="7.4478"><ele>1768.4</ele><time>2024-08-02T11:17:12Z</time></trkpt>
<trkpt lat="46.20172" lon="7.44777"><ele>1768.8</ele><time>2024-08-02T11:17:17Z</time></trkpt>
<trkpt lat="46.20177" lon="7.44775"><ele>1769.4</ele><time>2024-08-02T11:17:20Z</time></trkpt>
<trkpt lat="46.20185" lon="7.44773"><ele>1769.8</ele><time>2024-08-02T11:17:25Z</time></trkpt>
<trkpt lat="46.20191" lon="7.4477"><ele>1770.4</ele><time>2024-08-02T11:17:29Z</time></trkpt>
<trkpt lat="46.20198" lon="7.44764"><ele>1771.2</ele><time>2024-08-02T11:17:34Z</time></trkpt>
<trkpt lat="46.20201" lon="7.44762"><ele>1771.4</ele><time>2024-08-02T11:17:36Z</time></trkpt>
<trkpt lat="46.2021" lon="7.44753"><ele>1772.6</ele><time>2024-08-02T11:17:43Z</time></trkpt>
<trkpt lat="46.20212" lon="7.44751"><ele>1772.8</ele><time>2024-08-02T11:17:44Z</time></trkpt>
<trkpt lat="46.20223" lon="7.44751"><ele>1773.8</ele><time>2024-08-02T11:17:50Z</time></trkpt>
<trkpt lat="46.20233" lon="7.44749"><ele>1774.8</ele><time>2024-08-02T11:17:56Z</time></trkpt>
<trkpt lat="46.20235" lon="7.44749"><ele>1775</ele><time>2024-08-02T11:17:57Z</time></trkpt>
<trkpt lat="46.20245" lon="7.4475"><ele>1775.8</ele><time>2024-08-02T11:18:03Z</time></trkpt>
<trkpt lat="46.20246" lon="7.4475"><ele>1776</ele><time>2024-08-02T11:18:04Z</time></trkpt>
<trkpt lat="46.2026" lon="7.44757"><ele>1777</ele><time>2024-08-02T11:18:12Z</time></trkpt>
<trkpt lat="46.20274" lon="7.44765"><ele>1778.2</ele><time>2024-08-02T11:18:21Z</time></trkpt>
<trkpt lat="46.20282" lon="7.44769"><ele>1779.2</ele><time>2024-08-02T11:18:28Z</time></trkpt>
<trkpt lat="46.20292" lon="7.44771"><ele>1780.2</ele><time>2024-08-02T11:18:35Z</time></trkpt>
<trkpt lat="46.20301" lon="7.44776"><ele>1781.4</ele><time>2024-08-02T11:18:42Z</time></trkpt>
<trkpt lat="46.20302" lon="7.44777"><ele>1781.6</ele><time>2024-08-02T11:18:43Z</time></trkpt>
<trkpt lat="46.20312" lon="7.44784"><ele>1782.4</ele><time>2024-08-02T11:18:49Z</time></trkpt>
<trkpt lat="46.20319" lon="7.44795"><ele>1783.6</ele><time>2024-08-02T11:18:56Z</time></trkpt>
<trkpt lat="46.20322" lon="7.44799"><ele>1783.8</ele><time>2024-08-02T11:18:59Z</time></trkpt>
<trkpt lat="46.20329" lon="7.44805"><ele>1784.6</ele><time>2024-08-02T11:19:04Z</time></trkpt>
<trkpt lat="46.2033" lon="7.44807"><ele>1784.6</ele><time>2024-08-02T11:19:05Z</time></trkpt>
<trkpt lat="46.20337" lon="7.44817"><ele>1785.4</ele><time>2024-08-02T11:19:12Z</time></trkpt>
<trkpt lat="46.2034" lon="7.44819"><ele>1785.6</ele><time>2024-08-02T11:19:14Z</time></trkpt>
<trkpt lat="46.20348" lon="7.44825"><ele>1786.4</ele><time>2024-08-02T11:19:20Z</time></trkpt>
<trkpt lat="46.20354" lon="7.4483"><ele>1786.8</ele><time>2024-08-02T11:19:24Z</time></trkpt>
<trkpt lat="46.20356" lon="7.44837"><ele>1787.4</ele><time>2024-08-02T11:19:27Z</time></trkpt>
<trkpt lat="46.20352" lon="7.44841"><ele>1788</ele><time>2024-08-02T11:19:30Z</time></trkpt>
<trkpt lat="46.2035" lon="7.4484"><ele>1788</ele><time>2024-08-02T11:19:32Z</time></trkpt>
<trkpt lat="46.20342" lon="7.44837"><ele>1788.8</ele><time>2024-08-02T11:19:37Z</time></trkpt>
<trkpt lat="46.20337" lon="7.44833"><ele>1789</ele><time>2024-08-02T11:19:40Z</time></trkpt>
<trkpt lat="46.20329" lon="7.44825"><ele>1789.8</ele><time>2024-08-02T11:19:46Z</time></trkpt>
<trkpt lat="46.20325" lon="7.44822"><ele>1790.2</ele><time>2024-08-02T11:19:49Z</time></trkpt>
<trkpt lat="46.20319" lon="7.44819"><ele>1790.4</ele><time>2024-08-02T11:19:53Z</time></trkpt>
<trkpt lat="46.20312" lon="7.44817"><ele>1791.2</ele><time>2024-08-02T11:19:57Z</time></trkpt>
<trkpt lat="46.20303" lon="7.44814"><ele>1791.6</ele><time>2024-08-02T11:20:02Z</time></trkpt>
<trkpt lat="46.20299" lon="7.44811"><ele>1792.2</ele><time>2024-08-02T11:20:05Z</time></trkpt>
<trkpt lat="46.20291" lon="7.44811"><ele>1792.6</ele><time>2024-08-02T11:20:10Z</time></trkpt>
<trkpt lat="46.20282" lon="7.4481"><ele>1793.2</ele><time>2024-08-02T11:20:15Z</time></trkpt>
<trkpt lat="46.20276" lon="7.44811"><ele>1793.6</ele><time>2024-08-02T11:20:18Z</time></trkpt>
<trkpt lat="46.20268" lon="7.44812"><ele>1794.2</ele><time>2024-08-02T11:20:22Z</time></trkpt>
<trkpt lat="46.20262" lon="7.44814"><ele>1794.6</ele><time>2024-08-02T11:20:26Z</time></trkpt>
<trkpt lat="46.20251" lon="7.44815"><ele>1795.4</ele><time>2024-08-02T11:20:32Z</time></trkpt>
<trkpt lat="46.20248" lon="7.44815"><ele>1795.8</ele><time>2024-08-02T11:20:34Z</time></trkpt>
<trkpt lat="46.20237" lon="7.44821"><ele>1796.4</ele><time>2024-08-02T11:20:41Z</time></trkpt>
<trkpt lat="46.20229" lon="7.44834"><ele>1797.6</ele><time>2024-08-02T11:20:48Z</time></trkpt>
<trkpt lat="46.20219" lon="7.44843"><ele>1798.6</ele><time>2024-08-02T11:20:55Z</time></trkpt>
<trkpt lat="46.20218" lon="7.44844"><ele>1798.6</ele><time>2024-08-02T11:20:56Z</time></trkpt>
<trkpt lat="46.20209" lon="7.44854"><ele>1799.6</ele><time>2024-08-02T11:21:03Z</time></trkpt>
<trkpt lat="46.20208" lon="7.44854"><ele>1799.8</ele><time>2024-08-02T11:21:04Z</time></trkpt>
<trkpt lat="46.20201" lon="7.4486"><ele>1800.6</ele><time>2024-08-02T11:21:09Z</time></trkpt>
<trkpt lat="46.20198" lon="7.44863"><ele>1800.8</ele><time>2024-08-02T11:21:11Z</time></trkpt>
<trkpt lat="46.20191" lon="7.44873"><ele>1801.8</ele><time>2024-08-02T11:21:16Z</time></trkpt>
<trkpt lat="46.2019" lon="7.44875"><ele>1802.2</ele><time>2024-08-02T11:21:17Z</time></trkpt>
<trkpt lat="46.20183" lon="7.44886"><ele>1803.2</ele><time>2024-08-02T11:21:23Z</time></trkpt>
<trkpt lat="46.20182" lon="7.44888"><ele>1803.2</ele><time>2024-08-02T11:21:24Z</time></trkpt>
<trkpt lat="46.20176" lon="7.44896"><ele>1804.4</ele><time>2024-08-02T11:21:29Z</time></trkpt>
<trkpt lat="46.20171" lon="7.44903"><ele>1804.6</ele><time>2024-08-02T11:21:32Z</time></trkpt>
<trkpt lat="46.20165" lon="7.44914"><ele>1805.4</ele><time>2024-08-02T11:21:36Z</time></trkpt>
<trkpt lat="46.20159" lon="7.4492"><ele>1806</ele><time>2024-08-02T11:21:39Z</time></trkpt>
<trkpt lat="46.20148" lon="7.44932"><ele>1806.4</ele><time>2024-08-02T11:21:44Z</time></trkpt>
<trkpt lat="46.20143" lon="7.44939"><ele>1806.6</ele><time>2024-08-02T11:21:46Z</time></trkpt>
<trkpt lat="46.20138" lon="7.44951"><ele>1806.8</ele><time>2024-08-02T11:21:49Z</time></trkpt>
<trkpt lat="46.20134" lon="7.44961"><ele>1807</ele><time>2024-08-02T11:21:51Z</time></trkpt>
<trkpt lat="46.20134" lon="7.44967"><ele>1807.2</ele><time>2024-08-02T11:21:52Z</time></trkpt>
<trkpt lat="46.20133" lon="7.44989"><ele>1807.2</ele><time>2024-08-02T11:21:55Z</time></trkpt>
<trkpt lat="46.20129" lon="7.45014"><ele>1806.4</ele><time>2024-08-02T11:21:58Z</time></trkpt>
<trkpt lat="46.20122" lon="7.45039"><ele>1806.4</ele><time>2024-08-02T11:22:01Z</time></trkpt>
<trkpt lat="46.20105" lon="7.45082"><ele>1807</ele><time>2024-08-02T11:22:07Z</time></trkpt>
<trkpt lat="46.20089" lon="7.45107"><ele>1807.8</ele><time>2024-08-02T11:22:12Z</time></trkpt>
<trkpt lat="46.20081" lon="7.45116"><ele>1809</ele><time>2024-08-02T11:22:16Z</time></trkpt>
<trkpt lat="46.20079" lon="7.45118"><ele>1809.4</ele><time>2024-08-02T11:22:17Z</time></trkpt>
<trkpt lat="46.20077" lon="7.45122"><ele>1810</ele><time>2024-08-02T11:22:19Z</time></trkpt>
<trkpt lat="46.2007" lon="7.45134"><ele>1811</ele><time>2024-08-02T11:22:25Z</time></trkpt>
<trkpt lat="46.20069" lon="7.45136"><ele>1811.4</ele><time>2024-08-02T11:22:26Z</time></trkpt>
<trkpt lat="46.20064" lon="7.45147"><ele>1812.2</ele><time>2024-08-02T11:22:31Z</time></trkpt>
<trkpt lat="46.20061" lon="7.4515"><ele>1812.6</ele><time>2024-08-02T11:22:33Z</time></trkpt>
<trkpt lat="46.20058" lon="7.45156"><ele>1813.4</ele><time>2024-08-02T11:22:36Z</time></trkpt>
<trkpt lat="46.20053" lon="7.45166"><ele>1814.2</ele><time>2024-08-02T11:22:41Z</time></trkpt>
<trkpt lat="46.20052" lon="7.45169"><ele>1814.4</ele><time>2024-08-02T11:22:43Z</time></trkpt>
<trkpt lat="46.20044" lon="7.45182"><ele>1815.2</ele><time>2024-08-02T11:22:50Z</time></trkpt>
<trkpt lat="46.20033" lon="7.45197"><ele>1814.8</ele><time>2024-08-02T11:22:55Z</time></trkpt>
<trkpt lat="46.20017" lon="7.45225"><ele>1813.4</ele><time>2024-08-02T11:23:00Z</time></trkpt>
<trkpt lat="46.20009" lon="7.45239"><ele>1813</ele><time>2024-08-02T11:23:02Z</time></trkpt>
<trkpt lat="46.2" lon="7.45264"><ele>1811.8</ele><time>2024-08-02T11:23:05Z</time></trkpt>
<trkpt lat="46.19993" lon="7.45296"><ele>1810.6</ele><time>2024-08-02T11:23:08Z</time></trkpt>
<trkpt lat="46.1999" lon="7.45307"><ele>1810</ele><time>2024-08-02T11:23:09Z</time></trkpt>
<trkpt lat="46.19989" lon="7.45317"><ele>1809.6</ele><time>2024-08-02T11:23:10Z</time></trkpt>
<trkpt lat="46.1999" lon="7.45325"><ele>1809.6</ele><time>2024-08-02T11:23:11Z</time></trkpt>
<trkpt lat="46.19991" lon="7.45332"><ele>1809.6</ele><time>2024-08-02T11:23:12Z</time></trkpt>
<trkpt lat="46.19992" lon="7.4534"><ele>1811.4</ele><time>2024-08-02T11:23:15Z</time></trkpt>
<trkpt lat="46.19993" lon="7.45343"><ele>1812.6</ele><time>2024-08-02T11:23:18Z</time></trkpt>
<trkpt lat="46.19994" lon="7.45348"><ele>1812.8</ele><time>2024-08-02T11:23:21Z</time></trkpt>
<trkpt lat="46.19997" lon="7.4536"><ele>1813.6</ele><time>2024-08-02T11:23:28Z</time></trkpt>
<trkpt lat="46.19997" lon="7.45372"><ele>1814.6</ele><time>2024-08-02T11:23:35Z</time></trkpt>
<trkpt lat="46.19997" lon="7.45376"><ele>1815</ele><time>2024-08-02T11:23:37Z</time></trkpt>
<trkpt lat="46.19997" lon="7.45384"><ele>1815.8</ele><time>2024-08-02T11:23:43Z</time></trkpt>
<trkpt lat="46.19997" lon="7.45394"><ele>1816.8</ele><time>2024-08-02T11:23:50Z</time></trkpt>
<trkpt lat="46.19997" lon="7.45395"><ele>1816.8</ele><time>2024-08-02T11:23:51Z</time></trkpt>
<trkpt lat="46.19997" lon="7.45403"><ele>1817.4</ele><time>2024-08-02T11:23:57Z</time></trkpt>
<trkpt lat="46.19997" lon="7.45407"><ele>1817.8</ele><time>2024-08-02T11:24:01Z</time></trkpt>
<trkpt lat="46.19997" lon="7.45413"><ele>1818.4</ele><time>2024-08-02T11:24:05Z</time></trkpt>
<trkpt lat="46.19998" lon="7.45421"><ele>1819</ele><time>2024-08-02T11:24:10Z</time></trkpt>
<trkpt lat="46.19999" lon="7.45425"><ele>1819.4</ele><time>2024-08-02T11:24:13Z</time></trkpt>
<trkpt lat="46.19999" lon="7.45433"><ele>1820</ele><time>2024-08-02T11:24:19Z</time></trkpt>
<trkpt lat="46.19999" lon="7.45434"><ele>1820</ele><time>2024-08-02T11:24:20Z</time></trkpt>
<trkpt lat="46.2" lon="7.45442"><ele>1820.8</ele><time>2024-08-02T11:24:26Z</time></trkpt>
<trkpt lat="46.2" lon="7.45443"><ele>1821</ele><time>2024-08-02T11:24:28Z</time></trkpt>
<trkpt lat="46.2" lon="7.45452"><ele>1821.8</ele><time>2024-08-02T11:24:33Z</time></trkpt>
<trkpt lat="46.2" lon="7.45456"><ele>1822</ele><time>2024-08-02T11:24:35Z</time></trkpt>
<trkpt lat="46.20001" lon="7.45465"><ele>1822.8</ele><time>2024-08-02T11:24:41Z</time></trkpt>
<trkpt lat="46.2" lon="7.45468"><ele>1823.2</ele><time>2024-08-02T11:24:43Z</time></trkpt>
<trkpt lat="46.2" lon="7.45472"><ele>1823.4</ele><time>2024-08-02T11:24:45Z</time></trkpt>
<trkpt lat="46.19999" lon="7.45474"><ele>1823.6</ele><time>2024-08-02T11:24:47Z</time></trkpt>
<trkpt lat="46.19999" lon="7.45475"><ele>1823.8</ele><time>2024-08-02T11:24:48Z</time></trkpt>
<trkpt lat="46.2" lon="7.45481"><ele>1824.2</ele><time>2024-08-02T11:24:52Z</time></trkpt>
<trkpt lat="46.2" lon="7.45486"><ele>1824.8</ele><time>2024-08-02T11:24:55Z</time></trkpt>
<trkpt lat="46.2" lon="7.45492"><ele>1825.4</ele><time>2024-08-02T11:24:59Z</time></trkpt>
<trkpt lat="46.20001" lon="7.45499"><ele>1825.8</ele><time>2024-08-02T11:25:03Z</time></trkpt>
<trkpt lat="46.20002" lon="7.45506"><ele>1826.6</ele><time>2024-08-02T11:25:08Z</time></trkpt>
<trkpt lat="46.20002" lon="7.4551"><ele>1826.8</ele><time>2024-08-02T11:25:10Z</time></trkpt>
<trkpt lat="46.20004" lon="7.45521"><ele>1827.6</ele><time>2024-08-02T11:25:17Z</time></trkpt>
<trkpt lat="46.20004" lon="7.45522"><ele>1827.8</ele><time>2024-08-02T11:25:19Z</time></trkpt>
<trkpt lat="46.20006" lon="7.45531"><ele>1828.6</ele><time>2024-08-02T11:25:25Z</time></trkpt>
<trkpt lat="46.20006" lon="7.45533"><ele>1828.8</ele><time>2024-08-02T11:25:26Z</time></trkpt>
<trkpt lat="46.20008" lon="7.45541"><ele>1829.6</ele><time>2024-08-02T11:25:31Z</time></trkpt>
<trkpt lat="46.20008" lon="7.45544"><ele>1830</ele><time>2024-08-02T11:25:33Z</time></trkpt>
<trkpt lat="46.20008" lon="7.45552"><ele>1830.8</ele><time>2024-08-02T11:25:38Z</time></trkpt>
<trkpt lat="46.20008" lon="7.45556"><ele>1831</ele><time>2024-08-02T11:25:40Z</time></trkpt>
<trkpt lat="46.2001" lon="7.45565"><ele>1832</ele><time>2024-08-02T11:25:45Z</time></trkpt>
<trkpt lat="46.20011" lon="7.45569"><ele>1832.2</ele><time>2024-08-02T11:25:48Z</time></trkpt>
<trkpt lat="46.20012" lon="7.45575"><ele>1833</ele><time>2024-08-02T11:25:52Z</time></trkpt>
<trkpt lat="46.20012" lon="7.45584"><ele>1833.8</ele><time>2024-08-02T11:25:57Z</time></trkpt>
<trkpt lat="46.20013" lon="7.45588"><ele>1834</ele><time>2024-08-02T11:25:59Z</time></trkpt>
<trkpt lat="46.20013" lon="7.45599"><ele>1835.2</ele><time>2024-08-02T11:26:06Z</time></trkpt>
<trkpt lat="46.20015" lon="7.45611"><ele>1836.2</ele><time>2024-08-02T11:26:14Z</time></trkpt>
<trkpt lat="46.20015" lon="7.45612"><ele>1836.2</ele><time>2024-08-02T11:26:15Z</time></trkpt>
<trkpt lat="46.20017" lon="7.45623"><ele>1837.4</ele><time>2024-08-02T11:26:23Z</time></trkpt>
<trkpt lat="46.20019" lon="7.45634"><ele>1838.4</ele><time>2024-08-02T11:26:30Z</time></trkpt>
<trkpt lat="46.20019" lon="7.45636"><ele>1838.4</ele><time>2024-08-02T11:26:31Z</time></trkpt>
<trkpt lat="46.20019" lon="7.45646"><ele>1839.4</ele><time>2024-08-02T11:26:37Z</time></trkpt>
<trkpt lat="46.20019" lon="7.45647"><ele>1839.6</ele><time>2024-08-02T11:26:38Z</time></trkpt>
<trkpt lat="46.20019" lon="7.45657"><ele>1840.6</ele><time>2024-08-02T11:26:45Z</time></trkpt>
<trkpt lat="46.20022" lon="7.45667"><ele>1841.6</ele><time>2024-08-02T11:26:51Z</time></trkpt>
<trkpt lat="46.20022" lon="7.45668"><ele>1841.6</ele><time>2024-08-02T11:26:52Z</time></trkpt>
<trkpt lat="46.20025" lon="7.45679"><ele>1842.8</ele><time>2024-08-02T11:26:59Z</time></trkpt>
<trkpt lat="46.20026" lon="7.45692"><ele>1844</ele><time>2024-08-02T11:27:06Z</time></trkpt>
<trkpt lat="46.20027" lon="7.45702"><ele>1844.6</ele><time>2024-08-02T11:27:13Z</time></trkpt>
<trkpt lat="46.20026" lon="7.45706"><ele>1845</ele><time>2024-08-02T11:27:15Z</time></trkpt>
<trkpt lat="46.20027" lon="7.45713"><ele>1845.8</ele><time>2024-08-02T11:27:21Z</time></trkpt>
<trkpt lat="46.20027" lon="7.45717"><ele>1846</ele><time>2024-08-02T11:27:23Z</time></trkpt>
<trkpt lat="46.20028" lon="7.45727"><ele>1847</ele><time>2024-08-02T11:27:29Z</time></trkpt>
<trkpt lat="46.20028" lon="7.45728"><ele>1847.2</ele><time>2024-08-02T11:27:30Z</time></trkpt>
<trkpt lat="46.20029" lon="7.45738"><ele>1848</ele><time>2024-08-02T11:27:37Z</time></trkpt>
<trkpt lat="46.20029" lon="7.4574"><ele>1848.2</ele><time>2024-08-02T11:27:38Z</time></trkpt>
<trkpt lat="46.20031" lon="7.45748"><ele>1849</ele><time>2024-08-02T11:27:44Z</time></trkpt>
<trkpt lat="46.20032" lon="7.45753"><ele>1849.4</ele><time>2024-08-02T11:27:47Z</time></trkpt>
<trkpt lat="46.20032" lon="7.45759"><ele>1849.8</ele><time>2024-08-02T11:27:51Z</time></trkpt>
<trkpt lat="46.20034" lon="7.45766"><ele>1850.4</ele><time>2024-08-02T11:27:56Z</time></trkpt>
<trkpt lat="46.20034" lon="7.45771"><ele>1851</ele><time>2024-08-02T11:27:59Z</time></trkpt>
<trkpt lat="46.20034" lon="7.45779"><ele>1851.6</ele><time>2024-08-02T11:28:04Z</time></trkpt>
<trkpt lat="46.20035" lon="7.45786"><ele>1852</ele><time>2024-08-02T11:28:08Z</time></trkpt>
<trkpt lat="46.20035" lon="7.45791"><ele>1852.8</ele><time>2024-08-02T11:28:11Z</time></trkpt>
<trkpt lat="46.20035" lon="7.45799"><ele>1853.2</ele><time>2024-08-02T11:28:16Z</time></trkpt>
<trkpt lat="46.20034" lon="7.45807"><ele>1854</ele><time>2024-08-02T11:28:22Z</time></trkpt>
<trkpt lat="46.20033" lon="7.45812"><ele>1854.4</ele><time>2024-08-02T11:28:25Z</time></trkpt>
<trkpt lat="46.20033" lon="7.45818"><ele>1855</ele><time>2024-08-02T11:28:29Z</time></trkpt>
<trkpt lat="46.20033" lon="7.45823"><ele>1855.4</ele><time>2024-08-02T11:28:32Z</time></trkpt>
<trkpt lat="46.20031" lon="7.45832"><ele>1856</ele><time>2024-08-02T11:28:37Z</time></trkpt>
<trkpt lat="46.20031" lon="7.45835"><ele>1856.4</ele><time>2024-08-02T11:28:39Z</time></trkpt>
<trkpt lat="46.2003" lon="7.45844"><ele>1857.2</ele><time>2024-08-02T11:28:45Z</time></trkpt>
<trkpt lat="46.20031" lon="7.45847"><ele>1857.4</ele><time>2024-08-02T11:28:47Z</time></trkpt>
<trkpt lat="46.20031" lon="7.45855"><ele>1858.2</ele><time>2024-08-02T11:28:52Z</time></trkpt>
<trkpt lat="46.20029" lon="7.45861"><ele>1859</ele><time>2024-08-02T11:28:56Z</time></trkpt>
<trkpt lat="46.20029" lon="7.45865"><ele>1859.4</ele><time>2024-08-02T11:28:59Z</time></trkpt>
<trkpt lat="46.20028" lon="7.45872"><ele>1860</ele><time>2024-08-02T11:29:03Z</time></trkpt>
<trkpt lat="46.20028" lon="7.45876"><ele>1860.4</ele><time>2024-08-02T11:29:06Z</time></trkpt>
<trkpt lat="46.20027" lon="7.45883"><ele>1861</ele><time>2024-08-02T11:29:10Z</time></trkpt>
<trkpt lat="46.20028" lon="7.45889"><ele>1861.6</ele><time>2024-08-02T11:29:14Z</time></trkpt>
<trkpt lat="46.20028" lon="7.45895"><ele>1862</ele><time>2024-08-02T11:29:18Z</time></trkpt>
<trkpt lat="46.20029" lon="7.459"><ele>1862.6</ele><time>2024-08-02T11:29:21Z</time></trkpt>
<trkpt lat="46.20028" lon="7.45907"><ele>1863.2</ele><time>2024-08-02T11:29:26Z</time></trkpt>
<trkpt lat="46.20028" lon="7.45912"><ele>1863.8</ele><time>2024-08-02T11:29:29Z</time></trkpt>
<trkpt lat="46.20027" lon="7.45919"><ele>1864.4</ele><time>2024-08-02T11:29:34Z</time></trkpt>
<trkpt lat="46.20027" lon="7.45925"><ele>1864.8</ele><time>2024-08-02T11:29:38Z</time></trkpt>
<trkpt lat="46.20029" lon="7.45929"><ele>1865.2</ele><time>2024-08-02T11:29:41Z</time></trkpt>
<trkpt lat="46.20031" lon="7.45937"><ele>1865.8</ele><time>2024-08-02T11:29:45Z</time></trkpt>
<trkpt lat="46.20032" lon="7.45939"><ele>1866.2</ele><time>2024-08-02T11:29:48Z</time></trkpt>
<trkpt lat="46.20035" lon="7.4595"><ele>1867</ele><time>2024-08-02T11:29:54Z</time></trkpt>
<trkpt lat="46.20038" lon="7.45961"><ele>1868</ele><time>2024-08-02T11:30:02Z</time></trkpt>
<trkpt lat="46.20038" lon="7.45962"><ele>1868.2</ele><time>2024-08-02T11:30:03Z</time></trkpt>
<trkpt lat="46.2004" lon="7.45972"><ele>1869.2</ele><time>2024-08-02T11:30:10Z</time></trkpt>
<trkpt lat="46.2004" lon="7.45975"><ele>1869.4</ele><time>2024-08-02T11:30:12Z</time></trkpt>
<trkpt lat="46.20043" lon="7.45987"><ele>1870.4</ele><time>2024-08-02T11:30:19Z</time></trkpt>
<trkpt lat="46.20046" lon="7.45997"><ele>1871.4</ele><time>2024-08-02T11:30:26Z</time></trkpt>
<trkpt lat="46.20046" lon="7.45998"><ele>1871.6</ele><time>2024-08-02T11:30:27Z</time></trkpt>
<trkpt lat="46.20049" lon="7.46008"><ele>1872.4</ele><time>2024-08-02T11:30:34Z</time></trkpt>
<trkpt lat="46.2005" lon="7.46009"><ele>1872.6</ele><time>2024-08-02T11:30:35Z</time></trkpt>
<trkpt lat="46.20051" lon="7.4602"><ele>1873.4</ele><time>2024-08-02T11:30:42Z</time></trkpt>
<trkpt lat="46.20052" lon="7.46023"><ele>1873.6</ele><time>2024-08-02T11:30:44Z</time></trkpt>
<trkpt lat="46.20054" lon="7.46031"><ele>1874.4</ele><time>2024-08-02T11:30:49Z</time></trkpt>
<trkpt lat="46.20055" lon="7.46034"><ele>1874.6</ele><time>2024-08-02T11:30:51Z</time></trkpt>
<trkpt lat="46.20055" lon="7.46046"><ele>1875.6</ele><time>2024-08-02T11:30:58Z</time></trkpt>
<trkpt lat="46.20055" lon="7.46048"><ele>1875.8</ele><time>2024-08-02T11:30:59Z</time></trkpt>
<trkpt lat="46.20055" lon="7.4606"><ele>1876.6</ele><time>2024-08-02T11:31:06Z</time></trkpt>
<trkpt lat="46.20056" lon="7.46063"><ele>1877</ele><time>2024-08-02T11:31:08Z</time></trkpt>
<trkpt lat="46.20057" lon="7.46074"><ele>1877.8</ele><time>2024-08-02T11:31:14Z</time></trkpt>
<trkpt lat="46.20057" lon="7.46076"><ele>1878.2</ele><time>2024-08-02T11:31:15Z</time></trkpt>
<trkpt lat="46.20059" lon="7.46083"><ele>1878.8</ele><time>2024-08-02T11:31:20Z</time></trkpt>
<trkpt lat="46.20061" lon="7.46087"><ele>1879.2</ele><time>2024-08-02T11:31:23Z</time></trkpt>
<trkpt lat="46.20066" lon="7.46093"><ele>1879.8</ele><time>2024-08-02T11:31:28Z</time></trkpt>
<trkpt lat="46.20068" lon="7.46096"><ele>1880.2</ele><time>2024-08-02T11:31:31Z</time></trkpt>
<trkpt lat="46.2007" lon="7.46099"><ele>1880.6</ele><time>2024-08-02T11:31:34Z</time></trkpt>
<trkpt lat="46.20072" lon="7.46104"><ele>1881.2</ele><time>2024-08-02T11:31:37Z</time></trkpt>
<trkpt lat="46.20073" lon="7.46107"><ele>1881.4</ele><time>2024-08-02T11:31:40Z</time></trkpt>
<trkpt lat="46.20074" lon="7.46108"><ele>1881.6</ele><time>2024-08-02T11:31:41Z</time></trkpt>
<trkpt lat="46.20078" lon="7.46112"><ele>1882.2</ele><time>2024-08-02T11:31:46Z</time></trkpt>
<trkpt lat="46.20078" lon="7.46113"><ele>1882.2</ele><time>2024-08-02T11:31:47Z</time></trkpt>
<trkpt lat="46.20079" lon="7.46123"><ele>1883.2</ele><time>2024-08-02T11:31:53Z</time></trkpt>
<trkpt lat="46.2008" lon="7.46125"><ele>1883.4</ele><time>2024-08-02T11:31:54Z</time></trkpt>
<trkpt lat="46.20083" lon="7.46134"><ele>1884.4</ele><time>2024-08-02T11:32:01Z</time></trkpt>
<trkpt lat="46.20083" lon="7.46135"><ele>1884.4</ele><time>2024-08-02T11:32:02Z</time></trkpt>
<trkpt lat="46.20085" lon="7.46141"><ele>1884.8</ele><time>2024-08-02T11:32:06Z</time></trkpt>
<trkpt lat="46.20084" lon="7.46149"><ele>1885.6</ele><time>2024-08-02T11:32:12Z</time></trkpt>
<trkpt lat="46.20083" lon="7.4615"><ele>1885.6</ele><time>2024-08-02T11:32:13Z</time></trkpt>
<trkpt lat="46.20083" lon="7.46151"><ele>1885.8</ele><time>2024-08-02T11:32:14Z</time></trkpt>
<trkpt lat="46.20083" lon="7.46159"><ele>1886.4</ele><time>2024-08-02T11:32:19Z</time></trkpt>
<trkpt lat="46.20083" lon="7.46161"><ele>1886.6</ele><time>2024-08-02T11:32:20Z</time></trkpt>
<trkpt lat="46.20083" lon="7.46172"><ele>1887.2</ele><time>2024-08-02T11:32:27Z</time></trkpt>
<trkpt lat="46.20084" lon="7.46175"><ele>1887.6</ele><time>2024-08-02T11:32:29Z</time></trkpt>
<trkpt lat="46.20085" lon="7.46182"><ele>1888.2</ele><time>2024-08-02T11:32:34Z</time></trkpt>
<trkpt lat="46.20086" lon="7.4619"><ele>1888.8</ele><time>2024-08-02T11:32:39Z</time></trkpt>
<trkpt lat="46.20086" lon="7.46193"><ele>1889</ele><time>2024-08-02T11:32:41Z</time></trkpt>
<trkpt lat="46.20088" lon="7.46204"><ele>1889.8</ele><time>2024-08-02T11:32:48Z</time></trkpt>
<trkpt lat="46.20089" lon="7.46211"><ele>1890.4</ele><time>2024-08-02T11:32:53Z</time></trkpt>
<trkpt lat="46.20089" lon="7.46214"><ele>1890.8</ele><time>2024-08-02T11:32:55Z</time></trkpt>
<trkpt lat="46.20089" lon="7.46217"><ele>1891</ele><time>2024-08-02T11:32:57Z</time></trkpt>
<trkpt lat="46.2009" lon="7.4622"><ele>1891.2</ele><time>2024-08-02T11:32:59Z</time></trkpt>
<trkpt lat="46.20092" lon="7.46225"><ele>1891.6</ele><time>2024-08-02T11:33:03Z</time></trkpt>
<trkpt lat="46.20092" lon="7.46229"><ele>1892</ele><time>2024-08-02T11:33:05Z</time></trkpt>
<trkpt lat="46.20092" lon="7.46237"><ele>1892.6</ele><time>2024-08-02T11:33:10Z</time></trkpt>
<trkpt lat="46.20092" lon="7.4624"><ele>1893</ele><time>2024-08-02T11:33:12Z</time></trkpt>
<trkpt lat="46.20093" lon="7.46248"><ele>1893.4</ele><time>2024-08-02T11:33:17Z</time></trkpt>
<trkpt lat="46.20094" lon="7.46255"><ele>1894</ele><time>2024-08-02T11:33:23Z</time></trkpt>
<trkpt lat="46.20094" lon="7.46259"><ele>1894.4</ele><time>2024-08-02T11:33:25Z</time></trkpt>
<trkpt lat="46.20095" lon="7.46267"><ele>1895.2</ele><time>2024-08-02T11:33:31Z</time></trkpt>
<trkpt lat="46.20095" lon="7.46269"><ele>1895.2</ele><time>2024-08-02T11:33:32Z</time></trkpt>
<trkpt lat="46.20095" lon="7.4628"><ele>1896.2</ele><time>2024-08-02T11:33:38Z</time></trkpt>
<trkpt lat="46.20095" lon="7.46286"><ele>1896.6</ele><time>2024-08-02T11:33:42Z</time></trkpt>
<trkpt lat="46.20096" lon="7.46291"><ele>1897.2</ele><time>2024-08-02T11:33:46Z</time></trkpt>
<trkpt lat="46.20096" lon="7.46293"><ele>1897.2</ele><time>2024-08-02T11:33:47Z</time></trkpt>
<trkpt lat="46.20095" lon="7.46301"><ele>1898</ele><time>2024-08-02T11:33:53Z</time></trkpt>
<trkpt lat="46.20095" lon="7.46304"><ele>1898.4</ele><time>2024-08-02T11:33:55Z</time></trkpt>
<trkpt lat="46.20094" lon="7.46314"><ele>1899.2</ele><time>2024-08-02T11:34:02Z</time></trkpt>
<trkpt lat="46.20094" lon="7.46315"><ele>1899.4</ele><time>2024-08-02T11:34:03Z</time></trkpt>
<trkpt lat="46.20093" lon="7.46322"><ele>1900</ele><time>2024-08-02T11:34:08Z</time></trkpt>
<trkpt lat="46.20093" lon="7.46325"><ele>1900.4</ele><time>2024-08-02T11:34:10Z</time></trkpt>
<trkpt lat="46.20092" lon="7.46332"><ele>1900.8</ele><time>2024-08-02T11:34:15Z</time></trkpt>
<trkpt lat="46.20092" lon="7.46337"><ele>1901.4</ele><time>2024-08-02T11:34:19Z</time></trkpt>
<trkpt lat="46.20091" lon="7.46343"><ele>1901.8</ele><time>2024-08-02T11:34:23Z</time></trkpt>
<trkpt lat="46.2009" lon="7.46349"><ele>1902.4</ele><time>2024-08-02T11:34:28Z</time></trkpt>
<trkpt lat="46.20091" lon="7.46353"><ele>1902.8</ele><time>2024-08-02T11:34:31Z</time></trkpt>
<trkpt lat="46.2009" lon="7.46359"><ele>1903.4</ele><time>2024-08-02T11:34:35Z</time></trkpt>
<trkpt lat="46.2009" lon="7.46364"><ele>1903.8</ele><time>2024-08-02T11:34:38Z</time></trkpt>
<trkpt lat="46.20088" lon="7.46372"><ele>1904.6</ele><time>2024-08-02T11:34:43Z</time></trkpt>
<trkpt lat="46.20088" lon="7.46376"><ele>1904.8</ele><time>2024-08-02T11:34:45Z</time></trkpt>
<trkpt lat="46.20084" lon="7.46383"><ele>1905.6</ele><time>2024-08-02T11:34:51Z</time></trkpt>
<trkpt lat="46.20078" lon="7.4639"><ele>1906.2</ele><time>2024-08-02T11:34:57Z</time></trkpt>
<trkpt lat="46.20076" lon="7.46392"><ele>1906.6</ele><time>2024-08-02T11:34:59Z</time></trkpt>
<trkpt lat="46.20074" lon="7.46394"><ele>1906.8</ele><time>2024-08-02T11:35:03Z</time></trkpt>
<trkpt lat="46.20074" lon="7.46396"><ele>1907</ele><time>2024-08-02T11:35:04Z</time></trkpt>
<trkpt lat="46.20071" lon="7.46401"><ele>1907.6</ele><time>2024-08-02T11:35:09Z</time></trkpt>
<trkpt lat="46.20071" lon="7.46403"><ele>1907.6</ele><time>2024-08-02T11:35:10Z</time></trkpt>
<trkpt lat="46.20071" lon="7.46412"><ele>1908.4</ele><time>2024-08-02T11:35:16Z</time></trkpt>
<trkpt lat="46.20072" lon="7.46418"><ele>1908.8</ele><time>2024-08-02T11:35:21Z</time></trkpt>
<trkpt lat="46.20072" lon="7.4642"><ele>1909</ele><time>2024-08-02T11:35:23Z</time></trkpt>
<trkpt lat="46.20072" lon="7.46429"><ele>1909.8</ele><time>2024-08-02T11:35:29Z</time></trkpt>
<trkpt lat="46.20072" lon="7.46432"><ele>1910.2</ele><time>2024-08-02T11:35:31Z</time></trkpt>
<trkpt lat="46.2007" lon="7.46445"><ele>1911</ele><time>2024-08-02T11:35:39Z</time></trkpt>
<trkpt lat="46.2007" lon="7.46447"><ele>1911</ele><time>2024-08-02T11:35:40Z</time></trkpt>
<trkpt lat="46.20069" lon="7.46458"><ele>1912</ele><time>2024-08-02T11:35:47Z</time></trkpt>
<trkpt lat="46.20069" lon="7.46459"><ele>1912</ele><time>2024-08-02T11:35:48Z</time></trkpt>
<trkpt lat="46.2007" lon="7.46466"><ele>1912.4</ele><time>2024-08-02T11:35:52Z</time></trkpt>
<trkpt lat="46.2007" lon="7.46471"><ele>1913</ele><time>2024-08-02T11:35:55Z</time></trkpt>
<trkpt lat="46.2007" lon="7.46472"><ele>1913</ele><time>2024-08-02T11:35:56Z</time></trkpt>
<trkpt lat="46.20071" lon="7.46481"><ele>1913.6</ele><time>2024-08-02T11:36:01Z</time></trkpt>
<trkpt lat="46.20071" lon="7.46486"><ele>1914</ele><time>2024-08-02T11:36:04Z</time></trkpt>
<trkpt lat="46.20071" lon="7.46493"><ele>1914.4</ele><time>2024-08-02T11:36:08Z</time></trkpt>
<trkpt lat="46.20072" lon="7.465"><ele>1915.4</ele><time>2024-08-02T11:36:13Z</time></trkpt>
<trkpt lat="46.20073" lon="7.46511"><ele>1916.4</ele><time>2024-08-02T11:36:21Z</time></trkpt>
<trkpt lat="46.20073" lon="7.46513"><ele>1916.4</ele><time>2024-08-02T11:36:22Z</time></trkpt>
<trkpt lat="46.20072" lon="7.46524"><ele>1917.4</ele><time>2024-08-02T11:36:30Z</time></trkpt>
<trkpt lat="46.20071" lon="7.46525"><ele>1917.6</ele><time>2024-08-02T11:36:31Z</time></trkpt>
<trkpt lat="46.20067" lon="7.46534"><ele>1918.6</ele><time>2024-08-02T11:36:37Z</time></trkpt>
<trkpt lat="46.20064" lon="7.46544"><ele>1919.2</ele><time>2024-08-02T11:36:44Z</time></trkpt>
<trkpt lat="46.20064" lon="7.46549"><ele>1919.6</ele><time>2024-08-02T11:36:48Z</time></trkpt>
<trkpt lat="46.20064" lon="7.46552"><ele>1920</ele><time>2024-08-02T11:36:50Z</time></trkpt>
<trkpt lat="46.20065" lon="7.4656"><ele>1920.6</ele><time>2024-08-02T11:36:55Z</time></trkpt>
<trkpt lat="46.20065" lon="7.46563"><ele>1920.6</ele><time>2024-08-02T11:36:57Z</time></trkpt>
<trkpt lat="46.20065" lon="7.46569"><ele>1921.4</ele><time>2024-08-02T11:37:01Z</time></trkpt>
<trkpt lat="46.20065" lon="7.46577"><ele>1921.8</ele><time>2024-08-02T11:37:07Z</time></trkpt>
<trkpt lat="46.20066" lon="7.46581"><ele>1922.2</ele><time>2024-08-02T11:37:09Z</time></trkpt>
<trkpt lat="46.20067" lon="7.46591"><ele>1922.8</ele><time>2024-08-02T11:37:16Z</time></trkpt>
<trkpt lat="46.20068" lon="7.46592"><ele>1923</ele><time>2024-08-02T11:37:17Z</time></trkpt>
<trkpt lat="46.20071" lon="7.46599"><ele>1923.8</ele><time>2024-08-02T11:37:23Z</time></trkpt>
<trkpt lat="46.20071" lon="7.46603"><ele>1924</ele><time>2024-08-02T11:37:26Z</time></trkpt>
<trkpt lat="46.20072" lon="7.46605"><ele>1924.2</ele><time>2024-08-02T11:37:27Z</time></trkpt>
<trkpt lat="46.20072" lon="7.46608"><ele>1924.4</ele><time>2024-08-02T11:37:29Z</time></trkpt>
<trkpt lat="46.20074" lon="7.46617"><ele>1925.2</ele><time>2024-08-02T11:37:36Z</time></trkpt>
<trkpt lat="46.20075" lon="7.46627"><ele>1926</ele><time>2024-08-02T11:37:43Z</time></trkpt>
<trkpt lat="46.20075" lon="7.46628"><ele>1926.4</ele><time>2024-08-02T11:37:45Z</time></trkpt>
<trkpt lat="46.20077" lon="7.46638"><ele>1927</ele><time>2024-08-02T11:37:52Z</time></trkpt>
<trkpt lat="46.20078" lon="7.46643"><ele>1927.6</ele><time>2024-08-02T11:37:56Z</time></trkpt>
<trkpt lat="46.20078" lon="7.46647"><ele>1927.8</ele><time>2024-08-02T11:37:59Z</time></trkpt>
<trkpt lat="46.20079" lon="7.46655"><ele>1928.6</ele><time>2024-08-02T11:38:06Z</time></trkpt>
<trkpt lat="46.2008" lon="7.46666"><ele>1929.2</ele><time>2024-08-02T11:38:13Z</time></trkpt>
<trkpt lat="46.2008" lon="7.46672"><ele>1929.8</ele><time>2024-08-02T11:38:18Z</time></trkpt>
<trkpt lat="46.20079" lon="7.46676"><ele>1930.2</ele><time>2024-08-02T11:38:21Z</time></trkpt>
<trkpt lat="46.20078" lon="7.46682"><ele>1930.6</ele><time>2024-08-02T11:38:25Z</time></trkpt>
<trkpt lat="46.20078" lon="7.46683"><ele>1930.8</ele><time>2024-08-02T11:38:26Z</time></trkpt>
<trkpt lat="46.20077" lon="7.46685"><ele>1931</ele><time>2024-08-02T11:38:28Z</time></trkpt>
<trkpt lat="46.20073" lon="7.46694"><ele>1931.8</ele><time>2024-08-02T11:38:35Z</time></trkpt>
<trkpt lat="46.20073" lon="7.46695"><ele>1931.8</ele><time>2024-08-02T11:38:36Z</time></trkpt>
<trkpt lat="46.20071" lon="7.46705"><ele>1932.8</ele><time>2024-08-02T11:38:43Z</time></trkpt>
<trkpt lat="46.2007" lon="7.46707"><ele>1933.2</ele><time>2024-08-02T11:38:45Z</time></trkpt>
<trkpt lat="46.20067" lon="7.46711"><ele>1933.6</ele><time>2024-08-02T11:38:49Z</time></trkpt>
<trkpt lat="46.20065" lon="7.46714"><ele>1934</ele><time>2024-08-02T11:38:52Z</time></trkpt>
<trkpt lat="46.20064" lon="7.46717"><ele>1934.4</ele><time>2024-08-02T11:38:55Z</time></trkpt>
<trkpt lat="46.20063" lon="7.46723"><ele>1935</ele><time>2024-08-02T11:39:00Z</time></trkpt>
<trkpt lat="46.20063" lon="7.46728"><ele>1935.2</ele><time>2024-08-02T11:39:03Z</time></trkpt>
<trkpt lat="46.20063" lon="7.46738"><ele>1936</ele><time>2024-08-02T11:39:10Z</time></trkpt>
<trkpt lat="46.20063" lon="7.4674"><ele>1936</ele><time>2024-08-02T11:39:11Z</time></trkpt>
<trkpt lat="46.20062" lon="7.4675"><ele>1936.8</ele><time>2024-08-02T11:39:18Z</time></trkpt>
<trkpt lat="46.20062" lon="7.46753"><ele>1937.2</ele><time>2024-08-02T11:39:20Z</time></trkpt>
<trkpt lat="46.20064" lon="7.46764"><ele>1938</ele><time>2024-08-02T11:39:27Z</time></trkpt>
<trkpt lat="46.20064" lon="7.46766"><ele>1938.2</ele><time>2024-08-02T11:39:29Z</time></trkpt>
<trkpt lat="46.20066" lon="7.46774"><ele>1938.6</ele><time>2024-08-02T11:39:34Z</time></trkpt>
<trkpt lat="46.20065" lon="7.46782"><ele>1939.4</ele><time>2024-08-02T11:39:40Z</time></trkpt>
<trkpt lat="46.20064" lon="7.46785"><ele>1939.8</ele><time>2024-08-02T11:39:42Z</time></trkpt>
<trkpt lat="46.20061" lon="7.46791"><ele>1940.2</ele><time>2024-08-02T11:39:47Z</time></trkpt>
<trkpt lat="46.20059" lon="7.46794"><ele>1940.4</ele><time>2024-08-02T11:39:49Z</time></trkpt>
<trkpt lat="46.20054" lon="7.468"><ele>1941.4</ele><time>2024-08-02T11:39:56Z</time></trkpt>
<trkpt lat="46.20053" lon="7.46801"><ele>1941.4</ele><time>2024-08-02T11:39:57Z</time></trkpt>
<trkpt lat="46.20048" lon="7.4681"><ele>1942.4</ele><time>2024-08-02T11:40:04Z</time></trkpt>
<trkpt lat="46.20047" lon="7.46811"><ele>1942.4</ele><time>2024-08-02T11:40:05Z</time></trkpt>
<trkpt lat="46.20043" lon="7.46822"><ele>1943.6</ele><time>2024-08-02T11:40:13Z</time></trkpt>
<trkpt lat="46.20041" lon="7.46824"><ele>1944</ele><time>2024-08-02T11:40:16Z</time></trkpt>
<trkpt lat="46.20038" lon="7.46828"><ele>1944.6</ele><time>2024-08-02T11:40:21Z</time></trkpt>
<trkpt lat="46.20034" lon="7.4684"><ele>1945.4</ele><time>2024-08-02T11:40:28Z</time></trkpt>
<trkpt lat="46.20034" lon="7.46841"><ele>1945.6</ele><time>2024-08-02T11:40:29Z</time></trkpt>
<trkpt lat="46.20031" lon="7.4685"><ele>1946.4</ele><time>2024-08-02T11:40:35Z</time></trkpt>
<trkpt lat="46.2003" lon="7.46851"><ele>1946.6</ele><time>2024-08-02T11:40:36Z</time></trkpt>
<trkpt lat="46.2003" lon="7.46852"><ele>1946.6</ele><time>2024-08-02T11:40:37Z</time></trkpt>
<trkpt lat="46.20027" lon="7.46864"><ele>1947.6</ele><time>2024-08-02T11:40:45Z</time></trkpt>
<trkpt lat="46.20027" lon="7.46866"><ele>1947.8</ele><time>2024-08-02T11:40:46Z</time></trkpt>
<trkpt lat="46.20027" lon="7.4687"><ele>1948.2</ele><time>2024-08-02T11:40:49Z</time></trkpt>
<trkpt lat="46.20028" lon="7.46876"><ele>1948.6</ele><time>2024-08-02T11:40:53Z</time></trkpt>
<trkpt lat="46.20028" lon="7.46877"><ele>1948.8</ele><time>2024-08-02T11:40:54Z</time></trkpt>
<trkpt lat="46.20028" lon="7.46887"><ele>1949.6</ele><time>2024-08-02T11:41:01Z</time></trkpt>
<trkpt lat="46.20027" lon="7.46894"><ele>1950</ele><time>2024-08-02T11:41:05Z</time></trkpt>
<trkpt lat="46.20027" lon="7.469"><ele>1950.4</ele><time>2024-08-02T11:41:09Z</time></trkpt>
<trkpt lat="46.20026" lon="7.46909"><ele>1951</ele><time>2024-08-02T11:41:15Z</time></trkpt>
<trkpt lat="46.20026" lon="7.46911"><ele>1951.2</ele><time>2024-08-02T11:41:16Z</time></trkpt>
<trkpt lat="46.20025" lon="7.46912"><ele>1951.2</ele><time>2024-08-02T11:41:17Z</time></trkpt>
<trkpt lat="46.2002" lon="7.46915"><ele>1952</ele><time>2024-08-02T11:41:22Z</time></trkpt>
<trkpt lat="46.20019" lon="7.46917"><ele>1952</ele><time>2024-08-02T11:41:24Z</time></trkpt>
<trkpt lat="46.20013" lon="7.46921"><ele>1953</ele><time>2024-08-02T11:41:30Z</time></trkpt>
<trkpt lat="46.2001" lon="7.46923"><ele>1953.2</ele><time>2024-08-02T11:41:33Z</time></trkpt>
<trkpt lat="46.20005" lon="7.46927"><ele>1953.8</ele><time>2024-08-02T11:41:38Z</time></trkpt>
<trkpt lat="46.20002" lon="7.46931"><ele>1954.4</ele><time>2024-08-02T11:41:42Z</time></trkpt>
<trkpt lat="46.20001" lon="7.46935"><ele>1954.8</ele><time>2024-08-02T11:41:45Z</time></trkpt>
<trkpt lat="46.19998" lon="7.4694"><ele>1955.4</ele><time>2024-08-02T11:41:49Z</time></trkpt>
<trkpt lat="46.19997" lon="7.46942"><ele>1955.8</ele><time>2024-08-02T11:41:52Z</time></trkpt>
<trkpt lat="46.19992" lon="7.46947"><ele>1956.4</ele><time>2024-08-02T11:41:58Z</time></trkpt>
<trkpt lat="46.19991" lon="7.46949"><ele>1956.4</ele><time>2024-08-02T11:41:59Z</time></trkpt>
<trkpt lat="46.19989" lon="7.46954"><ele>1957</ele><time>2024-08-02T11:42:04Z</time></trkpt>
<trkpt lat="46.19986" lon="7.46958"><ele>1957.4</ele><time>2024-08-02T11:42:08Z</time></trkpt>
<trkpt lat="46.19984" lon="7.46961"><ele>1957.6</ele><time>2024-08-02T11:42:11Z</time></trkpt>
<trkpt lat="46.19979" lon="7.46969"><ele>1958.6</ele><time>2024-08-02T11:42:19Z</time></trkpt>
<trkpt lat="46.19978" lon="7.4697"><ele>1958.8</ele><time>2024-08-02T11:42:20Z</time></trkpt>
<trkpt lat="46.19972" lon="7.46975"><ele>1959.4</ele><time>2024-08-02T11:42:26Z</time></trkpt>
<trkpt lat="46.19971" lon="7.46976"><ele>1959.6</ele><time>2024-08-02T11:42:27Z</time></trkpt>
<trkpt lat="46.19967" lon="7.4698"><ele>1960.2</ele><time>2024-08-02T11:42:31Z</time></trkpt>
<trkpt lat="46.19964" lon="7.46986"><ele>1960.8</ele><time>2024-08-02T11:42:35Z</time></trkpt>
<trkpt lat="46.19963" lon="7.46994"><ele>1961.4</ele><time>2024-08-02T11:42:39Z</time></trkpt>
<trkpt lat="46.19963" lon="7.47002"><ele>1962</ele><time>2024-08-02T11:42:43Z</time></trkpt>
<trkpt lat="46.19964" lon="7.47005"><ele>1962.2</ele><time>2024-08-02T11:42:45Z</time></trkpt>
<trkpt lat="46.19965" lon="7.47013"><ele>1963</ele><time>2024-08-02T11:42:50Z</time></trkpt>
<trkpt lat="46.19964" lon="7.47016"><ele>1963.2</ele><time>2024-08-02T11:42:52Z</time></trkpt>
<trkpt lat="46.19964" lon="7.47026"><ele>1964</ele><time>2024-08-02T11:42:58Z</time></trkpt>
<trkpt lat="46.19964" lon="7.47028"><ele>1964</ele><time>2024-08-02T11:42:59Z</time></trkpt>
<trkpt lat="46.19963" lon="7.47036"><ele>1964.6</ele><time>2024-08-02T11:43:05Z</time></trkpt>
<trkpt lat="46.1996" lon="7.47047"><ele>1965</ele><time>2024-08-02T11:43:12Z</time></trkpt>
<trkpt lat="46.19955" lon="7.47058"><ele>1965.8</ele><time>2024-08-02T11:43:20Z</time></trkpt>
<trkpt lat="46.19953" lon="7.47062"><ele>1965.8</ele><time>2024-08-02T11:43:24Z</time></trkpt>
<trkpt lat="46.19952" lon="7.47063"><ele>1966</ele><time>2024-08-02T11:43:25Z</time></trkpt>
<trkpt lat="46.19946" lon="7.47072"><ele>1966.4</ele><time>2024-08-02T11:43:31Z</time></trkpt>
<trkpt lat="46.19937" lon="7.4708"><ele>1966.6</ele><time>2024-08-02T11:43:38Z</time></trkpt>
<trkpt lat="46.19933" lon="7.47084"><ele>1967</ele><time>2024-08-02T11:43:43Z</time></trkpt>
<trkpt lat="46.19931" lon="7.47088"><ele>1967.2</ele><time>2024-08-02T11:43:45Z</time></trkpt>
<trkpt lat="46.1993" lon="7.47088"><ele>1967.2</ele><time>2024-08-02T11:43:46Z</time></trkpt>
<trkpt lat="46.19929" lon="7.47091"><ele>1967.6</ele><time>2024-08-02T11:43:48Z</time></trkpt>
<trkpt lat="46.19926" lon="7.471"><ele>1968.2</ele><time>2024-08-02T11:43:53Z</time></trkpt>
<trkpt lat="46.19919" lon="7.47111"><ele>1968.8</ele><time>2024-08-02T11:44:01Z</time></trkpt>
<trkpt lat="46.19917" lon="7.47113"><ele>1969</ele><time>2024-08-02T11:44:03Z</time></trkpt>
<trkpt lat="46.19916" lon="7.47114"><ele>1969.2</ele><time>2024-08-02T11:44:04Z</time></trkpt>
<trkpt lat="46.19913" lon="7.47117"><ele>1969.4</ele><time>2024-08-02T11:44:07Z</time></trkpt>
<trkpt lat="46.19907" lon="7.47124"><ele>1970.2</ele><time>2024-08-02T11:44:13Z</time></trkpt>
<trkpt lat="46.19906" lon="7.47127"><ele>1970.4</ele><time>2024-08-02T11:44:15Z</time></trkpt>
<trkpt lat="46.199" lon="7.47139"><ele>1971</ele><time>2024-08-02T11:44:23Z</time></trkpt>
<trkpt lat="46.19897" lon="7.47143"><ele>1971.2</ele><time>2024-08-02T11:44:26Z</time></trkpt>
<trkpt lat="46.19895" lon="7.47149"><ele>1971.6</ele><time>2024-08-02T11:44:30Z</time></trkpt>
<trkpt lat="46.19891" lon="7.47151"><ele>1972.2</ele><time>2024-08-02T11:44:35Z</time></trkpt>
<trkpt lat="46.1989" lon="7.47151"><ele>1972.2</ele><time>2024-08-02T11:44:36Z</time></trkpt>
<trkpt lat="46.19884" lon="7.47157"><ele>1972.8</ele><time>2024-08-02T11:44:42Z</time></trkpt>
<trkpt lat="46.19883" lon="7.47157"><ele>1973</ele><time>2024-08-02T11:44:43Z</time></trkpt>
<trkpt lat="46.19878" lon="7.47157"><ele>1973.4</ele><time>2024-08-02T11:44:48Z</time></trkpt>
<trkpt lat="46.19873" lon="7.47156"><ele>1974</ele><time>2024-08-02T11:44:54Z</time></trkpt>
<trkpt lat="46.1987" lon="7.47156"><ele>1974.4</ele><time>2024-08-02T11:44:57Z</time></trkpt>
<trkpt lat="46.19866" lon="7.47154"><ele>1974.8</ele><time>2024-08-02T11:45:01Z</time></trkpt>
<trkpt lat="46.19864" lon="7.47152"><ele>1975.2</ele><time>2024-08-02T11:45:04Z</time></trkpt>
<trkpt lat="46.19863" lon="7.4715"><ele>1975.2</ele><time>2024-08-02T11:45:06Z</time></trkpt>
<trkpt lat="46.1986" lon="7.4715"><ele>1975.4</ele><time>2024-08-02T11:45:09Z</time></trkpt>
<trkpt lat="46.19858" lon="7.47148"><ele>1975.8</ele><time>2024-08-02T11:45:13Z</time></trkpt>
<trkpt lat="46.19854" lon="7.47147"><ele>1976.4</ele><time>2024-08-02T11:45:17Z</time></trkpt>
<trkpt lat="46.1985" lon="7.47147"><ele>1976.8</ele><time>2024-08-02T11:45:21Z</time></trkpt>
<trkpt lat="46.19846" lon="7.47147"><ele>1977.4</ele><time>2024-08-02T11:45:26Z</time></trkpt>
<trkpt lat="46.19844" lon="7.47146"><ele>1977.8</ele><time>2024-08-02T11:45:28Z</time></trkpt>
<trkpt lat="46.19837" lon="7.47149"><ele>1978.6</ele><time>2024-08-02T11:45:36Z</time></trkpt>
<trkpt lat="46.19833" lon="7.47151"><ele>1979.2</ele><time>2024-08-02T11:45:40Z</time></trkpt>
<trkpt lat="46.19832" lon="7.47152"><ele>1979.4</ele><time>2024-08-02T11:45:42Z</time></trkpt>
<trkpt lat="46.1983" lon="7.47153"><ele>1979.6</ele><time>2024-08-02T11:45:44Z</time></trkpt>
<trkpt lat="46.19825" lon="7.47155"><ele>1980.2</ele><time>2024-08-02T11:45:49Z</time></trkpt>
<trkpt lat="46.19823" lon="7.47157"><ele>1980.6</ele><time>2024-08-02T11:45:52Z</time></trkpt>
<trkpt lat="46.1982" lon="7.4716"><ele>1981.2</ele><time>2024-08-02T11:45:56Z</time></trkpt>
<trkpt lat="46.19817" lon="7.47164"><ele>1981.8</ele><time>2024-08-02T11:46:00Z</time></trkpt>
<trkpt lat="46.19816" lon="7.4717"><ele>1982.2</ele><time>2024-08-02T11:46:05Z</time></trkpt>
<trkpt lat="46.19815" lon="7.47171"><ele>1982.6</ele><time>2024-08-02T11:46:06Z</time></trkpt>
<trkpt lat="46.19815" lon="7.47173"><ele>1982.8</ele><time>2024-08-02T11:46:08Z</time></trkpt>
<trkpt lat="46.19815" lon="7.47176"><ele>1983</ele><time>2024-08-02T11:46:10Z</time></trkpt>
<trkpt lat="46.19812" lon="7.47183"><ele>1983.8</ele><time>2024-08-02T11:46:15Z</time></trkpt>
<trkpt lat="46.19811" lon="7.47185"><ele>1984</ele><time>2024-08-02T11:46:17Z</time></trkpt>
<trkpt lat="46.19805" lon="7.47193"><ele>1984.8</ele><time>2024-08-02T11:46:26Z</time></trkpt>
<trkpt lat="46.198" lon="7.47197"><ele>1985.8</ele><time>2024-08-02T11:46:33Z</time></trkpt>
<trkpt lat="46.19799" lon="7.47198"><ele>1986</ele><time>2024-08-02T11:46:34Z</time></trkpt>
<trkpt lat="46.19794" lon="7.47202"><ele>1986.6</ele><time>2024-08-02T11:46:39Z</time></trkpt>
<trkpt lat="46.19791" lon="7.47205"><ele>1987.2</ele><time>2024-08-02T11:46:44Z</time></trkpt>
<trkpt lat="46.1979" lon="7.47205"><ele>1987.2</ele><time>2024-08-02T11:46:45Z</time></trkpt>
<trkpt lat="46.19782" lon="7.47208"><ele>1988</ele><time>2024-08-02T11:46:52Z</time></trkpt>
<trkpt lat="46.19781" lon="7.4721"><ele>1988.2</ele><time>2024-08-02T11:46:54Z</time></trkpt>
<trkpt lat="46.19777" lon="7.47212"><ele>1989</ele><time>2024-08-02T11:46:59Z</time></trkpt>
<trkpt lat="46.19774" lon="7.47214"><ele>1989.2</ele><time>2024-08-02T11:47:02Z</time></trkpt>
<trkpt lat="46.1977" lon="7.47217"><ele>1989.8</ele><time>2024-08-02T11:47:06Z</time></trkpt>
<trkpt lat="46.19765" lon="7.47219"><ele>1990.4</ele><time>2024-08-02T11:47:12Z</time></trkpt>
<trkpt lat="46.19757" lon="7.47222"><ele>1991.2</ele><time>2024-08-02T11:47:20Z</time></trkpt>
<trkpt lat="46.19756" lon="7.47223"><ele>1991.4</ele><time>2024-08-02T11:47:21Z</time></trkpt>
<trkpt lat="46.19751" lon="7.47224"><ele>1992.2</ele><time>2024-08-02T11:47:27Z</time></trkpt>
<trkpt lat="46.1975" lon="7.47225"><ele>1992.6</ele><time>2024-08-02T11:47:29Z</time></trkpt>
<trkpt lat="46.19743" lon="7.47226"><ele>1993.4</ele><time>2024-08-02T11:47:35Z</time></trkpt>
<trkpt lat="46.19739" lon="7.47228"><ele>1993.6</ele><time>2024-08-02T11:47:39Z</time></trkpt>
<trkpt lat="46.19738" lon="7.47229"><ele>1993.8</ele><time>2024-08-02T11:47:41Z</time></trkpt>
<trkpt lat="46.19733" lon="7.47232"><ele>1994.6</ele><time>2024-08-02T11:47:47Z</time></trkpt>
<trkpt lat="46.19731" lon="7.47233"><ele>1995</ele><time>2024-08-02T11:47:49Z</time></trkpt>
<trkpt lat="46.19726" lon="7.47239"><ele>1995.8</ele><time>2024-08-02T11:47:55Z</time></trkpt>
<trkpt lat="46.19725" lon="7.4724"><ele>1996.2</ele><time>2024-08-02T11:47:57Z</time></trkpt>
<trkpt lat="46.19721" lon="7.47246"><ele>1996.8</ele><time>2024-08-02T11:48:03Z</time></trkpt>
<trkpt lat="46.1972" lon="7.47247"><ele>1997.2</ele><time>2024-08-02T11:48:05Z</time></trkpt>
<trkpt lat="46.19717" lon="7.47255"><ele>1997.8</ele><time>2024-08-02T11:48:12Z</time></trkpt>
<trkpt lat="46.19717" lon="7.47257"><ele>1998</ele><time>2024-08-02T11:48:13Z</time></trkpt>
<trkpt lat="46.19715" lon="7.47263"><ele>1998.6</ele><time>2024-08-02T11:48:18Z</time></trkpt>
<trkpt lat="46.19714" lon="7.47267"><ele>1999</ele><time>2024-08-02T11:48:21Z</time></trkpt>
<trkpt lat="46.19713" lon="7.47273"><ele>1999.6</ele><time>2024-08-02T11:48:26Z</time></trkpt>
<trkpt lat="46.19712" lon="7.47281"><ele>2000.2</ele><time>2024-08-02T11:48:31Z</time></trkpt>
<trkpt lat="46.19713" lon="7.47285"><ele>2000.4</ele><time>2024-08-02T11:48:34Z</time></trkpt>
<trkpt lat="46.19712" lon="7.47293"><ele>2001</ele><time>2024-08-02T11:48:39Z</time></trkpt>
<trkpt lat="46.19712" lon="7.47294"><ele>2001.2</ele><time>2024-08-02T11:48:41Z</time></trkpt>
<trkpt lat="46.19708" lon="7.47302"><ele>2002.2</ele><time>2024-08-02T11:48:48Z</time></trkpt>
<trkpt lat="46.19706" lon="7.47304"><ele>2002.4</ele><time>2024-08-02T11:48:49Z</time></trkpt>
<trkpt lat="46.19703" lon="7.47309"><ele>2003.2</ele><time>2024-08-02T11:48:54Z</time></trkpt>
<trkpt lat="46.19701" lon="7.4731"><ele>2003.4</ele><time>2024-08-02T11:48:56Z</time></trkpt>
<trkpt lat="46.19696" lon="7.47314"><ele>2004.4</ele><time>2024-08-02T11:49:01Z</time></trkpt>
<trkpt lat="46.19694" lon="7.47314"><ele>2004.6</ele><time>2024-08-02T11:49:03Z</time></trkpt>
<trkpt lat="46.19689" lon="7.47311"><ele>2005.4</ele><time>2024-08-02T11:49:08Z</time></trkpt>
<trkpt lat="46.19687" lon="7.47307"><ele>2005.8</ele><time>2024-08-02T11:49:11Z</time></trkpt>
<trkpt lat="46.19684" lon="7.47301"><ele>2006.6</ele><time>2024-08-02T11:49:17Z</time></trkpt>
<trkpt lat="46.19678" lon="7.47291"><ele>2007.8</ele><time>2024-08-02T11:49:25Z</time></trkpt>
<trkpt lat="46.19673" lon="7.47283"><ele>2008.8</ele><time>2024-08-02T11:49:32Z</time></trkpt>
<trkpt lat="46.19673" lon="7.47281"><ele>2009</ele><time>2024-08-02T11:49:33Z</time></trkpt>
<trkpt lat="46.19668" lon="7.47273"><ele>2009.8</ele><time>2024-08-02T11:49:39Z</time></trkpt>
<trkpt lat="46.19667" lon="7.47272"><ele>2010</ele><time>2024-08-02T11:49:40Z</time></trkpt>
<trkpt lat="46.19666" lon="7.47271"><ele>2010</ele><time>2024-08-02T11:49:41Z</time></trkpt>
<trkpt lat="46.19663" lon="7.47269"><ele>2010.6</ele><time>2024-08-02T11:49:45Z</time></trkpt>
<trkpt lat="46.1966" lon="7.47267"><ele>2011.2</ele><time>2024-08-02T11:49:48Z</time></trkpt>
<trkpt lat="46.19654" lon="7.47264"><ele>2012</ele><time>2024-08-02T11:49:53Z</time></trkpt>
<trkpt lat="46.19651" lon="7.47263"><ele>2012.2</ele><time>2024-08-02T11:49:56Z</time></trkpt>
<trkpt lat="46.19647" lon="7.47263"><ele>2012.8</ele><time>2024-08-02T11:50:00Z</time></trkpt>
<trkpt lat="46.19645" lon="7.47264"><ele>2013.4</ele><time>2024-08-02T11:50:03Z</time></trkpt>
<trkpt lat="46.19639" lon="7.47262"><ele>2014.2</ele><time>2024-08-02T11:50:09Z</time></trkpt>
<trkpt lat="46.19637" lon="7.47262"><ele>2014.4</ele><time>2024-08-02T11:50:11Z</time></trkpt>
<trkpt lat="46.1963" lon="7.47261"><ele>2015.2</ele><time>2024-08-02T11:50:17Z</time></trkpt>
<trkpt lat="46.19627" lon="7.47261"><ele>2015.6</ele><time>2024-08-02T11:50:19Z</time></trkpt>
<trkpt lat="46.1962" lon="7.47259"><ele>2016.6</ele><time>2024-08-02T11:50:26Z</time></trkpt>
<trkpt lat="46.19613" lon="7.47257"><ele>2017.8</ele><time>2024-08-02T11:50:33Z</time></trkpt>
<trkpt lat="46.19607" lon="7.47255"><ele>2018.8</ele><time>2024-08-02T11:50:39Z</time></trkpt>
<trkpt lat="46.19604" lon="7.47255"><ele>2019</ele><time>2024-08-02T11:50:41Z</time></trkpt>
<trkpt lat="46.196" lon="7.47253"><ele>2020</ele><time>2024-08-02T11:50:46Z</time></trkpt>
<trkpt lat="46.19595" lon="7.47251"><ele>2020.6</ele><time>2024-08-02T11:50:50Z</time></trkpt>
<trkpt lat="46.19593" lon="7.4725"><ele>2021.2</ele><time>2024-08-02T11:50:52Z</time></trkpt>
<trkpt lat="46.19585" lon="7.4725"><ele>2022.2</ele><time>2024-08-02T11:50:58Z</time></trkpt>
<trkpt lat="46.19583" lon="7.4725"><ele>2022.2</ele><time>2024-08-02T11:50:59Z</time></trkpt>
<trkpt lat="46.19575" lon="7.4725"><ele>2023.4</ele><time>2024-08-02T11:51:05Z</time></trkpt>
<trkpt lat="46.19573" lon="7.47249"><ele>2023.6</ele><time>2024-08-02T11:51:07Z</time></trkpt>
<trkpt lat="46.19572" lon="7.4725"><ele>2023.8</ele><time>2024-08-02T11:51:08Z</time></trkpt>
<trkpt lat="46.19567" lon="7.47252"><ele>2024.4</ele><time>2024-08-02T11:51:12Z</time></trkpt>
<trkpt lat="46.19566" lon="7.47252"><ele>2024.6</ele><time>2024-08-02T11:51:13Z</time></trkpt>
<trkpt lat="46.19558" lon="7.47252"><ele>2025.4</ele><time>2024-08-02T11:51:18Z</time></trkpt>
<trkpt lat="46.19552" lon="7.47249"><ele>2026.2</ele><time>2024-08-02T11:51:22Z</time></trkpt>
<trkpt lat="46.19551" lon="7.47249"><ele>2026.4</ele><time>2024-08-02T11:51:23Z</time></trkpt>
<trkpt lat="46.1955" lon="7.47249"><ele>2027.6</ele><time>2024-08-02T11:51:27Z</time></trkpt>
<trkpt lat="46.1955" lon="7.47249"><ele>2027.6</ele><time>2024-08-02T11:51:28Z</time></trkpt>
<trkpt lat="46.1955" lon="7.47248"><ele>2028</ele><time>2024-08-02T11:51:41Z</time></trkpt>
<trkpt lat="46.19549" lon="7.47249"><ele>2027.8</ele><time>2024-08-02T11:51:53Z</time></trkpt>
<trkpt lat="46.19549" lon="7.47248"><ele>2027.8</ele><time>2024-08-02T11:51:56Z</time></trkpt>
<trkpt lat="46.19549" lon="7.47248"><ele>2027.6</ele><time>2024-08-02T11:52:05Z</time></trkpt>
<trkpt lat="46.19549" lon="7.47248"><ele>2027.6</ele><time>2024-08-02T11:52:07Z</time></trkpt>
<trkpt lat="46.19549" lon="7.47248"><ele>2027.6</ele><time>2024-08-02T11:52:11Z</time></trkpt>
<trkpt lat="46.1955" lon="7.47247"><ele>2027.6</ele><time>2024-08-02T11:52:14Z</time></trkpt>
<trkpt lat="46.19551" lon="7.47249"><ele>2027.6</ele><time>2024-08-02T11:52:20Z</time></trkpt>
<trkpt lat="46.19552" lon="7.47249"><ele>2027.4</ele><time>2024-08-02T11:52:25Z</time></trkpt>
<trkpt lat="46.19552" lon="7.47249"><ele>2027.4</ele><time>2024-08-02T11:52:28Z</time></trkpt>
<trkpt lat="46.19551" lon="7.47249"><ele>2027.4</ele><time>2024-08-02T11:52:35Z</time></trkpt>
<trkpt lat="46.19551" lon="7.4725"><ele>2027.4</ele><time>2024-08-02T11:52:43Z</time></trkpt>
<trkpt lat="46.19551" lon="7.4725"><ele>2027.4</ele><time>2024-08-02T11:52:44Z</time></trkpt>
<trkpt lat="46.1955" lon="7.4725"><ele>2027.4</ele><time>2024-08-02T11:52:47Z</time></trkpt>
<trkpt lat="46.19549" lon="7.47249"><ele>2027.4</ele><time>2024-08-02T11:52:51Z</time></trkpt>
<trkpt lat="46.19547" lon="7.47252"><ele>2027.4</ele><time>2024-08-02T11:52:54Z</time></trkpt>
<trkpt lat="46.19545" lon="7.47254"><ele>2027.4</ele><time>2024-08-02T11:52:57Z</time></trkpt>
<trkpt lat="46.19541" lon="7.47258"><ele>2027.8</ele><time>2024-08-02T11:53:01Z</time></trkpt>
<trkpt lat="46.19538" lon="7.47262"><ele>2028.4</ele><time>2024-08-02T11:53:05Z</time></trkpt>
<trkpt lat="46.19534" lon="7.47267"><ele>2028.6</ele><time>2024-08-02T11:53:09Z</time></trkpt>
<trkpt lat="46.19533" lon="7.4727"><ele>2029.2</ele><time>2024-08-02T11:53:11Z</time></trkpt>
<trkpt lat="46.19529" lon="7.47275"><ele>2029.8</ele><time>2024-08-02T11:53:16Z</time></trkpt>
<trkpt lat="46.19527" lon="7.47278"><ele>2030</ele><time>2024-08-02T11:53:18Z</time></trkpt>
<trkpt lat="46.19525" lon="7.47281"><ele>2030.6</ele><time>2024-08-02T11:53:21Z</time></trkpt>
<trkpt lat="46.19524" lon="7.47283"><ele>2030.8</ele><time>2024-08-02T11:53:23Z</time></trkpt>
<trkpt lat="46.19521" lon="7.47287"><ele>2031.2</ele><time>2024-08-02T11:53:26Z</time></trkpt>
<trkpt lat="46.19516" lon="7.47294"><ele>2032</ele><time>2024-08-02T11:53:32Z</time></trkpt>
<trkpt lat="46.19514" lon="7.47298"><ele>2032.4</ele><time>2024-08-02T11:53:35Z</time></trkpt>
<trkpt lat="46.19512" lon="7.47302"><ele>2032.8</ele><time>2024-08-02T11:53:39Z</time></trkpt>
<trkpt lat="46.19511" lon="7.47304"><ele>2033</ele><time>2024-08-02T11:53:41Z</time></trkpt>
<trkpt lat="46.19509" lon="7.47306"><ele>2033.4</ele><time>2024-08-02T11:53:43Z</time></trkpt>
<trkpt lat="46.19504" lon="7.47312"><ele>2034.2</ele><time>2024-08-02T11:53:50Z</time></trkpt>
<trkpt lat="46.19503" lon="7.47313"><ele>2034.2</ele><time>2024-08-02T11:53:51Z</time></trkpt>
<trkpt lat="46.19496" lon="7.47318"><ele>2035.2</ele><time>2024-08-02T11:53:59Z</time></trkpt>
<trkpt lat="46.19492" lon="7.47322"><ele>2035.6</ele><time>2024-08-02T11:54:05Z</time></trkpt>
<trkpt lat="46.19487" lon="7.47323"><ele>2036.4</ele><time>2024-08-02T11:54:10Z</time></trkpt>
<trkpt lat="46.19481" lon="7.4733"><ele>2037.2</ele><time>2024-08-02T11:54:17Z</time></trkpt>
<trkpt lat="46.1948" lon="7.47331"><ele>2037.4</ele><time>2024-08-02T11:54:18Z</time></trkpt>
<trkpt lat="46.19479" lon="7.47332"><ele>2037.8</ele><time>2024-08-02T11:54:20Z</time></trkpt>
<trkpt lat="46.19478" lon="7.47333"><ele>2037.8</ele><time>2024-08-02T11:54:21Z</time></trkpt>
<trkpt lat="46.19477" lon="7.47333"><ele>2037.8</ele><time>2024-08-02T11:54:22Z</time></trkpt>
<trkpt lat="46.19475" lon="7.47337"><ele>2038.2</ele><time>2024-08-02T11:54:25Z</time></trkpt>
<trkpt lat="46.19473" lon="7.47341"><ele>2038.6</ele><time>2024-08-02T11:54:28Z</time></trkpt>
<trkpt lat="46.19472" lon="7.47343"><ele>2038.8</ele><time>2024-08-02T11:54:30Z</time></trkpt>
<trkpt lat="46.19471" lon="7.47344"><ele>2038.8</ele><time>2024-08-02T11:54:31Z</time></trkpt>
<trkpt lat="46.19469" lon="7.47346"><ele>2039.4</ele><time>2024-08-02T11:54:35Z</time></trkpt>
<trkpt lat="46.19467" lon="7.47348"><ele>2039.6</ele><time>2024-08-02T11:54:37Z</time></trkpt>
<trkpt lat="46.19462" lon="7.47354"><ele>2040.6</ele><time>2024-08-02T11:54:44Z</time></trkpt>
<trkpt lat="46.1946" lon="7.47359"><ele>2041.6</ele><time>2024-08-02T11:54:50Z</time></trkpt>
<trkpt lat="46.19459" lon="7.4736"><ele>2041.8</ele><time>2024-08-02T11:54:51Z</time></trkpt>
<trkpt lat="46.19455" lon="7.47367"><ele>2042.2</ele><time>2024-08-02T11:54:56Z</time></trkpt>
<trkpt lat="46.19453" lon="7.47373"><ele>2042.8</ele><time>2024-08-02T11:55:01Z</time></trkpt>
<trkpt lat="46.19452" lon="7.47376"><ele>2043</ele><time>2024-08-02T11:55:03Z</time></trkpt>
<trkpt lat="46.19448" lon="7.47383"><ele>2044</ele><time>2024-08-02T11:55:10Z</time></trkpt>
<trkpt lat="46.19444" lon="7.4739"><ele>2044.8</ele><time>2024-08-02T11:55:17Z</time></trkpt>
<trkpt lat="46.19443" lon="7.47391"><ele>2045</ele><time>2024-08-02T11:55:18Z</time></trkpt>
<trkpt lat="46.19439" lon="7.47393"><ele>2045.6</ele><time>2024-08-02T11:55:23Z</time></trkpt>
<trkpt lat="46.19436" lon="7.47398"><ele>2046.2</ele><time>2024-08-02T11:55:29Z</time></trkpt>
<trkpt lat="46.19436" lon="7.47399"><ele>2046.4</ele><time>2024-08-02T11:55:30Z</time></trkpt>
<trkpt lat="46.19431" lon="7.47403"><ele>2047</ele><time>2024-08-02T11:55:36Z</time></trkpt>
<trkpt lat="46.1943" lon="7.47403"><ele>2047.2</ele><time>2024-08-02T11:55:37Z</time></trkpt>
<trkpt lat="46.19425" lon="7.47409"><ele>2047.8</ele><time>2024-08-02T11:55:44Z</time></trkpt>
<trkpt lat="46.19424" lon="7.47413"><ele>2048.4</ele><time>2024-08-02T11:55:47Z</time></trkpt>
<trkpt lat="46.1942" lon="7.47415"><ele>2048.8</ele><time>2024-08-02T11:55:51Z</time></trkpt>
<trkpt lat="46.19416" lon="7.47418"><ele>2049.4</ele><time>2024-08-02T11:55:56Z</time></trkpt>
<trkpt lat="46.19415" lon="7.47418"><ele>2049.6</ele><time>2024-08-02T11:55:57Z</time></trkpt>
<trkpt lat="46.19413" lon="7.47418"><ele>2049.8</ele><time>2024-08-02T11:55:59Z</time></trkpt>
<trkpt lat="46.19406" lon="7.47416"><ele>2050.4</ele><time>2024-08-02T11:56:04Z</time></trkpt>
<trkpt lat="46.19402" lon="7.47414"><ele>2051.2</ele><time>2024-08-02T11:56:07Z</time></trkpt>
<trkpt lat="46.19399" lon="7.47412"><ele>2051.6</ele><time>2024-08-02T11:56:10Z</time></trkpt>
<trkpt lat="46.19395" lon="7.4741"><ele>2052.4</ele><time>2024-08-02T11:56:13Z</time></trkpt>
<trkpt lat="46.19394" lon="7.47409"><ele>2052.6</ele><time>2024-08-02T11:56:15Z</time></trkpt>
<trkpt lat="46.19389" lon="7.47409"><ele>2053.6</ele><time>2024-08-02T11:56:19Z</time></trkpt>
<trkpt lat="46.19388" lon="7.47409"><ele>2053.6</ele><time>2024-08-02T11:56:20Z</time></trkpt>
<trkpt lat="46.19387" lon="7.47409"><ele>2053.8</ele><time>2024-08-02T11:56:21Z</time></trkpt>
<trkpt lat="46.1938" lon="7.4741"><ele>2054.8</ele><time>2024-08-02T11:56:27Z</time></trkpt>
<trkpt lat="46.19379" lon="7.4741"><ele>2054.8</ele><time>2024-08-02T11:56:28Z</time></trkpt>
<trkpt lat="46.19373" lon="7.4741"><ele>2055.6</ele><time>2024-08-02T11:56:34Z</time></trkpt>
<trkpt lat="46.19371" lon="7.47411"><ele>2056</ele><time>2024-08-02T11:56:36Z</time></trkpt>
<trkpt lat="46.19366" lon="7.4741"><ele>2056.6</ele><time>2024-08-02T11:56:40Z</time></trkpt>
<trkpt lat="46.19363" lon="7.4741"><ele>2057</ele><time>2024-08-02T11:56:42Z</time></trkpt>
<trkpt lat="46.19358" lon="7.47408"><ele>2057.8</ele><time>2024-08-02T11:56:46Z</time></trkpt>
<trkpt lat="46.19356" lon="7.47409"><ele>2058.2</ele><time>2024-08-02T11:56:49Z</time></trkpt>
<trkpt lat="46.19348" lon="7.47408"><ele>2059</ele><time>2024-08-02T11:56:55Z</time></trkpt>
<trkpt lat="46.19347" lon="7.47407"><ele>2059.2</ele><time>2024-08-02T11:56:57Z</time></trkpt>
<trkpt lat="46.19347" lon="7.47407"><ele>2059.8</ele><time>2024-08-02T11:57:00Z</time></trkpt>
<trkpt lat="46.19344" lon="7.47408"><ele>2060</ele><time>2024-08-02T11:57:05Z</time></trkpt>
<trkpt lat="46.1934" lon="7.47409"><ele>2060.4</ele><time>2024-08-02T11:57:08Z</time></trkpt>
<trkpt lat="46.19335" lon="7.47407"><ele>2061.2</ele><time>2024-08-02T11:57:12Z</time></trkpt>
<trkpt lat="46.19334" lon="7.47407"><ele>2061.6</ele><time>2024-08-02T11:57:14Z</time></trkpt>
<trkpt lat="46.19326" lon="7.47408"><ele>2062.6</ele><time>2024-08-02T11:57:21Z</time></trkpt>
<trkpt lat="46.19319" lon="7.47409"><ele>2063.8</ele><time>2024-08-02T11:57:28Z</time></trkpt>
<trkpt lat="46.19313" lon="7.47408"><ele>2064.4</ele><time>2024-08-02T11:57:33Z</time></trkpt>
<trkpt lat="46.19308" lon="7.47407"><ele>2065</ele><time>2024-08-02T11:57:37Z</time></trkpt>
<trkpt lat="46.19308" lon="7.47406"><ele>2065.2</ele><time>2024-08-02T11:57:38Z</time></trkpt>
<trkpt lat="46.19302" lon="7.47408"><ele>2066.2</ele><time>2024-08-02T11:57:45Z</time></trkpt>
<trkpt lat="46.19298" lon="7.47403"><ele>2066.8</ele><time>2024-08-02T11:57:51Z</time></trkpt>
<trkpt lat="46.19297" lon="7.47403"><ele>2067.2</ele><time>2024-08-02T11:57:52Z</time></trkpt>
<trkpt lat="46.19291" lon="7.47401"><ele>2068.2</ele><time>2024-08-02T11:57:59Z</time></trkpt>
<trkpt lat="46.19287" lon="7.47397"><ele>2069.4</ele><time>2024-08-02T11:58:06Z</time></trkpt>
<trkpt lat="46.19285" lon="7.47396"><ele>2069.6</ele><time>2024-08-02T11:58:08Z</time></trkpt>
<trkpt lat="46.1928" lon="7.47392"><ele>2070.4</ele><time>2024-08-02T11:58:14Z</time></trkpt>
<trkpt lat="46.19274" lon="7.47388"><ele>2071.4</ele><time>2024-08-02T11:58:22Z</time></trkpt>
<trkpt lat="46.19271" lon="7.47386"><ele>2071.8</ele><time>2024-08-02T11:58:26Z</time></trkpt>
<trkpt lat="46.1927" lon="7.47385"><ele>2072.2</ele><time>2024-08-02T11:58:28Z</time></trkpt>
<trkpt lat="46.19268" lon="7.47383"><ele>2072.4</ele><time>2024-08-02T11:58:30Z</time></trkpt>
<trkpt lat="46.19264" lon="7.47377"><ele>2073.2</ele><time>2024-08-02T11:58:36Z</time></trkpt>
<trkpt lat="46.19261" lon="7.47377"><ele>2073.4</ele><time>2024-08-02T11:58:38Z</time></trkpt>
<trkpt lat="46.19258" lon="7.47375"><ele>2073.8</ele><time>2024-08-02T11:58:41Z</time></trkpt>
<trkpt lat="46.19254" lon="7.47374"><ele>2074.6</ele><time>2024-08-02T11:58:45Z</time></trkpt>
<trkpt lat="46.19252" lon="7.47372"><ele>2074.8</ele><time>2024-08-02T11:58:47Z</time></trkpt>
<trkpt lat="46.19248" lon="7.47369"><ele>2075.6</ele><time>2024-08-02T11:58:53Z</time></trkpt>
<trkpt lat="46.19243" lon="7.47368"><ele>2076.6</ele><time>2024-08-02T11:58:59Z</time></trkpt>
<trkpt lat="46.19242" lon="7.47367"><ele>2076.8</ele><time>2024-08-02T11:59:00Z</time></trkpt>
<trkpt lat="46.19238" lon="7.47365"><ele>2077.4</ele><time>2024-08-02T11:59:05Z</time></trkpt>
<trkpt lat="46.19236" lon="7.47364"><ele>2077.8</ele><time>2024-08-02T11:59:08Z</time></trkpt>
<trkpt lat="46.19233" lon="7.47364"><ele>2078</ele><time>2024-08-02T11:59:11Z</time></trkpt>
<trkpt lat="46.19229" lon="7.47364"><ele>2078.8</ele><time>2024-08-02T11:59:17Z</time></trkpt>
<trkpt lat="46.19228" lon="7.47363"><ele>2078.8</ele><time>2024-08-02T11:59:18Z</time></trkpt>
<trkpt lat="46.19227" lon="7.47363"><ele>2079</ele><time>2024-08-02T11:59:19Z</time></trkpt>
<trkpt lat="46.19223" lon="7.47361"><ele>2079.6</ele><time>2024-08-02T11:59:25Z</time></trkpt>
<trkpt lat="46.1922" lon="7.4736"><ele>2080</ele><time>2024-08-02T11:59:29Z</time></trkpt>
<trkpt lat="46.19218" lon="7.47359"><ele>2080.4</ele><time>2024-08-02T11:59:31Z</time></trkpt>
<trkpt lat="46.19217" lon="7.47359"><ele>2080.4</ele><time>2024-08-02T11:59:32Z</time></trkpt>
<trkpt lat="46.19216" lon="7.47359"><ele>2080.4</ele><time>2024-08-02T11:59:33Z</time></trkpt>
<trkpt lat="46.19212" lon="7.47357"><ele>2081.2</ele><time>2024-08-02T11:59:38Z</time></trkpt>
<trkpt lat="46.19207" lon="7.47354"><ele>2082</ele><time>2024-08-02T11:59:44Z</time></trkpt>
<trkpt lat="46.19205" lon="7.47353"><ele>2082.2</ele><time>2024-08-02T11:59:46Z</time></trkpt>
<trkpt lat="46.19201" lon="7.47352"><ele>2082.8</ele><time>2024-08-02T11:59:51Z</time></trkpt>
<trkpt lat="46.19198" lon="7.4735"><ele>2083.2</ele><time>2024-08-02T11:59:55Z</time></trkpt>
<trkpt lat="46.19197" lon="7.4735"><ele>2083.4</ele><time>2024-08-02T11:59:57Z</time></trkpt>
<trkpt lat="46.19191" lon="7.4735"><ele>2084.2</ele><time>2024-08-02T12:00:04Z</time></trkpt>
<trkpt lat="46.19189" lon="7.47348"><ele>2084.4</ele><time>2024-08-02T12:00:06Z</time></trkpt>
<trkpt lat="46.19183" lon="7.47347"><ele>2085</ele><time>2024-08-02T12:00:12Z</time></trkpt>
<trkpt lat="46.19181" lon="7.47347"><ele>2085.4</ele><time>2024-08-02T12:00:15Z</time></trkpt>
<trkpt lat="46.19177" lon="7.47346"><ele>2085.8</ele><time>2024-08-02T12:00:19Z</time></trkpt>
<trkpt lat="46.19175" lon="7.47346"><ele>2086.2</ele><time>2024-08-02T12:00:21Z</time></trkpt>
<trkpt lat="46.19173" lon="7.47346"><ele>2086.4</ele><time>2024-08-02T12:00:24Z</time></trkpt>
<trkpt lat="46.19166" lon="7.47343"><ele>2087.6</ele><time>2024-08-02T12:00:32Z</time></trkpt>
<trkpt lat="46.19163" lon="7.47343"><ele>2088</ele><time>2024-08-02T12:00:36Z</time></trkpt>
<trkpt lat="46.19159" lon="7.47342"><ele>2088.4</ele><time>2024-08-02T12:00:39Z</time></trkpt>
<trkpt lat="46.19158" lon="7.47341"><ele>2088.6</ele><time>2024-08-02T12:00:41Z</time></trkpt>
<trkpt lat="46.19155" lon="7.47341"><ele>2089</ele><time>2024-08-02T12:00:45Z</time></trkpt>
<trkpt lat="46.19154" lon="7.47341"><ele>2089</ele><time>2024-08-02T12:00:46Z</time></trkpt>
<trkpt lat="46.19149" lon="7.47338"><ele>2089.6</ele><time>2024-08-02T12:00:50Z</time></trkpt>
<trkpt lat="46.19147" lon="7.47337"><ele>2089.6</ele><time>2024-08-02T12:00:52Z</time></trkpt>
<trkpt lat="46.19142" lon="7.47332"><ele>2090.8</ele><time>2024-08-02T12:00:59Z</time></trkpt>
<trkpt lat="46.19139" lon="7.47327"><ele>2091.6</ele><time>2024-08-02T12:01:05Z</time></trkpt>
<trkpt lat="46.19138" lon="7.47327"><ele>2092</ele><time>2024-08-02T12:01:07Z</time></trkpt>
<trkpt lat="46.19133" lon="7.47328"><ele>2092.2</ele><time>2024-08-02T12:01:12Z</time></trkpt>
<trkpt lat="46.19125" lon="7.4733"><ele>2093.2</ele><time>2024-08-02T12:01:19Z</time></trkpt>
<trkpt lat="46.19116" lon="7.47331"><ele>2094.2</ele><time>2024-08-02T12:01:27Z</time></trkpt>
<trkpt lat="46.19114" lon="7.47331"><ele>2094.6</ele><time>2024-08-02T12:01:29Z</time></trkpt>
<trkpt lat="46.19111" lon="7.47329"><ele>2094.8</ele><time>2024-08-02T12:01:31Z</time></trkpt>
<trkpt lat="46.19107" lon="7.47328"><ele>2095.4</ele><time>2024-08-02T12:01:35Z</time></trkpt>
<trkpt lat="46.19106" lon="7.47328"><ele>2095.4</ele><time>2024-08-02T12:01:36Z</time></trkpt>
<trkpt lat="46.19099" lon="7.47327"><ele>2096.4</ele><time>2024-08-02T12:01:42Z</time></trkpt>
<trkpt lat="46.19093" lon="7.47324"><ele>2097</ele><time>2024-08-02T12:01:48Z</time></trkpt>
<trkpt lat="46.19091" lon="7.47324"><ele>2097.4</ele><time>2024-08-02T12:01:51Z</time></trkpt>
<trkpt lat="46.19086" lon="7.47323"><ele>2098</ele><time>2024-08-02T12:01:55Z</time></trkpt>
<trkpt lat="46.19082" lon="7.47323"><ele>2098.4</ele><time>2024-08-02T12:01:58Z</time></trkpt>
<trkpt lat="46.19081" lon="7.47323"><ele>2098.4</ele><time>2024-08-02T12:01:59Z</time></trkpt>
<trkpt lat="46.1908" lon="7.47323"><ele>2098.6</ele><time>2024-08-02T12:02:00Z</time></trkpt>
<trkpt lat="46.19073" lon="7.47322"><ele>2099.4</ele><time>2024-08-02T12:02:06Z</time></trkpt>
<trkpt lat="46.19072" lon="7.47322"><ele>2099.6</ele><time>2024-08-02T12:02:07Z</time></trkpt>
<trkpt lat="46.19067" lon="7.47323"><ele>2100.2</ele><time>2024-08-02T12:02:12Z</time></trkpt>
<trkpt lat="46.19064" lon="7.47322"><ele>2100.6</ele><time>2024-08-02T12:02:15Z</time></trkpt>
<trkpt lat="46.1906" lon="7.47323"><ele>2101</ele><time>2024-08-02T12:02:19Z</time></trkpt>
<trkpt lat="46.19056" lon="7.47325"><ele>2101.6</ele><time>2024-08-02T12:02:23Z</time></trkpt>
<trkpt lat="46.19053" lon="7.47327"><ele>2101.8</ele><time>2024-08-02T12:02:26Z</time></trkpt>
<trkpt lat="46.19051" lon="7.47329"><ele>2102.4</ele><time>2024-08-02T12:02:29Z</time></trkpt>
<trkpt lat="46.19048" lon="7.47333"><ele>2102.6</ele><time>2024-08-02T12:02:32Z</time></trkpt>
<trkpt lat="46.19043" lon="7.47346"><ele>2103.8</ele><time>2024-08-02T12:02:41Z</time></trkpt>
<trkpt lat="46.19039" lon="7.47358"><ele>2104.8</ele><time>2024-08-02T12:02:49Z</time></trkpt>
<trkpt lat="46.19038" lon="7.4736"><ele>2104.8</ele><time>2024-08-02T12:02:50Z</time></trkpt>
<trkpt lat="46.19034" lon="7.47368"><ele>2105.8</ele><time>2024-08-02T12:02:57Z</time></trkpt>
<trkpt lat="46.19028" lon="7.47379"><ele>2106.8</ele><time>2024-08-02T12:03:05Z</time></trkpt>
<trkpt lat="46.19027" lon="7.47381"><ele>2107</ele><time>2024-08-02T12:03:07Z</time></trkpt>
<trkpt lat="46.19022" lon="7.47384"><ele>2107.6</ele><time>2024-08-02T12:03:11Z</time></trkpt>
<trkpt lat="46.19019" lon="7.47389"><ele>2108.2</ele><time>2024-08-02T12:03:15Z</time></trkpt>
<trkpt lat="46.19015" lon="7.47393"><ele>2108.8</ele><time>2024-08-02T12:03:19Z</time></trkpt>
<trkpt lat="46.19012" lon="7.47397"><ele>2109.2</ele><time>2024-08-02T12:03:23Z</time></trkpt>
<trkpt lat="46.19007" lon="7.47402"><ele>2110</ele><time>2024-08-02T12:03:28Z</time></trkpt>
<trkpt lat="46.19005" lon="7.47405"><ele>2110.4</ele><time>2024-08-02T12:03:30Z</time></trkpt>
<trkpt lat="46.18998" lon="7.47412"><ele>2111.2</ele><time>2024-08-02T12:03:37Z</time></trkpt>
<trkpt lat="46.18998" lon="7.47413"><ele>2111.4</ele><time>2024-08-02T12:03:38Z</time></trkpt>
<trkpt lat="46.1899" lon="7.47417"><ele>2112.2</ele><time>2024-08-02T12:03:45Z</time></trkpt>
<trkpt lat="46.18987" lon="7.47419"><ele>2112.4</ele><time>2024-08-02T12:03:48Z</time></trkpt>
<trkpt lat="46.18982" lon="7.47422"><ele>2113</ele><time>2024-08-02T12:03:52Z</time></trkpt>
<trkpt lat="46.18978" lon="7.47425"><ele>2113.4</ele><time>2024-08-02T12:03:55Z</time></trkpt>
<trkpt lat="46.18974" lon="7.4743"><ele>2114</ele><time>2024-08-02T12:03:59Z</time></trkpt>
<trkpt lat="46.18973" lon="7.47436"><ele>2114.4</ele><time>2024-08-02T12:04:03Z</time></trkpt>
<trkpt lat="46.18975" lon="7.4744"><ele>2115</ele><time>2024-08-02T12:04:06Z</time></trkpt>
<trkpt lat="46.18978" lon="7.47443"><ele>2115.2</ele><time>2024-08-02T12:04:09Z</time></trkpt>
<trkpt lat="46.18982" lon="7.47444"><ele>2115.4</ele><time>2024-08-02T12:04:12Z</time></trkpt>
<trkpt lat="46.18984" lon="7.47443"><ele>2115.6</ele><time>2024-08-02T12:04:13Z</time></trkpt>
<trkpt lat="46.18993" lon="7.47438"><ele>2116.6</ele><time>2024-08-02T12:04:20Z</time></trkpt>
<trkpt lat="46.18994" lon="7.47437"><ele>2116.8</ele><time>2024-08-02T12:04:21Z</time></trkpt>
<trkpt lat="46.19004" lon="7.47428"><ele>2117.6</ele><time>2024-08-02T12:04:29Z</time></trkpt>
<trkpt lat="46.19005" lon="7.47426"><ele>2118</ele><time>2024-08-02T12:04:30Z</time></trkpt>
<trkpt lat="46.19015" lon="7.47419"><ele>2118.8</ele><time>2024-08-02T12:04:37Z</time></trkpt>
<trkpt lat="46.19017" lon="7.47419"><ele>2119</ele><time>2024-08-02T12:04:38Z</time></trkpt>
<trkpt lat="46.19025" lon="7.47413"><ele>2120.2</ele><time>2024-08-02T12:04:44Z</time></trkpt>
<trkpt lat="46.19029" lon="7.47411"><ele>2120.6</ele><time>2024-08-02T12:04:47Z</time></trkpt>
<trkpt lat="46.19036" lon="7.47409"><ele>2121.2</ele><time>2024-08-02T12:04:51Z</time></trkpt>
<trkpt lat="46.19043" lon="7.47407"><ele>2121.8</ele><time>2024-08-02T12:04:55Z</time></trkpt>
<trkpt lat="46.19048" lon="7.47403"><ele>2122.2</ele><time>2024-08-02T12:04:58Z</time></trkpt>
<trkpt lat="46.19054" lon="7.47398"><ele>2122.8</ele><time>2024-08-02T12:05:02Z</time></trkpt>
<trkpt lat="46.19061" lon="7.47394"><ele>2123.4</ele><time>2024-08-02T12:05:06Z</time></trkpt>
<trkpt lat="46.19066" lon="7.47394"><ele>2123.8</ele><time>2024-08-02T12:05:09Z</time></trkpt>
<trkpt lat="46.19074" lon="7.47396"><ele>2124.6</ele><time>2024-08-02T12:05:13Z</time></trkpt>
<trkpt lat="46.19081" lon="7.47398"><ele>2125</ele><time>2024-08-02T12:05:17Z</time></trkpt>
<trkpt lat="46.19088" lon="7.47401"><ele>2125.6</ele><time>2024-08-02T12:05:21Z</time></trkpt>
<trkpt lat="46.19096" lon="7.47405"><ele>2126.6</ele><time>2024-08-02T12:05:26Z</time></trkpt>
<trkpt lat="46.191" lon="7.47407"><ele>2126.8</ele><time>2024-08-02T12:05:28Z</time></trkpt>
<trkpt lat="46.19112" lon="7.47415"><ele>2127.8</ele><time>2024-08-02T12:05:36Z</time></trkpt>
<trkpt lat="46.19114" lon="7.47417"><ele>2127.8</ele><time>2024-08-02T12:05:37Z</time></trkpt>
<trkpt lat="46.19123" lon="7.47425"><ele>2129</ele><time>2024-08-02T12:05:44Z</time></trkpt>
<trkpt lat="46.19136" lon="7.4744"><ele>2129.8</ele><time>2024-08-02T12:05:53Z</time></trkpt>
<trkpt lat="46.19138" lon="7.47442"><ele>2130</ele><time>2024-08-02T12:05:54Z</time></trkpt>
<trkpt lat="46.19143" lon="7.47448"><ele>2131</ele><time>2024-08-02T12:05:59Z</time></trkpt>
<trkpt lat="46.19145" lon="7.4745"><ele>2131.2</ele><time>2024-08-02T12:06:00Z</time></trkpt>
<trkpt lat="46.19154" lon="7.47456"><ele>2132</ele><time>2024-08-02T12:06:06Z</time></trkpt>
<trkpt lat="46.19157" lon="7.47457"><ele>2132.4</ele><time>2024-08-02T12:06:08Z</time></trkpt>
<trkpt lat="46.19167" lon="7.47464"><ele>2133.2</ele><time>2024-08-02T12:06:14Z</time></trkpt>
<trkpt lat="46.19168" lon="7.47466"><ele>2133.4</ele><time>2024-08-02T12:06:15Z</time></trkpt>
<trkpt lat="46.19175" lon="7.47471"><ele>2134.4</ele><time>2024-08-02T12:06:20Z</time></trkpt>
<trkpt lat="46.19176" lon="7.47472"><ele>2134.4</ele><time>2024-08-02T12:06:21Z</time></trkpt>
<trkpt lat="46.19186" lon="7.47481"><ele>2135.6</ele><time>2024-08-02T12:06:28Z</time></trkpt>
<trkpt lat="46.19195" lon="7.47489"><ele>2136.6</ele><time>2024-08-02T12:06:35Z</time></trkpt>
<trkpt lat="46.19197" lon="7.47491"><ele>2136.8</ele><time>2024-08-02T12:06:36Z</time></trkpt>
<trkpt lat="46.19205" lon="7.47498"><ele>2137.6</ele><time>2024-08-02T12:06:43Z</time></trkpt>
<trkpt lat="46.19206" lon="7.47499"><ele>2137.8</ele><time>2024-08-02T12:06:44Z</time></trkpt>
<trkpt lat="46.19212" lon="7.47506"><ele>2138.2</ele><time>2024-08-02T12:06:49Z</time></trkpt>
<trkpt lat="46.19217" lon="7.47515"><ele>2138.8</ele><time>2024-08-02T12:06:54Z</time></trkpt>
<trkpt lat="46.19218" lon="7.47516"><ele>2139</ele><time>2024-08-02T12:06:55Z</time></trkpt>
<trkpt lat="46.19224" lon="7.47527"><ele>2139.8</ele><time>2024-08-02T12:07:01Z</time></trkpt>
<trkpt lat="46.19224" lon="7.47528"><ele>2139.8</ele><time>2024-08-02T12:07:02Z</time></trkpt>
<trkpt lat="46.19226" lon="7.47536"><ele>2140.4</ele><time>2024-08-02T12:07:07Z</time></trkpt>
<trkpt lat="46.19229" lon="7.47544"><ele>2141</ele><time>2024-08-02T12:07:13Z</time></trkpt>
<trkpt lat="46.19229" lon="7.47546"><ele>2141</ele><time>2024-08-02T12:07:14Z</time></trkpt>
<trkpt lat="46.19234" lon="7.47557"><ele>2141.6</ele><time>2024-08-02T12:07:20Z</time></trkpt>
<trkpt lat="46.19235" lon="7.47563"><ele>2142</ele><time>2024-08-02T12:07:23Z</time></trkpt>
<trkpt lat="46.19239" lon="7.47571"><ele>2142.6</ele><time>2024-08-02T12:07:28Z</time></trkpt>
<trkpt lat="46.19244" lon="7.47575"><ele>2143.2</ele><time>2024-08-02T12:07:33Z</time></trkpt>
<trkpt lat="46.19248" lon="7.47577"><ele>2143.6</ele><time>2024-08-02T12:07:36Z</time></trkpt>
<trkpt lat="46.19258" lon="7.47584"><ele>2144.2</ele><time>2024-08-02T12:07:44Z</time></trkpt>
<trkpt lat="46.19268" lon="7.47588"><ele>2145.2</ele><time>2024-08-02T12:07:51Z</time></trkpt>
<trkpt lat="46.19269" lon="7.47588"><ele>2145.4</ele><time>2024-08-02T12:07:52Z</time></trkpt>
<trkpt lat="46.19279" lon="7.47597"><ele>2146.2</ele><time>2024-08-02T12:07:59Z</time></trkpt>
<trkpt lat="46.1928" lon="7.47598"><ele>2146.4</ele><time>2024-08-02T12:08:00Z</time></trkpt>
<trkpt lat="46.19288" lon="7.47612"><ele>2147.4</ele><time>2024-08-02T12:08:08Z</time></trkpt>
<trkpt lat="46.19289" lon="7.47614"><ele>2147.6</ele><time>2024-08-02T12:08:09Z</time></trkpt>
<trkpt lat="46.19293" lon="7.47625"><ele>2148.4</ele><time>2024-08-02T12:08:15Z</time></trkpt>
<trkpt lat="46.19295" lon="7.47634"><ele>2148.8</ele><time>2024-08-02T12:08:19Z</time></trkpt>
<trkpt lat="46.19298" lon="7.47643"><ele>2149.6</ele><time>2024-08-02T12:08:24Z</time></trkpt>
<trkpt lat="46.19301" lon="7.47649"><ele>2150.2</ele><time>2024-08-02T12:08:29Z</time></trkpt>
<trkpt lat="46.19304" lon="7.47655"><ele>2150.6</ele><time>2024-08-02T12:08:34Z</time></trkpt>
<trkpt lat="46.19305" lon="7.47658"><ele>2151</ele><time>2024-08-02T12:08:36Z</time></trkpt>
<trkpt lat="46.19308" lon="7.47661"><ele>2151.2</ele><time>2024-08-02T12:08:39Z</time></trkpt>
<trkpt lat="46.19311" lon="7.47665"><ele>2151.4</ele><time>2024-08-02T12:08:42Z</time></trkpt>
<trkpt lat="46.19313" lon="7.47667"><ele>2151.6</ele><time>2024-08-02T12:08:44Z</time></trkpt>
<trkpt lat="46.19318" lon="7.47671"><ele>2152</ele><time>2024-08-02T12:08:49Z</time></trkpt>
<trkpt lat="46.19323" lon="7.47674"><ele>2152.6</ele><time>2024-08-02T12:08:54Z</time></trkpt>
<trkpt lat="46.19327" lon="7.47676"><ele>2153.2</ele><time>2024-08-02T12:08:58Z</time></trkpt>
<trkpt lat="46.19332" lon="7.4768"><ele>2153.6</ele><time>2024-08-02T12:09:02Z</time></trkpt>
<trkpt lat="46.19336" lon="7.47685"><ele>2154.2</ele><time>2024-08-02T12:09:06Z</time></trkpt>
<trkpt lat="46.19339" lon="7.4769"><ele>2154.8</ele><time>2024-08-02T12:09:09Z</time></trkpt>
<trkpt lat="46.19344" lon="7.47696"><ele>2155.4</ele><time>2024-08-02T12:09:13Z</time></trkpt>
<trkpt lat="46.19346" lon="7.477"><ele>2155.8</ele><time>2024-08-02T12:09:15Z</time></trkpt>
<trkpt lat="46.19351" lon="7.47705"><ele>2156.4</ele><time>2024-08-02T12:09:20Z</time></trkpt>
<trkpt lat="46.19357" lon="7.47706"><ele>2156.8</ele><time>2024-08-02T12:09:24Z</time></trkpt>
<trkpt lat="46.1936" lon="7.47704"><ele>2157</ele><time>2024-08-02T12:09:26Z</time></trkpt>
<trkpt lat="46.19371" lon="7.477"><ele>2158</ele><time>2024-08-02T12:09:32Z</time></trkpt>
<trkpt lat="46.19379" lon="7.47698"><ele>2158.6</ele><time>2024-08-02T12:09:36Z</time></trkpt>
<trkpt lat="46.19386" lon="7.47698"><ele>2159</ele><time>2024-08-02T12:09:40Z</time></trkpt>
<trkpt lat="46.19394" lon="7.47701"><ele>2159.8</ele><time>2024-08-02T12:09:45Z</time></trkpt>
<trkpt lat="46.19396" lon="7.47701"><ele>2160</ele><time>2024-08-02T12:09:46Z</time></trkpt>
<trkpt lat="46.1941" lon="7.47706"><ele>2161</ele><time>2024-08-02T12:09:55Z</time></trkpt>
<trkpt lat="46.19411" lon="7.47706"><ele>2161.2</ele><time>2024-08-02T12:09:56Z</time></trkpt>
<trkpt lat="46.1942" lon="7.47703"><ele>2162</ele><time>2024-08-02T12:10:02Z</time></trkpt>
<trkpt lat="46.19425" lon="7.47701"><ele>2162.2</ele><time>2024-08-02T12:10:05Z</time></trkpt>
<trkpt lat="46.19433" lon="7.47698"><ele>2163</ele><time>2024-08-02T12:10:11Z</time></trkpt>
<trkpt lat="46.1944" lon="7.47696"><ele>2163.4</ele><time>2024-08-02T12:10:16Z</time></trkpt>
<trkpt lat="46.19446" lon="7.47691"><ele>2163.8</ele><time>2024-08-02T12:10:21Z</time></trkpt>
<trkpt lat="46.19455" lon="7.47681"><ele>2164.4</ele><time>2024-08-02T12:10:28Z</time></trkpt>
<trkpt lat="46.19466" lon="7.4767"><ele>2165</ele><time>2024-08-02T12:10:35Z</time></trkpt>
<trkpt lat="46.19476" lon="7.47661"><ele>2165.2</ele><time>2024-08-02T12:10:42Z</time></trkpt>
<trkpt lat="46.19491" lon="7.4766"><ele>2165.2</ele><time>2024-08-02T12:10:49Z</time></trkpt>
<trkpt lat="46.19507" lon="7.47666"><ele>2164.8</ele><time>2024-08-02T12:10:55Z</time></trkpt>
<trkpt lat="46.1951" lon="7.47667"><ele>2164.8</ele><time>2024-08-02T12:10:56Z</time></trkpt>
<trkpt lat="46.19521" lon="7.47671"><ele>2164.6</ele><time>2024-08-02T12:11:01Z</time></trkpt>
<trkpt lat="46.1953" lon="7.47673"><ele>2164.6</ele><time>2024-08-02T12:11:05Z</time></trkpt>
<trkpt lat="46.19532" lon="7.47673"><ele>2164.6</ele><time>2024-08-02T12:11:06Z</time></trkpt>
<trkpt lat="46.19535" lon="7.47673"><ele>2164.6</ele><time>2024-08-02T12:11:07Z</time></trkpt>
<trkpt lat="46.19548" lon="7.47679"><ele>2165</ele><time>2024-08-02T12:11:14Z</time></trkpt>
<trkpt lat="46.1956" lon="7.47686"><ele>2165.2</ele><time>2024-08-02T12:11:19Z</time></trkpt>
<trkpt lat="46.19565" lon="7.4769"><ele>2165.4</ele><time>2024-08-02T12:11:22Z</time></trkpt>
<trkpt lat="46.19569" lon="7.47693"><ele>2165.8</ele><time>2024-08-02T12:11:25Z</time></trkpt>
<trkpt lat="46.19575" lon="7.47695"><ele>2166.4</ele><time>2024-08-02T12:11:29Z</time></trkpt>
<trkpt lat="46.19579" lon="7.47696"><ele>2166.8</ele><time>2024-08-02T12:11:32Z</time></trkpt>
<trkpt lat="46.1959" lon="7.47695"><ele>2167.4</ele><time>2024-08-02T12:11:39Z</time></trkpt>
<trkpt lat="46.19595" lon="7.47695"><ele>2167.8</ele><time>2024-08-02T12:11:42Z</time></trkpt>
<trkpt lat="46.19602" lon="7.47693"><ele>2168.4</ele><time>2024-08-02T12:11:47Z</time></trkpt>
<trkpt lat="46.19607" lon="7.47691"><ele>2168.8</ele><time>2024-08-02T12:11:51Z</time></trkpt>
<trkpt lat="46.19616" lon="7.47689"><ele>2169.6</ele><time>2024-08-02T12:11:57Z</time></trkpt>
<trkpt lat="46.19618" lon="7.47688"><ele>2169.8</ele><time>2024-08-02T12:11:59Z</time></trkpt>
<trkpt lat="46.19623" lon="7.47694"><ele>2170.6</ele><time>2024-08-02T12:12:04Z</time></trkpt>
<trkpt lat="46.19623" lon="7.47696"><ele>2170.6</ele><time>2024-08-02T12:12:05Z</time></trkpt>
<trkpt lat="46.19622" lon="7.47702"><ele>2171.4</ele><time>2024-08-02T12:12:09Z</time></trkpt>
<trkpt lat="46.19621" lon="7.47703"><ele>2171.4</ele><time>2024-08-02T12:12:10Z</time></trkpt>
<trkpt lat="46.19619" lon="7.47703"><ele>2171.6</ele><time>2024-08-02T12:12:11Z</time></trkpt>
<trkpt lat="46.19614" lon="7.47704"><ele>2172.2</ele><time>2024-08-02T12:12:16Z</time></trkpt>
<trkpt lat="46.19612" lon="7.47705"><ele>2172.8</ele><time>2024-08-02T12:12:19Z</time></trkpt>
<trkpt lat="46.19608" lon="7.47707"><ele>2173</ele><time>2024-08-02T12:12:22Z</time></trkpt>
<trkpt lat="46.19605" lon="7.47711"><ele>2173.6</ele><time>2024-08-02T12:12:27Z</time></trkpt>
<trkpt lat="46.19604" lon="7.47712"><ele>2173.8</ele><time>2024-08-02T12:12:28Z</time></trkpt>
<trkpt lat="46.19598" lon="7.47719"><ele>2174.4</ele><time>2024-08-02T12:12:34Z</time></trkpt>
<trkpt lat="46.19594" lon="7.47723"><ele>2174.8</ele><time>2024-08-02T12:12:38Z</time></trkpt>
<trkpt lat="46.1959" lon="7.47727"><ele>2175.4</ele><time>2024-08-02T12:12:42Z</time></trkpt>
<trkpt lat="46.19587" lon="7.47728"><ele>2176</ele><time>2024-08-02T12:12:46Z</time></trkpt>
<trkpt lat="46.19583" lon="7.47731"><ele>2176.2</ele><time>2024-08-02T12:12:49Z</time></trkpt>
<trkpt lat="46.19576" lon="7.47738"><ele>2176.8</ele><time>2024-08-02T12:12:57Z</time></trkpt>
<trkpt lat="46.19575" lon="7.47739"><ele>2177.2</ele><time>2024-08-02T12:12:58Z</time></trkpt>
<trkpt lat="46.19569" lon="7.47742"><ele>2177.6</ele><time>2024-08-02T12:13:04Z</time></trkpt>
<trkpt lat="46.19566" lon="7.47743"><ele>2178.2</ele><time>2024-08-02T12:13:07Z</time></trkpt>
<trkpt lat="46.19563" lon="7.47746"><ele>2178.6</ele><time>2024-08-02T12:13:11Z</time></trkpt>
<trkpt lat="46.19557" lon="7.47746"><ele>2179.2</ele><time>2024-08-02T12:13:16Z</time></trkpt>
<trkpt lat="46.19554" lon="7.47748"><ele>2179.6</ele><time>2024-08-02T12:13:19Z</time></trkpt>
<trkpt lat="46.19553" lon="7.47748"><ele>2179.8</ele><time>2024-08-02T12:13:20Z</time></trkpt>
<trkpt lat="46.19548" lon="7.47749"><ele>2180</ele><time>2024-08-02T12:13:24Z</time></trkpt>
<trkpt lat="46.19544" lon="7.47748"><ele>2180.4</ele><time>2024-08-02T12:13:27Z</time></trkpt>
<trkpt lat="46.1954" lon="7.47747"><ele>2181</ele><time>2024-08-02T12:13:31Z</time></trkpt>
<trkpt lat="46.19537" lon="7.47748"><ele>2181.4</ele><time>2024-08-02T12:13:34Z</time></trkpt>
<trkpt lat="46.19533" lon="7.47749"><ele>2182</ele><time>2024-08-02T12:13:38Z</time></trkpt>
<trkpt lat="46.19529" lon="7.4775"><ele>2182.4</ele><time>2024-08-02T12:13:42Z</time></trkpt>
<trkpt lat="46.19527" lon="7.47752"><ele>2182.6</ele><time>2024-08-02T12:13:44Z</time></trkpt>
<trkpt lat="46.19519" lon="7.47755"><ele>2183.4</ele><time>2024-08-02T12:13:51Z</time></trkpt>
<trkpt lat="46.19518" lon="7.47756"><ele>2183.6</ele><time>2024-08-02T12:13:52Z</time></trkpt>
<trkpt lat="46.19515" lon="7.47756"><ele>2184.2</ele><time>2024-08-02T12:13:55Z</time></trkpt>
<trkpt lat="46.19515" lon="7.47756"><ele>2184.2</ele><time>2024-08-02T12:13:56Z</time></trkpt>
<trkpt lat="46.1951" lon="7.47756"><ele>2184.6</ele><time>2024-08-02T12:14:01Z</time></trkpt>
<trkpt lat="46.19508" lon="7.47756"><ele>2185</ele><time>2024-08-02T12:14:03Z</time></trkpt>
<trkpt lat="46.19506" lon="7.47756"><ele>2185</ele><time>2024-08-02T12:14:05Z</time></trkpt>
<trkpt lat="46.195" lon="7.47755"><ele>2185.6</ele><time>2024-08-02T12:14:10Z</time></trkpt>
<trkpt lat="46.19495" lon="7.47752"><ele>2186.4</ele><time>2024-08-02T12:14:15Z</time></trkpt>
<trkpt lat="46.19494" lon="7.47752"><ele>2186.6</ele><time>2024-08-02T12:14:16Z</time></trkpt>
<trkpt lat="46.19486" lon="7.47746"><ele>2187.6</ele><time>2024-08-02T12:14:22Z</time></trkpt>
<trkpt lat="46.19485" lon="7.47744"><ele>2187.6</ele><time>2024-08-02T12:14:23Z</time></trkpt>
<trkpt lat="46.19478" lon="7.47738"><ele>2189</ele><time>2024-08-02T12:14:29Z</time></trkpt>
<trkpt lat="46.19476" lon="7.47738"><ele>2189</ele><time>2024-08-02T12:14:31Z</time></trkpt>
<trkpt lat="46.19469" lon="7.47744"><ele>2190</ele><time>2024-08-02T12:14:38Z</time></trkpt>
<trkpt lat="46.19466" lon="7.47756"><ele>2191.2</ele><time>2024-08-02T12:14:45Z</time></trkpt>
<trkpt lat="46.19466" lon="7.47758"><ele>2191.2</ele><time>2024-08-02T12:14:46Z</time></trkpt>
<trkpt lat="46.19469" lon="7.47766"><ele>2192</ele><time>2024-08-02T12:14:51Z</time></trkpt>
<trkpt lat="46.19471" lon="7.47767"><ele>2192.4</ele><time>2024-08-02T12:14:53Z</time></trkpt>
<trkpt lat="46.19476" lon="7.47774"><ele>2192.8</ele><time>2024-08-02T12:15:00Z</time></trkpt>
<trkpt lat="46.19479" lon="7.47779"><ele>2193.2</ele><time>2024-08-02T12:15:07Z</time></trkpt>
<trkpt lat="46.19479" lon="7.47779"><ele>2193.4</ele><time>2024-08-02T12:15:12Z</time></trkpt>
<trkpt lat="46.1948" lon="7.47779"><ele>2193.6</ele><time>2024-08-02T12:15:16Z</time></trkpt>
<trkpt lat="46.19481" lon="7.47781"><ele>2193.6</ele><time>2024-08-02T12:15:20Z</time></trkpt>
<trkpt lat="46.19485" lon="7.47789"><ele>2194.2</ele><time>2024-08-02T12:15:26Z</time></trkpt>
<trkpt lat="46.19487" lon="7.47792"><ele>2194.4</ele><time>2024-08-02T12:15:29Z</time></trkpt>
<trkpt lat="46.19491" lon="7.47796"><ele>2195</ele><time>2024-08-02T12:15:34Z</time></trkpt>
<trkpt lat="46.19494" lon="7.47799"><ele>2195.6</ele><time>2024-08-02T12:15:38Z</time></trkpt>
<trkpt lat="46.19499" lon="7.47801"><ele>2196.2</ele><time>2024-08-02T12:15:43Z</time></trkpt>
<trkpt lat="46.19503" lon="7.47802"><ele>2196.6</ele><time>2024-08-02T12:15:47Z</time></trkpt>
<trkpt lat="46.19509" lon="7.47804"><ele>2197.2</ele><time>2024-08-02T12:15:53Z</time></trkpt>
<trkpt lat="46.19513" lon="7.47805"><ele>2197.8</ele><time>2024-08-02T12:15:57Z</time></trkpt>
<trkpt lat="46.19517" lon="7.47806"><ele>2198.2</ele><time>2024-08-02T12:16:00Z</time></trkpt>
<trkpt lat="46.19521" lon="7.47808"><ele>2198.8</ele><time>2024-08-02T12:16:04Z</time></trkpt>
<trkpt lat="46.19524" lon="7.47808"><ele>2199.2</ele><time>2024-08-02T12:16:07Z</time></trkpt>
<trkpt lat="46.19527" lon="7.47809"><ele>2199.8</ele><time>2024-08-02T12:16:11Z</time></trkpt>
<trkpt lat="46.19528" lon="7.4781"><ele>2200</ele><time>2024-08-02T12:16:12Z</time></trkpt>
<trkpt lat="46.19535" lon="7.47812"><ele>2200.8</ele><time>2024-08-02T12:16:20Z</time></trkpt>
<trkpt lat="46.19536" lon="7.47813"><ele>2201</ele><time>2024-08-02T12:16:21Z</time></trkpt>
<trkpt lat="46.19544" lon="7.47813"><ele>2202</ele><time>2024-08-02T12:16:29Z</time></trkpt>
<trkpt lat="46.19551" lon="7.47812"><ele>2203</ele><time>2024-08-02T12:16:36Z</time></trkpt>
<trkpt lat="46.19552" lon="7.47812"><ele>2203</ele><time>2024-08-02T12:16:37Z</time></trkpt>
<trkpt lat="46.1956" lon="7.47812"><ele>2204</ele><time>2024-08-02T12:16:44Z</time></trkpt>
<trkpt lat="46.19562" lon="7.47812"><ele>2204.2</ele><time>2024-08-02T12:16:46Z</time></trkpt>
<trkpt lat="46.19567" lon="7.47813"><ele>2204.8</ele><time>2024-08-02T12:16:51Z</time></trkpt>
<trkpt lat="46.19569" lon="7.47815"><ele>2205</ele><time>2024-08-02T12:16:53Z</time></trkpt>
<trkpt lat="46.19572" lon="7.47817"><ele>2205.6</ele><time>2024-08-02T12:16:57Z</time></trkpt>
<trkpt lat="46.19575" lon="7.47819"><ele>2206</ele><time>2024-08-02T12:17:02Z</time></trkpt>
<trkpt lat="46.19575" lon="7.47819"><ele>2206.2</ele><time>2024-08-02T12:17:04Z</time></trkpt>
<trkpt lat="46.19574" lon="7.47819"><ele>2206.4</ele><time>2024-08-02T12:17:12Z</time></trkpt>
<trkpt lat="46.19575" lon="7.4782"><ele>2206.4</ele><time>2024-08-02T12:17:19Z</time></trkpt>
<trkpt lat="46.19576" lon="7.47819"><ele>2206.6</ele><time>2024-08-02T12:17:26Z</time></trkpt>
<trkpt lat="46.19577" lon="7.47819"><ele>2206.6</ele><time>2024-08-02T12:17:28Z</time></trkpt>
<trkpt lat="46.19578" lon="7.47819"><ele>2206.6</ele><time>2024-08-02T12:17:30Z</time></trkpt>
<trkpt lat="46.1958" lon="7.4782"><ele>2206.6</ele><time>2024-08-02T12:17:31Z</time></trkpt>
<trkpt lat="46.19583" lon="7.47821"><ele>2207.2</ele><time>2024-08-02T12:17:34Z</time></trkpt>
<trkpt lat="46.19586" lon="7.47822"><ele>2207.6</ele><time>2024-08-02T12:17:37Z</time></trkpt>
<trkpt lat="46.1959" lon="7.47823"><ele>2208</ele><time>2024-08-02T12:17:41Z</time></trkpt>
<trkpt lat="46.19592" lon="7.47825"><ele>2208</ele><time>2024-08-02T12:17:43Z</time></trkpt>
<trkpt lat="46.19594" lon="7.47826"><ele>2208.2</ele><time>2024-08-02T12:17:45Z</time></trkpt>
<trkpt lat="46.19601" lon="7.47829"><ele>2209.2</ele><time>2024-08-02T12:17:53Z</time></trkpt>
<trkpt lat="46.19602" lon="7.47829"><ele>2209.4</ele><time>2024-08-02T12:17:55Z</time></trkpt>
<trkpt lat="46.19605" lon="7.47829"><ele>2210</ele><time>2024-08-02T12:17:59Z</time></trkpt>
<trkpt lat="46.19608" lon="7.47829"><ele>2210.4</ele><time>2024-08-02T12:18:02Z</time></trkpt>
<trkpt lat="46.19613" lon="7.47828"><ele>2211.2</ele><time>2024-08-02T12:18:07Z</time></trkpt>
<trkpt lat="46.19616" lon="7.47828"><ele>2211.4</ele><time>2024-08-02T12:18:10Z</time></trkpt>
<trkpt lat="46.19617" lon="7.47828"><ele>2211.6</ele><time>2024-08-02T12:18:12Z</time></trkpt>
<trkpt lat="46.19619" lon="7.47826"><ele>2211.8</ele><time>2024-08-02T12:18:15Z</time></trkpt>
<trkpt lat="46.19622" lon="7.47824"><ele>2212.2</ele><time>2024-08-02T12:18:18Z</time></trkpt>
<trkpt lat="46.19624" lon="7.47822"><ele>2212.6</ele><time>2024-08-02T12:18:20Z</time></trkpt>
<trkpt lat="46.19627" lon="7.47821"><ele>2212.8</ele><time>2024-08-02T12:18:23Z</time></trkpt>
<trkpt lat="46.19629" lon="7.4782"><ele>2213.2</ele><time>2024-08-02T12:18:25Z</time></trkpt>
<trkpt lat="46.19633" lon="7.47817"><ele>2213.6</ele><time>2024-08-02T12:18:29Z</time></trkpt>
<trkpt lat="46.19641" lon="7.47816"><ele>2214.2</ele><time>2024-08-02T12:18:36Z</time></trkpt>
<trkpt lat="46.19647" lon="7.47816"><ele>2214.6</ele><time>2024-08-02T12:18:40Z</time></trkpt>
<trkpt lat="46.19651" lon="7.47817"><ele>2214.8</ele><time>2024-08-02T12:18:43Z</time></trkpt>
<trkpt lat="46.19659" lon="7.47821"><ele>2215.4</ele><time>2024-08-02T12:18:50Z</time></trkpt>
<trkpt lat="46.19661" lon="7.47823"><ele>2215.8</ele><time>2024-08-02T12:18:52Z</time></trkpt>
<trkpt lat="46.19667" lon="7.47827"><ele>2216.2</ele><time>2024-08-02T12:18:57Z</time></trkpt>
<trkpt lat="46.1967" lon="7.47828"><ele>2216.8</ele><time>2024-08-02T12:19:01Z</time></trkpt>
<trkpt lat="46.19676" lon="7.47825"><ele>2217.2</ele><time>2024-08-02T12:19:06Z</time></trkpt>
<trkpt lat="46.1968" lon="7.47823"><ele>2217.8</ele><time>2024-08-02T12:19:09Z</time></trkpt>
<trkpt lat="46.19685" lon="7.4782"><ele>2218.4</ele><time>2024-08-02T12:19:14Z</time></trkpt>
<trkpt lat="46.19693" lon="7.47813"><ele>2218.8</ele><time>2024-08-02T12:19:20Z</time></trkpt>
<trkpt lat="46.19694" lon="7.47812"><ele>2219</ele><time>2024-08-02T12:19:21Z</time></trkpt>
<trkpt lat="46.19702" lon="7.47803"><ele>2220</ele><time>2024-08-02T12:19:28Z</time></trkpt>
<trkpt lat="46.19705" lon="7.47803"><ele>2220.2</ele><time>2024-08-02T12:19:30Z</time></trkpt>
<trkpt lat="46.1971" lon="7.47807"><ele>2220.2</ele><time>2024-08-02T12:19:33Z</time></trkpt>
<trkpt lat="46.19712" lon="7.47819"><ele>2220.6</ele><time>2024-08-02T12:19:39Z</time></trkpt>
<trkpt lat="46.19713" lon="7.47828"><ele>2221</ele><time>2024-08-02T12:19:44Z</time></trkpt>
<trkpt lat="46.19715" lon="7.47833"><ele>2221.4</ele><time>2024-08-02T12:19:47Z</time></trkpt>
<trkpt lat="46.1972" lon="7.47845"><ele>2222</ele><time>2024-08-02T12:19:54Z</time></trkpt>
<trkpt lat="46.19722" lon="7.47847"><ele>2222.4</ele><time>2024-08-02T12:19:56Z</time></trkpt>
<trkpt lat="46.19726" lon="7.47853"><ele>2223.2</ele><time>2024-08-02T12:20:01Z</time></trkpt>
<trkpt lat="46.19727" lon="7.47854"><ele>2223.4</ele><time>2024-08-02T12:20:02Z</time></trkpt>
<trkpt lat="46.19731" lon="7.4786"><ele>2224.2</ele><time>2024-08-02T12:20:08Z</time></trkpt>
<trkpt lat="46.19733" lon="7.47863"><ele>2224.4</ele><time>2024-08-02T12:20:10Z</time></trkpt>
<trkpt lat="46.19734" lon="7.47866"><ele>2224.4</ele><time>2024-08-02T12:20:12Z</time></trkpt>
<trkpt lat="46.19736" lon="7.47871"><ele>2224.8</ele><time>2024-08-02T12:20:15Z</time></trkpt>
<trkpt lat="46.19741" lon="7.4788"><ele>2225.2</ele><time>2024-08-02T12:20:21Z</time></trkpt>
<trkpt lat="46.19741" lon="7.47882"><ele>2225.2</ele><time>2024-08-02T12:20:22Z</time></trkpt>
<trkpt lat="46.19744" lon="7.47895"><ele>2226.2</ele><time>2024-08-02T12:20:30Z</time></trkpt>
<trkpt lat="46.19744" lon="7.47896"><ele>2226.4</ele><time>2024-08-02T12:20:31Z</time></trkpt>
<trkpt lat="46.19745" lon="7.4791"><ele>2227.2</ele><time>2024-08-02T12:20:39Z</time></trkpt>
<trkpt lat="46.19745" lon="7.47913"><ele>2227.4</ele><time>2024-08-02T12:20:41Z</time></trkpt>
<trkpt lat="46.19748" lon="7.47924"><ele>2228</ele><time>2024-08-02T12:20:48Z</time></trkpt>
<trkpt lat="46.19757" lon="7.47931"><ele>2228.6</ele><time>2024-08-02T12:20:55Z</time></trkpt>
<trkpt lat="46.19759" lon="7.47931"><ele>2228.8</ele><time>2024-08-02T12:20:56Z</time></trkpt>
<trkpt lat="46.19769" lon="7.4793"><ele>2229.2</ele><time>2024-08-02T12:21:04Z</time></trkpt>
<trkpt lat="46.19772" lon="7.47929"><ele>2229.6</ele><time>2024-08-02T12:21:06Z</time></trkpt>
<trkpt lat="46.19779" lon="7.47928"><ele>2230.2</ele><time>2024-08-02T12:21:12Z</time></trkpt>
<trkpt lat="46.19785" lon="7.47932"><ele>2230.8</ele><time>2024-08-02T12:21:16Z</time></trkpt>
<trkpt lat="46.19789" lon="7.47934"><ele>2231</ele><time>2024-08-02T12:21:19Z</time></trkpt>
<trkpt lat="46.19798" lon="7.47929"><ele>2231.8</ele><time>2024-08-02T12:21:26Z</time></trkpt>
<trkpt lat="46.19806" lon="7.47922"><ele>2232.8</ele><time>2024-08-02T12:21:32Z</time></trkpt>
<trkpt lat="46.19809" lon="7.47919"><ele>2233</ele><time>2024-08-02T12:21:35Z</time></trkpt>
<trkpt lat="46.19813" lon="7.47914"><ele>2233.4</ele><time>2024-08-02T12:21:38Z</time></trkpt>
<trkpt lat="46.19819" lon="7.47902"><ele>2233.8</ele><time>2024-08-02T12:21:45Z</time></trkpt>
<trkpt lat="46.19819" lon="7.479"><ele>2234</ele><time>2024-08-02T12:21:46Z</time></trkpt>
<trkpt lat="46.19822" lon="7.47885"><ele>2234.6</ele><time>2024-08-02T12:21:53Z</time></trkpt>
<trkpt lat="46.19822" lon="7.47881"><ele>2234.6</ele><time>2024-08-02T12:21:55Z</time></trkpt>
<trkpt lat="46.19824" lon="7.47876"><ele>2235</ele><time>2024-08-02T12:21:58Z</time></trkpt>
<trkpt lat="46.19826" lon="7.47873"><ele>2235.2</ele><time>2024-08-02T12:22:00Z</time></trkpt>
<trkpt lat="46.19832" lon="7.47868"><ele>2235.6</ele><time>2024-08-02T12:22:04Z</time></trkpt>
<trkpt lat="46.19833" lon="7.47867"><ele>2235.6</ele><time>2024-08-02T12:22:05Z</time></trkpt>
<trkpt lat="46.19836" lon="7.47865"><ele>2235.8</ele><time>2024-08-02T12:22:07Z</time></trkpt>
<trkpt lat="46.19839" lon="7.47863"><ele>2236</ele><time>2024-08-02T12:22:09Z</time></trkpt>
<trkpt lat="46.19848" lon="7.47856"><ele>2236.6</ele><time>2024-08-02T12:22:15Z</time></trkpt>
<trkpt lat="46.19852" lon="7.4785"><ele>2237</ele><time>2024-08-02T12:22:19Z</time></trkpt>
<trkpt lat="46.19858" lon="7.47845"><ele>2237.8</ele><time>2024-08-02T12:22:24Z</time></trkpt>
<trkpt lat="46.19864" lon="7.4784"><ele>2238</ele><time>2024-08-02T12:22:29Z</time></trkpt>
<trkpt lat="46.19869" lon="7.47839"><ele>2238.6</ele><time>2024-08-02T12:22:32Z</time></trkpt>
<trkpt lat="46.19876" lon="7.47838"><ele>2239.2</ele><time>2024-08-02T12:22:37Z</time></trkpt>
<trkpt lat="46.1988" lon="7.47839"><ele>2239.6</ele><time>2024-08-02T12:22:40Z</time></trkpt>
<trkpt lat="46.19887" lon="7.47842"><ele>2240.2</ele><time>2024-08-02T12:22:45Z</time></trkpt>
<trkpt lat="46.19892" lon="7.47845"><ele>2240.4</ele><time>2024-08-02T12:22:48Z</time></trkpt>
<trkpt lat="46.19904" lon="7.47847"><ele>2241.2</ele><time>2024-08-02T12:22:56Z</time></trkpt>
<trkpt lat="46.19905" lon="7.47848"><ele>2241.4</ele><time>2024-08-02T12:22:57Z</time></trkpt>
<trkpt lat="46.19911" lon="7.47856"><ele>2241.8</ele><time>2024-08-02T12:23:02Z</time></trkpt>
<trkpt lat="46.19914" lon="7.47866"><ele>2242.4</ele><time>2024-08-02T12:23:07Z</time></trkpt>
<trkpt lat="46.19914" lon="7.4787"><ele>2242.6</ele><time>2024-08-02T12:23:09Z</time></trkpt>
<trkpt lat="46.19914" lon="7.47883"><ele>2243.2</ele><time>2024-08-02T12:23:15Z</time></trkpt>
<trkpt lat="46.19914" lon="7.47888"><ele>2243.4</ele><time>2024-08-02T12:23:17Z</time></trkpt>
<trkpt lat="46.19917" lon="7.47898"><ele>2243.8</ele><time>2024-08-02T12:23:22Z</time></trkpt>
<trkpt lat="46.19926" lon="7.47906"><ele>2244.6</ele><time>2024-08-02T12:23:29Z</time></trkpt>
<trkpt lat="46.19934" lon="7.47916"><ele>2245.4</ele><time>2024-08-02T12:23:37Z</time></trkpt>
<trkpt lat="46.19936" lon="7.47918"><ele>2245.6</ele><time>2024-08-02T12:23:39Z</time></trkpt>
<trkpt lat="46.19944" lon="7.47926"><ele>2246</ele><time>2024-08-02T12:23:45Z</time></trkpt>
<trkpt lat="46.1995" lon="7.47933"><ele>2246.8</ele><time>2024-08-02T12:23:50Z</time></trkpt>
<trkpt lat="46.19953" lon="7.47937"><ele>2247</ele><time>2024-08-02T12:23:53Z</time></trkpt>
<trkpt lat="46.1996" lon="7.47944"><ele>2247.8</ele><time>2024-08-02T12:23:59Z</time></trkpt>
<trkpt lat="46.19961" lon="7.47945"><ele>2247.8</ele><time>2024-08-02T12:24:00Z</time></trkpt>
<trkpt lat="46.19968" lon="7.47957"><ele>2248.6</ele><time>2024-08-02T12:24:07Z</time></trkpt>
<trkpt lat="46.19968" lon="7.4796"><ele>2248.8</ele><time>2024-08-02T12:24:09Z</time></trkpt>
<trkpt lat="46.19969" lon="7.47972"><ele>2249.4</ele><time>2024-08-02T12:24:15Z</time></trkpt>
<trkpt lat="46.19973" lon="7.47981"><ele>2250</ele><time>2024-08-02T12:24:21Z</time></trkpt>
<trkpt lat="46.19974" lon="7.47983"><ele>2250</ele><time>2024-08-02T12:24:22Z</time></trkpt>
<trkpt lat="46.19981" lon="7.47995"><ele>2251</ele><time>2024-08-02T12:24:31Z</time></trkpt>
<trkpt lat="46.19982" lon="7.47996"><ele>2251</ele><time>2024-08-02T12:24:32Z</time></trkpt>
<trkpt lat="46.19992" lon="7.48004"><ele>2252.2</ele><time>2024-08-02T12:24:41Z</time></trkpt>
<trkpt lat="46.19994" lon="7.48007"><ele>2252.2</ele><time>2024-08-02T12:24:43Z</time></trkpt>
<trkpt lat="46.2" lon="7.48014"><ele>2252.8</ele><time>2024-08-02T12:24:50Z</time></trkpt>
<trkpt lat="46.2" lon="7.48017"><ele>2253.2</ele><time>2024-08-02T12:24:52Z</time></trkpt>
<trkpt lat="46.20004" lon="7.48021"><ele>2253.4</ele><time>2024-08-02T12:24:56Z</time></trkpt>
<trkpt lat="46.20011" lon="7.48025"><ele>2254.2</ele><time>2024-08-02T12:25:02Z</time></trkpt>
<trkpt lat="46.20014" lon="7.48028"><ele>2254.6</ele><time>2024-08-02T12:25:05Z</time></trkpt>
<trkpt lat="46.20019" lon="7.48033"><ele>2255.4</ele><time>2024-08-02T12:25:11Z</time></trkpt>
<trkpt lat="46.20021" lon="7.48035"><ele>2255.6</ele><time>2024-08-02T12:25:13Z</time></trkpt>
<trkpt lat="46.20027" lon="7.48041"><ele>2256.4</ele><time>2024-08-02T12:25:19Z</time></trkpt>
<trkpt lat="46.2003" lon="7.48044"><ele>2256.6</ele><time>2024-08-02T12:25:22Z</time></trkpt>
<trkpt lat="46.20035" lon="7.48049"><ele>2257.4</ele><time>2024-08-02T12:25:27Z</time></trkpt>
<trkpt lat="46.20036" lon="7.4805"><ele>2257.6</ele><time>2024-08-02T12:25:29Z</time></trkpt>
<trkpt lat="46.20043" lon="7.48057"><ele>2258.4</ele><time>2024-08-02T12:25:37Z</time></trkpt>
<trkpt lat="46.20049" lon="7.48063"><ele>2259</ele><time>2024-08-02T12:25:44Z</time></trkpt>
<trkpt lat="46.20051" lon="7.48064"><ele>2259.4</ele><time>2024-08-02T12:25:46Z</time></trkpt>
<trkpt lat="46.20052" lon="7.48065"><ele>2259.4</ele><time>2024-08-02T12:25:47Z</time></trkpt>
<trkpt lat="46.20056" lon="7.48068"><ele>2260</ele><time>2024-08-02T12:25:52Z</time></trkpt>
<trkpt lat="46.20058" lon="7.48071"><ele>2260.4</ele><time>2024-08-02T12:25:55Z</time></trkpt>
<trkpt lat="46.20061" lon="7.48073"><ele>2261.2</ele><time>2024-08-02T12:25:59Z</time></trkpt>
<trkpt lat="46.20067" lon="7.48075"><ele>2261.6</ele><time>2024-08-02T12:26:05Z</time></trkpt>
<trkpt lat="46.20068" lon="7.48075"><ele>2261.6</ele><time>2024-08-02T12:26:06Z</time></trkpt>
<trkpt lat="46.20076" lon="7.48073"><ele>2262.4</ele><time>2024-08-02T12:26:13Z</time></trkpt>
<trkpt lat="46.20077" lon="7.48073"><ele>2262.6</ele><time>2024-08-02T12:26:14Z</time></trkpt>
<trkpt lat="46.20084" lon="7.48072"><ele>2263.6</ele><time>2024-08-02T12:26:20Z</time></trkpt>
<trkpt lat="46.20085" lon="7.48073"><ele>2263.6</ele><time>2024-08-02T12:26:21Z</time></trkpt>
<trkpt lat="46.20091" lon="7.48074"><ele>2264.2</ele><time>2024-08-02T12:26:28Z</time></trkpt>
<trkpt lat="46.20093" lon="7.48075"><ele>2264.6</ele><time>2024-08-02T12:26:30Z</time></trkpt>
<trkpt lat="46.20098" lon="7.48076"><ele>2265.2</ele><time>2024-08-02T12:26:35Z</time></trkpt>
<trkpt lat="46.20103" lon="7.48075"><ele>2265.6</ele><time>2024-08-02T12:26:40Z</time></trkpt>
<trkpt lat="46.20105" lon="7.48075"><ele>2266</ele><time>2024-08-02T12:26:42Z</time></trkpt>
<trkpt lat="46.20111" lon="7.48074"><ele>2266.6</ele><time>2024-08-02T12:26:48Z</time></trkpt>
<trkpt lat="46.20113" lon="7.48073"><ele>2266.8</ele><time>2024-08-02T12:26:50Z</time></trkpt>
<trkpt lat="46.20117" lon="7.4807"><ele>2267.2</ele><time>2024-08-02T12:26:55Z</time></trkpt>
<trkpt lat="46.20122" lon="7.48065"><ele>2267.8</ele><time>2024-08-02T12:27:00Z</time></trkpt>
<trkpt lat="46.20123" lon="7.48064"><ele>2268</ele><time>2024-08-02T12:27:01Z</time></trkpt>
<trkpt lat="46.20127" lon="7.48058"><ele>2268.6</ele><time>2024-08-02T12:27:07Z</time></trkpt>
<trkpt lat="46.20129" lon="7.48056"><ele>2269.2</ele><time>2024-08-02T12:27:10Z</time></trkpt>
<trkpt lat="46.20132" lon="7.48052"><ele>2269.4</ele><time>2024-08-02T12:27:14Z</time></trkpt>
<trkpt lat="46.20137" lon="7.48046"><ele>2270.2</ele><time>2024-08-02T12:27:20Z</time></trkpt>
<trkpt lat="46.20138" lon="7.48045"><ele>2270.4</ele><time>2024-08-02T12:27:22Z</time></trkpt>
<trkpt lat="46.20145" lon="7.48041"><ele>2271.4</ele><time>2024-08-02T12:27:29Z</time></trkpt>
<trkpt lat="46.20152" lon="7.48036"><ele>2272.4</ele><time>2024-08-02T12:27:36Z</time></trkpt>
<trkpt lat="46.20153" lon="7.48036"><ele>2272.6</ele><time>2024-08-02T12:27:37Z</time></trkpt>
<trkpt lat="46.20167" lon="7.4803"><ele>2273.6</ele><time>2024-08-02T12:27:44Z</time></trkpt>
<trkpt lat="46.20174" lon="7.48021"><ele>2274.4</ele><time>2024-08-02T12:27:50Z</time></trkpt>
<trkpt lat="46.20175" lon="7.4802"><ele>2274.8</ele><time>2024-08-02T12:27:51Z</time></trkpt>
<trkpt lat="46.20181" lon="7.48017"><ele>2275.8</ele><time>2024-08-02T12:27:56Z</time></trkpt>
<trkpt lat="46.20183" lon="7.48017"><ele>2275.8</ele><time>2024-08-02T12:27:57Z</time></trkpt>
<trkpt lat="46.2019" lon="7.48016"><ele>2276.4</ele><time>2024-08-02T12:28:03Z</time></trkpt>
<trkpt lat="46.20196" lon="7.48013"><ele>2277</ele><time>2024-08-02T12:28:09Z</time></trkpt>
<trkpt lat="46.20197" lon="7.48011"><ele>2277.2</ele><time>2024-08-02T12:28:11Z</time></trkpt>
<trkpt lat="46.202" lon="7.48005"><ele>2278</ele><time>2024-08-02T12:28:16Z</time></trkpt>
<trkpt lat="46.202" lon="7.48003"><ele>2278.2</ele><time>2024-08-02T12:28:17Z</time></trkpt>
<trkpt lat="46.202" lon="7.48001"><ele>2278.2</ele><time>2024-08-02T12:28:18Z</time></trkpt>
<trkpt lat="46.20202" lon="7.47997"><ele>2279.2</ele><time>2024-08-02T12:28:22Z</time></trkpt>
<trkpt lat="46.20204" lon="7.4799"><ele>2279.8</ele><time>2024-08-02T12:28:27Z</time></trkpt>
<trkpt lat="46.20205" lon="7.47987"><ele>2280.4</ele><time>2024-08-02T12:28:30Z</time></trkpt>
<trkpt lat="46.20206" lon="7.47982"><ele>2280.8</ele><time>2024-08-02T12:28:34Z</time></trkpt>
<trkpt lat="46.20207" lon="7.47973"><ele>2281.2</ele><time>2024-08-02T12:28:41Z</time></trkpt>
<trkpt lat="46.20208" lon="7.47969"><ele>2281.4</ele><time>2024-08-02T12:28:43Z</time></trkpt>
<trkpt lat="46.20208" lon="7.47964"><ele>2282.2</ele><time>2024-08-02T12:28:47Z</time></trkpt>
<trkpt lat="46.2021" lon="7.4796"><ele>2282.6</ele><time>2024-08-02T12:28:51Z</time></trkpt>
<trkpt lat="46.20211" lon="7.47957"><ele>2282.8</ele><time>2024-08-02T12:28:53Z</time></trkpt>
<trkpt lat="46.20213" lon="7.47952"><ele>2283.2</ele><time>2024-08-02T12:28:58Z</time></trkpt>
<trkpt lat="46.20214" lon="7.47949"><ele>2283.6</ele><time>2024-08-02T12:29:01Z</time></trkpt>
<trkpt lat="46.20215" lon="7.47947"><ele>2283.8</ele><time>2024-08-02T12:29:03Z</time></trkpt>
<trkpt lat="46.20216" lon="7.47945"><ele>2284</ele><time>2024-08-02T12:29:05Z</time></trkpt>
<trkpt lat="46.20217" lon="7.47943"><ele>2284.2</ele><time>2024-08-02T12:29:07Z</time></trkpt>
<trkpt lat="46.20218" lon="7.4794"><ele>2284.6</ele><time>2024-08-02T12:29:10Z</time></trkpt>
<trkpt lat="46.20219" lon="7.47939"><ele>2284.6</ele><time>2024-08-02T12:29:11Z</time></trkpt>
<trkpt lat="46.20223" lon="7.47936"><ele>2285</ele><time>2024-08-02T12:29:16Z</time></trkpt>
<trkpt lat="46.20226" lon="7.47931"><ele>2285.6</ele><time>2024-08-02T12:29:21Z</time></trkpt>
<trkpt lat="46.20227" lon="7.4793"><ele>2285.8</ele><time>2024-08-02T12:29:22Z</time></trkpt>
<trkpt lat="46.2023" lon="7.47926"><ele>2286.6</ele><time>2024-08-02T12:29:27Z</time></trkpt>
<trkpt lat="46.20231" lon="7.47924"><ele>2286.8</ele><time>2024-08-02T12:29:29Z</time></trkpt>
<trkpt lat="46.20235" lon="7.4792"><ele>2287.4</ele><time>2024-08-02T12:29:34Z</time></trkpt>
<trkpt lat="46.20237" lon="7.47918"><ele>2287.8</ele><time>2024-08-02T12:29:37Z</time></trkpt>
<trkpt lat="46.20241" lon="7.47916"><ele>2288.6</ele><time>2024-08-02T12:29:41Z</time></trkpt>
<trkpt lat="46.20242" lon="7.47915"><ele>2289</ele><time>2024-08-02T12:29:43Z</time></trkpt>
<trkpt lat="46.20244" lon="7.47912"><ele>2289.4</ele><time>2024-08-02T12:29:47Z</time></trkpt>
<trkpt lat="46.20247" lon="7.47908"><ele>2290.2</ele><time>2024-08-02T12:29:51Z</time></trkpt>
<trkpt lat="46.20249" lon="7.47905"><ele>2290.6</ele><time>2024-08-02T12:29:54Z</time></trkpt>
<trkpt lat="46.20253" lon="7.47902"><ele>2291.2</ele><time>2024-08-02T12:29:59Z</time></trkpt>
<trkpt lat="46.20255" lon="7.47897"><ele>2291.8</ele><time>2024-08-02T12:30:03Z</time></trkpt>
<trkpt lat="46.20259" lon="7.4789"><ele>2292.4</ele><time>2024-08-02T12:30:09Z</time></trkpt>
<trkpt lat="46.2026" lon="7.47887"><ele>2292.6</ele><time>2024-08-02T12:30:11Z</time></trkpt>
<trkpt lat="46.20264" lon="7.4788"><ele>2293.6</ele><time>2024-08-02T12:30:18Z</time></trkpt>
<trkpt lat="46.20264" lon="7.47879"><ele>2293.6</ele><time>2024-08-02T12:30:19Z</time></trkpt>
<trkpt lat="46.20268" lon="7.47873"><ele>2294.6</ele><time>2024-08-02T12:30:25Z</time></trkpt>
<trkpt lat="46.20268" lon="7.47872"><ele>2294.6</ele><time>2024-08-02T12:30:26Z</time></trkpt>
<trkpt lat="46.20269" lon="7.4787"><ele>2294.8</ele><time>2024-08-02T12:30:28Z</time></trkpt>
<trkpt lat="46.20272" lon="7.47867"><ele>2295</ele><time>2024-08-02T12:30:31Z</time></trkpt>
<trkpt lat="46.20275" lon="7.47862"><ele>2295.6</ele><time>2024-08-02T12:30:37Z</time></trkpt>
<trkpt lat="46.20276" lon="7.4786"><ele>2296</ele><time>2024-08-02T12:30:39Z</time></trkpt>
<trkpt lat="46.20278" lon="7.47856"><ele>2296.2</ele><time>2024-08-02T12:30:42Z</time></trkpt>
<trkpt lat="46.2028" lon="7.47853"><ele>2296.4</ele><time>2024-08-02T12:30:45Z</time></trkpt>
<trkpt lat="46.20281" lon="7.47852"><ele>2296.6</ele><time>2024-08-02T12:30:46Z</time></trkpt>
<trkpt lat="46.20283" lon="7.47849"><ele>2297</ele><time>2024-08-02T12:30:50Z</time></trkpt>
<trkpt lat="46.20285" lon="7.47847"><ele>2297.4</ele><time>2024-08-02T12:30:52Z</time></trkpt>
<trkpt lat="46.20286" lon="7.47846"><ele>2297.6</ele><time>2024-08-02T12:30:54Z</time></trkpt>
<trkpt lat="46.20291" lon="7.47843"><ele>2298.2</ele><time>2024-08-02T12:31:00Z</time></trkpt>
<trkpt lat="46.20294" lon="7.4784"><ele>2298.8</ele><time>2024-08-02T12:31:04Z</time></trkpt>
<trkpt lat="46.20296" lon="7.47839"><ele>2299</ele><time>2024-08-02T12:31:07Z</time></trkpt>
<trkpt lat="46.20301" lon="7.47836"><ele>2299.6</ele><time>2024-08-02T12:31:13Z</time></trkpt>
<trkpt lat="46.20302" lon="7.47835"><ele>2299.8</ele><time>2024-08-02T12:31:14Z</time></trkpt>
<trkpt lat="46.20308" lon="7.47833"><ele>2300.6</ele><time>2024-08-02T12:31:21Z</time></trkpt>
<trkpt lat="46.20311" lon="7.4783"><ele>2300.8</ele><time>2024-08-02T12:31:26Z</time></trkpt>
<trkpt lat="46.20312" lon="7.47829"><ele>2301</ele><time>2024-08-02T12:31:27Z</time></trkpt>
<trkpt lat="46.20313" lon="7.47828"><ele>2301.2</ele><time>2024-08-02T12:31:28Z</time></trkpt>
<trkpt lat="46.20317" lon="7.47827"><ele>2301.8</ele><time>2024-08-02T12:31:32Z</time></trkpt>
<trkpt lat="46.20318" lon="7.47827"><ele>2301.8</ele><time>2024-08-02T12:31:33Z</time></trkpt>
<trkpt lat="46.20319" lon="7.47826"><ele>2302</ele><time>2024-08-02T12:31:35Z</time></trkpt>
<trkpt lat="46.20323" lon="7.47823"><ele>2302.6</ele><time>2024-08-02T12:31:40Z</time></trkpt>
<trkpt lat="46.20323" lon="7.47823"><ele>2302.8</ele><time>2024-08-02T12:31:41Z</time></trkpt>
<trkpt lat="46.20327" lon="7.47819"><ele>2303.6</ele><time>2024-08-02T12:31:46Z</time></trkpt>
<trkpt lat="46.20329" lon="7.47818"><ele>2304</ele><time>2024-08-02T12:31:48Z</time></trkpt>
<trkpt lat="46.20333" lon="7.47817"><ele>2304.6</ele><time>2024-08-02T12:31:52Z</time></trkpt>
<trkpt lat="46.20334" lon="7.47818"><ele>2304.8</ele><time>2024-08-02T12:31:53Z</time></trkpt>
<trkpt lat="46.20336" lon="7.47821"><ele>2305</ele><time>2024-08-02T12:31:55Z</time></trkpt>
<trkpt lat="46.20336" lon="7.47822"><ele>2305.2</ele><time>2024-08-02T12:31:56Z</time></trkpt>
<trkpt lat="46.20337" lon="7.47826"><ele>2305.4</ele><time>2024-08-02T12:31:59Z</time></trkpt>
<trkpt lat="46.20334" lon="7.47834"><ele>2306</ele><time>2024-08-02T12:32:06Z</time></trkpt>
<trkpt lat="46.20333" lon="7.47836"><ele>2306.2</ele><time>2024-08-02T12:32:08Z</time></trkpt>
<trkpt lat="46.20329" lon="7.47841"><ele>2306.8</ele><time>2024-08-02T12:32:13Z</time></trkpt>
<trkpt lat="46.20328" lon="7.47845"><ele>2307.2</ele><time>2024-08-02T12:32:17Z</time></trkpt>
<trkpt lat="46.20328" lon="7.47846"><ele>2307.4</ele><time>2024-08-02T12:32:18Z</time></trkpt>
<trkpt lat="46.20325" lon="7.47853"><ele>2308</ele><time>2024-08-02T12:32:24Z</time></trkpt>
<trkpt lat="46.20324" lon="7.4786"><ele>2308.4</ele><time>2024-08-02T12:32:29Z</time></trkpt>
<trkpt lat="46.20324" lon="7.47862"><ele>2308.6</ele><time>2024-08-02T12:32:31Z</time></trkpt>
<trkpt lat="46.20323" lon="7.47867"><ele>2309</ele><time>2024-08-02T12:32:35Z</time></trkpt>
<trkpt lat="46.20323" lon="7.47869"><ele>2309.4</ele><time>2024-08-02T12:32:37Z</time></trkpt>
<trkpt lat="46.20323" lon="7.47871"><ele>2309.4</ele><time>2024-08-02T12:32:38Z</time></trkpt>
<trkpt lat="46.20322" lon="7.47876"><ele>2310</ele><time>2024-08-02T12:32:42Z</time></trkpt>
<trkpt lat="46.20321" lon="7.47877"><ele>2310.6</ele><time>2024-08-02T12:32:45Z</time></trkpt>
<trkpt lat="46.20322" lon="7.47877"><ele>2311</ele><time>2024-08-02T12:32:47Z</time></trkpt>
<trkpt lat="46.20322" lon="7.47877"><ele>2311</ele><time>2024-08-02T12:32:53Z</time></trkpt>
<trkpt lat="46.20322" lon="7.47883"><ele>2311.2</ele><time>2024-08-02T12:32:59Z</time></trkpt>
<trkpt lat="46.20325" lon="7.47882"><ele>2311.8</ele><time>2024-08-02T12:33:03Z</time></trkpt>
<trkpt lat="46.20325" lon="7.47881"><ele>2312.2</ele><time>2024-08-02T12:33:05Z</time></trkpt>
<trkpt lat="46.20326" lon="7.4788"><ele>2312.8</ele><time>2024-08-02T12:33:07Z</time></trkpt>
<trkpt lat="46.20327" lon="7.47878"><ele>2313</ele><time>2024-08-02T12:33:11Z</time></trkpt>
<trkpt lat="46.20332" lon="7.47869"><ele>2313.2</ele><time>2024-08-02T12:33:20Z</time></trkpt>
<trkpt lat="46.20336" lon="7.47864"><ele>2313.2</ele><time>2024-08-02T12:33:26Z</time></trkpt>
<trkpt lat="46.20336" lon="7.47864"><ele>2313.4</ele><time>2024-08-02T12:33:31Z</time></trkpt>
<trkpt lat="46.20336" lon="7.47864"><ele>2313.4</ele><time>2024-08-02T12:33:33Z</time></trkpt>
<trkpt lat="46.20335" lon="7.47863"><ele>2313.4</ele><time>2024-08-02T12:33:37Z</time></trkpt>
<trkpt lat="46.20335" lon="7.47862"><ele>2313.4</ele><time>2024-08-02T12:33:43Z</time></trkpt>
<trkpt lat="46.20337" lon="7.47862"><ele>2313.2</ele><time>2024-08-02T12:33:48Z</time></trkpt>
<trkpt lat="46.20336" lon="7.47862"><ele>2313.2</ele><time>2024-08-02T12:33:53Z</time></trkpt>
<trkpt lat="46.20336" lon="7.47862"><ele>2313.2</ele><time>2024-08-02T12:33:54Z</time></trkpt>
<trkpt lat="46.20336" lon="7.47863"><ele>2313.2</ele><time>2024-08-02T12:33:55Z</time></trkpt>
<trkpt lat="46.20337" lon="7.47862"><ele>2313</ele><time>2024-08-02T12:33:56Z</time></trkpt>
<trkpt lat="46.20337" lon="7.47861"><ele>2313.2</ele><time>2024-08-02T12:33:59Z</time></trkpt>
<trkpt lat="46.20337" lon="7.47862"><ele>2312.8</ele><time>2024-08-02T12:34:07Z</time></trkpt>
<trkpt lat="46.20337" lon="7.47863"><ele>2313</ele><time>2024-08-02T12:34:19Z</time></trkpt>
<trkpt lat="46.20337" lon="7.47863"><ele>2313.4</ele><time>2024-08-02T12:34:27Z</time></trkpt>
<trkpt lat="46.20337" lon="7.47863"><ele>2313.2</ele><time>2024-08-02T12:34:42Z</time></trkpt>
<trkpt lat="46.20337" lon="7.47863"><ele>2313.2</ele><time>2024-08-02T12:34:45Z</time></trkpt>
<trkpt lat="46.20337" lon="7.47862"><ele>2313.4</ele><time>2024-08-02T12:34:51Z</time></trkpt>
<trkpt lat="46.20338" lon="7.47862"><ele>2313.4</ele><time>2024-08-02T12:34:57Z</time></trkpt>
<trkpt lat="46.20338" lon="7.47863"><ele>2313.4</ele><time>2024-08-02T12:35:05Z</time></trkpt>
<trkpt lat="46.20337" lon="7.47862"><ele>2313.4</ele><time>2024-08-02T12:35:11Z</time></trkpt>
<trkpt lat="46.20337" lon="7.47862"><ele>2313.4</ele><time>2024-08-02T12:35:13Z</time></trkpt>
<trkpt lat="46.20337" lon="7.47862"><ele>2313.4</ele><time>2024-08-02T12:35:14Z</time></trkpt>
<trkpt lat="46.20337" lon="7.47862"><ele>2313.4</ele><time>2024-08-02T12:35:18Z</time></trkpt>
<trkpt lat="46.20337" lon="7.47862"><ele>2313.4</ele><time>2024-08-02T12:35:26Z</time></trkpt>
<trkpt lat="46.20337" lon="7.4786"><ele>2313.4</ele><time>2024-08-02T12:35:34Z</time></trkpt>
<trkpt lat="46.20338" lon="7.47861"><ele>2313.4</ele><time>2024-08-02T12:35:38Z</time></trkpt>
<trkpt lat="46.20338" lon="7.47861"><ele>2313.4</ele><time>2024-08-02T12:35:39Z</time></trkpt>
<trkpt lat="46.20338" lon="7.47861"><ele>2313.4</ele><time>2024-08-02T12:35:41Z</time></trkpt>
<trkpt lat="46.20338" lon="7.47861"><ele>2313.4</ele><time>2024-08-02T12:35:43Z</time></trkpt>
<trkpt lat="46.20338" lon="7.47861"><ele>2313.4</ele><time>2024-08-02T12:35:46Z</time></trkpt>
<trkpt lat="46.20338" lon="7.47861"><ele>2313.4</ele><time>2024-08-02T12:35:53Z</time></trkpt>
<trkpt lat="46.20338" lon="7.47861"><ele>2313.4</ele><time>2024-08-02T12:36:01Z</time></trkpt>
<trkpt lat="46.20338" lon="7.47861"><ele>2313.4</ele><time>2024-08-02T12:36:10Z</time></trkpt>
<trkpt lat="46.20338" lon="7.47861"><ele>2313.4</ele><time>2024-08-02T12:36:13Z</time></trkpt>
<trkpt lat="46.20338" lon="7.47861"><ele>2313.4</ele><time>2024-08-02T12:36:19Z</time></trkpt>
<trkpt lat="46.20338" lon="7.47861"><ele>2313.4</ele><time>2024-08-02T12:36:24Z</time></trkpt>
<trkpt lat="46.20338" lon="7.47861"><ele>2313.4</ele><time>2024-08-02T12:36:28Z</time></trkpt>
<trkpt lat="46.20338" lon="7.47861"><ele>2313.4</ele><time>2024-08-02T12:36:35Z</time></trkpt>
<trkpt lat="46.20338" lon="7.47862"><ele>2313.4</ele><time>2024-08-02T12:36:42Z</time></trkpt>
<trkpt lat="46.20338" lon="7.47862"><ele>2313.4</ele><time>2024-08-02T12:36:51Z</time></trkpt>
<trkpt lat="46.20338" lon="7.47862"><ele>2313.4</ele><time>2024-08-02T12:36:54Z</time></trkpt>
<trkpt lat="46.20338" lon="7.47862"><ele>2313.4</ele><time>2024-08-02T12:36:57Z</time></trkpt>
<trkpt lat="46.20338" lon="7.47862"><ele>2313.4</ele><time>2024-08-02T12:37:04Z</time></trkpt>
<trkpt lat="46.20338" lon="7.47862"><ele>2313.4</ele><time>2024-08-02T12:37:10Z</time></trkpt>
<trkpt lat="46.20338" lon="7.47862"><ele>2313.4</ele><time>2024-08-02T12:37:11Z</time></trkpt>
<trkpt lat="46.20338" lon="7.47862"><ele>2313.4</ele><time>2024-08-02T12:37:16Z</time></trkpt>
<trkpt lat="46.20338" lon="7.47863"><ele>2313.4</ele><time>2024-08-02T12:37:18Z</time></trkpt>
<trkpt lat="46.20338" lon="7.47863"><ele>2313.4</ele><time>2024-08-02T12:37:26Z</time></trkpt>
<trkpt lat="46.20338" lon="7.47862"><ele>2313.4</ele><time>2024-08-02T12:37:36Z</time></trkpt>
<trkpt lat="46.20338" lon="7.47862"><ele>2313.4</ele><time>2024-08-02T12:37:42Z</time></trkpt>
<trkpt lat="46.20338" lon="7.47862"><ele>2313.4</ele><time>2024-08-02T12:37:51Z</time></trkpt>
<trkpt lat="46.20338" lon="7.47861"><ele>2313.4</ele><time>2024-08-02T12:38:02Z</time></trkpt>
<trkpt lat="46.20338" lon="7.47861"><ele>2313.4</ele><time>2024-08-02T12:38:04Z</time></trkpt>
<trkpt lat="46.20338" lon="7.47861"><ele>2313.4</ele><time>2024-08-02T12:38:06Z</time></trkpt>
<trkpt lat="46.20338" lon="7.47861"><ele>2313.4</ele><time>2024-08-02T12:38:12Z</time></trkpt>
<trkpt lat="46.20338" lon="7.47861"><ele>2313.4</ele><time>2024-08-02T12:38:13Z</time></trkpt>
<trkpt lat="46.20338" lon="7.47861"><ele>2313.4</ele><time>2024-08-02T12:38:14Z</time></trkpt>
<trkpt lat="46.20338" lon="7.47861"><ele>2313.4</ele><time>2024-08-02T12:38:15Z</time></trkpt>
<trkpt lat="46.20338" lon="7.47861"><ele>2313.4</ele><time>2024-08-02T12:38:16Z</time></trkpt>
<trkpt lat="46.20338" lon="7.47861"><ele>2313.4</ele><time>2024-08-02T12:38:19Z</time></trkpt>
<trkpt lat="46.20338" lon="7.47861"><ele>2313.4</ele><time>2024-08-02T12:38:20Z</time></trkpt>
<trkpt lat="46.20338" lon="7.47861"><ele>2313.4</ele><time>2024-08-02T12:38:21Z</time></trkpt>
<trkpt lat="46.20338" lon="7.47861"><ele>2313.4</ele><time>2024-08-02T12:38:22Z</time></trkpt>
<trkpt lat="46.20338" lon="7.47861"><ele>2313.4</ele><time>2024-08-02T12:38:25Z</time></trkpt>
<trkpt lat="46.20338" lon="7.47861"><ele>2313.4</ele><time>2024-08-02T12:38:45Z</time></trkpt>
<trkpt lat="46.20338" lon="7.47861"><ele>2313.4</ele><time>2024-08-02T12:38:55Z</time></trkpt>
<trkpt lat="46.20338" lon="7.47862"><ele>2313.4</ele><time>2024-08-02T12:39:00Z</time></trkpt>
<trkpt lat="46.20338" lon="7.47862"><ele>2313.4</ele><time>2024-08-02T12:39:05Z</time></trkpt>
<trkpt lat="46.20337" lon="7.47863"><ele>2313.4</ele><time>2024-08-02T12:39:10Z</time></trkpt>
<trkpt lat="46.20338" lon="7.47862"><ele>2313.4</ele><time>2024-08-02T12:39:17Z</time></trkpt>
<trkpt lat="46.20338" lon="7.47862"><ele>2313.4</ele><time>2024-08-02T12:39:18Z</time></trkpt>
<trkpt lat="46.20338" lon="7.47862"><ele>2313.4</ele><time>2024-08-02T12:39:26Z</time></trkpt>
<trkpt lat="46.20337" lon="7.47863"><ele>2313.4</ele><time>2024-08-02T12:39:33Z</time></trkpt>
<trkpt lat="46.20337" lon="7.47863"><ele>2313.4</ele><time>2024-08-02T12:39:40Z</time></trkpt>
<trkpt lat="46.20337" lon="7.47863"><ele>2313.4</ele><time>2024-08-02T12:39:41Z</time></trkpt>
<trkpt lat="46.20337" lon="7.47862"><ele>2313.4</ele><time>2024-08-02T12:39:43Z</time></trkpt>
<trkpt lat="46.20338" lon="7.47861"><ele>2313.4</ele><time>2024-08-02T12:39:48Z</time></trkpt>
<trkpt lat="46.20338" lon="7.47861"><ele>2313.4</ele><time>2024-08-02T12:39:49Z</time></trkpt>
<trkpt lat="46.20338" lon="7.47861"><ele>2313.4</ele><time>2024-08-02T12:39:50Z</time></trkpt>
<trkpt lat="46.20338" lon="7.47861"><ele>2313.4</ele><time>2024-08-02T12:39:52Z</time></trkpt>
<trkpt lat="46.20338" lon="7.47861"><ele>2313.4</ele><time>2024-08-02T12:39:54Z</time></trkpt>
<trkpt lat="46.20338" lon="7.4786"><ele>2313.4</ele><time>2024-08-02T12:39:55Z</time></trkpt>
<trkpt lat="46.20338" lon="7.47861"><ele>2313.4</ele><time>2024-08-02T12:39:57Z</time></trkpt>
<trkpt lat="46.20338" lon="7.47861"><ele>2313.4</ele><time>2024-08-02T12:39:58Z</time></trkpt>
<trkpt lat="46.20338" lon="7.47861"><ele>2313.4</ele><time>2024-08-02T12:40:04Z</time></trkpt>
<trkpt lat="46.20338" lon="7.47862"><ele>2313.4</ele><time>2024-08-02T12:40:17Z</time></trkpt>
<trkpt lat="46.20338" lon="7.47862"><ele>2313.4</ele><time>2024-08-02T12:40:22Z</time></trkpt>
<trkpt lat="46.20338" lon="7.47862"><ele>2313.4</ele><time>2024-08-02T12:40:30Z</time></trkpt>
<trkpt lat="46.20337" lon="7.47862"><ele>2313.4</ele><time>2024-08-02T12:40:40Z</time></trkpt>
<trkpt lat="46.20339" lon="7.47861"><ele>2313.4</ele><time>2024-08-02T12:40:50Z</time></trkpt>
<trkpt lat="46.20338" lon="7.47862"><ele>2313.4</ele><time>2024-08-02T12:40:55Z</time></trkpt>
<trkpt lat="46.20338" lon="7.47862"><ele>2313.4</ele><time>2024-08-02T12:40:56Z</time></trkpt>
<trkpt lat="46.20338" lon="7.47861"><ele>2313.4</ele><time>2024-08-02T12:40:58Z</time></trkpt>
<trkpt lat="46.20338" lon="7.47862"><ele>2313.4</ele><time>2024-08-02T12:41:07Z</time></trkpt>
<trkpt lat="46.20338" lon="7.47863"><ele>2313.4</ele><time>2024-08-02T12:41:16Z</time></trkpt>
<trkpt lat="46.20338" lon="7.47863"><ele>2313.4</ele><time>2024-08-02T12:41:26Z</time></trkpt>
<trkpt lat="46.20338" lon="7.47862"><ele>2313.4</ele><time>2024-08-02T12:41:37Z</time></trkpt>
<trkpt lat="46.20338" lon="7.47862"><ele>2313.4</ele><time>2024-08-02T12:41:46Z</time></trkpt>
<trkpt lat="46.20337" lon="7.47863"><ele>2313.4</ele><time>2024-08-02T12:41:52Z</time></trkpt>
<trkpt lat="46.20337" lon="7.47863"><ele>2313.4</ele><time>2024-08-02T12:42:01Z</time></trkpt>
<trkpt lat="46.20338" lon="7.47863"><ele>2313.4</ele><time>2024-08-02T12:42:03Z</time></trkpt>
<trkpt lat="46.20338" lon="7.47863"><ele>2313.4</ele><time>2024-08-02T12:42:08Z</time></trkpt>
<trkpt lat="46.20338" lon="7.47862"><ele>2313.4</ele><time>2024-08-02T12:42:16Z</time></trkpt>
<trkpt lat="46.20338" lon="7.47863"><ele>2313.4</ele><time>2024-08-02T12:42:25Z</time></trkpt>
<trkpt lat="46.20339" lon="7.47862"><ele>2313.4</ele><time>2024-08-02T12:42:36Z</time></trkpt>
<trkpt lat="46.20338" lon="7.47863"><ele>2313.4</ele><time>2024-08-02T12:42:43Z</time></trkpt>
<trkpt lat="46.20339" lon="7.47862"><ele>2313.4</ele><time>2024-08-02T12:42:51Z</time></trkpt>
<trkpt lat="46.20338" lon="7.47864"><ele>2313.4</ele><time>2024-08-02T12:42:59Z</time></trkpt>
<trkpt lat="46.20338" lon="7.47864"><ele>2313.4</ele><time>2024-08-02T12:43:01Z</time></trkpt>
<trkpt lat="46.20337" lon="7.47863"><ele>2313.4</ele><time>2024-08-02T12:43:03Z</time></trkpt>
<trkpt lat="46.20338" lon="7.47863"><ele>2313.4</ele><time>2024-08-02T12:43:09Z</time></trkpt>
<trkpt lat="46.20338" lon="7.47863"><ele>2313.4</ele><time>2024-08-02T12:43:14Z</time></trkpt>
<trkpt lat="46.20338" lon="7.47863"><ele>2313.4</ele><time>2024-08-02T12:43:17Z</time></trkpt>
<trkpt lat="46.20338" lon="7.47863"><ele>2313.4</ele><time>2024-08-02T12:43:23Z</time></trkpt>
<trkpt lat="46.20337" lon="7.47863"><ele>2313.4</ele><time>2024-08-02T12:43:31Z</time></trkpt>
<trkpt lat="46.20337" lon="7.47862"><ele>2313.4</ele><time>2024-08-02T12:43:39Z</time></trkpt>
<trkpt lat="46.20337" lon="7.47863"><ele>2313.4</ele><time>2024-08-02T12:43:43Z</time></trkpt>
<trkpt lat="46.20337" lon="7.47864"><ele>2313.4</ele><time>2024-08-02T12:43:46Z</time></trkpt>
<trkpt lat="46.20337" lon="7.47864"><ele>2313.4</ele><time>2024-08-02T12:43:50Z</time></trkpt>
<trkpt lat="46.20337" lon="7.47864"><ele>2313.4</ele><time>2024-08-02T12:43:51Z</time></trkpt>
<trkpt lat="46.20337" lon="7.47864"><ele>2313.4</ele><time>2024-08-02T12:43:52Z</time></trkpt>
<trkpt lat="46.20336" lon="7.47863"><ele>2313.4</ele><time>2024-08-02T12:43:54Z</time></trkpt>
<trkpt lat="46.20336" lon="7.47863"><ele>2313.4</ele><time>2024-08-02T12:43:57Z</time></trkpt>
<trkpt lat="46.20337" lon="7.47863"><ele>2313.4</ele><time>2024-08-02T12:44:00Z</time></trkpt>
<trkpt lat="46.20337" lon="7.47863"><ele>2313.4</ele><time>2024-08-02T12:44:08Z</time></trkpt>
<trkpt lat="46.20338" lon="7.47863"><ele>2313.4</ele><time>2024-08-02T12:44:17Z</time></trkpt>
<trkpt lat="46.20338" lon="7.47862"><ele>2313.4</ele><time>2024-08-02T12:44:23Z</time></trkpt>
<trkpt lat="46.20339" lon="7.47863"><ele>2313.4</ele><time>2024-08-02T12:44:28Z</time></trkpt>
<trkpt lat="46.20339" lon="7.47863"><ele>2313.4</ele><time>2024-08-02T12:44:35Z</time></trkpt>
<trkpt lat="46.20339" lon="7.47863"><ele>2313.4</ele><time>2024-08-02T12:44:39Z</time></trkpt>
<trkpt lat="46.20339" lon="7.47863"><ele>2313.4</ele><time>2024-08-02T12:44:49Z</time></trkpt>
<trkpt lat="46.20338" lon="7.47863"><ele>2313.4</ele><time>2024-08-02T12:44:58Z</time></trkpt>
<trkpt lat="46.20338" lon="7.47862"><ele>2313.4</ele><time>2024-08-02T12:45:07Z</time></trkpt>
<trkpt lat="46.20338" lon="7.47861"><ele>2313.4</ele><time>2024-08-02T12:45:17Z</time></trkpt>
<trkpt lat="46.20338" lon="7.47861"><ele>2313.4</ele><time>2024-08-02T12:45:21Z</time></trkpt>
<trkpt lat="46.20338" lon="7.47861"><ele>2313.4</ele><time>2024-08-02T12:45:23Z</time></trkpt>
<trkpt lat="46.20339" lon="7.47861"><ele>2313.4</ele><time>2024-08-02T12:45:29Z</time></trkpt>
<trkpt lat="46.20338" lon="7.47862"><ele>2313.4</ele><time>2024-08-02T12:45:31Z</time></trkpt>
<trkpt lat="46.20338" lon="7.47862"><ele>2313.4</ele><time>2024-08-02T12:45:35Z</time></trkpt>
<trkpt lat="46.20338" lon="7.47861"><ele>2313.4</ele><time>2024-08-02T12:45:38Z</time></trkpt>
<trkpt lat="46.20338" lon="7.47861"><ele>2313.4</ele><time>2024-08-02T12:45:39Z</time></trkpt>
<trkpt lat="46.20339" lon="7.47862"><ele>2313.4</ele><time>2024-08-02T12:45:47Z</time></trkpt>
<trkpt lat="46.20339" lon="7.47861"><ele>2313.4</ele><time>2024-08-02T12:45:51Z</time></trkpt>
<trkpt lat="46.20339" lon="7.47861"><ele>2313.4</ele><time>2024-08-02T12:45:54Z</time></trkpt>
<trkpt lat="46.20338" lon="7.47862"><ele>2313.4</ele><time>2024-08-02T12:46:05Z</time></trkpt>
<trkpt lat="46.20338" lon="7.47863"><ele>2313.4</ele><time>2024-08-02T12:46:11Z</time></trkpt>
<trkpt lat="46.20338" lon="7.47863"><ele>2313.4</ele><time>2024-08-02T12:46:22Z</time></trkpt>
<trkpt lat="46.20338" lon="7.47862"><ele>2313.4</ele><time>2024-08-02T12:46:32Z</time></trkpt>
<trkpt lat="46.20339" lon="7.47861"><ele>2313.4</ele><time>2024-08-02T12:46:37Z</time></trkpt>
<trkpt lat="46.20339" lon="7.47862"><ele>2313.4</ele><time>2024-08-02T12:46:42Z</time></trkpt>
<trkpt lat="46.20339" lon="7.47861"><ele>2313.4</ele><time>2024-08-02T12:46:51Z</time></trkpt>
<trkpt lat="46.20339" lon="7.47861"><ele>2313.4</ele><time>2024-08-02T12:46:55Z</time></trkpt>
<trkpt lat="46.20338" lon="7.47862"><ele>2313.4</ele><time>2024-08-02T12:46:58Z</time></trkpt>
<trkpt lat="46.20338" lon="7.47862"><ele>2313.4</ele><time>2024-08-02T12:47:05Z</time></trkpt>
<trkpt lat="46.20338" lon="7.47862"><ele>2313.4</ele><time>2024-08-02T12:47:11Z</time></trkpt>
<trkpt lat="46.20339" lon="7.4786"><ele>2313.4</ele><time>2024-08-02T12:47:18Z</time></trkpt>
<trkpt lat="46.20339" lon="7.47861"><ele>2313.4</ele><time>2024-08-02T12:47:25Z</time></trkpt>
<trkpt lat="46.20339" lon="7.47861"><ele>2313.4</ele><time>2024-08-02T12:47:30Z</time></trkpt>
<trkpt lat="46.20338" lon="7.47862"><ele>2313.4</ele><time>2024-08-02T12:47:33Z</time></trkpt>
<trkpt lat="46.20338" lon="7.47863"><ele>2313.4</ele><time>2024-08-02T12:47:38Z</time></trkpt>
<trkpt lat="46.20338" lon="7.47863"><ele>2313.4</ele><time>2024-08-02T12:47:41Z</time></trkpt>
<trkpt lat="46.20338" lon="7.47863"><ele>2313.4</ele><time>2024-08-02T12:47:46Z</time></trkpt>
<trkpt lat="46.20338" lon="7.47863"><ele>2313.4</ele><time>2024-08-02T12:47:55Z</time></trkpt>
<trkpt lat="46.20338" lon="7.47863"><ele>2313.4</ele><time>2024-08-02T12:47:58Z</time></trkpt>
<trkpt lat="46.20338" lon="7.47863"><ele>2313.4</ele><time>2024-08-02T12:48:02Z</time></trkpt>
<trkpt lat="46.20338" lon="7.47863"><ele>2313.4</ele><time>2024-08-02T12:48:07Z</time></trkpt>
<trkpt lat="46.20338" lon="7.47862"><ele>2313.4</ele><time>2024-08-02T12:48:16Z</time></trkpt>
<trkpt lat="46.20339" lon="7.47862"><ele>2313.4</ele><time>2024-08-02T12:48:25Z</time></trkpt>
<trkpt lat="46.20339" lon="7.47862"><ele>2313.4</ele><time>2024-08-02T12:48:35Z</time></trkpt>
<trkpt lat="46.20339" lon="7.47862"><ele>2313.4</ele><time>2024-08-02T12:48:36Z</time></trkpt>
<trkpt lat="46.20339" lon="7.47862"><ele>2313.4</ele><time>2024-08-02T12:48:37Z</time></trkpt>
<trkpt lat="46.20339" lon="7.47862"><ele>2313.4</ele><time>2024-08-02T12:48:38Z</time></trkpt>
<trkpt lat="46.20339" lon="7.47862"><ele>2313.4</ele><time>2024-08-02T12:48:41Z</time></trkpt>
<trkpt lat="46.20339" lon="7.47862"><ele>2313.4</ele><time>2024-08-02T12:48:46Z</time></trkpt>
<trkpt lat="46.20339" lon="7.47862"><ele>2313.4</ele><time>2024-08-02T12:48:47Z</time></trkpt>
<trkpt lat="46.20339" lon="7.47862"><ele>2313.4</ele><time>2024-08-02T12:48:49Z</time></trkpt>
<trkpt lat="46.20338" lon="7.47863"><ele>2313.4</ele><time>2024-08-02T12:48:56Z</time></trkpt>
<trkpt lat="46.20338" lon="7.47863"><ele>2313.4</ele><time>2024-08-02T12:49:05Z</time></trkpt>
<trkpt lat="46.20338" lon="7.47863"><ele>2313.4</ele><time>2024-08-02T12:49:06Z</time></trkpt>
<trkpt lat="46.20339" lon="7.47862"><ele>2313.4</ele><time>2024-08-02T12:49:16Z</time></trkpt>
<trkpt lat="46.20339" lon="7.47862"><ele>2313.4</ele><time>2024-08-02T12:49:20Z</time></trkpt>
<trkpt lat="46.20339" lon="7.47862"><ele>2313.4</ele><time>2024-08-02T12:49:24Z</time></trkpt>
<trkpt lat="46.20338" lon="7.47862"><ele>2313.4</ele><time>2024-08-02T12:49:33Z</time></trkpt>
<trkpt lat="46.20338" lon="7.47862"><ele>2313.4</ele><time>2024-08-02T12:49:41Z</time></trkpt>
<trkpt lat="46.20338" lon="7.47862"><ele>2313.4</ele><time>2024-08-02T12:49:47Z</time></trkpt>
<trkpt lat="46.20339" lon="7.47862"><ele>2313.4</ele><time>2024-08-02T12:50:05Z</time></trkpt>
<trkpt lat="46.20338" lon="7.47862"><ele>2313.4</ele><time>2024-08-02T12:50:16Z</time></trkpt>
<trkpt lat="46.20337" lon="7.47863"><ele>2313.4</ele><time>2024-08-02T12:50:25Z</time></trkpt>
<trkpt lat="46.20337" lon="7.47862"><ele>2313.4</ele><time>2024-08-02T12:50:28Z</time></trkpt>
<trkpt lat="46.20337" lon="7.47863"><ele>2313.4</ele><time>2024-08-02T12:50:32Z</time></trkpt>
<trkpt lat="46.20337" lon="7.47863"><ele>2313.4</ele><time>2024-08-02T12:50:34Z</time></trkpt>
<trkpt lat="46.20337" lon="7.47863"><ele>2313.4</ele><time>2024-08-02T12:50:40Z</time></trkpt>
<trkpt lat="46.20337" lon="7.47863"><ele>2313.4</ele><time>2024-08-02T12:50:46Z</time></trkpt>
<trkpt lat="46.20338" lon="7.47864"><ele>2313.4</ele><time>2024-08-02T12:50:57Z</time></trkpt>
<trkpt lat="46.20338" lon="7.47864"><ele>2313.4</ele><time>2024-08-02T12:51:05Z</time></trkpt>
<trkpt lat="46.20338" lon="7.47864"><ele>2313.4</ele><time>2024-08-02T12:51:13Z</time></trkpt>
<trkpt lat="46.20338" lon="7.47861"><ele>2313.4</ele><time>2024-08-02T12:51:19Z</time></trkpt>
<trkpt lat="46.20338" lon="7.47861"><ele>2313.4</ele><time>2024-08-02T12:51:24Z</time></trkpt>
<trkpt lat="46.20339" lon="7.47861"><ele>2313.4</ele><time>2024-08-02T12:51:31Z</time></trkpt>
<trkpt lat="46.20339" lon="7.47861"><ele>2313.4</ele><time>2024-08-02T12:51:51Z</time></trkpt>
<trkpt lat="46.20339" lon="7.47861"><ele>2313.4</ele><time>2024-08-02T12:51:59Z</time></trkpt>
<trkpt lat="46.20338" lon="7.47861"><ele>2313.4</ele><time>2024-08-02T12:52:07Z</time></trkpt>
<trkpt lat="46.20338" lon="7.47861"><ele>2313.4</ele><time>2024-08-02T12:52:10Z</time></trkpt>
<trkpt lat="46.20338" lon="7.47861"><ele>2313.4</ele><time>2024-08-02T12:52:14Z</time></trkpt>
<trkpt lat="46.20338" lon="7.47861"><ele>2313.4</ele><time>2024-08-02T12:52:18Z</time></trkpt>
<trkpt lat="46.20338" lon="7.47863"><ele>2313.4</ele><time>2024-08-02T12:52:27Z</time></trkpt>
<trkpt lat="46.20337" lon="7.47862"><ele>2313.4</ele><time>2024-08-02T12:52:35Z</time></trkpt>
<trkpt lat="46.20337" lon="7.47862"><ele>2313.4</ele><time>2024-08-02T12:52:36Z</time></trkpt>
<trkpt lat="46.20337" lon="7.47863"><ele>2313.4</ele><time>2024-08-02T12:52:44Z</time></trkpt>
<trkpt lat="46.20337" lon="7.47863"><ele>2313.4</ele><time>2024-08-02T12:52:52Z</time></trkpt>
<trkpt lat="46.20336" lon="7.47863"><ele>2313.4</ele><time>2024-08-02T12:52:57Z</time></trkpt>
<trkpt lat="46.20337" lon="7.47863"><ele>2313.4</ele><time>2024-08-02T12:53:06Z</time></trkpt>
<trkpt lat="46.20337" lon="7.47862"><ele>2313.4</ele><time>2024-08-02T12:53:13Z</time></trkpt>
<trkpt lat="46.20338" lon="7.47862"><ele>2313.4</ele><time>2024-08-02T12:53:22Z</time></trkpt>
<trkpt lat="46.20339" lon="7.47862"><ele>2313.4</ele><time>2024-08-02T12:53:30Z</time></trkpt>
<trkpt lat="46.20338" lon="7.47863"><ele>2313.4</ele><time>2024-08-02T12:53:41Z</time></trkpt>
<trkpt lat="46.20338" lon="7.47863"><ele>2313.4</ele><time>2024-08-02T12:53:46Z</time></trkpt>
<trkpt lat="46.20338" lon="7.47862"><ele>2313.4</ele><time>2024-08-02T12:53:50Z</time></trkpt>
<trkpt lat="46.20338" lon="7.47862"><ele>2313.4</ele><time>2024-08-02T12:53:55Z</time></trkpt>
<trkpt lat="46.20338" lon="7.47862"><ele>2313.4</ele><time>2024-08-02T12:54:00Z</time></trkpt>
<trkpt lat="46.20338" lon="7.47862"><ele>2313.4</ele><time>2024-08-02T12:54:07Z</time></trkpt>
<trkpt lat="46.20339" lon="7.47863"><ele>2313.4</ele><time>2024-08-02T12:54:12Z</time></trkpt>
<trkpt lat="46.20339" lon="7.47863"><ele>2313.4</ele><time>2024-08-02T12:54:14Z</time></trkpt>
<trkpt lat="46.20339" lon="7.47863"><ele>2313.4</ele><time>2024-08-02T12:54:15Z</time></trkpt>
<trkpt lat="46.20339" lon="7.47863"><ele>2313.4</ele><time>2024-08-02T12:54:19Z</time></trkpt>
<trkpt lat="46.20339" lon="7.47863"><ele>2313.4</ele><time>2024-08-02T12:54:28Z</time></trkpt>
<trkpt lat="46.20339" lon="7.47863"><ele>2313.4</ele><time>2024-08-02T12:54:38Z</time></trkpt>
<trkpt lat="46.20337" lon="7.47863"><ele>2313.4</ele><time>2024-08-02T12:54:47Z</time></trkpt>
<trkpt lat="46.20338" lon="7.47862"><ele>2313.4</ele><time>2024-08-02T12:54:55Z</time></trkpt>
<trkpt lat="46.20337" lon="7.47864"><ele>2313.4</ele><time>2024-08-02T12:55:04Z</time></trkpt>
<trkpt lat="46.20337" lon="7.47864"><ele>2313.4</ele><time>2024-08-02T12:55:12Z</time></trkpt>
<trkpt lat="46.20337" lon="7.47864"><ele>2313.4</ele><time>2024-08-02T12:55:19Z</time></trkpt>
<trkpt lat="46.20337" lon="7.47864"><ele>2313.4</ele><time>2024-08-02T12:55:22Z</time></trkpt>
<trkpt lat="46.20337" lon="7.47864"><ele>2313.4</ele><time>2024-08-02T12:55:25Z</time></trkpt>
<trkpt lat="46.20337" lon="7.47864"><ele>2313.4</ele><time>2024-08-02T12:55:36Z</time></trkpt>
<trkpt lat="46.20337" lon="7.47864"><ele>2313.4</ele><time>2024-08-02T12:55:39Z</time></trkpt>
<trkpt lat="46.20337" lon="7.47864"><ele>2313.4</ele><time>2024-08-02T12:55:41Z</time></trkpt>
<trkpt lat="46.20337" lon="7.47863"><ele>2313.4</ele><time>2024-08-02T12:56:01Z</time></trkpt>
<trkpt lat="46.20338" lon="7.47863"><ele>2313.4</ele><time>2024-08-02T12:56:12Z</time></trkpt>
<trkpt lat="46.20336" lon="7.47863"><ele>2313.4</ele><time>2024-08-02T12:56:23Z</time></trkpt>
<trkpt lat="46.20336" lon="7.47863"><ele>2313.4</ele><time>2024-08-02T12:56:27Z</time></trkpt>
<trkpt lat="46.20338" lon="7.47862"><ele>2313.4</ele><time>2024-08-02T12:56:34Z</time></trkpt>
<trkpt lat="46.20338" lon="7.47862"><ele>2313.4</ele><time>2024-08-02T12:56:41Z</time></trkpt>
<trkpt lat="46.20338" lon="7.47862"><ele>2313.4</ele><time>2024-08-02T12:56:48Z</time></trkpt>
<trkpt lat="46.20338" lon="7.47862"><ele>2313.4</ele><time>2024-08-02T12:56:49Z</time></trkpt>
<trkpt lat="46.20337" lon="7.47863"><ele>2313.4</ele><time>2024-08-02T12:56:58Z</time></trkpt>
<trkpt lat="46.20338" lon="7.47865"><ele>2313.4</ele><time>2024-08-02T12:57:07Z</time></trkpt>
<trkpt lat="46.20337" lon="7.47864"><ele>2313.4</ele><time>2024-08-02T12:57:14Z</time></trkpt>
<trkpt lat="46.20337" lon="7.47863"><ele>2313.4</ele><time>2024-08-02T12:57:23Z</time></trkpt>
<trkpt lat="46.20337" lon="7.47863"><ele>2313.4</ele><time>2024-08-02T12:57:25Z</time></trkpt>
<trkpt lat="46.20337" lon="7.47863"><ele>2313.4</ele><time>2024-08-02T12:57:26Z</time></trkpt>
<trkpt lat="46.20337" lon="7.47863"><ele>2313.4</ele><time>2024-08-02T12:57:28Z</time></trkpt>
<trkpt lat="46.20337" lon="7.47863"><ele>2313.4</ele><time>2024-08-02T12:57:37Z</time></trkpt>
<trkpt lat="46.20337" lon="7.47863"><ele>2313.4</ele><time>2024-08-02T12:57:43Z</time></trkpt>
<trkpt lat="46.20337" lon="7.47863"><ele>2313.4</ele><time>2024-08-02T12:57:57Z</time></trkpt>
<trkpt lat="46.20337" lon="7.47862"><ele>2313.4</ele><time>2024-08-02T12:58:05Z</time></trkpt>
<trkpt lat="46.20336" lon="7.47862"><ele>2313.4</ele><time>2024-08-02T12:58:15Z</time></trkpt>
<trkpt lat="46.20337" lon="7.47863"><ele>2313.4</ele><time>2024-08-02T12:58:26Z</time></trkpt>
<trkpt lat="46.20338" lon="7.47862"><ele>2313.4</ele><time>2024-08-02T12:58:29Z</time></trkpt>
<trkpt lat="46.20337" lon="7.47862"><ele>2313.4</ele><time>2024-08-02T12:58:30Z</time></trkpt>
<trkpt lat="46.20337" lon="7.47862"><ele>2313.4</ele><time>2024-08-02T12:58:34Z</time></trkpt>
<trkpt lat="46.20337" lon="7.47861"><ele>2313.4</ele><time>2024-08-02T12:58:43Z</time></trkpt>
<trkpt lat="46.20337" lon="7.47861"><ele>2313.4</ele><time>2024-08-02T12:58:44Z</time></trkpt>
<trkpt lat="46.20337" lon="7.47861"><ele>2313.4</ele><time>2024-08-02T12:58:45Z</time></trkpt>
<trkpt lat="46.20337" lon="7.47861"><ele>2313.4</ele><time>2024-08-02T12:58:56Z</time></trkpt>
<trkpt lat="46.20337" lon="7.47861"><ele>2313.4</ele><time>2024-08-02T12:59:01Z</time></trkpt>
<trkpt lat="46.20337" lon="7.47861"><ele>2313.4</ele><time>2024-08-02T12:59:04Z</time></trkpt>
<trkpt lat="46.20337" lon="7.47861"><ele>2313.4</ele><time>2024-08-02T12:59:09Z</time></trkpt>
<trkpt lat="46.20337" lon="7.47861"><ele>2313.4</ele><time>2024-08-02T12:59:20Z</time></trkpt>
<trkpt lat="46.20337" lon="7.47861"><ele>2313.4</ele><time>2024-08-02T12:59:21Z</time></trkpt>
<trkpt lat="46.20337" lon="7.47861"><ele>2313.4</ele><time>2024-08-02T12:59:23Z</time></trkpt>
<trkpt lat="46.20337" lon="7.47861"><ele>2313.4</ele><time>2024-08-02T12:59:24Z</time></trkpt>
<trkpt lat="46.20337" lon="7.47861"><ele>2313.4</ele><time>2024-08-02T12:59:26Z</time></trkpt>
<trkpt lat="46.20337" lon="7.47861"><ele>2313.4</ele><time>2024-08-02T12:59:37Z</time></trkpt>
<trkpt lat="46.20337" lon="7.47861"><ele>2313.4</ele><time>2024-08-02T12:59:38Z</time></trkpt>
<trkpt lat="46.20337" lon="7.47861"><ele>2313.4</ele><time>2024-08-02T12:59:53Z</time></trkpt>
<trkpt lat="46.20337" lon="7.47861"><ele>2313.4</ele><time>2024-08-02T13:00:02Z</time></trkpt>
<trkpt lat="46.20337" lon="7.47862"><ele>2313.4</ele><time>2024-08-02T13:00:08Z</time></trkpt>
<trkpt lat="46.20337" lon="7.47863"><ele>2313.4</ele><time>2024-08-02T13:00:12Z</time></trkpt>
<trkpt lat="46.20338" lon="7.47862"><ele>2313.4</ele><time>2024-08-02T13:00:17Z</time></trkpt>
<trkpt lat="46.20336" lon="7.47863"><ele>2313.4</ele><time>2024-08-02T13:00:23Z</time></trkpt>
<trkpt lat="46.20337" lon="7.47864"><ele>2313.4</ele><time>2024-08-02T13:00:32Z</time></trkpt>
<trkpt lat="46.20337" lon="7.47864"><ele>2313.4</ele><time>2024-08-02T13:00:33Z</time></trkpt>
<trkpt lat="46.20337" lon="7.47861"><ele>2313.4</ele><time>2024-08-02T13:00:44Z</time></trkpt>
<trkpt lat="46.20337" lon="7.47862"><ele>2313.4</ele><time>2024-08-02T13:00:47Z</time></trkpt>
<trkpt lat="46.20337" lon="7.47862"><ele>2313.4</ele><time>2024-08-02T13:00:50Z</time></trkpt>
<trkpt lat="46.20338" lon="7.4786"><ele>2313.4</ele><time>2024-08-02T13:00:58Z</time></trkpt>
<trkpt lat="46.20338" lon="7.4786"><ele>2313.4</ele><time>2024-08-02T13:01:08Z</time></trkpt>
<trkpt lat="46.20337" lon="7.47861"><ele>2313.4</ele><time>2024-08-02T13:01:16Z</time></trkpt>
<trkpt lat="46.20337" lon="7.47862"><ele>2313.4</ele><time>2024-08-02T13:01:18Z</time></trkpt>
<trkpt lat="46.20336" lon="7.47862"><ele>2313.4</ele><time>2024-08-02T13:01:19Z</time></trkpt>
<trkpt lat="46.20336" lon="7.47862"><ele>2313.4</ele><time>2024-08-02T13:01:20Z</time></trkpt>
<trkpt lat="46.20337" lon="7.47863"><ele>2313.4</ele><time>2024-08-02T13:01:25Z</time></trkpt>
<trkpt lat="46.20338" lon="7.47863"><ele>2313.4</ele><time>2024-08-02T13:01:30Z</time></trkpt>
<trkpt lat="46.20338" lon="7.47863"><ele>2313.4</ele><time>2024-08-02T13:01:44Z</time></trkpt>
<trkpt lat="46.20338" lon="7.47863"><ele>2313.4</ele><time>2024-08-02T13:01:56Z</time></trkpt>
<trkpt lat="46.20338" lon="7.47863"><ele>2313.4</ele><time>2024-08-02T13:02:05Z</time></trkpt>
<trkpt lat="46.20338" lon="7.47862"><ele>2313.4</ele><time>2024-08-02T13:02:23Z</time></trkpt>
<trkpt lat="46.20338" lon="7.47862"><ele>2313.4</ele><time>2024-08-02T13:02:27Z</time></trkpt>
<trkpt lat="46.20338" lon="7.47862"><ele>2313.4</ele><time>2024-08-02T13:02:43Z</time></trkpt>
<trkpt lat="46.20339" lon="7.47862"><ele>2313.4</ele><time>2024-08-02T13:02:54Z</time></trkpt>
<trkpt lat="46.20339" lon="7.47862"><ele>2313.4</ele><time>2024-08-02T13:02:56Z</time></trkpt>
<trkpt lat="46.20339" lon="7.47862"><ele>2313.4</ele><time>2024-08-02T13:03:01Z</time></trkpt>
<trkpt lat="46.20339" lon="7.47862"><ele>2313.4</ele><time>2024-08-02T13:03:10Z</time></trkpt>
<trkpt lat="46.20337" lon="7.47863"><ele>2313.4</ele><time>2024-08-02T13:03:19Z</time></trkpt>
<trkpt lat="46.20337" lon="7.47861"><ele>2313.4</ele><time>2024-08-02T13:03:28Z</time></trkpt>
<trkpt lat="46.20338" lon="7.47861"><ele>2313.4</ele><time>2024-08-02T13:03:32Z</time></trkpt>
<trkpt lat="46.20338" lon="7.47861"><ele>2313.4</ele><time>2024-08-02T13:03:37Z</time></trkpt>
<trkpt lat="46.20336" lon="7.47862"><ele>2313.4</ele><time>2024-08-02T13:03:44Z</time></trkpt>
<trkpt lat="46.20337" lon="7.47862"><ele>2313.4</ele><time>2024-08-02T13:03:52Z</time></trkpt>
<trkpt lat="46.20336" lon="7.47862"><ele>2313.4</ele><time>2024-08-02T13:03:59Z</time></trkpt>
<trkpt lat="46.20337" lon="7.47862"><ele>2313.4</ele><time>2024-08-02T13:04:20Z</time></trkpt>
<trkpt lat="46.20337" lon="7.47862"><ele>2313.4</ele><time>2024-08-02T13:04:35Z</time></trkpt>
<trkpt lat="46.20337" lon="7.47862"><ele>2313.4</ele><time>2024-08-02T13:04:40Z</time></trkpt>
<trkpt lat="46.20337" lon="7.47862"><ele>2313.4</ele><time>2024-08-02T13:04:45Z</time></trkpt>
<trkpt lat="46.20338" lon="7.47862"><ele>2313.4</ele><time>2024-08-02T13:04:54Z</time></trkpt>
<trkpt lat="46.20338" lon="7.47862"><ele>2313.4</ele><time>2024-08-02T13:04:58Z</time></trkpt>
<trkpt lat="46.20339" lon="7.47862"><ele>2313.4</ele><time>2024-08-02T13:05:04Z</time></trkpt>
<trkpt lat="46.20337" lon="7.47862"><ele>2313.4</ele><time>2024-08-02T13:05:13Z</time></trkpt>
<trkpt lat="46.20336" lon="7.47862"><ele>2313.4</ele><time>2024-08-02T13:05:21Z</time></trkpt>
<trkpt lat="46.20338" lon="7.47862"><ele>2313.4</ele><time>2024-08-02T13:05:29Z</time></trkpt>
<trkpt lat="46.20338" lon="7.47862"><ele>2313.4</ele><time>2024-08-02T13:05:38Z</time></trkpt>
<trkpt lat="46.20337" lon="7.47862"><ele>2313.4</ele><time>2024-08-02T13:05:46Z</time></trkpt>
<trkpt lat="46.20338" lon="7.47861"><ele>2313.4</ele><time>2024-08-02T13:05:50Z</time></trkpt>
<trkpt lat="46.20338" lon="7.47861"><ele>2313.4</ele><time>2024-08-02T13:05:53Z</time></trkpt>
<trkpt lat="46.20338" lon="7.47861"><ele>2313.4</ele><time>2024-08-02T13:05:57Z</time></trkpt>
<trkpt lat="46.20338" lon="7.47862"><ele>2313.4</ele><time>2024-08-02T13:06:00Z</time></trkpt>
<trkpt lat="46.20337" lon="7.47863"><ele>2313.4</ele><time>2024-08-02T13:06:05Z</time></trkpt>
<trkpt lat="46.20337" lon="7.47863"><ele>2313.4</ele><time>2024-08-02T13:06:08Z</time></trkpt>
<trkpt lat="46.20337" lon="7.47863"><ele>2313.4</ele><time>2024-08-02T13:06:16Z</time></trkpt>
<trkpt lat="46.20337" lon="7.47862"><ele>2313.4</ele><time>2024-08-02T13:06:23Z</time></trkpt>
<trkpt lat="46.20337" lon="7.47864"><ele>2313.4</ele><time>2024-08-02T13:06:31Z</time></trkpt>
<trkpt lat="46.20337" lon="7.47863"><ele>2313.4</ele><time>2024-08-02T13:06:34Z</time></trkpt>
<trkpt lat="46.20337" lon="7.47864"><ele>2313.4</ele><time>2024-08-02T13:06:36Z</time></trkpt>
<trkpt lat="46.20337" lon="7.47863"><ele>2313.4</ele><time>2024-08-02T13:06:38Z</time></trkpt>
<trkpt lat="46.20338" lon="7.47861"><ele>2313.4</ele><time>2024-08-02T13:06:48Z</time></trkpt>
<trkpt lat="46.20338" lon="7.47862"><ele>2313.4</ele><time>2024-08-02T13:06:57Z</time></trkpt>
<trkpt lat="46.20338" lon="7.47863"><ele>2313.4</ele><time>2024-08-02T13:07:04Z</time></trkpt>
<trkpt lat="46.20338" lon="7.47864"><ele>2313.4</ele><time>2024-08-02T13:07:14Z</time></trkpt>
<trkpt lat="46.20337" lon="7.47864"><ele>2313.4</ele><time>2024-08-02T13:07:23Z</time></trkpt>
<trkpt lat="46.20338" lon="7.47862"><ele>2313.4</ele><time>2024-08-02T13:07:29Z</time></trkpt>
<trkpt lat="46.20337" lon="7.47863"><ele>2313.4</ele><time>2024-08-02T13:07:38Z</time></trkpt>
<trkpt lat="46.20337" lon="7.47863"><ele>2313.4</ele><time>2024-08-02T13:07:40Z</time></trkpt>
<trkpt lat="46.20337" lon="7.47863"><ele>2313.4</ele><time>2024-08-02T13:07:46Z</time></trkpt>
<trkpt lat="46.20337" lon="7.47864"><ele>2313.4</ele><time>2024-08-02T13:07:56Z</time></trkpt>
<trkpt lat="46.20338" lon="7.47862"><ele>2313.4</ele><time>2024-08-02T13:08:04Z</time></trkpt>
<trkpt lat="46.20337" lon="7.47864"><ele>2313.4</ele><time>2024-08-02T13:08:14Z</time></trkpt>
<trkpt lat="46.20336" lon="7.47863"><ele>2313.4</ele><time>2024-08-02T13:08:21Z</time></trkpt>
<trkpt lat="46.20337" lon="7.47863"><ele>2313.4</ele><time>2024-08-02T13:08:23Z</time></trkpt>
<trkpt lat="46.20337" lon="7.47864"><ele>2313.4</ele><time>2024-08-02T13:08:33Z</time></trkpt>
<trkpt lat="46.20336" lon="7.47865"><ele>2313.4</ele><time>2024-08-02T13:08:40Z</time></trkpt>
<trkpt lat="46.20337" lon="7.47865"><ele>2313.4</ele><time>2024-08-02T13:08:42Z</time></trkpt>
<trkpt lat="46.20336" lon="7.47864"><ele>2313.4</ele><time>2024-08-02T13:08:51Z</time></trkpt>
<trkpt lat="46.20338" lon="7.47863"><ele>2313.4</ele><time>2024-08-02T13:09:02Z</time></trkpt>
<trkpt lat="46.20338" lon="7.47862"><ele>2313.4</ele><time>2024-08-02T13:09:06Z</time></trkpt>
<trkpt lat="46.20338" lon="7.47863"><ele>2313.4</ele><time>2024-08-02T13:09:10Z</time></trkpt>
<trkpt lat="46.20338" lon="7.47862"><ele>2313.4</ele><time>2024-08-02T13:09:14Z</time></trkpt>
<trkpt lat="46.20338" lon="7.47862"><ele>2313.4</ele><time>2024-08-02T13:09:16Z</time></trkpt>
<trkpt lat="46.20338" lon="7.47861"><ele>2313.4</ele><time>2024-08-02T13:09:27Z</time></trkpt>
<trkpt lat="46.20337" lon="7.47861"><ele>2313.4</ele><time>2024-08-02T13:09:35Z</time></trkpt>
<trkpt lat="46.20337" lon="7.47863"><ele>2313.4</ele><time>2024-08-02T13:09:44Z</time></trkpt>
<trkpt lat="46.20337" lon="7.47862"><ele>2313.4</ele><time>2024-08-02T13:09:45Z</time></trkpt>
<trkpt lat="46.20337" lon="7.47862"><ele>2313.4</ele><time>2024-08-02T13:09:50Z</time></trkpt>
<trkpt lat="46.20336" lon="7.47864"><ele>2313.4</ele><time>2024-08-02T13:09:53Z</time></trkpt>
<trkpt lat="46.20336" lon="7.47864"><ele>2313.4</ele><time>2024-08-02T13:09:59Z</time></trkpt>
<trkpt lat="46.20336" lon="7.47864"><ele>2313.4</ele><time>2024-08-02T13:10:08Z</time></trkpt>
<trkpt lat="46.20335" lon="7.47864"><ele>2313.4</ele><time>2024-08-02T13:10:14Z</time></trkpt>
<trkpt lat="46.20336" lon="7.47863"><ele>2313.4</ele><time>2024-08-02T13:10:21Z</time></trkpt>
<trkpt lat="46.20336" lon="7.47863"><ele>2313.4</ele><time>2024-08-02T13:10:26Z</time></trkpt>
<trkpt lat="46.20336" lon="7.47863"><ele>2313.4</ele><time>2024-08-02T13:10:33Z</time></trkpt>
<trkpt lat="46.20336" lon="7.47864"><ele>2313.4</ele><time>2024-08-02T13:10:40Z</time></trkpt>
<trkpt lat="46.20336" lon="7.47866"><ele>2313.4</ele><time>2024-08-02T13:10:45Z</time></trkpt>
<trkpt lat="46.20336" lon="7.47865"><ele>2313.4</ele><time>2024-08-02T13:10:47Z</time></trkpt>
<trkpt lat="46.20337" lon="7.47864"><ele>2313.4</ele><time>2024-08-02T13:10:53Z</time></trkpt>
<trkpt lat="46.20337" lon="7.47864"><ele>2313.4</ele><time>2024-08-02T13:10:54Z</time></trkpt>
<trkpt lat="46.20335" lon="7.47865"><ele>2313.4</ele><time>2024-08-02T13:10:59Z</time></trkpt>
<trkpt lat="46.20335" lon="7.47866"><ele>2313.4</ele><time>2024-08-02T13:11:00Z</time></trkpt>
<trkpt lat="46.20335" lon="7.47866"><ele>2313.4</ele><time>2024-08-02T13:11:04Z</time></trkpt>
<trkpt lat="46.20332" lon="7.47864"><ele>2313.4</ele><time>2024-08-02T13:11:12Z</time></trkpt>
<trkpt lat="46.20331" lon="7.4786"><ele>2313.4</ele><time>2024-08-02T13:11:17Z</time></trkpt>
<trkpt lat="46.20331" lon="7.47858"><ele>2313.4</ele><time>2024-08-02T13:11:19Z</time></trkpt>
<trkpt lat="46.2033" lon="7.47855"><ele>2313.4</ele><time>2024-08-02T13:11:22Z</time></trkpt>
<trkpt lat="46.2033" lon="7.47854"><ele>2314</ele><time>2024-08-02T13:11:23Z</time></trkpt>
<trkpt lat="46.20329" lon="7.47852"><ele>2313.6</ele><time>2024-08-02T13:11:26Z</time></trkpt>
<trkpt lat="46.20328" lon="7.47851"><ele>2313</ele><time>2024-08-02T13:11:28Z</time></trkpt>
<trkpt lat="46.20326" lon="7.4785"><ele>2312.2</ele><time>2024-08-02T13:11:30Z</time></trkpt>
<trkpt lat="46.20325" lon="7.47848"><ele>2312</ele><time>2024-08-02T13:11:32Z</time></trkpt>
<trkpt lat="46.20325" lon="7.47848"><ele>2311.8</ele><time>2024-08-02T13:11:33Z</time></trkpt>
<trkpt lat="46.20326" lon="7.47845"><ele>2311.8</ele><time>2024-08-02T13:11:38Z</time></trkpt>
<trkpt lat="46.20332" lon="7.47834"><ele>2311.6</ele><time>2024-08-02T13:11:43Z</time></trkpt>
<trkpt lat="46.20335" lon="7.47825"><ele>2310.8</ele><time>2024-08-02T13:11:46Z</time></trkpt>
<trkpt lat="46.20335" lon="7.47819"><ele>2310.6</ele><time>2024-08-02T13:11:48Z</time></trkpt>
<trkpt lat="46.20336" lon="7.47808"><ele>2310.4</ele><time>2024-08-02T13:11:53Z</time></trkpt>
<trkpt lat="46.20337" lon="7.47808"><ele>2310.6</ele><time>2024-08-02T13:11:59Z</time></trkpt>
<trkpt lat="46.20336" lon="7.47806"><ele>2310.4</ele><time>2024-08-02T13:12:03Z</time></trkpt>
<trkpt lat="46.20336" lon="7.47803"><ele>2309.8</ele><time>2024-08-02T13:12:06Z</time></trkpt>
<trkpt lat="46.20336" lon="7.47802"><ele>2309.8</ele><time>2024-08-02T13:12:07Z</time></trkpt>
<trkpt lat="46.20335" lon="7.478"><ele>2309</ele><time>2024-08-02T13:12:12Z</time></trkpt>
<trkpt lat="46.20335" lon="7.47796"><ele>2308.8</ele><time>2024-08-02T13:12:15Z</time></trkpt>
<trkpt lat="46.20334" lon="7.4779"><ele>2308.8</ele><time>2024-08-02T13:12:17Z</time></trkpt>
<trkpt lat="46.20334" lon="7.47786"><ele>2308.8</ele><time>2024-08-02T13:12:18Z</time></trkpt>
<trkpt lat="46.20337" lon="7.47774"><ele>2307.4</ele><time>2024-08-02T13:12:21Z</time></trkpt>
<trkpt lat="46.20338" lon="7.4777"><ele>2307.4</ele><time>2024-08-02T13:12:22Z</time></trkpt>
<trkpt lat="46.20342" lon="7.47757"><ele>2306.4</ele><time>2024-08-02T13:12:25Z</time></trkpt>
<trkpt lat="46.20343" lon="7.47744"><ele>2305.4</ele><time>2024-08-02T13:12:28Z</time></trkpt>
<trkpt lat="46.20343" lon="7.47739"><ele>2305.2</ele><time>2024-08-02T13:12:29Z</time></trkpt>
<trkpt lat="46.20347" lon="7.4772"><ele>2304</ele><time>2024-08-02T13:12:33Z</time></trkpt>
<trkpt lat="46.20351" lon="7.47705"><ele>2302.8</ele><time>2024-08-02T13:12:36Z</time></trkpt>
<trkpt lat="46.20353" lon="7.47689"><ele>2302</ele><time>2024-08-02T13:12:39Z</time></trkpt>
<trkpt lat="46.20354" lon="7.47684"><ele>2301.6</ele><time>2024-08-02T13:12:40Z</time></trkpt>
<trkpt lat="46.20355" lon="7.47664"><ele>2300.2</ele><time>2024-08-02T13:12:44Z</time></trkpt>
<trkpt lat="46.20356" lon="7.47644"><ele>2298.6</ele><time>2024-08-02T13:12:49Z</time></trkpt>
<trkpt lat="46.20359" lon="7.47631"><ele>2297.6</ele><time>2024-08-02T13:12:52Z</time></trkpt>
<trkpt lat="46.20361" lon="7.4762"><ele>2297</ele><time>2024-08-02T13:12:54Z</time></trkpt>
<trkpt lat="46.20363" lon="7.47609"><ele>2296.4</ele><time>2024-08-02T13:12:56Z</time></trkpt>
<trkpt lat="46.20367" lon="7.47597"><ele>2295.6</ele><time>2024-08-02T13:12:58Z</time></trkpt>
<trkpt lat="46.20369" lon="7.47592"><ele>2295.2</ele><time>2024-08-02T13:12:59Z</time></trkpt>
<trkpt lat="46.2037" lon="7.47588"><ele>2295.2</ele><time>2024-08-02T13:13:00Z</time></trkpt>
<trkpt lat="46.20369" lon="7.47579"><ele>2295.6</ele><time>2024-08-02T13:13:04Z</time></trkpt>
<trkpt lat="46.20371" lon="7.47565"><ele>2296</ele><time>2024-08-02T13:13:10Z</time></trkpt>
<trkpt lat="46.20374" lon="7.47558"><ele>2295.8</ele><time>2024-08-02T13:13:13Z</time></trkpt>
<trkpt lat="46.20374" lon="7.47556"><ele>2295.8</ele><time>2024-08-02T13:13:14Z</time></trkpt>
<trkpt lat="46.20373" lon="7.47553"><ele>2295.6</ele><time>2024-08-02T13:13:15Z</time></trkpt>
<trkpt lat="46.20376" lon="7.47541"><ele>2295.4</ele><time>2024-08-02T13:13:19Z</time></trkpt>
<trkpt lat="46.2038" lon="7.47529"><ele>2295.4</ele><time>2024-08-02T13:13:25Z</time></trkpt>
<trkpt lat="46.20386" lon="7.47515"><ele>2295.4</ele><time>2024-08-02T13:13:31Z</time></trkpt>
<trkpt lat="46.2039" lon="7.47509"><ele>2296.4</ele><time>2024-08-02T13:13:35Z</time></trkpt>
<trkpt lat="46.20396" lon="7.47498"><ele>2296.8</ele><time>2024-08-02T13:13:41Z</time></trkpt>
<trkpt lat="46.20401" lon="7.47485"><ele>2296.8</ele><time>2024-08-02T13:13:46Z</time></trkpt>
<trkpt lat="46.20406" lon="7.4747"><ele>2296.8</ele><time>2024-08-02T13:13:52Z</time></trkpt>
<trkpt lat="46.2041" lon="7.47455"><ele>2296.4</ele><time>2024-08-02T13:13:57Z</time></trkpt>
<trkpt lat="46.20416" lon="7.47444"><ele>2296.4</ele><time>2024-08-02T13:14:02Z</time></trkpt>
<trkpt lat="46.20419" lon="7.47441"><ele>2296.4</ele><time>2024-08-02T13:14:04Z</time></trkpt>
<trkpt lat="46.2042" lon="7.4744"><ele>2296.4</ele><time>2024-08-02T13:14:06Z</time></trkpt>
<trkpt lat="46.2042" lon="7.47439"><ele>2296.4</ele><time>2024-08-02T13:14:07Z</time></trkpt>
<trkpt lat="46.20423" lon="7.47435"><ele>2296.8</ele><time>2024-08-02T13:14:10Z</time></trkpt>
<trkpt lat="46.20429" lon="7.47425"><ele>2296.8</ele><time>2024-08-02T13:14:15Z</time></trkpt>
<trkpt lat="46.20434" lon="7.47418"><ele>2296.6</ele><time>2024-08-02T13:14:20Z</time></trkpt>
<trkpt lat="46.20438" lon="7.47405"><ele>2296.6</ele><time>2024-08-02T13:14:24Z</time></trkpt>
<trkpt lat="46.20441" lon="7.47396"><ele>2296.4</ele><time>2024-08-02T13:14:27Z</time></trkpt>
<trkpt lat="46.20442" lon="7.47391"><ele>2296.2</ele><time>2024-08-02T13:14:29Z</time></trkpt>
<trkpt lat="46.2045" lon="7.47375"><ele>2296.8</ele><time>2024-08-02T13:14:36Z</time></trkpt>
<trkpt lat="46.20451" lon="7.47372"><ele>2297.2</ele><time>2024-08-02T13:14:38Z</time></trkpt>
<trkpt lat="46.20451" lon="7.4737"><ele>2297.6</ele><time>2024-08-02T13:14:39Z</time></trkpt>
<trkpt lat="46.20453" lon="7.47366"><ele>2298</ele><time>2024-08-02T13:14:41Z</time></trkpt>
<trkpt lat="46.20457" lon="7.47358"><ele>2298.6</ele><time>2024-08-02T13:14:47Z</time></trkpt>
<trkpt lat="46.20458" lon="7.47356"><ele>2298.6</ele><time>2024-08-02T13:14:48Z</time></trkpt>
<trkpt lat="46.20462" lon="7.47346"><ele>2298.8</ele><time>2024-08-02T13:14:54Z</time></trkpt>
<trkpt lat="46.20466" lon="7.47337"><ele>2298.6</ele><time>2024-08-02T13:14:58Z</time></trkpt>
<trkpt lat="46.20468" lon="7.47333"><ele>2298.8</ele><time>2024-08-02T13:15:00Z</time></trkpt>
<trkpt lat="46.20469" lon="7.47329"><ele>2298.8</ele><time>2024-08-02T13:15:03Z</time></trkpt>
<trkpt lat="46.2047" lon="7.47324"><ele>2298.8</ele><time>2024-08-02T13:15:05Z</time></trkpt>
<trkpt lat="46.20473" lon="7.47317"><ele>2298.8</ele><time>2024-08-02T13:15:10Z</time></trkpt>
<trkpt lat="46.20475" lon="7.47311"><ele>2299.4</ele><time>2024-08-02T13:15:16Z</time></trkpt>
<trkpt lat="46.20481" lon="7.47299"><ele>2299.6</ele><time>2024-08-02T13:15:22Z</time></trkpt>
<trkpt lat="46.20488" lon="7.47292"><ele>2300</ele><time>2024-08-02T13:15:28Z</time></trkpt>
<trkpt lat="46.20492" lon="7.47286"><ele>2300.6</ele><time>2024-08-02T13:15:33Z</time></trkpt>
<trkpt lat="46.20493" lon="7.47285"><ele>2301</ele><time>2024-08-02T13:15:36Z</time></trkpt>
<trkpt lat="46.20497" lon="7.47276"><ele>2300.8</ele><time>2024-08-02T13:15:40Z</time></trkpt>
<trkpt lat="46.20502" lon="7.47266"><ele>2300.2</ele><time>2024-08-02T13:15:43Z</time></trkpt>
<trkpt lat="46.20504" lon="7.47264"><ele>2300.2</ele><time>2024-08-02T13:15:44Z</time></trkpt>
<trkpt lat="46.20508" lon="7.47259"><ele>2300.2</ele><time>2024-08-02T13:15:48Z</time></trkpt>
<trkpt lat="46.20513" lon="7.47249"><ele>2300.4</ele><time>2024-08-02T13:15:54Z</time></trkpt>
<trkpt lat="46.20518" lon="7.47236"><ele>2300.6</ele><time>2024-08-02T13:16:00Z</time></trkpt>
<trkpt lat="46.2052" lon="7.4723"><ele>2300.6</ele><time>2024-08-02T13:16:03Z</time></trkpt>
<trkpt lat="46.20522" lon="7.47228"><ele>2300.8</ele><time>2024-08-02T13:16:05Z</time></trkpt>
<trkpt lat="46.20527" lon="7.47221"><ele>2301.2</ele><time>2024-08-02T13:16:10Z</time></trkpt>
<trkpt lat="46.20533" lon="7.47218"><ele>2301.6</ele><time>2024-08-02T13:16:15Z</time></trkpt>
<trkpt lat="46.20533" lon="7.47217"><ele>2301.8</ele><time>2024-08-02T13:16:16Z</time></trkpt>
<trkpt lat="46.20534" lon="7.47216"><ele>2302</ele><time>2024-08-02T13:16:17Z</time></trkpt>
<trkpt lat="46.20536" lon="7.47212"><ele>2302.2</ele><time>2024-08-02T13:16:19Z</time></trkpt>
<trkpt lat="46.20541" lon="7.472"><ele>2302</ele><time>2024-08-02T13:16:24Z</time></trkpt>
<trkpt lat="46.20546" lon="7.47189"><ele>2302.4</ele><time>2024-08-02T13:16:30Z</time></trkpt>
<trkpt lat="46.20549" lon="7.47184"><ele>2302.6</ele><time>2024-08-02T13:16:33Z</time></trkpt>
<trkpt lat="46.2055" lon="7.47181"><ele>2302.8</ele><time>2024-08-02T13:16:35Z</time></trkpt>
<trkpt lat="46.20551" lon="7.47179"><ele>2302.8</ele><time>2024-08-02T13:16:36Z</time></trkpt>
<trkpt lat="46.20552" lon="7.47178"><ele>2303</ele><time>2024-08-02T13:16:41Z</time></trkpt>
<trkpt lat="46.20551" lon="7.47178"><ele>2303</ele><time>2024-08-02T13:16:42Z</time></trkpt>
<trkpt lat="46.20551" lon="7.47177"><ele>2303</ele><time>2024-08-02T13:16:50Z</time></trkpt>
<trkpt lat="46.20552" lon="7.47177"><ele>2303.2</ele><time>2024-08-02T13:16:59Z</time></trkpt>
<trkpt lat="46.20552" lon="7.47177"><ele>2303</ele><time>2024-08-02T13:17:00Z</time></trkpt>
<trkpt lat="46.20552" lon="7.47176"><ele>2302.8</ele><time>2024-08-02T13:17:03Z</time></trkpt>
<trkpt lat="46.20553" lon="7.47174"><ele>2302.8</ele><time>2024-08-02T13:17:05Z</time></trkpt>
<trkpt lat="46.20554" lon="7.47172"><ele>2302.8</ele><time>2024-08-02T13:17:06Z</time></trkpt>
<trkpt lat="46.2056" lon="7.4716"><ele>2302</ele><time>2024-08-02T13:17:12Z</time></trkpt>
<trkpt lat="46.2056" lon="7.47157"><ele>2301.6</ele><time>2024-08-02T13:17:14Z</time></trkpt>
<trkpt lat="46.20561" lon="7.47154"><ele>2301.2</ele><time>2024-08-02T13:17:17Z</time></trkpt>
<trkpt lat="46.2056" lon="7.47153"><ele>2300.4</ele><time>2024-08-02T13:17:20Z</time></trkpt>
<trkpt lat="46.2056" lon="7.47152"><ele>2300</ele><time>2024-08-02T13:17:23Z</time></trkpt>
<trkpt lat="46.20558" lon="7.4715"><ele>2299.8</ele><time>2024-08-02T13:17:29Z</time></trkpt>
<trkpt lat="46.20558" lon="7.47148"><ele>2299.6</ele><time>2024-08-02T13:17:33Z</time></trkpt>
<trkpt lat="46.20558" lon="7.47146"><ele>2299.4</ele><time>2024-08-02T13:17:34Z</time></trkpt>
<trkpt lat="46.20559" lon="7.47145"><ele>2299.4</ele><time>2024-08-02T13:17:35Z</time></trkpt>
<trkpt lat="46.2056" lon="7.47137"><ele>2298.6</ele><time>2024-08-02T13:17:40Z</time></trkpt>
<trkpt lat="46.2056" lon="7.47134"><ele>2298.4</ele><time>2024-08-02T13:17:41Z</time></trkpt>
<trkpt lat="46.2056" lon="7.47126"><ele>2297.2</ele><time>2024-08-02T13:17:44Z</time></trkpt>
<trkpt lat="46.2056" lon="7.4712"><ele>2296.6</ele><time>2024-08-02T13:17:47Z</time></trkpt>
<trkpt lat="46.2056" lon="7.47118"><ele>2296.2</ele><time>2024-08-02T13:17:50Z</time></trkpt>
<trkpt lat="46.2056" lon="7.47116"><ele>2296</ele><time>2024-08-02T13:17:52Z</time></trkpt>
<trkpt lat="46.2056" lon="7.4711"><ele>2295.4</ele><time>2024-08-02T13:17:56Z</time></trkpt>
<trkpt lat="46.20563" lon="7.47102"><ele>2295</ele><time>2024-08-02T13:17:59Z</time></trkpt>
<trkpt lat="46.20563" lon="7.47097"><ele>2294.4</ele><time>2024-08-02T13:18:01Z</time></trkpt>
<trkpt lat="46.20565" lon="7.47094"><ele>2294</ele><time>2024-08-02T13:18:03Z</time></trkpt>
<trkpt lat="46.20565" lon="7.47092"><ele>2293.8</ele><time>2024-08-02T13:18:04Z</time></trkpt>
<trkpt lat="46.20567" lon="7.47087"><ele>2293.6</ele><time>2024-08-02T13:18:06Z</time></trkpt>
<trkpt lat="46.20571" lon="7.47073"><ele>2292.4</ele><time>2024-08-02T13:18:10Z</time></trkpt>
<trkpt lat="46.20572" lon="7.47068"><ele>2292</ele><time>2024-08-02T13:18:12Z</time></trkpt>
<trkpt lat="46.20574" lon="7.47064"><ele>2291.6</ele><time>2024-08-02T13:18:14Z</time></trkpt>
<trkpt lat="46.20575" lon="7.47061"><ele>2291.4</ele><time>2024-08-02T13:18:15Z</time></trkpt>
<trkpt lat="46.20577" lon="7.47055"><ele>2291.2</ele><time>2024-08-02T13:18:17Z</time></trkpt>
<trkpt lat="46.20582" lon="7.47043"><ele>2290.2</ele><time>2024-08-02T13:18:21Z</time></trkpt>
<trkpt lat="46.20584" lon="7.47033"><ele>2289</ele><time>2024-08-02T13:18:24Z</time></trkpt>
<trkpt lat="46.20587" lon="7.47022"><ele>2288</ele><time>2024-08-02T13:18:27Z</time></trkpt>
<trkpt lat="46.20588" lon="7.4702"><ele>2287.4</ele><time>2024-08-02T13:18:28Z</time></trkpt>
<trkpt lat="46.2059" lon="7.47015"><ele>2287</ele><time>2024-08-02T13:18:30Z</time></trkpt>
<trkpt lat="46.20593" lon="7.47006"><ele>2286.6</ele><time>2024-08-02T13:18:33Z</time></trkpt>
<trkpt lat="46.20594" lon="7.46999"><ele>2285.8</ele><time>2024-08-02T13:18:35Z</time></trkpt>
<trkpt lat="46.20596" lon="7.46984"><ele>2284.6</ele><time>2024-08-02T13:18:39Z</time></trkpt>
<trkpt lat="46.20599" lon="7.46973"><ele>2283.6</ele><time>2024-08-02T13:18:42Z</time></trkpt>
<trkpt lat="46.20602" lon="7.46963"><ele>2282</ele><time>2024-08-02T13:18:45Z</time></trkpt>
<trkpt lat="46.20605" lon="7.46953"><ele>2281.4</ele><time>2024-08-02T13:18:48Z</time></trkpt>
<trkpt lat="46.2061" lon="7.46947"><ele>2281</ele><time>2024-08-02T13:18:50Z</time></trkpt>
<trkpt lat="46.20612" lon="7.46933"><ele>2279.2</ele><time>2024-08-02T13:18:53Z</time></trkpt>
<trkpt lat="46.20613" lon="7.46927"><ele>2279</ele><time>2024-08-02T13:18:54Z</time></trkpt>
<trkpt lat="46.20615" lon="7.46911"><ele>2277.8</ele><time>2024-08-02T13:18:57Z</time></trkpt>
<trkpt lat="46.20614" lon="7.46902"><ele>2276.6</ele><time>2024-08-02T13:18:59Z</time></trkpt>
<trkpt lat="46.20613" lon="7.46897"><ele>2276.6</ele><time>2024-08-02T13:19:00Z</time></trkpt>
<trkpt lat="46.20615" lon="7.46881"><ele>2275.6</ele><time>2024-08-02T13:19:04Z</time></trkpt>
<trkpt lat="46.20617" lon="7.46874"><ele>2275.4</ele><time>2024-08-02T13:19:06Z</time></trkpt>
<trkpt lat="46.20619" lon="7.46856"><ele>2274</ele><time>2024-08-02T13:19:10Z</time></trkpt>
<trkpt lat="46.20618" lon="7.46852"><ele>2272.6</ele><time>2024-08-02T13:19:11Z</time></trkpt>
<trkpt lat="46.20618" lon="7.46834"><ele>2271.4</ele><time>2024-08-02T13:19:16Z</time></trkpt>
<trkpt lat="46.20619" lon="7.46831"><ele>2271.2</ele><time>2024-08-02T13:19:17Z</time></trkpt>
<trkpt lat="46.20624" lon="7.46813"><ele>2270.2</ele><time>2024-08-02T13:19:22Z</time></trkpt>
<trkpt lat="46.20625" lon="7.46803"><ele>2269</ele><time>2024-08-02T13:19:25Z</time></trkpt>
<trkpt lat="46.20628" lon="7.46792"><ele>2268.6</ele><time>2024-08-02T13:19:28Z</time></trkpt>
<trkpt lat="46.2063" lon="7.46779"><ele>2267.8</ele><time>2024-08-02T13:19:32Z</time></trkpt>
<trkpt lat="46.2063" lon="7.46774"><ele>2267.2</ele><time>2024-08-02T13:19:33Z</time></trkpt>
<trkpt lat="46.20631" lon="7.46764"><ele>2266.6</ele><time>2024-08-02T13:19:36Z</time></trkpt>
<trkpt lat="46.20633" lon="7.46757"><ele>2265.4</ele><time>2024-08-02T13:19:38Z</time></trkpt>
<trkpt lat="46.20635" lon="7.46754"><ele>2265.2</ele><time>2024-08-02T13:19:39Z</time></trkpt>
<trkpt lat="46.20638" lon="7.46744"><ele>2264.4</ele><time>2024-08-02T13:19:43Z</time></trkpt>
<trkpt lat="46.20639" lon="7.46742"><ele>2264</ele><time>2024-08-02T13:19:44Z</time></trkpt>
<trkpt lat="46.20641" lon="7.46735"><ele>2263.4</ele><time>2024-08-02T13:19:47Z</time></trkpt>
<trkpt lat="46.20644" lon="7.46729"><ele>2262.6</ele><time>2024-08-02T13:19:49Z</time></trkpt>
<trkpt lat="46.20644" lon="7.46727"><ele>2262.2</ele><time>2024-08-02T13:19:50Z</time></trkpt>
<trkpt lat="46.20644" lon="7.46716"><ele>2261</ele><time>2024-08-02T13:19:53Z</time></trkpt>
<trkpt lat="46.20643" lon="7.467"><ele>2259.8</ele><time>2024-08-02T13:19:57Z</time></trkpt>
<trkpt lat="46.20643" lon="7.46696"><ele>2259.6</ele><time>2024-08-02T13:19:58Z</time></trkpt>
<trkpt lat="46.20643" lon="7.46692"><ele>2258.4</ele><time>2024-08-02T13:19:59Z</time></trkpt>
<trkpt lat="46.20644" lon="7.4669"><ele>2258.2</ele><time>2024-08-02T13:20:02Z</time></trkpt>
<trkpt lat="46.20643" lon="7.46691"><ele>2258.2</ele><time>2024-08-02T13:20:05Z</time></trkpt>
<trkpt lat="46.20643" lon="7.46691"><ele>2258.2</ele><time>2024-08-02T13:20:06Z</time></trkpt>
<trkpt lat="46.20643" lon="7.4669"><ele>2258</ele><time>2024-08-02T13:20:08Z</time></trkpt>
<trkpt lat="46.20644" lon="7.4669"><ele>2257.6</ele><time>2024-08-02T13:20:17Z</time></trkpt>
<trkpt lat="46.20644" lon="7.46689"><ele>2258</ele><time>2024-08-02T13:20:26Z</time></trkpt>
<trkpt lat="46.20644" lon="7.46688"><ele>2258</ele><time>2024-08-02T13:20:28Z</time></trkpt>
<trkpt lat="46.20646" lon="7.46682"><ele>2258</ele><time>2024-08-02T13:20:30Z</time></trkpt>
<trkpt lat="46.20649" lon="7.46676"><ele>2257.2</ele><time>2024-08-02T13:20:32Z</time></trkpt>
<trkpt lat="46.20651" lon="7.46666"><ele>2256</ele><time>2024-08-02T13:20:35Z</time></trkpt>
<trkpt lat="46.20652" lon="7.46662"><ele>2255.4</ele><time>2024-08-02T13:20:36Z</time></trkpt>
<trkpt lat="46.20654" lon="7.46658"><ele>2254.8</ele><time>2024-08-02T13:20:38Z</time></trkpt>
<trkpt lat="46.20653" lon="7.46655"><ele>2254.8</ele><time>2024-08-02T13:20:39Z</time></trkpt>
<trkpt lat="46.20656" lon="7.46641"><ele>2253.4</ele><time>2024-08-02T13:20:43Z</time></trkpt>
<trkpt lat="46.20661" lon="7.4662"><ele>2252.4</ele><time>2024-08-02T13:20:49Z</time></trkpt>
<trkpt lat="46.20666" lon="7.46606"><ele>2251</ele><time>2024-08-02T13:20:54Z</time></trkpt>
<trkpt lat="46.20668" lon="7.46602"><ele>2250.8</ele><time>2024-08-02T13:20:55Z</time></trkpt>
<trkpt lat="46.20672" lon="7.46592"><ele>2250</ele><time>2024-08-02T13:20:58Z</time></trkpt>
<trkpt lat="46.20676" lon="7.46583"><ele>2249.4</ele><time>2024-08-02T13:21:01Z</time></trkpt>
<trkpt lat="46.20678" lon="7.46574"><ele>2248.8</ele><time>2024-08-02T13:21:04Z</time></trkpt>
<trkpt lat="46.20679" lon="7.4657"><ele>2248.4</ele><time>2024-08-02T13:21:05Z</time></trkpt>
<trkpt lat="46.20683" lon="7.46553"><ele>2247.8</ele><time>2024-08-02T13:21:09Z</time></trkpt>
<trkpt lat="46.20688" lon="7.46544"><ele>2247.2</ele><time>2024-08-02T13:21:12Z</time></trkpt>
<trkpt lat="46.2069" lon="7.46541"><ele>2246.6</ele><time>2024-08-02T13:21:14Z</time></trkpt>
<trkpt lat="46.20694" lon="7.4654"><ele>2246.4</ele><time>2024-08-02T13:21:17Z</time></trkpt>
<trkpt lat="46.207" lon="7.46536"><ele>2245.2</ele><time>2024-08-02T13:21:21Z</time></trkpt>
<trkpt lat="46.20702" lon="7.46534"><ele>2244.8</ele><time>2024-08-02T13:21:22Z</time></trkpt>
<trkpt lat="46.20706" lon="7.46529"><ele>2243.6</ele><time>2024-08-02T13:21:24Z</time></trkpt>
<trkpt lat="46.20712" lon="7.46523"><ele>2242.2</ele><time>2024-08-02T13:21:27Z</time></trkpt>
<trkpt lat="46.20712" lon="7.4652"><ele>2241.2</ele><time>2024-08-02T13:21:28Z</time></trkpt>
<trkpt lat="46.20712" lon="7.46513"><ele>2240</ele><time>2024-08-02T13:21:32Z</time></trkpt>
<trkpt lat="46.20711" lon="7.46512"><ele>2239.4</ele><time>2024-08-02T13:21:35Z</time></trkpt>
<trkpt lat="46.20713" lon="7.46508"><ele>2239</ele><time>2024-08-02T13:21:40Z</time></trkpt>
<trkpt lat="46.20713" lon="7.46507"><ele>2239</ele><time>2024-08-02T13:21:41Z</time></trkpt>
<trkpt lat="46.20714" lon="7.46502"><ele>2238</ele><time>2024-08-02T13:21:46Z</time></trkpt>
<trkpt lat="46.20715" lon="7.465"><ele>2237.2</ele><time>2024-08-02T13:21:48Z</time></trkpt>
<trkpt lat="46.20716" lon="7.46499"><ele>2236.8</ele><time>2024-08-02T13:21:49Z</time></trkpt>
<trkpt lat="46.20718" lon="7.46494"><ele>2235.6</ele><time>2024-08-02T13:21:54Z</time></trkpt>
<trkpt lat="46.20719" lon="7.46493"><ele>2235.4</ele><time>2024-08-02T13:21:55Z</time></trkpt>
<trkpt lat="46.20721" lon="7.46489"><ele>2234.8</ele><time>2024-08-02T13:21:59Z</time></trkpt>
<trkpt lat="46.20722" lon="7.46488"><ele>2234.6</ele><time>2024-08-02T13:22:00Z</time></trkpt>
<trkpt lat="46.20722" lon="7.46486"><ele>2234.2</ele><time>2024-08-02T13:22:02Z</time></trkpt>
<trkpt lat="46.20724" lon="7.46483"><ele>2233.6</ele><time>2024-08-02T13:22:05Z</time></trkpt>
<trkpt lat="46.20725" lon="7.46479"><ele>2232.4</ele><time>2024-08-02T13:22:09Z</time></trkpt>
<trkpt lat="46.20725" lon="7.46478"><ele>2232</ele><time>2024-08-02T13:22:10Z</time></trkpt>
<trkpt lat="46.20725" lon="7.46476"><ele>2231.4</ele><time>2024-08-02T13:22:12Z</time></trkpt>
<trkpt lat="46.20727" lon="7.46472"><ele>2229.8</ele><time>2024-08-02T13:22:16Z</time></trkpt>
<trkpt lat="46.20729" lon="7.46469"><ele>2229.2</ele><time>2024-08-02T13:22:19Z</time></trkpt>
<trkpt lat="46.20729" lon="7.46468"><ele>2228.8</ele><time>2024-08-02T13:22:20Z</time></trkpt>
<trkpt lat="46.20731" lon="7.46465"><ele>2227.8</ele><time>2024-08-02T13:22:25Z</time></trkpt>
<trkpt lat="46.20736" lon="7.46454"><ele>2226.8</ele><time>2024-08-02T13:22:29Z</time></trkpt>
<trkpt lat="46.20739" lon="7.46451"><ele>2226.4</ele><time>2024-08-02T13:22:30Z</time></trkpt>
<trkpt lat="46.20742" lon="7.46446"><ele>2224.8</ele><time>2024-08-02T13:22:32Z</time></trkpt>
<trkpt lat="46.20748" lon="7.4644"><ele>2223.8</ele><time>2024-08-02T13:22:35Z</time></trkpt>
<trkpt lat="46.20753" lon="7.46432"><ele>2222.8</ele><time>2024-08-02T13:22:38Z</time></trkpt>
<trkpt lat="46.20758" lon="7.46428"><ele>2222</ele><time>2024-08-02T13:22:40Z</time></trkpt>
<trkpt lat="46.20765" lon="7.46422"><ele>2221.4</ele><time>2024-08-02T13:22:43Z</time></trkpt>
<trkpt lat="46.20769" lon="7.46419"><ele>2221</ele><time>2024-08-02T13:22:45Z</time></trkpt>
<trkpt lat="46.20776" lon="7.46413"><ele>2220.4</ele><time>2024-08-02T13:22:48Z</time></trkpt>
<trkpt lat="46.2078" lon="7.4641"><ele>2219.2</ele><time>2024-08-02T13:22:50Z</time></trkpt>
<trkpt lat="46.20784" lon="7.46407"><ele>2218.8</ele><time>2024-08-02T13:22:52Z</time></trkpt>
<trkpt lat="46.20786" lon="7.46405"><ele>2218.2</ele><time>2024-08-02T13:22:53Z</time></trkpt>
<trkpt lat="46.20791" lon="7.46401"><ele>2217.2</ele><time>2024-08-02T13:22:55Z</time></trkpt>
<trkpt lat="46.20795" lon="7.46397"><ele>2216.6</ele><time>2024-08-02T13:22:57Z</time></trkpt>
<trkpt lat="46.20797" lon="7.46396"><ele>2216</ele><time>2024-08-02T13:22:58Z</time></trkpt>
<trkpt lat="46.20807" lon="7.46387"><ele>2214.8</ele><time>2024-08-02T13:23:02Z</time></trkpt>
<trkpt lat="46.20811" lon="7.46383"><ele>2214.4</ele><time>2024-08-02T13:23:04Z</time></trkpt>
<trkpt lat="46.20815" lon="7.4638"><ele>2213.8</ele><time>2024-08-02T13:23:06Z</time></trkpt>
<trkpt lat="46.20822" lon="7.46374"><ele>2212.8</ele><time>2024-08-02T13:23:09Z</time></trkpt>
<trkpt lat="46.20824" lon="7.46372"><ele>2212.6</ele><time>2024-08-02T13:23:10Z</time></trkpt>
<trkpt lat="46.20829" lon="7.46368"><ele>2211.6</ele><time>2024-08-02T13:23:13Z</time></trkpt>
<trkpt lat="46.20831" lon="7.46364"><ele>2210.8</ele><time>2024-08-02T13:23:15Z</time></trkpt>
<trkpt lat="46.20833" lon="7.46362"><ele>2210.4</ele><time>2024-08-02T13:23:16Z</time></trkpt>
<trkpt lat="46.20841" lon="7.4636"><ele>2209.4</ele><time>2024-08-02T13:23:20Z</time></trkpt>
<trkpt lat="46.20844" lon="7.46361"><ele>2209</ele><time>2024-08-02T13:23:21Z</time></trkpt>
<trkpt lat="46.20851" lon="7.46361"><ele>2208.2</ele><time>2024-08-02T13:23:23Z</time></trkpt>
<trkpt lat="46.20858" lon="7.46361"><ele>2206.8</ele><time>2024-08-02T13:23:25Z</time></trkpt>
<trkpt lat="46.20863" lon="7.4636"><ele>2206.6</ele><time>2024-08-02T13:23:27Z</time></trkpt>
<trkpt lat="46.20873" lon="7.46353"><ele>2205.6</ele><time>2024-08-02T13:23:31Z</time></trkpt>
<trkpt lat="46.20876" lon="7.46352"><ele>2204.8</ele><time>2024-08-02T13:23:32Z</time></trkpt>
<trkpt lat="46.20879" lon="7.46351"><ele>2204</ele><time>2024-08-02T13:23:33Z</time></trkpt>
<trkpt lat="46.20886" lon="7.4635"><ele>2202.8</ele><time>2024-08-02T13:23:35Z</time></trkpt>
<trkpt lat="46.20896" lon="7.46348"><ele>2201.4</ele><time>2024-08-02T13:23:38Z</time></trkpt>
<trkpt lat="46.20898" lon="7.46344"><ele>2200.6</ele><time>2024-08-02T13:23:39Z</time></trkpt>
<trkpt lat="46.209" lon="7.46342"><ele>2200.4</ele><time>2024-08-02T13:23:40Z</time></trkpt>
<trkpt lat="46.20904" lon="7.46339"><ele>2199.6</ele><time>2024-08-02T13:23:42Z</time></trkpt>
<trkpt lat="46.20905" lon="7.46338"><ele>2199.2</ele><time>2024-08-02T13:23:43Z</time></trkpt>
<trkpt lat="46.20916" lon="7.4633"><ele>2197.4</ele><time>2024-08-02T13:23:49Z</time></trkpt>
<trkpt lat="46.20921" lon="7.46325"><ele>2196.4</ele><time>2024-08-02T13:23:52Z</time></trkpt>
<trkpt lat="46.20926" lon="7.46318"><ele>2195.2</ele><time>2024-08-02T13:23:55Z</time></trkpt>
<trkpt lat="46.2093" lon="7.46315"><ele>2194</ele><time>2024-08-02T13:23:57Z</time></trkpt>
<trkpt lat="46.20934" lon="7.46314"><ele>2193</ele><time>2024-08-02T13:24:01Z</time></trkpt>
<trkpt lat="46.20934" lon="7.46314"><ele>2192.8</ele><time>2024-08-02T13:24:02Z</time></trkpt>
<trkpt lat="46.20934" lon="7.46314"><ele>2192.6</ele><time>2024-08-02T13:24:07Z</time></trkpt>
<trkpt lat="46.20934" lon="7.46313"><ele>2192.4</ele><time>2024-08-02T13:24:12Z</time></trkpt>
<trkpt lat="46.20933" lon="7.46311"><ele>2192.4</ele><time>2024-08-02T13:24:23Z</time></trkpt>
<trkpt lat="46.20933" lon="7.46311"><ele>2192.4</ele><time>2024-08-02T13:24:29Z</time></trkpt>
<trkpt lat="46.20933" lon="7.46312"><ele>2192</ele><time>2024-08-02T13:24:34Z</time></trkpt>
<trkpt lat="46.20934" lon="7.46313"><ele>2191.8</ele><time>2024-08-02T13:24:36Z</time></trkpt>
<trkpt lat="46.20934" lon="7.46313"><ele>2191.4</ele><time>2024-08-02T13:24:41Z</time></trkpt>
<trkpt lat="46.20935" lon="7.46313"><ele>2191.2</ele><time>2024-08-02T13:24:43Z</time></trkpt>
<trkpt lat="46.20935" lon="7.46313"><ele>2191.6</ele><time>2024-08-02T13:24:47Z</time></trkpt>
<trkpt lat="46.20936" lon="7.46313"><ele>2191.8</ele><time>2024-08-02T13:24:50Z</time></trkpt>
<trkpt lat="46.20934" lon="7.46313"><ele>2191.8</ele><time>2024-08-02T13:24:56Z</time></trkpt>
<trkpt lat="46.20935" lon="7.46311"><ele>2191.8</ele><time>2024-08-02T13:24:59Z</time></trkpt>
<trkpt lat="46.20937" lon="7.46311"><ele>2191.6</ele><time>2024-08-02T13:25:02Z</time></trkpt>
<trkpt lat="46.20941" lon="7.46307"><ele>2191.4</ele><time>2024-08-02T13:25:07Z</time></trkpt>
<trkpt lat="46.20946" lon="7.46301"><ele>2190.4</ele><time>2024-08-02T13:25:10Z</time></trkpt>
<trkpt lat="46.20951" lon="7.46295"><ele>2188.8</ele><time>2024-08-02T13:25:12Z</time></trkpt>
<trkpt lat="46.20953" lon="7.46292"><ele>2188</ele><time>2024-08-02T13:25:13Z</time></trkpt>
<trkpt lat="46.20957" lon="7.4629"><ele>2187</ele><time>2024-08-02T13:25:14Z</time></trkpt>
<trkpt lat="46.20964" lon="7.46284"><ele>2185.6</ele><time>2024-08-02T13:25:17Z</time></trkpt>
<trkpt lat="46.20968" lon="7.46278"><ele>2184.8</ele><time>2024-08-02T13:25:19Z</time></trkpt>
<trkpt lat="46.2097" lon="7.46275"><ele>2184.4</ele><time>2024-08-02T13:25:20Z</time></trkpt>
<trkpt lat="46.20974" lon="7.46272"><ele>2183.2</ele><time>2024-08-02T13:25:23Z</time></trkpt>
<trkpt lat="46.20975" lon="7.46272"><ele>2182.8</ele><time>2024-08-02T13:25:24Z</time></trkpt>
<trkpt lat="46.20978" lon="7.46268"><ele>2181.8</ele><time>2024-08-02T13:25:27Z</time></trkpt>
<trkpt lat="46.20981" lon="7.46267"><ele>2181.4</ele><time>2024-08-02T13:25:29Z</time></trkpt>
<trkpt lat="46.20983" lon="7.46266"><ele>2181</ele><time>2024-08-02T13:25:30Z</time></trkpt>
<trkpt lat="46.20984" lon="7.46265"><ele>2180</ele><time>2024-08-02T13:25:31Z</time></trkpt>
<trkpt lat="46.20986" lon="7.46264"><ele>2179.6</ele><time>2024-08-02T13:25:32Z</time></trkpt>
<trkpt lat="46.20989" lon="7.46262"><ele>2178.6</ele><time>2024-08-02T13:25:34Z</time></trkpt>
<trkpt lat="46.20991" lon="7.46261"><ele>2178.2</ele><time>2024-08-02T13:25:35Z</time></trkpt>
<trkpt lat="46.20993" lon="7.4626"><ele>2177.2</ele><time>2024-08-02T13:25:37Z</time></trkpt>
<trkpt lat="46.20996" lon="7.46257"><ele>2176.6</ele><time>2024-08-02T13:25:40Z</time></trkpt>
<trkpt lat="46.20998" lon="7.46256"><ele>2176.2</ele><time>2024-08-02T13:25:41Z</time></trkpt>
<trkpt lat="46.21001" lon="7.46249"><ele>2175</ele><time>2024-08-02T13:25:44Z</time></trkpt>
<trkpt lat="46.21003" lon="7.46245"><ele>2173.8</ele><time>2024-08-02T13:25:46Z</time></trkpt>
<trkpt lat="46.21005" lon="7.46242"><ele>2172.6</ele><time>2024-08-02T13:25:48Z</time></trkpt>
<trkpt lat="46.21007" lon="7.46234"><ele>2171.2</ele><time>2024-08-02T13:25:52Z</time></trkpt>
<trkpt lat="46.21009" lon="7.46231"><ele>2170.2</ele><time>2024-08-02T13:25:54Z</time></trkpt>
<trkpt lat="46.21013" lon="7.46225"><ele>2169.2</ele><time>2024-08-02T13:25:57Z</time></trkpt>
<trkpt lat="46.21015" lon="7.46223"><ele>2168.8</ele><time>2024-08-02T13:25:58Z</time></trkpt>
<trkpt lat="46.2102" lon="7.46225"><ele>2167.6</ele><time>2024-08-02T13:26:01Z</time></trkpt>
<trkpt lat="46.21024" lon="7.46227"><ele>2167</ele><time>2024-08-02T13:26:03Z</time></trkpt>
<trkpt lat="46.21027" lon="7.46226"><ele>2166.2</ele><time>2024-08-02T13:26:05Z</time></trkpt>
<trkpt lat="46.21034" lon="7.46222"><ele>2164.8</ele><time>2024-08-02T13:26:08Z</time></trkpt>
<trkpt lat="46.21039" lon="7.4622"><ele>2163.4</ele><time>2024-08-02T13:26:10Z</time></trkpt>
<trkpt lat="46.21045" lon="7.46217"><ele>2162.6</ele><time>2024-08-02T13:26:14Z</time></trkpt>
<trkpt lat="46.21045" lon="7.46216"><ele>2162.4</ele><time>2024-08-02T13:26:15Z</time></trkpt>
<trkpt lat="46.21047" lon="7.46216"><ele>2162.2</ele><time>2024-08-02T13:26:21Z</time></trkpt>
<trkpt lat="46.21051" lon="7.46218"><ele>2161.2</ele><time>2024-08-02T13:26:25Z</time></trkpt>
<trkpt lat="46.21053" lon="7.46219"><ele>2160.6</ele><time>2024-08-02T13:26:27Z</time></trkpt>
<trkpt lat="46.21054" lon="7.46219"><ele>2160.4</ele><time>2024-08-02T13:26:28Z</time></trkpt>
<trkpt lat="46.21054" lon="7.4622"><ele>2160</ele><time>2024-08-02T13:26:29Z</time></trkpt>
<trkpt lat="46.21055" lon="7.4622"><ele>2159.6</ele><time>2024-08-02T13:26:30Z</time></trkpt>
<trkpt lat="46.21057" lon="7.4622"><ele>2158.8</ele><time>2024-08-02T13:26:33Z</time></trkpt>
<trkpt lat="46.2106" lon="7.4622"><ele>2158.2</ele><time>2024-08-02T13:26:37Z</time></trkpt>
<trkpt lat="46.21062" lon="7.46218"><ele>2157.8</ele><time>2024-08-02T13:26:39Z</time></trkpt>
<trkpt lat="46.21062" lon="7.46213"><ele>2156.6</ele><time>2024-08-02T13:26:43Z</time></trkpt>
<trkpt lat="46.21063" lon="7.46212"><ele>2156.4</ele><time>2024-08-02T13:26:44Z</time></trkpt>
<trkpt lat="46.21064" lon="7.46207"><ele>2155.4</ele><time>2024-08-02T13:26:48Z</time></trkpt>
<trkpt lat="46.21066" lon="7.46203"><ele>2154.4</ele><time>2024-08-02T13:26:52Z</time></trkpt>
<trkpt lat="46.21067" lon="7.46202"><ele>2154.2</ele><time>2024-08-02T13:26:53Z</time></trkpt>
<trkpt lat="46.2107" lon="7.462"><ele>2153.2</ele><time>2024-08-02T13:26:57Z</time></trkpt>
<trkpt lat="46.21073" lon="7.46201"><ele>2152.4</ele><time>2024-08-02T13:27:01Z</time></trkpt>
<trkpt lat="46.21075" lon="7.46201"><ele>2152.2</ele><time>2024-08-02T13:27:03Z</time></trkpt>
<trkpt lat="46.21081" lon="7.46201"><ele>2150.8</ele><time>2024-08-02T13:27:08Z</time></trkpt>
<trkpt lat="46.21082" lon="7.462"><ele>2150.4</ele><time>2024-08-02T13:27:10Z</time></trkpt>
<trkpt lat="46.21084" lon="7.46197"><ele>2149.8</ele><time>2024-08-02T13:27:14Z</time></trkpt>
<trkpt lat="46.21086" lon="7.46193"><ele>2148.6</ele><time>2024-08-02T13:27:19Z</time></trkpt>
<trkpt lat="46.21089" lon="7.46193"><ele>2148</ele><time>2024-08-02T13:27:21Z</time></trkpt>
<trkpt lat="46.2109" lon="7.46195"><ele>2147.4</ele><time>2024-08-02T13:27:24Z</time></trkpt>
<trkpt lat="46.2109" lon="7.46195"><ele>2147.2</ele><time>2024-08-02T13:27:27Z</time></trkpt>
<trkpt lat="46.21095" lon="7.46191"><ele>2147</ele><time>2024-08-02T13:27:33Z</time></trkpt>
<trkpt lat="46.21102" lon="7.46189"><ele>2146</ele><time>2024-08-02T13:27:35Z</time></trkpt>
<trkpt lat="46.21108" lon="7.46188"><ele>2144.2</ele><time>2024-08-02T13:27:37Z</time></trkpt>
<trkpt lat="46.21111" lon="7.46188"><ele>2143.4</ele><time>2024-08-02T13:27:38Z</time></trkpt>
<trkpt lat="46.21113" lon="7.46187"><ele>2143.2</ele><time>2024-08-02T13:27:39Z</time></trkpt>
<trkpt lat="46.21119" lon="7.46181"><ele>2141.8</ele><time>2024-08-02T13:27:42Z</time></trkpt>
<trkpt lat="46.2112" lon="7.46179"><ele>2141.2</ele><time>2024-08-02T13:27:43Z</time></trkpt>
<trkpt lat="46.21121" lon="7.46176"><ele>2140.6</ele><time>2024-08-02T13:27:45Z</time></trkpt>
<trkpt lat="46.21122" lon="7.46171"><ele>2140</ele><time>2024-08-02T13:27:47Z</time></trkpt>
<trkpt lat="46.21123" lon="7.46168"><ele>2139.6</ele><time>2024-08-02T13:27:48Z</time></trkpt>
<trkpt lat="46.21128" lon="7.46161"><ele>2138</ele><time>2024-08-02T13:27:51Z</time></trkpt>
<trkpt lat="46.2113" lon="7.46158"><ele>2137.2</ele><time>2024-08-02T13:27:52Z</time></trkpt>
<trkpt lat="46.21131" lon="7.46156"><ele>2136.6</ele><time>2024-08-02T13:27:53Z</time></trkpt>
<trkpt lat="46.21132" lon="7.46154"><ele>2135.4</ele><time>2024-08-02T13:27:55Z</time></trkpt>
<trkpt lat="46.21133" lon="7.46151"><ele>2134.8</ele><time>2024-08-02T13:27:57Z</time></trkpt>
<trkpt lat="46.21135" lon="7.46148"><ele>2134.4</ele><time>2024-08-02T13:27:59Z</time></trkpt>
<trkpt lat="46.21139" lon="7.46141"><ele>2133</ele><time>2024-08-02T13:28:03Z</time></trkpt>
<trkpt lat="46.21139" lon="7.46139"><ele>2132.4</ele><time>2024-08-02T13:28:04Z</time></trkpt>
<trkpt lat="46.2114" lon="7.46136"><ele>2131.8</ele><time>2024-08-02T13:28:05Z</time></trkpt>
<trkpt lat="46.21143" lon="7.4613"><ele>2130.8</ele><time>2024-08-02T13:28:07Z</time></trkpt>
<trkpt lat="46.21147" lon="7.46124"><ele>2129.4</ele><time>2024-08-02T13:28:10Z</time></trkpt>
<trkpt lat="46.2115" lon="7.4612"><ele>2128.2</ele><time>2024-08-02T13:28:13Z</time></trkpt>
<trkpt lat="46.21149" lon="7.46115"><ele>2127.2</ele><time>2024-08-02T13:28:15Z</time></trkpt>
<trkpt lat="46.21149" lon="7.46113"><ele>2126.8</ele><time>2024-08-02T13:28:16Z</time></trkpt>
<trkpt lat="46.2115" lon="7.46109"><ele>2125.8</ele><time>2024-08-02T13:28:18Z</time></trkpt>
<trkpt lat="46.21153" lon="7.46102"><ele>2124.6</ele><time>2024-08-02T13:28:21Z</time></trkpt>
<trkpt lat="46.21154" lon="7.46101"><ele>2124</ele><time>2024-08-02T13:28:22Z</time></trkpt>
<trkpt lat="46.21155" lon="7.46099"><ele>2123.4</ele><time>2024-08-02T13:28:23Z</time></trkpt>
<trkpt lat="46.21158" lon="7.46096"><ele>2122.2</ele><time>2024-08-02T13:28:26Z</time></trkpt>
<trkpt lat="46.21161" lon="7.4609"><ele>2121.4</ele><time>2024-08-02T13:28:29Z</time></trkpt>
<trkpt lat="46.21163" lon="7.46089"><ele>2121</ele><time>2024-08-02T13:28:30Z</time></trkpt>
<trkpt lat="46.21165" lon="7.46087"><ele>2119.6</ele><time>2024-08-02T13:28:32Z</time></trkpt>
<trkpt lat="46.21168" lon="7.46083"><ele>2118.8</ele><time>2024-08-02T13:28:35Z</time></trkpt>
<trkpt lat="46.21169" lon="7.46083"><ele>2118.4</ele><time>2024-08-02T13:28:36Z</time></trkpt>
<trkpt lat="46.21169" lon="7.46081"><ele>2117.4</ele><time>2024-08-02T13:28:42Z</time></trkpt>
<trkpt lat="46.21169" lon="7.4608"><ele>2117.2</ele><time>2024-08-02T13:28:44Z</time></trkpt>
<trkpt lat="46.21171" lon="7.46075"><ele>2116.8</ele><time>2024-08-02T13:28:49Z</time></trkpt>
<trkpt lat="46.2117" lon="7.46073"><ele>2116</ele><time>2024-08-02T13:28:51Z</time></trkpt>
<trkpt lat="46.2117" lon="7.4607"><ele>2115.2</ele><time>2024-08-02T13:28:55Z</time></trkpt>
<trkpt lat="46.21172" lon="7.46068"><ele>2114.8</ele><time>2024-08-02T13:28:57Z</time></trkpt>
<trkpt lat="46.21173" lon="7.46067"><ele>2114</ele><time>2024-08-02T13:29:02Z</time></trkpt>
<trkpt lat="46.21177" lon="7.4606"><ele>2113.6</ele><time>2024-08-02T13:29:06Z</time></trkpt>
<trkpt lat="46.21179" lon="7.46058"><ele>2113</ele><time>2024-08-02T13:29:07Z</time></trkpt>
<trkpt lat="46.21182" lon="7.46055"><ele>2112.4</ele><time>2024-08-02T13:29:08Z</time></trkpt>
<trkpt lat="46.21184" lon="7.46054"><ele>2111.4</ele><time>2024-08-02T13:29:09Z</time></trkpt>
<trkpt lat="46.21189" lon="7.46051"><ele>2109.8</ele><time>2024-08-02T13:29:11Z</time></trkpt>
<trkpt lat="46.21193" lon="7.46048"><ele>2108.8</ele><time>2024-08-02T13:29:13Z</time></trkpt>
<trkpt lat="46.21198" lon="7.46042"><ele>2107.4</ele><time>2024-08-02T13:29:16Z</time></trkpt>
<trkpt lat="46.21202" lon="7.46036"><ele>2106</ele><time>2024-08-02T13:29:19Z</time></trkpt>
<trkpt lat="46.21204" lon="7.46033"><ele>2104.8</ele><time>2024-08-02T13:29:22Z</time></trkpt>
<trkpt lat="46.21207" lon="7.46032"><ele>2104.4</ele><time>2024-08-02T13:29:24Z</time></trkpt>
<trkpt lat="46.21209" lon="7.46032"><ele>2103.8</ele><time>2024-08-02T13:29:25Z</time></trkpt>
<trkpt lat="46.21212" lon="7.46031"><ele>2102.8</ele><time>2024-08-02T13:29:27Z</time></trkpt>
<trkpt lat="46.21215" lon="7.46029"><ele>2102.2</ele><time>2024-08-02T13:29:29Z</time></trkpt>
<trkpt lat="46.21218" lon="7.46026"><ele>2101.4</ele><time>2024-08-02T13:29:31Z</time></trkpt>
<trkpt lat="46.2122" lon="7.46024"><ele>2100</ele><time>2024-08-02T13:29:34Z</time></trkpt>
<trkpt lat="46.2122" lon="7.46024"><ele>2099.6</ele><time>2024-08-02T13:29:35Z</time></trkpt>
<trkpt lat="46.21221" lon="7.46023"><ele>2099.2</ele><time>2024-08-02T13:29:43Z</time></trkpt>
<trkpt lat="46.21222" lon="7.46023"><ele>2099</ele><time>2024-08-02T13:29:49Z</time></trkpt>
<trkpt lat="46.21223" lon="7.46023"><ele>2099</ele><time>2024-08-02T13:29:51Z</time></trkpt>
<trkpt lat="46.21226" lon="7.46023"><ele>2098.4</ele><time>2024-08-02T13:29:57Z</time></trkpt>
<trkpt lat="46.21229" lon="7.46022"><ele>2097.8</ele><time>2024-08-02T13:29:59Z</time></trkpt>
<trkpt lat="46.21232" lon="7.46018"><ele>2096.6</ele><time>2024-08-02T13:30:01Z</time></trkpt>
<trkpt lat="46.21234" lon="7.46017"><ele>2095.4</ele><time>2024-08-02T13:30:02Z</time></trkpt>
<trkpt lat="46.21238" lon="7.46012"><ele>2094</ele><time>2024-08-02T13:30:05Z</time></trkpt>
<trkpt lat="46.21239" lon="7.4601"><ele>2093.2</ele><time>2024-08-02T13:30:07Z</time></trkpt>
<trkpt lat="46.21239" lon="7.46009"><ele>2092.8</ele><time>2024-08-02T13:30:08Z</time></trkpt>
<trkpt lat="46.21244" lon="7.46004"><ele>2091.6</ele><time>2024-08-02T13:30:13Z</time></trkpt>
<trkpt lat="46.21245" lon="7.46003"><ele>2091</ele><time>2024-08-02T13:30:14Z</time></trkpt>
<trkpt lat="46.21247" lon="7.46001"><ele>2090.4</ele><time>2024-08-02T13:30:16Z</time></trkpt>
<trkpt lat="46.21251" lon="7.45997"><ele>2089.2</ele><time>2024-08-02T13:30:18Z</time></trkpt>
<trkpt lat="46.21253" lon="7.45995"><ele>2088.8</ele><time>2024-08-02T13:30:19Z</time></trkpt>
<trkpt lat="46.21256" lon="7.45993"><ele>2087.6</ele><time>2024-08-02T13:30:21Z</time></trkpt>
<trkpt lat="46.21258" lon="7.45992"><ele>2086.4</ele><time>2024-08-02T13:30:23Z</time></trkpt>
<trkpt lat="46.21258" lon="7.45992"><ele>2086</ele><time>2024-08-02T13:30:24Z</time></trkpt>
<trkpt lat="46.21262" lon="7.45991"><ele>2085.4</ele><time>2024-08-02T13:30:30Z</time></trkpt>
<trkpt lat="46.21269" lon="7.45993"><ele>2084.4</ele><time>2024-08-02T13:30:33Z</time></trkpt>
<trkpt lat="46.21273" lon="7.45993"><ele>2082.8</ele><time>2024-08-02T13:30:35Z</time></trkpt>
<trkpt lat="46.21276" lon="7.45992"><ele>2082.6</ele><time>2024-08-02T13:30:36Z</time></trkpt>
<trkpt lat="46.21282" lon="7.45988"><ele>2081.8</ele><time>2024-08-02T13:30:38Z</time></trkpt>
<trkpt lat="46.21289" lon="7.45985"><ele>2079.8</ele><time>2024-08-02T13:30:41Z</time></trkpt>
<trkpt lat="46.21294" lon="7.45984"><ele>2078.4</ele><time>2024-08-02T13:30:43Z</time></trkpt>
<trkpt lat="46.21301" lon="7.45984"><ele>2077.4</ele><time>2024-08-02T13:30:45Z</time></trkpt>
<trkpt lat="46.21307" lon="7.45983"><ele>2076</ele><time>2024-08-02T13:30:47Z</time></trkpt>
<trkpt lat="46.21309" lon="7.45983"><ele>2075.8</ele><time>2024-08-02T13:30:48Z</time></trkpt>
<trkpt lat="46.21315" lon="7.45981"><ele>2074.6</ele><time>2024-08-02T13:30:50Z</time></trkpt>
<trkpt lat="46.21319" lon="7.45979"><ele>2073.4</ele><time>2024-08-02T13:30:52Z</time></trkpt>
<trkpt lat="46.21321" lon="7.45978"><ele>2073.2</ele><time>2024-08-02T13:30:53Z</time></trkpt>
<trkpt lat="46.21323" lon="7.45976"><ele>2072.2</ele><time>2024-08-02T13:30:55Z</time></trkpt>
<trkpt lat="46.21328" lon="7.45972"><ele>2071.2</ele><time>2024-08-02T13:30:59Z</time></trkpt>
<trkpt lat="46.21331" lon="7.45968"><ele>2070</ele><time>2024-08-02T13:31:01Z</time></trkpt>
<trkpt lat="46.21337" lon="7.45961"><ele>2068.6</ele><time>2024-08-02T13:31:04Z</time></trkpt>
<trkpt lat="46.21341" lon="7.45957"><ele>2067.4</ele><time>2024-08-02T13:31:07Z</time></trkpt>
<trkpt lat="46.21344" lon="7.45953"><ele>2066.2</ele><time>2024-08-02T13:31:10Z</time></trkpt>
<trkpt lat="46.21345" lon="7.45952"><ele>2066</ele><time>2024-08-02T13:31:11Z</time></trkpt>
<trkpt lat="46.21347" lon="7.45951"><ele>2065.2</ele><time>2024-08-02T13:31:13Z</time></trkpt>
<trkpt lat="46.21351" lon="7.4595"><ele>2064.2</ele><time>2024-08-02T13:31:16Z</time></trkpt>
<trkpt lat="46.21352" lon="7.45948"><ele>2063.8</ele><time>2024-08-02T13:31:17Z</time></trkpt>
<trkpt lat="46.21353" lon="7.45946"><ele>2063.2</ele><time>2024-08-02T13:31:18Z</time></trkpt>
<trkpt lat="46.21354" lon="7.45943"><ele>2062.4</ele><time>2024-08-02T13:31:19Z</time></trkpt>
<trkpt lat="46.21359" lon="7.45939"><ele>2061</ele><time>2024-08-02T13:31:23Z</time></trkpt>
<trkpt lat="46.2136" lon="7.4594"><ele>2060.6</ele><time>2024-08-02T13:31:24Z</time></trkpt>
<trkpt lat="46.21362" lon="7.45939"><ele>2059.8</ele><time>2024-08-02T13:31:27Z</time></trkpt>
<trkpt lat="46.21366" lon="7.45936"><ele>2058.4</ele><time>2024-08-02T13:31:29Z</time></trkpt>
<trkpt lat="46.21367" lon="7.45935"><ele>2058.4</ele><time>2024-08-02T13:31:30Z</time></trkpt>
<trkpt lat="46.21374" lon="7.45931"><ele>2057</ele><time>2024-08-02T13:31:33Z</time></trkpt>
<trkpt lat="46.21377" lon="7.45926"><ele>2055.8</ele><time>2024-08-02T13:31:35Z</time></trkpt>
<trkpt lat="46.21378" lon="7.45923"><ele>2054.8</ele><time>2024-08-02T13:31:36Z</time></trkpt>
<trkpt lat="46.21384" lon="7.45917"><ele>2053.6</ele><time>2024-08-02T13:31:39Z</time></trkpt>
<trkpt lat="46.21388" lon="7.4591"><ele>2052</ele><time>2024-08-02T13:31:42Z</time></trkpt>
<trkpt lat="46.2139" lon="7.45908"><ele>2050.8</ele><time>2024-08-02T13:31:44Z</time></trkpt>
<trkpt lat="46.2139" lon="7.45907"><ele>2050</ele><time>2024-08-02T13:31:46Z</time></trkpt>
<trkpt lat="46.21391" lon="7.45907"><ele>2049.6</ele><time>2024-08-02T13:31:52Z</time></trkpt>
<trkpt lat="46.21392" lon="7.45905"><ele>2049.4</ele><time>2024-08-02T13:31:58Z</time></trkpt>
<trkpt lat="46.21398" lon="7.45894"><ele>2048.2</ele><time>2024-08-02T13:32:02Z</time></trkpt>
<trkpt lat="46.21401" lon="7.45889"><ele>2046.8</ele><time>2024-08-02T13:32:04Z</time></trkpt>
<trkpt lat="46.21405" lon="7.45885"><ele>2045.4</ele><time>2024-08-02T13:32:07Z</time></trkpt>
<trkpt lat="46.21405" lon="7.45885"><ele>2044.8</ele><time>2024-08-02T13:32:08Z</time></trkpt>
<trkpt lat="46.21406" lon="7.45884"><ele>2044.4</ele><time>2024-08-02T13:32:09Z</time></trkpt>
<trkpt lat="46.21411" lon="7.4588"><ele>2043</ele><time>2024-08-02T13:32:14Z</time></trkpt>
<trkpt lat="46.21412" lon="7.45876"><ele>2042</ele><time>2024-08-02T13:32:16Z</time></trkpt>
<trkpt lat="46.21413" lon="7.45873"><ele>2041.6</ele><time>2024-08-02T13:32:17Z</time></trkpt>
<trkpt lat="46.21415" lon="7.4587"><ele>2041.2</ele><time>2024-08-02T13:32:18Z</time></trkpt>
<trkpt lat="46.21417" lon="7.45868"><ele>2040.4</ele><time>2024-08-02T13:32:19Z</time></trkpt>
<trkpt lat="46.21423" lon="7.45865"><ele>2039.4</ele><time>2024-08-02T13:32:21Z</time></trkpt>
<trkpt lat="46.21428" lon="7.45861"><ele>2037.8</ele><time>2024-08-02T13:32:23Z</time></trkpt>
<trkpt lat="46.21433" lon="7.45854"><ele>2036.2</ele><time>2024-08-02T13:32:25Z</time></trkpt>
<trkpt lat="46.21437" lon="7.45848"><ele>2035</ele><time>2024-08-02T13:32:27Z</time></trkpt>
<trkpt lat="46.2144" lon="7.45844"><ele>2033.8</ele><time>2024-08-02T13:32:29Z</time></trkpt>
<trkpt lat="46.21441" lon="7.45843"><ele>2033.6</ele><time>2024-08-02T13:32:30Z</time></trkpt>
<trkpt lat="46.21445" lon="7.45839"><ele>2032.4</ele><time>2024-08-02T13:32:32Z</time></trkpt>
<trkpt lat="46.2145" lon="7.45834"><ele>2031.2</ele><time>2024-08-02T13:32:34Z</time></trkpt>
<trkpt lat="46.21453" lon="7.45831"><ele>2031</ele><time>2024-08-02T13:32:35Z</time></trkpt>
<trkpt lat="46.21454" lon="7.45828"><ele>2029.8</ele><time>2024-08-02T13:32:36Z</time></trkpt>
<trkpt lat="46.21456" lon="7.45824"><ele>2028.6</ele><time>2024-08-02T13:32:38Z</time></trkpt>
<trkpt lat="46.21456" lon="7.4582"><ele>2027.8</ele><time>2024-08-02T13:32:40Z</time></trkpt>
<trkpt lat="46.21457" lon="7.45816"><ele>2027.4</ele><time>2024-08-02T13:32:42Z</time></trkpt>
<trkpt lat="46.21459" lon="7.45814"><ele>2026</ele><time>2024-08-02T13:32:46Z</time></trkpt>
<trkpt lat="46.2146" lon="7.45811"><ele>2025.6</ele><time>2024-08-02T13:32:48Z</time></trkpt>
<trkpt lat="46.21463" lon="7.45805"><ele>2024.8</ele><time>2024-08-02T13:32:50Z</time></trkpt>
<trkpt lat="46.21464" lon="7.45802"><ele>2024.4</ele><time>2024-08-02T13:32:51Z</time></trkpt>
<trkpt lat="46.21467" lon="7.45797"><ele>2023</ele><time>2024-08-02T13:32:53Z</time></trkpt>
<trkpt lat="46.21469" lon="7.45792"><ele>2021.6</ele><time>2024-08-02T13:32:55Z</time></trkpt>
<trkpt lat="46.21472" lon="7.45786"><ele>2020.6</ele><time>2024-08-02T13:32:58Z</time></trkpt>
<trkpt lat="46.21476" lon="7.45781"><ele>2019</ele><time>2024-08-02T13:33:01Z</time></trkpt>
<trkpt lat="46.21478" lon="7.45775"><ele>2018.2</ele><time>2024-08-02T13:33:04Z</time></trkpt>
<trkpt lat="46.2148" lon="7.45774"><ele>2017.6</ele><time>2024-08-02T13:33:05Z</time></trkpt>
<trkpt lat="46.21482" lon="7.45773"><ele>2017</ele><time>2024-08-02T13:33:10Z</time></trkpt>
<trkpt lat="46.21485" lon="7.4577"><ele>2016.4</ele><time>2024-08-02T13:33:16Z</time></trkpt>
<trkpt lat="46.21486" lon="7.45765"><ele>2015.2</ele><time>2024-08-02T13:33:21Z</time></trkpt>
<trkpt lat="46.21486" lon="7.45764"><ele>2015</ele><time>2024-08-02T13:33:22Z</time></trkpt>
<trkpt lat="46.21487" lon="7.45764"><ele>2014.8</ele><time>2024-08-02T13:33:24Z</time></trkpt>
<trkpt lat="46.21488" lon="7.45761"><ele>2014</ele><time>2024-08-02T13:33:28Z</time></trkpt>
<trkpt lat="46.21488" lon="7.4576"><ele>2013.8</ele><time>2024-08-02T13:33:29Z</time></trkpt>
<trkpt lat="46.21489" lon="7.45755"><ele>2012.8</ele><time>2024-08-02T13:33:33Z</time></trkpt>
<trkpt lat="46.21491" lon="7.45752"><ele>2012</ele><time>2024-08-02T13:33:36Z</time></trkpt>
<trkpt lat="46.21492" lon="7.4575"><ele>2011.6</ele><time>2024-08-02T13:33:38Z</time></trkpt>
<trkpt lat="46.21497" lon="7.45747"><ele>2010.4</ele><time>2024-08-02T13:33:43Z</time></trkpt>
<trkpt lat="46.21499" lon="7.45746"><ele>2010.2</ele><time>2024-08-02T13:33:45Z</time></trkpt>
<trkpt lat="46.21501" lon="7.45744"><ele>2010</ele><time>2024-08-02T13:33:48Z</time></trkpt>
<trkpt lat="46.21503" lon="7.4574"><ele>2009</ele><time>2024-08-02T13:33:51Z</time></trkpt>
<trkpt lat="46.21503" lon="7.45739"><ele>2008.8</ele><time>2024-08-02T13:33:52Z</time></trkpt>
<trkpt lat="46.21503" lon="7.45734"><ele>2008</ele><time>2024-08-02T13:33:56Z</time></trkpt>
<trkpt lat="46.21503" lon="7.45733"><ele>2007.6</ele><time>2024-08-02T13:33:58Z</time></trkpt>
<trkpt lat="46.21503" lon="7.4573"><ele>2007.4</ele><time>2024-08-02T13:34:07Z</time></trkpt>
<trkpt lat="46.21504" lon="7.45733"><ele>2007</ele><time>2024-08-02T13:34:15Z</time></trkpt>
<trkpt lat="46.21506" lon="7.45734"><ele>2006.8</ele><time>2024-08-02T13:34:18Z</time></trkpt>
<trkpt lat="46.21509" lon="7.45735"><ele>2006</ele><time>2024-08-02T13:34:23Z</time></trkpt>
<trkpt lat="46.21509" lon="7.45734"><ele>2005.8</ele><time>2024-08-02T13:34:24Z</time></trkpt>
<trkpt lat="46.21511" lon="7.4573"><ele>2004.8</ele><time>2024-08-02T13:34:30Z</time></trkpt>
<trkpt lat="46.21512" lon="7.45729"><ele>2004.4</ele><time>2024-08-02T13:34:31Z</time></trkpt>
<trkpt lat="46.21516" lon="7.45728"><ele>2003.8</ele><time>2024-08-02T13:34:38Z</time></trkpt>
<trkpt lat="46.21516" lon="7.45728"><ele>2003.6</ele><time>2024-08-02T13:34:39Z</time></trkpt>
<trkpt lat="46.21521" lon="7.45728"><ele>2002.6</ele><time>2024-08-02T13:34:45Z</time></trkpt>
<trkpt lat="46.21521" lon="7.45728"><ele>2002.4</ele><time>2024-08-02T13:34:46Z</time></trkpt>
<trkpt lat="46.21523" lon="7.45726"><ele>2001.4</ele><time>2024-08-02T13:34:52Z</time></trkpt>
<trkpt lat="46.21525" lon="7.45724"><ele>2001</ele><time>2024-08-02T13:34:54Z</time></trkpt>
<trkpt lat="46.21527" lon="7.45723"><ele>2000.2</ele><time>2024-08-02T13:34:58Z</time></trkpt>
<trkpt lat="46.21529" lon="7.45724"><ele>2000</ele><time>2024-08-02T13:35:00Z</time></trkpt>
<trkpt lat="46.21533" lon="7.45725"><ele>1999</ele><time>2024-08-02T13:35:06Z</time></trkpt>
<trkpt lat="46.21534" lon="7.45723"><ele>1998</ele><time>2024-08-02T13:35:11Z</time></trkpt>
<trkpt lat="46.21535" lon="7.45721"><ele>1997.4</ele><time>2024-08-02T13:35:14Z</time></trkpt>
<trkpt lat="46.21535" lon="7.4572"><ele>1996.8</ele><time>2024-08-02T13:35:16Z</time></trkpt>
<trkpt lat="46.21539" lon="7.45712"><ele>1996.6</ele><time>2024-08-02T13:35:20Z</time></trkpt>
<trkpt lat="46.21542" lon="7.45706"><ele>1995.6</ele><time>2024-08-02T13:35:22Z</time></trkpt>
<trkpt lat="46.21546" lon="7.45698"><ele>1994</ele><time>2024-08-02T13:35:24Z</time></trkpt>
<trkpt lat="46.21549" lon="7.4569"><ele>1992.6</ele><time>2024-08-02T13:35:26Z</time></trkpt>
<trkpt lat="46.21553" lon="7.45681"><ele>1991.6</ele><time>2024-08-02T13:35:29Z</time></trkpt>
<trkpt lat="46.21553" lon="7.45679"><ele>1991.4</ele><time>2024-08-02T13:35:31Z</time></trkpt>
<trkpt lat="46.21557" lon="7.45674"><ele>1991</ele><time>2024-08-02T13:35:37Z</time></trkpt>
<trkpt lat="46.21559" lon="7.45673"><ele>1990.6</ele><time>2024-08-02T13:35:39Z</time></trkpt>
<trkpt lat="46.21562" lon="7.4567"><ele>1989.6</ele><time>2024-08-02T13:35:43Z</time></trkpt>
<trkpt lat="46.21563" lon="7.45669"><ele>1989.2</ele><time>2024-08-02T13:35:44Z</time></trkpt>
<trkpt lat="46.21566" lon="7.45664"><ele>1988</ele><time>2024-08-02T13:35:48Z</time></trkpt>
<trkpt lat="46.21569" lon="7.4566"><ele>1986.8</ele><time>2024-08-02T13:35:52Z</time></trkpt>
<trkpt lat="46.21569" lon="7.45659"><ele>1986.6</ele><time>2024-08-02T13:35:53Z</time></trkpt>
<trkpt lat="46.2157" lon="7.45657"><ele>1985.8</ele><time>2024-08-02T13:35:55Z</time></trkpt>
<trkpt lat="46.21572" lon="7.45653"><ele>1984.4</ele><time>2024-08-02T13:35:58Z</time></trkpt>
<trkpt lat="46.21572" lon="7.45652"><ele>1984</ele><time>2024-08-02T13:35:59Z</time></trkpt>
<trkpt lat="46.21572" lon="7.4565"><ele>1983.4</ele><time>2024-08-02T13:36:01Z</time></trkpt>
<trkpt lat="46.21574" lon="7.45645"><ele>1982.4</ele><time>2024-08-02T13:36:05Z</time></trkpt>
<trkpt lat="46.21575" lon="7.45643"><ele>1982.2</ele><time>2024-08-02T13:36:06Z</time></trkpt>
<trkpt lat="46.21581" lon="7.45635"><ele>1981.2</ele><time>2024-08-02T13:36:09Z</time></trkpt>
<trkpt lat="46.21582" lon="7.45633"><ele>1980.2</ele><time>2024-08-02T13:36:10Z</time></trkpt>
<trkpt lat="46.21583" lon="7.45631"><ele>1979.6</ele><time>2024-08-02T13:36:11Z</time></trkpt>
<trkpt lat="46.21585" lon="7.45628"><ele>1978.6</ele><time>2024-08-02T13:36:13Z</time></trkpt>
<trkpt lat="46.21588" lon="7.45622"><ele>1977.4</ele><time>2024-08-02T13:36:16Z</time></trkpt>
<trkpt lat="46.2159" lon="7.45618"><ele>1976.4</ele><time>2024-08-02T13:36:18Z</time></trkpt>
<trkpt lat="46.2159" lon="7.45617"><ele>1976.2</ele><time>2024-08-02T13:36:19Z</time></trkpt>
<trkpt lat="46.21592" lon="7.45612"><ele>1974.8</ele><time>2024-08-02T13:36:23Z</time></trkpt>
<trkpt lat="46.21595" lon="7.45611"><ele>1974</ele><time>2024-08-02T13:36:25Z</time></trkpt>
<trkpt lat="46.21597" lon="7.45611"><ele>1973.6</ele><time>2024-08-02T13:36:26Z</time></trkpt>
<trkpt lat="46.21601" lon="7.45611"><ele>1973</ele><time>2024-08-02T13:36:28Z</time></trkpt>
<trkpt lat="46.21603" lon="7.4561"><ele>1972.4</ele><time>2024-08-02T13:36:29Z</time></trkpt>
<trkpt lat="46.21607" lon="7.45605"><ele>1971.6</ele><time>2024-08-02T13:36:31Z</time></trkpt>
<trkpt lat="46.21608" lon="7.45603"><ele>1971</ele><time>2024-08-02T13:36:32Z</time></trkpt>
<trkpt lat="46.21611" lon="7.45599"><ele>1969.8</ele><time>2024-08-02T13:36:34Z</time></trkpt>
<trkpt lat="46.21615" lon="7.45596"><ele>1968.6</ele><time>2024-08-02T13:36:37Z</time></trkpt>
<trkpt lat="46.21619" lon="7.4559"><ele>1967.6</ele><time>2024-08-02T13:36:40Z</time></trkpt>
<trkpt lat="46.21622" lon="7.45583"><ele>1966.4</ele><time>2024-08-02T13:36:43Z</time></trkpt>
<trkpt lat="46.21622" lon="7.45582"><ele>1966</ele><time>2024-08-02T13:36:44Z</time></trkpt>
<trkpt lat="46.21622" lon="7.45582"><ele>1965</ele><time>2024-08-02T13:36:46Z</time></trkpt>
<trkpt lat="46.21623" lon="7.4558"><ele>1964.8</ele><time>2024-08-02T13:36:49Z</time></trkpt>
<trkpt lat="46.21627" lon="7.45575"><ele>1964.2</ele><time>2024-08-02T13:36:56Z</time></trkpt>
<trkpt lat="46.21627" lon="7.45571"><ele>1963.8</ele><time>2024-08-02T13:36:58Z</time></trkpt>
<trkpt lat="46.21629" lon="7.45565"><ele>1962.8</ele><time>2024-08-02T13:37:03Z</time></trkpt>
<trkpt lat="46.21629" lon="7.45563"><ele>1961.6</ele><time>2024-08-02T13:37:07Z</time></trkpt>
<trkpt lat="46.2163" lon="7.45562"><ele>1961.4</ele><time>2024-08-02T13:37:10Z</time></trkpt>
<trkpt lat="46.21632" lon="7.45558"><ele>1960.4</ele><time>2024-08-02T13:37:15Z</time></trkpt>
<trkpt lat="46.21636" lon="7.45561"><ele>1959.4</ele><time>2024-08-02T13:37:19Z</time></trkpt>
<trkpt lat="46.21637" lon="7.45562"><ele>1959.2</ele><time>2024-08-02T13:37:20Z</time></trkpt>
<trkpt lat="46.21639" lon="7.45561"><ele>1958.6</ele><time>2024-08-02T13:37:22Z</time></trkpt>
<trkpt lat="46.21639" lon="7.4556"><ele>1958.4</ele><time>2024-08-02T13:37:23Z</time></trkpt>
<trkpt lat="46.21637" lon="7.45556"><ele>1958</ele><time>2024-08-02T13:37:27Z</time></trkpt>
<trkpt lat="46.21633" lon="7.45546"><ele>1957.8</ele><time>2024-08-02T13:37:32Z</time></trkpt>
<trkpt lat="46.21628" lon="7.45531"><ele>1957.4</ele><time>2024-08-02T13:37:37Z</time></trkpt>
<trkpt lat="46.21627" lon="7.45527"><ele>1957.4</ele><time>2024-08-02T13:37:38Z</time></trkpt>
<trkpt lat="46.21616" lon="7.45512"><ele>1956.2</ele><time>2024-08-02T13:37:42Z</time></trkpt>
<trkpt lat="46.21603" lon="7.45507"><ele>1955</ele><time>2024-08-02T13:37:45Z</time></trkpt>
<trkpt lat="46.21599" lon="7.45506"><ele>1954.8</ele><time>2024-08-02T13:37:46Z</time></trkpt>
<trkpt lat="46.21594" lon="7.45505"><ele>1954.6</ele><time>2024-08-02T13:37:47Z</time></trkpt>
<trkpt lat="46.2159" lon="7.45506"><ele>1954.2</ele><time>2024-08-02T13:37:48Z</time></trkpt>
<trkpt lat="46.21585" lon="7.45506"><ele>1954</ele><time>2024-08-02T13:37:49Z</time></trkpt>
<trkpt lat="46.2158" lon="7.45508"><ele>1953.8</ele><time>2024-08-02T13:37:50Z</time></trkpt>
<trkpt lat="46.21571" lon="7.45514"><ele>1953.2</ele><time>2024-08-02T13:37:52Z</time></trkpt>
<trkpt lat="46.21565" lon="7.45516"><ele>1952.6</ele><time>2024-08-02T13:37:53Z</time></trkpt>
<trkpt lat="46.21553" lon="7.45512"><ele>1951.4</ele><time>2024-08-02T13:37:55Z</time></trkpt>
<trkpt lat="46.21543" lon="7.455"><ele>1951</ele><time>2024-08-02T13:37:57Z</time></trkpt>
<trkpt lat="46.21539" lon="7.45494"><ele>1950</ele><time>2024-08-02T13:37:58Z</time></trkpt>
<trkpt lat="46.21524" lon="7.45475"><ele>1948.8</ele><time>2024-08-02T13:38:01Z</time></trkpt>
<trkpt lat="46.21514" lon="7.45463"><ele>1947.8</ele><time>2024-08-02T13:38:03Z</time></trkpt>
<trkpt lat="46.21498" lon="7.4544"><ele>1947</ele><time>2024-08-02T13:38:07Z</time></trkpt>
<trkpt lat="46.21491" lon="7.45433"><ele>1946.6</ele><time>2024-08-02T13:38:09Z</time></trkpt>
<trkpt lat="46.21482" lon="7.45429"><ele>1946.2</ele><time>2024-08-02T13:38:11Z</time></trkpt>
<trkpt lat="46.21469" lon="7.45425"><ele>1945</ele><time>2024-08-02T13:38:14Z</time></trkpt>
<trkpt lat="46.21454" lon="7.45421"><ele>1943.8</ele><time>2024-08-02T13:38:17Z</time></trkpt>
<trkpt lat="46.21435" lon="7.45419"><ele>1943.2</ele><time>2024-08-02T13:38:20Z</time></trkpt>
<trkpt lat="46.21428" lon="7.45418"><ele>1942.8</ele><time>2024-08-02T13:38:21Z</time></trkpt>
<trkpt lat="46.21413" lon="7.45414"><ele>1941.8</ele><time>2024-08-02T13:38:23Z</time></trkpt>
<trkpt lat="46.21406" lon="7.45411"><ele>1940.4</ele><time>2024-08-02T13:38:24Z</time></trkpt>
<trkpt lat="46.21399" lon="7.45408"><ele>1940.2</ele><time>2024-08-02T13:38:25Z</time></trkpt>
<trkpt lat="46.21392" lon="7.45408"><ele>1939.4</ele><time>2024-08-02T13:38:26Z</time></trkpt>
<trkpt lat="46.21385" lon="7.45409"><ele>1938.6</ele><time>2024-08-02T13:38:27Z</time></trkpt>
<trkpt lat="46.21378" lon="7.45414"><ele>1938.4</ele><time>2024-08-02T13:38:28Z</time></trkpt>
<trkpt lat="46.21358" lon="7.45432"><ele>1937.2</ele><time>2024-08-02T13:38:31Z</time></trkpt>
<trkpt lat="46.2135" lon="7.45435"><ele>1936.4</ele><time>2024-08-02T13:38:32Z</time></trkpt>
<trkpt lat="46.21341" lon="7.45436"><ele>1935.4</ele><time>2024-08-02T13:38:33Z</time></trkpt>
<trkpt lat="46.21323" lon="7.45437"><ele>1934</ele><time>2024-08-02T13:38:35Z</time></trkpt>
<trkpt lat="46.21314" lon="7.4544"><ele>1933.4</ele><time>2024-08-02T13:38:36Z</time></trkpt>
<trkpt lat="46.21305" lon="7.45444"><ele>1932.6</ele><time>2024-08-02T13:38:37Z</time></trkpt>
<trkpt lat="46.21297" lon="7.45447"><ele>1932</ele><time>2024-08-02T13:38:38Z</time></trkpt>
<trkpt lat="46.21282" lon="7.45453"><ele>1931.4</ele><time>2024-08-02T13:38:40Z</time></trkpt>
<trkpt lat="46.21274" lon="7.45455"><ele>1931.2</ele><time>2024-08-02T13:38:41Z</time></trkpt>
<trkpt lat="46.21266" lon="7.45454"><ele>1930.6</ele><time>2024-08-02T13:38:42Z</time></trkpt>
<trkpt lat="46.21259" lon="7.45451"><ele>1929.8</ele><time>2024-08-02T13:38:43Z</time></trkpt>
<trkpt lat="46.21247" lon="7.45438"><ele>1929</ele><time>2024-08-02T13:38:45Z</time></trkpt>
<trkpt lat="46.21235" lon="7.45428"><ele>1928.4</ele><time>2024-08-02T13:38:47Z</time></trkpt>
<trkpt lat="46.21229" lon="7.45426"><ele>1927.8</ele><time>2024-08-02T13:38:48Z</time></trkpt>
<trkpt lat="46.21222" lon="7.45425"><ele>1927.6</ele><time>2024-08-02T13:38:49Z</time></trkpt>
<trkpt lat="46.21215" lon="7.45427"><ele>1927.2</ele><time>2024-08-02T13:38:50Z</time></trkpt>
<trkpt lat="46.212" lon="7.45427"><ele>1926.6</ele><time>2024-08-02T13:38:52Z</time></trkpt>
<trkpt lat="46.21192" lon="7.45427"><ele>1925.8</ele><time>2024-08-02T13:38:53Z</time></trkpt>
<trkpt lat="46.21185" lon="7.45426"><ele>1924.8</ele><time>2024-08-02T13:38:54Z</time></trkpt>
<trkpt lat="46.21163" lon="7.45421"><ele>1923</ele><time>2024-08-02T13:38:57Z</time></trkpt>
<trkpt lat="46.21139" lon="7.45415"><ele>1921.4</ele><time>2024-08-02T13:39:00Z</time></trkpt>
<trkpt lat="46.21115" lon="7.45404"><ele>1920.2</ele><time>2024-08-02T13:39:03Z</time></trkpt>
<trkpt lat="46.21107" lon="7.45403"><ele>1919.4</ele><time>2024-08-02T13:39:04Z</time></trkpt>
<trkpt lat="46.21098" lon="7.45404"><ele>1919.2</ele><time>2024-08-02T13:39:05Z</time></trkpt>
<trkpt lat="46.2109" lon="7.45405"><ele>1918.2</ele><time>2024-08-02T13:39:06Z</time></trkpt>
<trkpt lat="46.21081" lon="7.45407"><ele>1917.6</ele><time>2024-08-02T13:39:07Z</time></trkpt>
<trkpt lat="46.21054" lon="7.45414"><ele>1916.2</ele><time>2024-08-02T13:39:10Z</time></trkpt>
<trkpt lat="46.21037" lon="7.45417"><ele>1915.6</ele><time>2024-08-02T13:39:12Z</time></trkpt>
<trkpt lat="46.21029" lon="7.45419"><ele>1914.6</ele><time>2024-08-02T13:39:13Z</time></trkpt>
<trkpt lat="46.21012" lon="7.45422"><ele>1913.4</ele><time>2024-08-02T13:39:15Z</time></trkpt>
<trkpt lat="46.20995" lon="7.4542"><ele>1912.2</ele><time>2024-08-02T13:39:17Z</time></trkpt>
<trkpt lat="46.20979" lon="7.45409"><ele>1910.8</ele><time>2024-08-02T13:39:19Z</time></trkpt>
<trkpt lat="46.20973" lon="7.45402"><ele>1910.8</ele><time>2024-08-02T13:39:20Z</time></trkpt>
<trkpt lat="46.20959" lon="7.45387"><ele>1909.8</ele><time>2024-08-02T13:39:22Z</time></trkpt>
<trkpt lat="46.20944" lon="7.4538"><ele>1909</ele><time>2024-08-02T13:39:24Z</time></trkpt>
<trkpt lat="46.2093" lon="7.45381"><ele>1908.8</ele><time>2024-08-02T13:39:26Z</time></trkpt>
<trkpt lat="46.20924" lon="7.45383"><ele>1908.4</ele><time>2024-08-02T13:39:27Z</time></trkpt>
<trkpt lat="46.20918" lon="7.45386"><ele>1908.4</ele><time>2024-08-02T13:39:28Z</time></trkpt>
<trkpt lat="46.20898" lon="7.45403"><ele>1907.2</ele><time>2024-08-02T13:39:31Z</time></trkpt>
<trkpt lat="46.20882" lon="7.45412"><ele>1905</ele><time>2024-08-02T13:39:33Z</time></trkpt>
<trkpt lat="46.20866" lon="7.45411"><ele>1904.4</ele><time>2024-08-02T13:39:35Z</time></trkpt>
<trkpt lat="46.20858" lon="7.45406"><ele>1903</ele><time>2024-08-02T13:39:36Z</time></trkpt>
<trkpt lat="46.20851" lon="7.45403"><ele>1901.8</ele><time>2024-08-02T13:39:37Z</time></trkpt>
<trkpt lat="46.20844" lon="7.45403"><ele>1901.2</ele><time>2024-08-02T13:39:38Z</time></trkpt>
<trkpt lat="46.20836" lon="7.45406"><ele>1900.6</ele><time>2024-08-02T13:39:39Z</time></trkpt>
<trkpt lat="46.20829" lon="7.4541"><ele>1900.2</ele><time>2024-08-02T13:39:40Z</time></trkpt>
<trkpt lat="46.20814" lon="7.45414"><ele>1899.4</ele><time>2024-08-02T13:39:42Z</time></trkpt>
<trkpt lat="46.20807" lon="7.4541"><ele>1898.8</ele><time>2024-08-02T13:39:43Z</time></trkpt>
<trkpt lat="46.20801" lon="7.45404"><ele>1898.4</ele><time>2024-08-02T13:39:44Z</time></trkpt>
<trkpt lat="46.20796" lon="7.45385"><ele>1897.2</ele><time>2024-08-02T13:39:46Z</time></trkpt>
<trkpt lat="46.20793" lon="7.45365"><ele>1896.6</ele><time>2024-08-02T13:39:48Z</time></trkpt>
<trkpt lat="46.20784" lon="7.4535"><ele>1896.2</ele><time>2024-08-02T13:39:50Z</time></trkpt>
<trkpt lat="46.20773" lon="7.45345"><ele>1895.2</ele><time>2024-08-02T13:39:52Z</time></trkpt>
<trkpt lat="46.20766" lon="7.45346"><ele>1895</ele><time>2024-08-02T13:39:53Z</time></trkpt>
<trkpt lat="46.20752" lon="7.45344"><ele>1893.2</ele><time>2024-08-02T13:39:55Z</time></trkpt>
<trkpt lat="46.2073" lon="7.45338"><ele>1891.8</ele><time>2024-08-02T13:39:58Z</time></trkpt>
<trkpt lat="46.20715" lon="7.45331"><ele>1891.2</ele><time>2024-08-02T13:40:00Z</time></trkpt>
<trkpt lat="46.20707" lon="7.45326"><ele>1890.2</ele><time>2024-08-02T13:40:01Z</time></trkpt>
<trkpt lat="46.20691" lon="7.45318"><ele>1889.2</ele><time>2024-08-02T13:40:03Z</time></trkpt>
<trkpt lat="46.20682" lon="7.45317"><ele>1888.4</ele><time>2024-08-02T13:40:04Z</time></trkpt>
<trkpt lat="46.20664" lon="7.45315"><ele>1887.4</ele><time>2024-08-02T13:40:06Z</time></trkpt>
<trkpt lat="46.20655" lon="7.45314"><ele>1886.8</ele><time>2024-08-02T13:40:07Z</time></trkpt>
<trkpt lat="46.20636" lon="7.45313"><ele>1885.2</ele><time>2024-08-02T13:40:09Z</time></trkpt>
<trkpt lat="46.20616" lon="7.45317"><ele>1883.8</ele><time>2024-08-02T13:40:11Z</time></trkpt>
<trkpt lat="46.20606" lon="7.45319"><ele>1883.4</ele><time>2024-08-02T13:40:12Z</time></trkpt>
<trkpt lat="46.20596" lon="7.4532"><ele>1882.6</ele><time>2024-08-02T13:40:13Z</time></trkpt>
<trkpt lat="46.20576" lon="7.45319"><ele>1881.4</ele><time>2024-08-02T13:40:15Z</time></trkpt>
<trkpt lat="46.20556" lon="7.45315"><ele>1879.8</ele><time>2024-08-02T13:40:17Z</time></trkpt>
<trkpt lat="46.20538" lon="7.4531"><ele>1878.6</ele><time>2024-08-02T13:40:19Z</time></trkpt>
<trkpt lat="46.20509" lon="7.45312"><ele>1877.6</ele><time>2024-08-02T13:40:22Z</time></trkpt>
<trkpt lat="46.20482" lon="7.45316"><ele>1876.2</ele><time>2024-08-02T13:40:25Z</time></trkpt>
<trkpt lat="46.20474" lon="7.45314"><ele>1875.8</ele><time>2024-08-02T13:40:26Z</time></trkpt>
<trkpt lat="46.20458" lon="7.45299"><ele>1874.8</ele><time>2024-08-02T13:40:28Z</time></trkpt>
<trkpt lat="46.20452" lon="7.45289"><ele>1873.6</ele><time>2024-08-02T13:40:29Z</time></trkpt>
<trkpt lat="46.20434" lon="7.4526"><ele>1872.4</ele><time>2024-08-02T13:40:32Z</time></trkpt>
<trkpt lat="46.2042" lon="7.45242"><ele>1871.4</ele><time>2024-08-02T13:40:34Z</time></trkpt>
<trkpt lat="46.20415" lon="7.45232"><ele>1870.4</ele><time>2024-08-02T13:40:35Z</time></trkpt>
<trkpt lat="46.20409" lon="7.45225"><ele>1869.6</ele><time>2024-08-02T13:40:36Z</time></trkpt>
<trkpt lat="46.20404" lon="7.4522"><ele>1869</ele><time>2024-08-02T13:40:37Z</time></trkpt>
<trkpt lat="46.20399" lon="7.45219"><ele>1868.4</ele><time>2024-08-02T13:40:38Z</time></trkpt>
<trkpt lat="46.20385" lon="7.45223"><ele>1868</ele><time>2024-08-02T13:40:40Z</time></trkpt>
<trkpt lat="46.20378" lon="7.45223"><ele>1867.4</ele><time>2024-08-02T13:40:41Z</time></trkpt>
<trkpt lat="46.20372" lon="7.4522"><ele>1866.6</ele><time>2024-08-02T13:40:42Z</time></trkpt>
<trkpt lat="46.20367" lon="7.45215"><ele>1865.8</ele><time>2024-08-02T13:40:43Z</time></trkpt>
<trkpt lat="46.20365" lon="7.45209"><ele>1865.2</ele><time>2024-08-02T13:40:44Z</time></trkpt>
<trkpt lat="46.20367" lon="7.45202"><ele>1864.8</ele><time>2024-08-02T13:40:45Z</time></trkpt>
<trkpt lat="46.2037" lon="7.45196"><ele>1863.8</ele><time>2024-08-02T13:40:46Z</time></trkpt>
<trkpt lat="46.2038" lon="7.45193"><ele>1863</ele><time>2024-08-02T13:40:48Z</time></trkpt>
<trkpt lat="46.20386" lon="7.45193"><ele>1862.6</ele><time>2024-08-02T13:40:49Z</time></trkpt>
<trkpt lat="46.20392" lon="7.45191"><ele>1862.4</ele><time>2024-08-02T13:40:50Z</time></trkpt>
<trkpt lat="46.20399" lon="7.45189"><ele>1862.2</ele><time>2024-08-02T13:40:51Z</time></trkpt>
<trkpt lat="46.20405" lon="7.45188"><ele>1860.4</ele><time>2024-08-02T13:40:52Z</time></trkpt>
<trkpt lat="46.20411" lon="7.45186"><ele>1859.8</ele><time>2024-08-02T13:40:53Z</time></trkpt>
<trkpt lat="46.20426" lon="7.45182"><ele>1858.8</ele><time>2024-08-02T13:40:55Z</time></trkpt>
<trkpt lat="46.20433" lon="7.45181"><ele>1857.2</ele><time>2024-08-02T13:40:56Z</time></trkpt>
<trkpt lat="46.20459" lon="7.45177"><ele>1855</ele><time>2024-08-02T13:40:59Z</time></trkpt>
<trkpt lat="46.20477" lon="7.45174"><ele>1854</ele><time>2024-08-02T13:41:01Z</time></trkpt>
<trkpt lat="46.20486" lon="7.45174"><ele>1852.4</ele><time>2024-08-02T13:41:02Z</time></trkpt>
<trkpt lat="46.20495" lon="7.45176"><ele>1851.4</ele><time>2024-08-02T13:41:03Z</time></trkpt>
<trkpt lat="46.20504" lon="7.45178"><ele>1851.2</ele><time>2024-08-02T13:41:04Z</time></trkpt>
<trkpt lat="46.20521" lon="7.45182"><ele>1849.4</ele><time>2024-08-02T13:41:06Z</time></trkpt>
<trkpt lat="46.20541" lon="7.45184"><ele>1847</ele><time>2024-08-02T13:41:08Z</time></trkpt>
<trkpt lat="46.20551" lon="7.45186"><ele>1846.6</ele><time>2024-08-02T13:41:09Z</time></trkpt>
<trkpt lat="46.20561" lon="7.4519"><ele>1846</ele><time>2024-08-02T13:41:10Z</time></trkpt>
<trkpt lat="46.2058" lon="7.45196"><ele>1844.6</ele><time>2024-08-02T13:41:12Z</time></trkpt>
<trkpt lat="46.2059" lon="7.45196"><ele>1844.2</ele><time>2024-08-02T13:41:13Z</time></trkpt>
<trkpt lat="46.20601" lon="7.45195"><ele>1843.2</ele><time>2024-08-02T13:41:14Z</time></trkpt>
<trkpt lat="46.20622" lon="7.45189"><ele>1841.8</ele><time>2024-08-02T13:41:16Z</time></trkpt>
<trkpt lat="46.20633" lon="7.45184"><ele>1840.8</ele><time>2024-08-02T13:41:17Z</time></trkpt>
<trkpt lat="46.20643" lon="7.45179"><ele>1839.4</ele><time>2024-08-02T13:41:18Z</time></trkpt>
<trkpt lat="46.2067" lon="7.45162"><ele>1838.4</ele><time>2024-08-02T13:41:21Z</time></trkpt>
<trkpt lat="46.20678" lon="7.45158"><ele>1838</ele><time>2024-08-02T13:41:22Z</time></trkpt>
<trkpt lat="46.20687" lon="7.45156"><ele>1837.4</ele><time>2024-08-02T13:41:23Z</time></trkpt>
<trkpt lat="46.20696" lon="7.45154"><ele>1835.8</ele><time>2024-08-02T13:41:24Z</time></trkpt>
<trkpt lat="46.20716" lon="7.45151"><ele>1834.8</ele><time>2024-08-02T13:41:26Z</time></trkpt>
<trkpt lat="46.20726" lon="7.4515"><ele>1833.6</ele><time>2024-08-02T13:41:27Z</time></trkpt>
<trkpt lat="46.20748" lon="7.45147"><ele>1831.8</ele><time>2024-08-02T13:41:29Z</time></trkpt>
<trkpt lat="46.20758" lon="7.45147"><ele>1830.8</ele><time>2024-08-02T13:41:30Z</time></trkpt>
<trkpt lat="46.20779" lon="7.45146"><ele>1828.8</ele><time>2024-08-02T13:41:32Z</time></trkpt>
<trkpt lat="46.20789" lon="7.45146"><ele>1828.2</ele><time>2024-08-02T13:41:33Z</time></trkpt>
<trkpt lat="46.20811" lon="7.45152"><ele>1826.8</ele><time>2024-08-02T13:41:35Z</time></trkpt>
<trkpt lat="46.20822" lon="7.45155"><ele>1825.6</ele><time>2024-08-02T13:41:36Z</time></trkpt>
<trkpt lat="46.20833" lon="7.45157"><ele>1825</ele><time>2024-08-02T13:41:37Z</time></trkpt>
<trkpt lat="46.20844" lon="7.45155"><ele>1824.2</ele><time>2024-08-02T13:41:38Z</time></trkpt>
<trkpt lat="46.20866" lon="7.45152"><ele>1821.4</ele><time>2024-08-02T13:41:40Z</time></trkpt>
<trkpt lat="46.20878" lon="7.45152"><ele>1820.4</ele><time>2024-08-02T13:41:41Z</time></trkpt>
<trkpt lat="46.20888" lon="7.45151"><ele>1818.8</ele><time>2024-08-02T13:41:42Z</time></trkpt>
<trkpt lat="46.20899" lon="7.45151"><ele>1817</ele><time>2024-08-02T13:41:43Z</time></trkpt>
<trkpt lat="46.20921" lon="7.45148"><ele>1814.6</ele><time>2024-08-02T13:41:45Z</time></trkpt>
<trkpt lat="46.20933" lon="7.45146"><ele>1813.4</ele><time>2024-08-02T13:41:46Z</time></trkpt>
<trkpt lat="46.20945" lon="7.45144"><ele>1812.6</ele><time>2024-08-02T13:41:47Z</time></trkpt>
<trkpt lat="46.20957" lon="7.45142"><ele>1812</ele><time>2024-08-02T13:41:48Z</time></trkpt>
<trkpt lat="46.20969" lon="7.4514"><ele>1810.8</ele><time>2024-08-02T13:41:49Z</time></trkpt>
<trkpt lat="46.20982" lon="7.45138"><ele>1809.2</ele><time>2024-08-02T13:41:50Z</time></trkpt>
<trkpt lat="46.21005" lon="7.4513"><ele>1807.4</ele><time>2024-08-02T13:41:52Z</time></trkpt>
<trkpt lat="46.21016" lon="7.45125"><ele>1807</ele><time>2024-08-02T13:41:53Z</time></trkpt>
<trkpt lat="46.21027" lon="7.45119"><ele>1806</ele><time>2024-08-02T13:41:54Z</time></trkpt>
<trkpt lat="46.21038" lon="7.45112"><ele>1804.6</ele><time>2024-08-02T13:41:55Z</time></trkpt>
<trkpt lat="46.21059" lon="7.45094"><ele>1803.4</ele><time>2024-08-02T13:41:57Z</time></trkpt>
<trkpt lat="46.21081" lon="7.45077"><ele>1801.2</ele><time>2024-08-02T13:41:59Z</time></trkpt>
<trkpt lat="46.21102" lon="7.45062"><ele>1799.8</ele><time>2024-08-02T13:42:01Z</time></trkpt>
<trkpt lat="46.21113" lon="7.45054"><ele>1799.2</ele><time>2024-08-02T13:42:02Z</time></trkpt>
<trkpt lat="46.21123" lon="7.45046"><ele>1798</ele><time>2024-08-02T13:42:03Z</time></trkpt>
<trkpt lat="46.21134" lon="7.45038"><ele>1796</ele><time>2024-08-02T13:42:04Z</time></trkpt>
<trkpt lat="46.21153" lon="7.45022"><ele>1794.6</ele><time>2024-08-02T13:42:06Z</time></trkpt>
<trkpt lat="46.21163" lon="7.45016"><ele>1794.2</ele><time>2024-08-02T13:42:07Z</time></trkpt>
<trkpt lat="46.21173" lon="7.45011"><ele>1793.4</ele><time>2024-08-02T13:42:08Z</time></trkpt>
<trkpt lat="46.21183" lon="7.45006"><ele>1792.2</ele><time>2024-08-02T13:42:09Z</time></trkpt>
<trkpt lat="46.21203" lon="7.44995"><ele>1790.8</ele><time>2024-08-02T13:42:11Z</time></trkpt>
<trkpt lat="46.21214" lon="7.44988"><ele>1790</ele><time>2024-08-02T13:42:12Z</time></trkpt>
<trkpt lat="46.21224" lon="7.44981"><ele>1789.4</ele><time>2024-08-02T13:42:13Z</time></trkpt>
<trkpt lat="46.21242" lon="7.44966"><ele>1788.2</ele><time>2024-08-02T13:42:15Z</time></trkpt>
<trkpt lat="46.21249" lon="7.44957"><ele>1787.8</ele><time>2024-08-02T13:42:16Z</time></trkpt>
<trkpt lat="46.21256" lon="7.44948"><ele>1786.6</ele><time>2024-08-02T13:42:17Z</time></trkpt>
<trkpt lat="46.21263" lon="7.44939"><ele>1785.2</ele><time>2024-08-02T13:42:18Z</time></trkpt>
<trkpt lat="46.21276" lon="7.44921"><ele>1784.2</ele><time>2024-08-02T13:42:20Z</time></trkpt>
<trkpt lat="46.21283" lon="7.44915"><ele>1783.8</ele><time>2024-08-02T13:42:21Z</time></trkpt>
<trkpt lat="46.2129" lon="7.44908"><ele>1783.2</ele><time>2024-08-02T13:42:22Z</time></trkpt>
<trkpt lat="46.21307" lon="7.44888"><ele>1782</ele><time>2024-08-02T13:42:25Z</time></trkpt>
<trkpt lat="46.21312" lon="7.44881"><ele>1781</ele><time>2024-08-02T13:42:26Z</time></trkpt>
<trkpt lat="46.21316" lon="7.44872"><ele>1780.6</ele><time>2024-08-02T13:42:27Z</time></trkpt>
<trkpt lat="46.21322" lon="7.44851"><ele>1779.6</ele><time>2024-08-02T13:42:29Z</time></trkpt>
<trkpt lat="46.21324" lon="7.44841"><ele>1778.8</ele><time>2024-08-02T13:42:30Z</time></trkpt>
<trkpt lat="46.21328" lon="7.44831"><ele>1778.4</ele><time>2024-08-02T13:42:31Z</time></trkpt>
<trkpt lat="46.21333" lon="7.44823"><ele>1777.6</ele><time>2024-08-02T13:42:32Z</time></trkpt>
<trkpt lat="46.21338" lon="7.44815"><ele>1777</ele><time>2024-08-02T13:42:33Z</time></trkpt>
<trkpt lat="46.21345" lon="7.44808"><ele>1776.2</ele><time>2024-08-02T13:42:34Z</time></trkpt>
<trkpt lat="46.21353" lon="7.44803"><ele>1775.4</ele><time>2024-08-02T13:42:35Z</time></trkpt>
<trkpt lat="46.21361" lon="7.44797"><ele>1774.6</ele><time>2024-08-02T13:42:36Z</time></trkpt>
<trkpt lat="46.21377" lon="7.44782"><ele>1773.2</ele><time>2024-08-02T13:42:38Z</time></trkpt>
<trkpt lat="46.21393" lon="7.44763"><ele>1771.4</ele><time>2024-08-02T13:42:40Z</time></trkpt>
<trkpt lat="46.21409" lon="7.44742"><ele>1769.6</ele><time>2024-08-02T13:42:42Z</time></trkpt>
<trkpt lat="46.21418" lon="7.44732"><ele>1768.6</ele><time>2024-08-02T13:42:43Z</time></trkpt>
<trkpt lat="46.21427" lon="7.44721"><ele>1766.8</ele><time>2024-08-02T13:42:44Z</time></trkpt>
<trkpt lat="46.21436" lon="7.44711"><ele>1765.8</ele><time>2024-08-02T13:42:45Z</time></trkpt>
<trkpt lat="46.21445" lon="7.44701"><ele>1764.6</ele><time>2024-08-02T13:42:46Z</time></trkpt>
<trkpt lat="46.21462" lon="7.44678"><ele>1762</ele><time>2024-08-02T13:42:48Z</time></trkpt>
<trkpt lat="46.21469" lon="7.44664"><ele>1761.2</ele><time>2024-08-02T13:42:49Z</time></trkpt>
<trkpt lat="46.21474" lon="7.44648"><ele>1760.6</ele><time>2024-08-02T13:42:50Z</time></trkpt>
<trkpt lat="46.21478" lon="7.44631"><ele>1759.4</ele><time>2024-08-02T13:42:51Z</time></trkpt>
<trkpt lat="46.21486" lon="7.44596"><ele>1756.8</ele><time>2024-08-02T13:42:53Z</time></trkpt>
<trkpt lat="46.21494" lon="7.44562"><ele>1755.2</ele><time>2024-08-02T13:42:55Z</time></trkpt>
<trkpt lat="46.21499" lon="7.44545"><ele>1753.4</ele><time>2024-08-02T13:42:56Z</time></trkpt>
<trkpt lat="46.21504" lon="7.44528"><ele>1752.2</ele><time>2024-08-02T13:42:57Z</time></trkpt>
<trkpt lat="46.2151" lon="7.44511"><ele>1751</ele><time>2024-08-02T13:42:58Z</time></trkpt>
<trkpt lat="46.21518" lon="7.44476"><ele>1748.8</ele><time>2024-08-02T13:43:00Z</time></trkpt>
<trkpt lat="46.21522" lon="7.44457"><ele>1746.8</ele><time>2024-08-02T13:43:01Z</time></trkpt>
<trkpt lat="46.21525" lon="7.44439"><ele>1745</ele><time>2024-08-02T13:43:02Z</time></trkpt>
<trkpt lat="46.21528" lon="7.4442"><ele>1744</ele><time>2024-08-02T13:43:03Z</time></trkpt>
<trkpt lat="46.21533" lon="7.44382"><ele>1742.6</ele><time>2024-08-02T13:43:05Z</time></trkpt>
<trkpt lat="46.21534" lon="7.44365"><ele>1741.4</ele><time>2024-08-02T13:43:06Z</time></trkpt>
<trkpt lat="46.21536" lon="7.4435"><ele>1740.2</ele><time>2024-08-02T13:43:07Z</time></trkpt>
<trkpt lat="46.21539" lon="7.44336"><ele>1739.2</ele><time>2024-08-02T13:43:08Z</time></trkpt>
<trkpt lat="46.21544" lon="7.44324"><ele>1738.8</ele><time>2024-08-02T13:43:09Z</time></trkpt>
<trkpt lat="46.21551" lon="7.44316"><ele>1738.4</ele><time>2024-08-02T13:43:10Z</time></trkpt>
<trkpt lat="46.21567" lon="7.44307"><ele>1737.8</ele><time>2024-08-02T13:43:12Z</time></trkpt>
<trkpt lat="46.21576" lon="7.44306"><ele>1737.2</ele><time>2024-08-02T13:43:13Z</time></trkpt>
<trkpt lat="46.21584" lon="7.44307"><ele>1736.4</ele><time>2024-08-02T13:43:14Z</time></trkpt>
<trkpt lat="46.21592" lon="7.44304"><ele>1736.2</ele><time>2024-08-02T13:43:15Z</time></trkpt>
<trkpt lat="46.21598" lon="7.44297"><ele>1735.6</ele><time>2024-08-02T13:43:16Z</time></trkpt>
<trkpt lat="46.21599" lon="7.44288"><ele>1735.2</ele><time>2024-08-02T13:43:17Z</time></trkpt>
<trkpt lat="46.21596" lon="7.44281"><ele>1735</ele><time>2024-08-02T13:43:18Z</time></trkpt>
<trkpt lat="46.21586" lon="7.44276"><ele>1734.6</ele><time>2024-08-02T13:43:20Z</time></trkpt>
<trkpt lat="46.21579" lon="7.44277"><ele>1733.8</ele><time>2024-08-02T13:43:21Z</time></trkpt>
<trkpt lat="46.21572" lon="7.4428"><ele>1733.4</ele><time>2024-08-02T13:43:22Z</time></trkpt>
<trkpt lat="46.21564" lon="7.44283"><ele>1733</ele><time>2024-08-02T13:43:23Z</time></trkpt>
<trkpt lat="46.21556" lon="7.44286"><ele>1732.2</ele><time>2024-08-02T13:43:24Z</time></trkpt>
<trkpt lat="46.21548" lon="7.44291"><ele>1732</ele><time>2024-08-02T13:43:25Z</time></trkpt>
<trkpt lat="46.21541" lon="7.44298"><ele>1731.2</ele><time>2024-08-02T13:43:26Z</time></trkpt>
<trkpt lat="46.21533" lon="7.44305"><ele>1730.4</ele><time>2024-08-02T13:43:27Z</time></trkpt>
<trkpt lat="46.21527" lon="7.44315"><ele>1729.6</ele><time>2024-08-02T13:43:28Z</time></trkpt>
<trkpt lat="46.21521" lon="7.44326"><ele>1728.6</ele><time>2024-08-02T13:43:29Z</time></trkpt>
<trkpt lat="46.21516" lon="7.44338"><ele>1727.4</ele><time>2024-08-02T13:43:30Z</time></trkpt>
<trkpt lat="46.2151" lon="7.44352"><ele>1726.2</ele><time>2024-08-02T13:43:31Z</time></trkpt>
<trkpt lat="46.21496" lon="7.44376"><ele>1725</ele><time>2024-08-02T13:43:33Z</time></trkpt>
<trkpt lat="46.21487" lon="7.44383"><ele>1723.6</ele><time>2024-08-02T13:43:34Z</time></trkpt>
<trkpt lat="46.21477" lon="7.44386"><ele>1722.4</ele><time>2024-08-02T13:43:35Z</time></trkpt>
<trkpt lat="46.21467" lon="7.44388"><ele>1721.4</ele><time>2024-08-02T13:43:36Z</time></trkpt>
<trkpt lat="46.21456" lon="7.44391"><ele>1719.8</ele><time>2024-08-02T13:43:37Z</time></trkpt>
<trkpt lat="46.21446" lon="7.44395"><ele>1718</ele><time>2024-08-02T13:43:38Z</time></trkpt>
<trkpt lat="46.21429" lon="7.44414"><ele>1716.8</ele><time>2024-08-02T13:43:40Z</time></trkpt>
<trkpt lat="46.21416" lon="7.4444"><ele>1715.2</ele><time>2024-08-02T13:43:42Z</time></trkpt>
<trkpt lat="46.21411" lon="7.44455"><ele>1714.4</ele><time>2024-08-02T13:43:43Z</time></trkpt>
<trkpt lat="46.21406" lon="7.44469"><ele>1713.6</ele><time>2024-08-02T13:43:44Z</time></trkpt>
<trkpt lat="46.21401" lon="7.44485"><ele>1711.8</ele><time>2024-08-02T13:43:45Z</time></trkpt>
<trkpt lat="46.21388" lon="7.44511"><ele>1709.8</ele><time>2024-08-02T13:43:47Z</time></trkpt>
<trkpt lat="46.2138" lon="7.44521"><ele>1708.6</ele><time>2024-08-02T13:43:48Z</time></trkpt>
<trkpt lat="46.21371" lon="7.44529"><ele>1708.2</ele><time>2024-08-02T13:43:49Z</time></trkpt>
<trkpt lat="46.2136" lon="7.44533"><ele>1707.6</ele><time>2024-08-02T13:43:50Z</time></trkpt>
<trkpt lat="46.21349" lon="7.44535"><ele>1705.6</ele><time>2024-08-02T13:43:51Z</time></trkpt>
<trkpt lat="46.21326" lon="7.44532"><ele>1703.8</ele><time>2024-08-02T13:43:53Z</time></trkpt>
<trkpt lat="46.21315" lon="7.44531"><ele>1702.8</ele><time>2024-08-02T13:43:54Z</time></trkpt>
<trkpt lat="46.21303" lon="7.44532"><ele>1701.6</ele><time>2024-08-02T13:43:55Z</time></trkpt>
<trkpt lat="46.21292" lon="7.44533"><ele>1700</ele><time>2024-08-02T13:43:56Z</time></trkpt>
<trkpt lat="46.21282" lon="7.44537"><ele>1698.6</ele><time>2024-08-02T13:43:57Z</time></trkpt>
<trkpt lat="46.21271" lon="7.44541"><ele>1698</ele><time>2024-08-02T13:43:58Z</time></trkpt>
<trkpt lat="46.21261" lon="7.44544"><ele>1696.8</ele><time>2024-08-02T13:43:59Z</time></trkpt>
<trkpt lat="46.21251" lon="7.44545"><ele>1696.2</ele><time>2024-08-02T13:44:00Z</time></trkpt>
<trkpt lat="46.21241" lon="7.44543"><ele>1695.8</ele><time>2024-08-02T13:44:01Z</time></trkpt>
<trkpt lat="46.21231" lon="7.44538"><ele>1694.8</ele><time>2024-08-02T13:44:02Z</time></trkpt>
<trkpt lat="46.21222" lon="7.4453"><ele>1694</ele><time>2024-08-02T13:44:03Z</time></trkpt>
<trkpt lat="46.21213" lon="7.44522"><ele>1692.4</ele><time>2024-08-02T13:44:04Z</time></trkpt>
<trkpt lat="46.21204" lon="7.44516"><ele>1691.6</ele><time>2024-08-02T13:44:05Z</time></trkpt>
<trkpt lat="46.21194" lon="7.44513"><ele>1691</ele><time>2024-08-02T13:44:06Z</time></trkpt>
<trkpt lat="46.21184" lon="7.4451"><ele>1689.8</ele><time>2024-08-02T13:44:07Z</time></trkpt>
<trkpt lat="46.21173" lon="7.44509"><ele>1689</ele><time>2024-08-02T13:44:08Z</time></trkpt>
<trkpt lat="46.21162" lon="7.4451"><ele>1688.4</ele><time>2024-08-02T13:44:09Z</time></trkpt>
<trkpt lat="46.21141" lon="7.44513"><ele>1686.2</ele><time>2024-08-02T13:44:11Z</time></trkpt>
<trkpt lat="46.2113" lon="7.44516"><ele>1685</ele><time>2024-08-02T13:44:12Z</time></trkpt>
<trkpt lat="46.21107" lon="7.44524"><ele>1683</ele><time>2024-08-02T13:44:14Z</time></trkpt>
<trkpt lat="46.21096" lon="7.44529"><ele>1681.8</ele><time>2024-08-02T13:44:15Z</time></trkpt>
<trkpt lat="46.21084" lon="7.44535"><ele>1680.6</ele><time>2024-08-02T13:44:16Z</time></trkpt>
<trkpt lat="46.21073" lon="7.44542"><ele>1678.6</ele><time>2024-08-02T13:44:17Z</time></trkpt>
<trkpt lat="46.21061" lon="7.4455"><ele>1677.4</ele><time>2024-08-02T13:44:18Z</time></trkpt>
<trkpt lat="46.2105" lon="7.44557"><ele>1675.8</ele><time>2024-08-02T13:44:19Z</time></trkpt>
<trkpt lat="46.21038" lon="7.44562"><ele>1674.8</ele><time>2024-08-02T13:44:20Z</time></trkpt>
<trkpt lat="46.21027" lon="7.44567"><ele>1673.2</ele><time>2024-08-02T13:44:21Z</time></trkpt>
<trkpt lat="46.20997" lon="7.44583"><ele>1670.8</ele><time>2024-08-02T13:44:24Z</time></trkpt>
<trkpt lat="46.20987" lon="7.44588"><ele>1669.6</ele><time>2024-08-02T13:44:25Z</time></trkpt>
<trkpt lat="46.20968" lon="7.44599"><ele>1668.2</ele><time>2024-08-02T13:44:27Z</time></trkpt>
<trkpt lat="46.2095" lon="7.44611"><ele>1666.8</ele><time>2024-08-02T13:44:29Z</time></trkpt>
<trkpt lat="46.20941" lon="7.44615"><ele>1665.8</ele><time>2024-08-02T13:44:30Z</time></trkpt>
<trkpt lat="46.20932" lon="7.44616"><ele>1664.8</ele><time>2024-08-02T13:44:31Z</time></trkpt>
<trkpt lat="46.20922" lon="7.44614"><ele>1663.4</ele><time>2024-08-02T13:44:32Z</time></trkpt>
<trkpt lat="46.20913" lon="7.44609"><ele>1662.6</ele><time>2024-08-02T13:44:33Z</time></trkpt>
<trkpt lat="46.20903" lon="7.44603"><ele>1661.4</ele><time>2024-08-02T13:44:34Z</time></trkpt>
<trkpt lat="46.20884" lon="7.4459"><ele>1659.6</ele><time>2024-08-02T13:44:36Z</time></trkpt>
<trkpt lat="46.20875" lon="7.44583"><ele>1659</ele><time>2024-08-02T13:44:37Z</time></trkpt>
<trkpt lat="46.20865" lon="7.44576"><ele>1658.4</ele><time>2024-08-02T13:44:38Z</time></trkpt>
<trkpt lat="46.20846" lon="7.44563"><ele>1655.4</ele><time>2024-08-02T13:44:40Z</time></trkpt>
<trkpt lat="46.20827" lon="7.44549"><ele>1653.6</ele><time>2024-08-02T13:44:42Z</time></trkpt>
<trkpt lat="46.20818" lon="7.44541"><ele>1653.2</ele><time>2024-08-02T13:44:43Z</time></trkpt>
<trkpt lat="46.20799" lon="7.44528"><ele>1651.4</ele><time>2024-08-02T13:44:45Z</time></trkpt>
<trkpt lat="46.2079" lon="7.44523"><ele>1650</ele><time>2024-08-02T13:44:46Z</time></trkpt>
<trkpt lat="46.20772" lon="7.4451"><ele>1648</ele><time>2024-08-02T13:44:48Z</time></trkpt>
<trkpt lat="46.20762" lon="7.44501"><ele>1647.2</ele><time>2024-08-02T13:44:49Z</time></trkpt>
<trkpt lat="46.20754" lon="7.44492"><ele>1646.8</ele><time>2024-08-02T13:44:50Z</time></trkpt>
<trkpt lat="46.20745" lon="7.44483"><ele>1645.4</ele><time>2024-08-02T13:44:51Z</time></trkpt>
<trkpt lat="46.20737" lon="7.44473"><ele>1644</ele><time>2024-08-02T13:44:52Z</time></trkpt>
<trkpt lat="46.20724" lon="7.4445"><ele>1642</ele><time>2024-08-02T13:44:54Z</time></trkpt>
<trkpt lat="46.20719" lon="7.44437"><ele>1640</ele><time>2024-08-02T13:44:55Z</time></trkpt>
<trkpt lat="46.20713" lon="7.44424"><ele>1639.4</ele><time>2024-08-02T13:44:56Z</time></trkpt>
<trkpt lat="46.20706" lon="7.44412"><ele>1638.6</ele><time>2024-08-02T13:44:57Z</time></trkpt>
<trkpt lat="46.20698" lon="7.44401"><ele>1637.6</ele><time>2024-08-02T13:44:58Z</time></trkpt>
<trkpt lat="46.2069" lon="7.44392"><ele>1636.4</ele><time>2024-08-02T13:44:59Z</time></trkpt>
<trkpt lat="46.20681" lon="7.44382"><ele>1635</ele><time>2024-08-02T13:45:00Z</time></trkpt>
<trkpt lat="46.20671" lon="7.44374"><ele>1633.8</ele><time>2024-08-02T13:45:01Z</time></trkpt>
<trkpt lat="46.20661" lon="7.44368"><ele>1632.2</ele><time>2024-08-02T13:45:02Z</time></trkpt>
<trkpt lat="46.2064" lon="7.44356"><ele>1630.4</ele><time>2024-08-02T13:45:04Z</time></trkpt>
<trkpt lat="46.20621" lon="7.4434"><ele>1629.4</ele><time>2024-08-02T13:45:06Z</time></trkpt>
<trkpt lat="46.20604" lon="7.44317"><ele>1627.4</ele><time>2024-08-02T13:45:08Z</time></trkpt>
<trkpt lat="46.20596" lon="7.44303"><ele>1625.6</ele><time>2024-08-02T13:45:09Z</time></trkpt>
<trkpt lat="46.20589" lon="7.44288"><ele>1624.4</ele><time>2024-08-02T13:45:10Z</time></trkpt>
<trkpt lat="46.20584" lon="7.44274"><ele>1623.6</ele><time>2024-08-02T13:45:11Z</time></trkpt>
<trkpt lat="46.20582" lon="7.44259"><ele>1622.8</ele><time>2024-08-02T13:45:12Z</time></trkpt>
<trkpt lat="46.2058" lon="7.44244"><ele>1621.6</ele><time>2024-08-02T13:45:13Z</time></trkpt>
<trkpt lat="46.20579" lon="7.44229"><ele>1620.2</ele><time>2024-08-02T13:45:14Z</time></trkpt>
<trkpt lat="46.20578" lon="7.44195"><ele>1618.6</ele><time>2024-08-02T13:45:16Z</time></trkpt>
<trkpt lat="46.20574" lon="7.44162"><ele>1615.6</ele><time>2024-08-02T13:45:18Z</time></trkpt>
<trkpt lat="46.2057" lon="7.44146"><ele>1613.8</ele><time>2024-08-02T13:45:19Z</time></trkpt>
<trkpt lat="46.20566" lon="7.44132"><ele>1612.8</ele><time>2024-08-02T13:45:20Z</time></trkpt>
<trkpt lat="46.20561" lon="7.44117"><ele>1612.2</ele><time>2024-08-02T13:45:21Z</time></trkpt>
<trkpt lat="46.20548" lon="7.44092"><ele>1610.8</ele><time>2024-08-02T13:45:23Z</time></trkpt>
<trkpt lat="46.2054" lon="7.44082"><ele>1609.2</ele><time>2024-08-02T13:45:24Z</time></trkpt>
<trkpt lat="46.20524" lon="7.44064"><ele>1607.2</ele><time>2024-08-02T13:45:26Z</time></trkpt>
<trkpt lat="46.20516" lon="7.44056"><ele>1606.6</ele><time>2024-08-02T13:45:27Z</time></trkpt>
<trkpt lat="46.20508" lon="7.44049"><ele>1605.6</ele><time>2024-08-02T13:45:28Z</time></trkpt>
<trkpt lat="46.20501" lon="7.44043"><ele>1604.4</ele><time>2024-08-02T13:45:29Z</time></trkpt>
<trkpt lat="46.20487" lon="7.44028"><ele>1602.8</ele><time>2024-08-02T13:45:31Z</time></trkpt>
<trkpt lat="46.20481" lon="7.44021"><ele>1602</ele><time>2024-08-02T13:45:32Z</time></trkpt>
<trkpt lat="46.20474" lon="7.44014"><ele>1600.6</ele><time>2024-08-02T13:45:33Z</time></trkpt>
<trkpt lat="46.20468" lon="7.44007"><ele>1600</ele><time>2024-08-02T13:45:34Z</time></trkpt>
<trkpt lat="46.20463" lon="7.44001"><ele>1599.4</ele><time>2024-08-02T13:45:35Z</time></trkpt>
<trkpt lat="46.20456" lon="7.43996"><ele>1598.4</ele><time>2024-08-02T13:45:36Z</time></trkpt>
<trkpt lat="46.20451" lon="7.43991"><ele>1597.4</ele><time>2024-08-02T13:45:37Z</time></trkpt>
<trkpt lat="46.20441" lon="7.43979"><ele>1597</ele><time>2024-08-02T13:45:39Z</time></trkpt>
<trkpt lat="46.20441" lon="7.43971"><ele>1596.4</ele><time>2024-08-02T13:45:40Z</time></trkpt>
<trkpt lat="46.20444" lon="7.43965"><ele>1596</ele><time>2024-08-02T13:45:41Z</time></trkpt>
<trkpt lat="46.20449" lon="7.43963"><ele>1595.8</ele><time>2024-08-02T13:45:42Z</time></trkpt>
<trkpt lat="46.20454" lon="7.43965"><ele>1595.2</ele><time>2024-08-02T13:45:43Z</time></trkpt>
<trkpt lat="46.20459" lon="7.43969"><ele>1594.6</ele><time>2024-08-02T13:45:44Z</time></trkpt>
<trkpt lat="46.20464" lon="7.43973"><ele>1594.2</ele><time>2024-08-02T13:45:45Z</time></trkpt>
<trkpt lat="46.20475" lon="7.43981"><ele>1593</ele><time>2024-08-02T13:45:47Z</time></trkpt>
<trkpt lat="46.20495" lon="7.4399"><ele>1592.2</ele><time>2024-08-02T13:45:50Z</time></trkpt>
<trkpt lat="46.20502" lon="7.43993"><ele>1592</ele><time>2024-08-02T13:45:51Z</time></trkpt>
<trkpt lat="46.20522" lon="7.44006"><ele>1590.4</ele><time>2024-08-02T13:45:54Z</time></trkpt>
<trkpt lat="46.2053" lon="7.44011"><ele>1589.8</ele><time>2024-08-02T13:45:55Z</time></trkpt>
<trkpt lat="46.20537" lon="7.44016"><ele>1589.2</ele><time>2024-08-02T13:45:56Z</time></trkpt>
<trkpt lat="46.20552" lon="7.44026"><ele>1588.2</ele><time>2024-08-02T13:45:58Z</time></trkpt>
<trkpt lat="46.20558" lon="7.4403"><ele>1587</ele><time>2024-08-02T13:45:59Z</time></trkpt>
<trkpt lat="46.20563" lon="7.44034"><ele>1586.4</ele><time>2024-08-02T13:46:00Z</time></trkpt>
<trkpt lat="46.20568" lon="7.44036"><ele>1586</ele><time>2024-08-02T13:46:01Z</time></trkpt>
<trkpt lat="46.20572" lon="7.44035"><ele>1585.6</ele><time>2024-08-02T13:46:02Z</time></trkpt>
<trkpt lat="46.20574" lon="7.44032"><ele>1585</ele><time>2024-08-02T13:46:03Z</time></trkpt>
<trkpt lat="46.20574" lon="7.44024"><ele>1584.6</ele><time>2024-08-02T13:46:05Z</time></trkpt>
<trkpt lat="46.20571" lon="7.44019"><ele>1584.2</ele><time>2024-08-02T13:46:06Z</time></trkpt>
<trkpt lat="46.20568" lon="7.44015"><ele>1583</ele><time>2024-08-02T13:46:07Z</time></trkpt>
<trkpt lat="46.20566" lon="7.44011"><ele>1581.8</ele><time>2024-08-02T13:46:08Z</time></trkpt>
<trkpt lat="46.20565" lon="7.44006"><ele>1580.2</ele><time>2024-08-02T13:46:09Z</time></trkpt>
<trkpt lat="46.20563" lon="7.44002"><ele>1579.4</ele><time>2024-08-02T13:46:10Z</time></trkpt>
<trkpt lat="46.20562" lon="7.43999"><ele>1578</ele><time>2024-08-02T13:46:11Z</time></trkpt>
<trkpt lat="46.20561" lon="7.43996"><ele>1576.6</ele><time>2024-08-02T13:46:12Z</time></trkpt>
<trkpt lat="46.20559" lon="7.43991"><ele>1575.4</ele><time>2024-08-02T13:46:14Z</time></trkpt>
<trkpt lat="46.20558" lon="7.4399"><ele>1574.4</ele><time>2024-08-02T13:46:15Z</time></trkpt>
<trkpt lat="46.20559" lon="7.43988"><ele>1574.2</ele><time>2024-08-02T13:46:16Z</time></trkpt>
<trkpt lat="46.20561" lon="7.43983"><ele>1573.4</ele><time>2024-08-02T13:46:18Z</time></trkpt>
<trkpt lat="46.20563" lon="7.4398"><ele>1573</ele><time>2024-08-02T13:46:19Z</time></trkpt>
<trkpt lat="46.20564" lon="7.43979"><ele>1572.4</ele><time>2024-08-02T13:46:20Z</time></trkpt>
<trkpt lat="46.20566" lon="7.43976"><ele>1571.6</ele><time>2024-08-02T13:46:21Z</time></trkpt>
<trkpt lat="46.20569" lon="7.43971"><ele>1569.6</ele><time>2024-08-02T13:46:23Z</time></trkpt>
<trkpt lat="46.20573" lon="7.43967"><ele>1567.6</ele><time>2024-08-02T13:46:25Z</time></trkpt>
<trkpt lat="46.20575" lon="7.43965"><ele>1566.8</ele><time>2024-08-02T13:46:26Z</time></trkpt>
<trkpt lat="46.20577" lon="7.43963"><ele>1565.8</ele><time>2024-08-02T13:46:27Z</time></trkpt>
<trkpt lat="46.20581" lon="7.43962"><ele>1564</ele><time>2024-08-02T13:46:29Z</time></trkpt>
<trkpt lat="46.20588" lon="7.43958"><ele>1562.8</ele><time>2024-08-02T13:46:31Z</time></trkpt>
<trkpt lat="46.20594" lon="7.43957"><ele>1560.8</ele><time>2024-08-02T13:46:33Z</time></trkpt>
<trkpt lat="46.206" lon="7.43956"><ele>1559.6</ele><time>2024-08-02T13:46:35Z</time></trkpt>
<trkpt lat="46.20606" lon="7.43955"><ele>1558</ele><time>2024-08-02T13:46:37Z</time></trkpt>
<trkpt lat="46.20609" lon="7.43954"><ele>1557</ele><time>2024-08-02T13:46:38Z</time></trkpt>
<trkpt lat="46.20614" lon="7.43954"><ele>1555.6</ele><time>2024-08-02T13:46:40Z</time></trkpt>
<trkpt lat="46.20618" lon="7.43953"><ele>1554.6</ele><time>2024-08-02T13:46:42Z</time></trkpt>
<trkpt lat="46.2062" lon="7.43953"><ele>1554.2</ele><time>2024-08-02T13:46:43Z</time></trkpt>
<trkpt lat="46.20624" lon="7.43953"><ele>1553.2</ele><time>2024-08-02T13:46:45Z</time></trkpt>
<trkpt lat="46.2063" lon="7.43953"><ele>1551.4</ele><time>2024-08-02T13:46:48Z</time></trkpt>
<trkpt lat="46.20635" lon="7.43955"><ele>1550</ele><time>2024-08-02T13:46:50Z</time></trkpt>
<trkpt lat="46.2064" lon="7.43957"><ele>1548.4</ele><time>2024-08-02T13:46:52Z</time></trkpt>
<trkpt lat="46.20645" lon="7.43961"><ele>1547</ele><time>2024-08-02T13:46:54Z</time></trkpt>
<trkpt lat="46.2065" lon="7.43963"><ele>1545.4</ele><time>2024-08-02T13:46:56Z</time></trkpt>
<trkpt lat="46.20654" lon="7.43965"><ele>1544.2</ele><time>2024-08-02T13:46:57Z</time></trkpt>
<trkpt lat="46.20659" lon="7.43969"><ele>1542.6</ele><time>2024-08-02T13:46:59Z</time></trkpt>
<trkpt lat="46.20664" lon="7.43973"><ele>1540.8</ele><time>2024-08-02T13:47:01Z</time></trkpt>
<trkpt lat="46.20666" lon="7.43974"><ele>1540</ele><time>2024-08-02T13:47:02Z</time></trkpt>
<trkpt lat="46.20668" lon="7.43972"><ele>1539.4</ele><time>2024-08-02T13:47:03Z</time></trkpt>
<trkpt lat="46.20669" lon="7.4397"><ele>1539</ele><time>2024-08-02T13:47:04Z</time></trkpt>
<trkpt lat="46.2067" lon="7.43962"><ele>1538.2</ele><time>2024-08-02T13:47:06Z</time></trkpt>
<trkpt lat="46.20669" lon="7.43957"><ele>1537.6</ele><time>2024-08-02T13:47:08Z</time></trkpt>
<trkpt lat="46.20667" lon="7.43958"><ele>1537.4</ele><time>2024-08-02T13:47:13Z</time></trkpt>
<trkpt lat="46.20667" lon="7.43957"><ele>1537.2</ele><time>2024-08-02T13:47:16Z</time></trkpt>
<trkpt lat="46.20667" lon="7.43957"><ele>1537.2</ele><time>2024-08-02T13:47:18Z</time></trkpt>
<trkpt lat="46.20666" lon="7.43957"><ele>1537.2</ele><time>2024-08-02T13:47:19Z</time></trkpt>
<trkpt lat="46.2067" lon="7.4396"><ele>1536.8</ele><time>2024-08-02T13:47:25Z</time></trkpt>
<trkpt lat="46.20672" lon="7.43963"><ele>1536.2</ele><time>2024-08-02T13:47:31Z</time></trkpt>
<trkpt lat="46.20672" lon="7.43964"><ele>1536</ele><time>2024-08-02T13:47:32Z</time></trkpt>
<trkpt lat="46.20671" lon="7.43962"><ele>1535.8</ele><time>2024-08-02T13:47:37Z</time></trkpt>
<trkpt lat="46.20672" lon="7.43965"><ele>1535.6</ele><time>2024-08-02T13:47:41Z</time></trkpt>
</trkseg></trk></gpx>